<?xml version='1.0' encoding='UTF-8'?><gpx version="1.1" creator="JPX - https://github.com/jenetics/jpx" xmlns="http://www.topografix.com/GPX/1/1"><trk><trkseg><trkpt lat="43.9619967" lon="12.7504717"><ele>9.0</ele><time>2026-04-18T11:24:56.886Z</time></trkpt><trkpt lat="43.9619283" lon="12.7504933"><ele>9.0</ele><time>2026-04-18T11:25:14.887Z</time></trkpt><trkpt lat="43.961855" lon="12.75042"><ele>9.0</ele><time>2026-04-18T11:25:17.886Z</time></trkpt><trkpt lat="43.9617767" lon="12.7503383"><ele>9.0</ele><time>2026-04-18T11:25:19.887Z</time></trkpt><trkpt lat="43.9617133" lon="12.7502617"><ele>9.0</ele><time>2026-04-18T11:25:21.888Z</time></trkpt><trkpt lat="43.961665" lon="12.7502017"><ele>9.0</ele><time>2026-04-18T11:25:23.886Z</time></trkpt><trkpt lat="43.9615983" lon="12.750225"><ele>9.0</ele><time>2026-04-18T11:25:26.887Z</time></trkpt><trkpt lat="43.9615317" lon="12.7502933"><ele>9.0</ele><time>2026-04-18T11:25:28.887Z</time></trkpt><trkpt lat="43.9614517" lon="12.7504417"><ele>9.0</ele><time>2026-04-18T11:25:30.887Z</time></trkpt><trkpt lat="43.9613683" lon="12.75057"><ele>9.0</ele><time>2026-04-18T11:25:32.887Z</time></trkpt><trkpt lat="43.9613" lon="12.7506617"><ele>9.0</ele><time>2026-04-18T11:25:34.887Z</time></trkpt><trkpt lat="43.9612433" lon="12.7507217"><ele>9.0</ele><time>2026-04-18T11:25:36.886Z</time></trkpt><trkpt lat="43.9611533" lon="12.7507867"><ele>9.0</ele><time>2026-04-18T11:25:38.887Z</time></trkpt><trkpt lat="43.9610217" lon="12.7508067"><ele>9.0</ele><time>2026-04-18T11:25:40.886Z</time></trkpt><trkpt lat="43.9609383" lon="12.7508033"><ele>9.0</ele><time>2026-04-18T11:25:41.887Z</time></trkpt><trkpt lat="43.9607867" lon="12.750795"><ele>9.0</ele><time>2026-04-18T11:25:42.888Z</time></trkpt><trkpt lat="43.9606567" lon="12.750765"><ele>9.0</ele><time>2026-04-18T11:25:43.886Z</time></trkpt><trkpt lat="43.9605517" lon="12.75073"><ele>9.0</ele><time>2026-04-18T11:25:44.886Z</time></trkpt><trkpt lat="43.96047" lon="12.7506883"><ele>9.0</ele><time>2026-04-18T11:25:45.886Z</time></trkpt><trkpt lat="43.9604017" lon="12.7506483"><ele>9.0</ele><time>2026-04-18T11:25:46.887Z</time></trkpt><trkpt lat="43.9603333" lon="12.7506133"><ele>9.0</ele><time>2026-04-18T11:25:47.887Z</time></trkpt><trkpt lat="43.9602383" lon="12.750565"><ele>9.0</ele><time>2026-04-18T11:25:49.887Z</time></trkpt><trkpt lat="43.96012" lon="12.7505883"><ele>9.0</ele><time>2026-04-18T11:25:51.886Z</time></trkpt><trkpt lat="43.9600317" lon="12.7507"><ele>9.0</ele><time>2026-04-18T11:25:53.886Z</time></trkpt><trkpt lat="43.9600117" lon="12.7508167"><ele>9.0</ele><time>2026-04-18T11:25:54.887Z</time></trkpt><trkpt lat="43.9599933" lon="12.750945"><ele>8.833333333333334</ele><time>2026-04-18T11:25:55.887Z</time></trkpt><trkpt lat="43.9599733" lon="12.7510633"><ele>8.666666666666666</ele><time>2026-04-18T11:25:56.886Z</time></trkpt><trkpt lat="43.9599567" lon="12.751175"><ele>8.5</ele><time>2026-04-18T11:25:57.887Z</time></trkpt><trkpt lat="43.959945" lon="12.75129"><ele>8.333333333333332</ele><time>2026-04-18T11:25:58.888Z</time></trkpt><trkpt lat="43.9599333" lon="12.7514067"><ele>8.166666666666666</ele><time>2026-04-18T11:25:59.887Z</time></trkpt><trkpt lat="43.9599183" lon="12.75151"><ele>8.0</ele><time>2026-04-18T11:26:00.889Z</time></trkpt><trkpt lat="43.959905" lon="12.7516133"><ele>8.0</ele><time>2026-04-18T11:26:01.887Z</time></trkpt><trkpt lat="43.95989" lon="12.7517267"><ele>8.0</ele><time>2026-04-18T11:26:02.886Z</time></trkpt><trkpt lat="43.9598783" lon="12.75185"><ele>8.0</ele><time>2026-04-18T11:26:03.887Z</time></trkpt><trkpt lat="43.95986" lon="12.7519817"><ele>8.0</ele><time>2026-04-18T11:26:04.886Z</time></trkpt><trkpt lat="43.9598467" lon="12.7521317"><ele>8.0</ele><time>2026-04-18T11:26:05.888Z</time></trkpt><trkpt lat="43.9598267" lon="12.7522767"><ele>7.75</ele><time>2026-04-18T11:26:06.888Z</time></trkpt><trkpt lat="43.9598133" lon="12.7524333"><ele>7.5</ele><time>2026-04-18T11:26:07.887Z</time></trkpt><trkpt lat="43.9597967" lon="12.7525983"><ele>7.25</ele><time>2026-04-18T11:26:08.887Z</time></trkpt><trkpt lat="43.9597833" lon="12.7527817"><ele>7.0</ele><time>2026-04-18T11:26:09.887Z</time></trkpt><trkpt lat="43.959775" lon="12.752965"><ele>6.75</ele><time>2026-04-18T11:26:10.89Z</time></trkpt><trkpt lat="43.9597617" lon="12.7531483"><ele>6.5</ele><time>2026-04-18T11:26:11.886Z</time></trkpt><trkpt lat="43.9597517" lon="12.7533317"><ele>6.25</ele><time>2026-04-18T11:26:12.886Z</time></trkpt><trkpt lat="43.95974" lon="12.7535133"><ele>6.0</ele><time>2026-04-18T11:26:13.888Z</time></trkpt><trkpt lat="43.959725" lon="12.7536833"><ele>6.0</ele><time>2026-04-18T11:26:14.887Z</time></trkpt><trkpt lat="43.9597133" lon="12.7538433"><ele>6.0</ele><time>2026-04-18T11:26:15.886Z</time></trkpt><trkpt lat="43.959705" lon="12.75399"><ele>6.0</ele><time>2026-04-18T11:26:16.89Z</time></trkpt><trkpt lat="43.959695" lon="12.75412"><ele>6.0</ele><time>2026-04-18T11:26:17.887Z</time></trkpt><trkpt lat="43.9596833" lon="12.7542383"><ele>6.0</ele><time>2026-04-18T11:26:18.887Z</time></trkpt><trkpt lat="43.959675" lon="12.7543567"><ele>6.5</ele><time>2026-04-18T11:26:19.888Z</time></trkpt><trkpt lat="43.9596683" lon="12.7544683"><ele>7.0</ele><time>2026-04-18T11:26:20.885Z</time></trkpt><trkpt lat="43.95966" lon="12.7545667"><ele>7.5</ele><time>2026-04-18T11:26:21.885Z</time></trkpt><trkpt lat="43.959655" lon="12.754655"><ele>8.0</ele><time>2026-04-18T11:26:22.887Z</time></trkpt><trkpt lat="43.95965" lon="12.754745"><ele>8.5</ele><time>2026-04-18T11:26:23.885Z</time></trkpt><trkpt lat="43.9596433" lon="12.7548333"><ele>9.0</ele><time>2026-04-18T11:26:24.885Z</time></trkpt><trkpt lat="43.9596283" lon="12.7549967"><ele>9.0</ele><time>2026-04-18T11:26:26.886Z</time></trkpt><trkpt lat="43.9596217" lon="12.7551533"><ele>9.0</ele><time>2026-04-18T11:26:28.885Z</time></trkpt><trkpt lat="43.95961" lon="12.7553217"><ele>9.0</ele><time>2026-04-18T11:26:30.885Z</time></trkpt><trkpt lat="43.9595933" lon="12.7554733"><ele>9.0</ele><time>2026-04-18T11:26:32.886Z</time></trkpt><trkpt lat="43.959575" lon="12.7556033"><ele>9.0</ele><time>2026-04-18T11:26:34.886Z</time></trkpt><trkpt lat="43.9595617" lon="12.75574"><ele>9.0</ele><time>2026-04-18T11:26:36.885Z</time></trkpt><trkpt lat="43.9595483" lon="12.7558583"><ele>9.0</ele><time>2026-04-18T11:26:38.886Z</time></trkpt><trkpt lat="43.95953" lon="12.7559567"><ele>9.0</ele><time>2026-04-18T11:26:40.887Z</time></trkpt><trkpt lat="43.9594983" lon="12.7560567"><ele>9.0</ele><time>2026-04-18T11:26:42.886Z</time></trkpt><trkpt lat="43.95944" lon="12.7561317"><ele>9.0</ele><time>2026-04-18T11:26:44.885Z</time></trkpt><trkpt lat="43.9593183" lon="12.756135"><ele>9.0</ele><time>2026-04-18T11:26:46.885Z</time></trkpt><trkpt lat="43.9592417" lon="12.75612"><ele>9.0</ele><time>2026-04-18T11:26:47.886Z</time></trkpt><trkpt lat="43.9591733" lon="12.7561133"><ele>9.0</ele><time>2026-04-18T11:26:48.886Z</time></trkpt><trkpt lat="43.959105" lon="12.7561"><ele>9.0</ele><time>2026-04-18T11:26:49.885Z</time></trkpt><trkpt lat="43.959" lon="12.756075"><ele>9.0</ele><time>2026-04-18T11:26:51.885Z</time></trkpt><trkpt lat="43.9589167" lon="12.7560317"><ele>9.0</ele><time>2026-04-18T11:26:53.886Z</time></trkpt><trkpt lat="43.9588217" lon="12.7560117"><ele>9.0</ele><time>2026-04-18T11:26:55.886Z</time></trkpt><trkpt lat="43.9587117" lon="12.756045"><ele>8.8</ele><time>2026-04-18T11:26:57.889Z</time></trkpt><trkpt lat="43.95863" lon="12.7560483"><ele>8.600000000000001</ele><time>2026-04-18T11:26:58.888Z</time></trkpt><trkpt lat="43.9585333" lon="12.7560467"><ele>8.4</ele><time>2026-04-18T11:26:59.888Z</time></trkpt><trkpt lat="43.9584233" lon="12.7560383"><ele>8.200000000000001</ele><time>2026-04-18T11:27:00.889Z</time></trkpt><trkpt lat="43.9583117" lon="12.75603"><ele>8.0</ele><time>2026-04-18T11:27:01.887Z</time></trkpt><trkpt lat="43.9582" lon="12.7560183"><ele>7.800000000000001</ele><time>2026-04-18T11:27:02.886Z</time></trkpt><trkpt lat="43.9580933" lon="12.7560067"><ele>7.6000000000000005</ele><time>2026-04-18T11:27:03.886Z</time></trkpt><trkpt lat="43.9579967" lon="12.7559933"><ele>7.3999999999999995</ele><time>2026-04-18T11:27:04.889Z</time></trkpt><trkpt lat="43.9579067" lon="12.755975"><ele>7.199999999999999</ele><time>2026-04-18T11:27:05.886Z</time></trkpt><trkpt lat="43.9578233" lon="12.7559517"><ele>7.0</ele><time>2026-04-18T11:27:06.885Z</time></trkpt><trkpt lat="43.9577467" lon="12.755915"><ele>7.000000000000001</ele><time>2026-04-18T11:27:07.886Z</time></trkpt><trkpt lat="43.957675" lon="12.7558683"><ele>7.0</ele><time>2026-04-18T11:27:08.886Z</time></trkpt><trkpt lat="43.9576017" lon="12.7558283"><ele>7.0</ele><time>2026-04-18T11:27:09.886Z</time></trkpt><trkpt lat="43.9575167" lon="12.7558033"><ele>7.0</ele><time>2026-04-18T11:27:10.887Z</time></trkpt><trkpt lat="43.95743" lon="12.75578"><ele>7.000000000000001</ele><time>2026-04-18T11:27:11.885Z</time></trkpt><trkpt lat="43.9573483" lon="12.75574"><ele>7.0</ele><time>2026-04-18T11:27:12.886Z</time></trkpt><trkpt lat="43.9572667" lon="12.7556767"><ele>7.75</ele><time>2026-04-18T11:27:13.885Z</time></trkpt><trkpt lat="43.9571767" lon="12.7556067"><ele>8.5</ele><time>2026-04-18T11:27:14.885Z</time></trkpt><trkpt lat="43.9570817" lon="12.75553"><ele>9.25</ele><time>2026-04-18T11:27:15.886Z</time></trkpt><trkpt lat="43.9569817" lon="12.7554467"><ele>10.0</ele><time>2026-04-18T11:27:16.886Z</time></trkpt><trkpt lat="43.9568783" lon="12.7553533"><ele>10.0</ele><time>2026-04-18T11:27:17.886Z</time></trkpt><trkpt lat="43.9567733" lon="12.755265"><ele>10.0</ele><time>2026-04-18T11:27:18.886Z</time></trkpt><trkpt lat="43.9566683" lon="12.7551767"><ele>10.0</ele><time>2026-04-18T11:27:19.886Z</time></trkpt><trkpt lat="43.95656" lon="12.7550833"><ele>10.0</ele><time>2026-04-18T11:27:20.886Z</time></trkpt><trkpt lat="43.9564433" lon="12.7549867"><ele>9.5</ele><time>2026-04-18T11:27:21.885Z</time></trkpt><trkpt lat="43.9563233" lon="12.7548833"><ele>9.0</ele><time>2026-04-18T11:27:22.887Z</time></trkpt><trkpt lat="43.9562" lon="12.7547767"><ele>8.5</ele><time>2026-04-18T11:27:23.885Z</time></trkpt><trkpt lat="43.9560767" lon="12.7546733"><ele>8.0</ele><time>2026-04-18T11:27:24.885Z</time></trkpt><trkpt lat="43.95595" lon="12.7545683"><ele>7.75</ele><time>2026-04-18T11:27:25.886Z</time></trkpt><trkpt lat="43.955825" lon="12.754455"><ele>7.5</ele><time>2026-04-18T11:27:26.886Z</time></trkpt><trkpt lat="43.9556967" lon="12.7543467"><ele>7.25</ele><time>2026-04-18T11:27:27.885Z</time></trkpt><trkpt lat="43.95557" lon="12.754235"><ele>7.0</ele><time>2026-04-18T11:27:28.885Z</time></trkpt><trkpt lat="43.95544" lon="12.7541117"><ele>7.0</ele><time>2026-04-18T11:27:29.887Z</time></trkpt><trkpt lat="43.9553167" lon="12.753985"><ele>7.0</ele><time>2026-04-18T11:27:30.886Z</time></trkpt><trkpt lat="43.9552067" lon="12.7538583"><ele>7.0</ele><time>2026-04-18T11:27:31.887Z</time></trkpt><trkpt lat="43.955105" lon="12.75376"><ele>7.0</ele><time>2026-04-18T11:27:32.885Z</time></trkpt><trkpt lat="43.9550017" lon="12.75369"><ele>7.199999999999999</ele><time>2026-04-18T11:27:33.885Z</time></trkpt><trkpt lat="43.95489" lon="12.7536467"><ele>7.3999999999999995</ele><time>2026-04-18T11:27:34.886Z</time></trkpt><trkpt lat="43.9547867" lon="12.7536167"><ele>7.6000000000000005</ele><time>2026-04-18T11:27:35.886Z</time></trkpt><trkpt lat="43.9546933" lon="12.75358"><ele>7.800000000000001</ele><time>2026-04-18T11:27:36.886Z</time></trkpt><trkpt lat="43.9546133" lon="12.7535167"><ele>8.0</ele><time>2026-04-18T11:27:37.886Z</time></trkpt><trkpt lat="43.95455" lon="12.7534233"><ele>8.200000000000001</ele><time>2026-04-18T11:27:38.885Z</time></trkpt><trkpt lat="43.9545033" lon="12.75331"><ele>8.4</ele><time>2026-04-18T11:27:39.886Z</time></trkpt><trkpt lat="43.954485" lon="12.753185"><ele>8.600000000000001</ele><time>2026-04-18T11:27:40.886Z</time></trkpt><trkpt lat="43.9544867" lon="12.7530583"><ele>8.8</ele><time>2026-04-18T11:27:41.885Z</time></trkpt><trkpt lat="43.9545133" lon="12.752925"><ele>9.0</ele><time>2026-04-18T11:27:42.887Z</time></trkpt><trkpt lat="43.9545283" lon="12.7527933"><ele>9.0</ele><time>2026-04-18T11:27:43.887Z</time></trkpt><trkpt lat="43.9545183" lon="12.7526717"><ele>9.0</ele><time>2026-04-18T11:27:44.885Z</time></trkpt><trkpt lat="43.95449" lon="12.7525617"><ele>9.0</ele><time>2026-04-18T11:27:45.886Z</time></trkpt><trkpt lat="43.95444" lon="12.752485"><ele>9.0</ele><time>2026-04-18T11:27:46.888Z</time></trkpt><trkpt lat="43.9543667" lon="12.7524417"><ele>9.0</ele><time>2026-04-18T11:27:47.886Z</time></trkpt><trkpt lat="43.9542867" lon="12.7524483"><ele>9.0</ele><time>2026-04-18T11:27:48.887Z</time></trkpt><trkpt lat="43.9542133" lon="12.752495"><ele>9.6</ele><time>2026-04-18T11:27:49.887Z</time></trkpt><trkpt lat="43.9541367" lon="12.7525783"><ele>10.2</ele><time>2026-04-18T11:27:50.886Z</time></trkpt><trkpt lat="43.9540567" lon="12.752645"><ele>10.799999999999999</ele><time>2026-04-18T11:27:51.885Z</time></trkpt><trkpt lat="43.9539683" lon="12.7526783"><ele>11.4</ele><time>2026-04-18T11:27:52.887Z</time></trkpt><trkpt lat="43.9538717" lon="12.7526783"><ele>12.0</ele><time>2026-04-18T11:27:53.887Z</time></trkpt><trkpt lat="43.9537767" lon="12.7526367"><ele>12.0</ele><time>2026-04-18T11:27:54.887Z</time></trkpt><trkpt lat="43.9536983" lon="12.752555"><ele>12.0</ele><time>2026-04-18T11:27:55.887Z</time></trkpt><trkpt lat="43.9536217" lon="12.7524533"><ele>12.0</ele><time>2026-04-18T11:27:56.89Z</time></trkpt><trkpt lat="43.9535433" lon="12.7523583"><ele>12.0</ele><time>2026-04-18T11:27:57.887Z</time></trkpt><trkpt lat="43.9534633" lon="12.75226"><ele>12.0</ele><time>2026-04-18T11:27:58.887Z</time></trkpt><trkpt lat="43.95338" lon="12.7521617"><ele>12.0</ele><time>2026-04-18T11:27:59.886Z</time></trkpt><trkpt lat="43.9532933" lon="12.75206"><ele>12.0</ele><time>2026-04-18T11:28:00.89Z</time></trkpt><trkpt lat="43.9532083" lon="12.7519517"><ele>12.0</ele><time>2026-04-18T11:28:01.887Z</time></trkpt><trkpt lat="43.9531167" lon="12.7518417"><ele>12.0</ele><time>2026-04-18T11:28:02.885Z</time></trkpt><trkpt lat="43.9530217" lon="12.7517333"><ele>12.0</ele><time>2026-04-18T11:28:03.889Z</time></trkpt><trkpt lat="43.9529233" lon="12.751625"><ele>12.0</ele><time>2026-04-18T11:28:04.887Z</time></trkpt><trkpt lat="43.952825" lon="12.7515133"><ele>12.0</ele><time>2026-04-18T11:28:05.885Z</time></trkpt><trkpt lat="43.952725" lon="12.7514083"><ele>12.0</ele><time>2026-04-18T11:28:06.886Z</time></trkpt><trkpt lat="43.9526317" lon="12.751305"><ele>12.0</ele><time>2026-04-18T11:28:07.891Z</time></trkpt><trkpt lat="43.9525483" lon="12.75121"><ele>12.0</ele><time>2026-04-18T11:28:08.887Z</time></trkpt><trkpt lat="43.95247" lon="12.7511183"><ele>12.0</ele><time>2026-04-18T11:28:09.887Z</time></trkpt><trkpt lat="43.9523917" lon="12.751025"><ele>12.0</ele><time>2026-04-18T11:28:10.886Z</time></trkpt><trkpt lat="43.9523083" lon="12.75093"><ele>12.0</ele><time>2026-04-18T11:28:11.888Z</time></trkpt><trkpt lat="43.9522183" lon="12.75083"><ele>12.25</ele><time>2026-04-18T11:28:12.886Z</time></trkpt><trkpt lat="43.9521233" lon="12.7507217"><ele>12.5</ele><time>2026-04-18T11:28:13.892Z</time></trkpt><trkpt lat="43.95203" lon="12.7506133"><ele>12.75</ele><time>2026-04-18T11:28:14.887Z</time></trkpt><trkpt lat="43.9519367" lon="12.7505017"><ele>13.0</ele><time>2026-04-18T11:28:15.886Z</time></trkpt><trkpt lat="43.9518433" lon="12.7503883"><ele>13.0</ele><time>2026-04-18T11:28:16.886Z</time></trkpt><trkpt lat="43.9517483" lon="12.7502767"><ele>13.0</ele><time>2026-04-18T11:28:17.887Z</time></trkpt><trkpt lat="43.9516517" lon="12.750165"><ele>13.0</ele><time>2026-04-18T11:28:18.887Z</time></trkpt><trkpt lat="43.9515533" lon="12.750055"><ele>13.0</ele><time>2026-04-18T11:28:19.887Z</time></trkpt><trkpt lat="43.9514533" lon="12.7499433"><ele>13.0</ele><time>2026-04-18T11:28:20.887Z</time></trkpt><trkpt lat="43.9513517" lon="12.7498333"><ele>13.0</ele><time>2026-04-18T11:28:21.887Z</time></trkpt><trkpt lat="43.95125" lon="12.74973"><ele>13.0</ele><time>2026-04-18T11:28:22.887Z</time></trkpt><trkpt lat="43.9511433" lon="12.7496333"><ele>13.0</ele><time>2026-04-18T11:28:23.887Z</time></trkpt><trkpt lat="43.9510367" lon="12.7495433"><ele>13.0</ele><time>2026-04-18T11:28:24.887Z</time></trkpt><trkpt lat="43.95093" lon="12.74946"><ele>13.0</ele><time>2026-04-18T11:28:25.888Z</time></trkpt><trkpt lat="43.9508283" lon="12.7493783"><ele>13.0</ele><time>2026-04-18T11:28:26.886Z</time></trkpt><trkpt lat="43.9507167" lon="12.7492983"><ele>13.0</ele><time>2026-04-18T11:28:27.887Z</time></trkpt><trkpt lat="43.9506067" lon="12.74922"><ele>12.75</ele><time>2026-04-18T11:28:28.887Z</time></trkpt><trkpt lat="43.9505" lon="12.7491383"><ele>12.5</ele><time>2026-04-18T11:28:29.887Z</time></trkpt><trkpt lat="43.9503917" lon="12.7490533"><ele>12.25</ele><time>2026-04-18T11:28:30.888Z</time></trkpt><trkpt lat="43.9502817" lon="12.74897"><ele>12.0</ele><time>2026-04-18T11:28:31.887Z</time></trkpt><trkpt lat="43.950175" lon="12.7488867"><ele>12.0</ele><time>2026-04-18T11:28:32.885Z</time></trkpt><trkpt lat="43.95007" lon="12.7488033"><ele>12.0</ele><time>2026-04-18T11:28:33.885Z</time></trkpt><trkpt lat="43.9499633" lon="12.7487233"><ele>12.0</ele><time>2026-04-18T11:28:34.886Z</time></trkpt><trkpt lat="43.949855" lon="12.748645"><ele>12.0</ele><time>2026-04-18T11:28:35.886Z</time></trkpt><trkpt lat="43.9497467" lon="12.7485633"><ele>11.75</ele><time>2026-04-18T11:28:36.887Z</time></trkpt><trkpt lat="43.9496383" lon="12.7484817"><ele>11.5</ele><time>2026-04-18T11:28:37.888Z</time></trkpt><trkpt lat="43.94953" lon="12.7483983"><ele>11.25</ele><time>2026-04-18T11:28:38.887Z</time></trkpt><trkpt lat="43.9494183" lon="12.7483117"><ele>11.0</ele><time>2026-04-18T11:28:39.886Z</time></trkpt><trkpt lat="43.9493067" lon="12.7482267"><ele>12.0</ele><time>2026-04-18T11:28:40.886Z</time></trkpt><trkpt lat="43.9491933" lon="12.7481417"><ele>13.0</ele><time>2026-04-18T11:28:41.887Z</time></trkpt><trkpt lat="43.9490817" lon="12.748055"><ele>14.0</ele><time>2026-04-18T11:28:42.886Z</time></trkpt><trkpt lat="43.9489683" lon="12.7479717"><ele>15.0</ele><time>2026-04-18T11:28:43.886Z</time></trkpt><trkpt lat="43.9488583" lon="12.74789"><ele>15.0</ele><time>2026-04-18T11:28:44.885Z</time></trkpt><trkpt lat="43.9487483" lon="12.7478067"><ele>15.0</ele><time>2026-04-18T11:28:45.885Z</time></trkpt><trkpt lat="43.9486367" lon="12.747725"><ele>15.0</ele><time>2026-04-18T11:28:46.885Z</time></trkpt><trkpt lat="43.9485267" lon="12.7476483"><ele>15.0</ele><time>2026-04-18T11:28:47.887Z</time></trkpt><trkpt lat="43.94842" lon="12.7475833"><ele>14.8</ele><time>2026-04-18T11:28:48.887Z</time></trkpt><trkpt lat="43.948325" lon="12.7475233"><ele>14.6</ele><time>2026-04-18T11:28:49.888Z</time></trkpt><trkpt lat="43.9482367" lon="12.74747"><ele>14.399999999999999</ele><time>2026-04-18T11:28:50.885Z</time></trkpt><trkpt lat="43.9481567" lon="12.7474183"><ele>14.2</ele><time>2026-04-18T11:28:51.886Z</time></trkpt><trkpt lat="43.94807" lon="12.7473817"><ele>14.0</ele><time>2026-04-18T11:28:52.894Z</time></trkpt><trkpt lat="43.9479683" lon="12.7473617"><ele>14.0</ele><time>2026-04-18T11:28:53.886Z</time></trkpt><trkpt lat="43.9478483" lon="12.7473483"><ele>14.0</ele><time>2026-04-18T11:28:54.887Z</time></trkpt><trkpt lat="43.9477167" lon="12.7473367"><ele>14.0</ele><time>2026-04-18T11:28:55.886Z</time></trkpt><trkpt lat="43.9475733" lon="12.7473383"><ele>14.0</ele><time>2026-04-18T11:28:56.885Z</time></trkpt><trkpt lat="43.94742" lon="12.7473567"><ele>15.0</ele><time>2026-04-18T11:28:57.885Z</time></trkpt><trkpt lat="43.9472617" lon="12.7473933"><ele>16.0</ele><time>2026-04-18T11:28:58.886Z</time></trkpt><trkpt lat="43.9470983" lon="12.74744"><ele>17.0</ele><time>2026-04-18T11:28:59.887Z</time></trkpt><trkpt lat="43.9469367" lon="12.7474917"><ele>17.0</ele><time>2026-04-18T11:29:00.887Z</time></trkpt><trkpt lat="43.9467717" lon="12.7475483"><ele>17.0</ele><time>2026-04-18T11:29:01.887Z</time></trkpt><trkpt lat="43.946605" lon="12.7476083"><ele>17.0</ele><time>2026-04-18T11:29:02.886Z</time></trkpt><trkpt lat="43.9464383" lon="12.747665"><ele>18.333333333333336</ele><time>2026-04-18T11:29:03.885Z</time></trkpt><trkpt lat="43.9462633" lon="12.74772"><ele>19.666666666666668</ele><time>2026-04-18T11:29:04.887Z</time></trkpt><trkpt lat="43.9460883" lon="12.7477767"><ele>21.0</ele><time>2026-04-18T11:29:05.886Z</time></trkpt><trkpt lat="43.94591" lon="12.74783"><ele>20.666666666666668</ele><time>2026-04-18T11:29:06.886Z</time></trkpt><trkpt lat="43.94573" lon="12.7478867"><ele>20.333333333333336</ele><time>2026-04-18T11:29:07.888Z</time></trkpt><trkpt lat="43.9455467" lon="12.74794"><ele>20.0</ele><time>2026-04-18T11:29:08.886Z</time></trkpt><trkpt lat="43.945365" lon="12.747995"><ele>20.0</ele><time>2026-04-18T11:29:09.888Z</time></trkpt><trkpt lat="43.9451817" lon="12.7480567"><ele>20.0</ele><time>2026-04-18T11:29:10.887Z</time></trkpt><trkpt lat="43.9450033" lon="12.74813"><ele>20.0</ele><time>2026-04-18T11:29:11.886Z</time></trkpt><trkpt lat="43.9448283" lon="12.7482233"><ele>19.333333333333336</ele><time>2026-04-18T11:29:12.887Z</time></trkpt><trkpt lat="43.9446567" lon="12.7483367"><ele>18.666666666666668</ele><time>2026-04-18T11:29:13.889Z</time></trkpt><trkpt lat="43.944495" lon="12.748465"><ele>18.0</ele><time>2026-04-18T11:29:14.886Z</time></trkpt><trkpt lat="43.9443417" lon="12.748605"><ele>18.666666666666668</ele><time>2026-04-18T11:29:15.888Z</time></trkpt><trkpt lat="43.944195" lon="12.7487417"><ele>19.333333333333336</ele><time>2026-04-18T11:29:16.888Z</time></trkpt><trkpt lat="43.9440533" lon="12.7488733"><ele>20.0</ele><time>2026-04-18T11:29:17.886Z</time></trkpt><trkpt lat="43.9439233" lon="12.74899"><ele>20.0</ele><time>2026-04-18T11:29:18.886Z</time></trkpt><trkpt lat="43.9437967" lon="12.7490833"><ele>20.0</ele><time>2026-04-18T11:29:19.887Z</time></trkpt><trkpt lat="43.9436717" lon="12.749145"><ele>20.0</ele><time>2026-04-18T11:29:20.887Z</time></trkpt><trkpt lat="43.9435517" lon="12.74917"><ele>20.0</ele><time>2026-04-18T11:29:21.887Z</time></trkpt><trkpt lat="43.9434317" lon="12.74915"><ele>19.75</ele><time>2026-04-18T11:29:22.889Z</time></trkpt><trkpt lat="43.943325" lon="12.74907"><ele>19.5</ele><time>2026-04-18T11:29:23.886Z</time></trkpt><trkpt lat="43.943235" lon="12.748935"><ele>19.25</ele><time>2026-04-18T11:29:24.886Z</time></trkpt><trkpt lat="43.943155" lon="12.74876"><ele>19.0</ele><time>2026-04-18T11:29:25.887Z</time></trkpt><trkpt lat="43.9430817" lon="12.7485683"><ele>19.0</ele><time>2026-04-18T11:29:26.89Z</time></trkpt><trkpt lat="43.943005" lon="12.7483667"><ele>19.0</ele><time>2026-04-18T11:29:27.886Z</time></trkpt><trkpt lat="43.9429317" lon="12.74816"><ele>19.0</ele><time>2026-04-18T11:29:28.887Z</time></trkpt><trkpt lat="43.942855" lon="12.747955"><ele>19.0</ele><time>2026-04-18T11:29:29.885Z</time></trkpt><trkpt lat="43.942775" lon="12.7477467"><ele>19.0</ele><time>2026-04-18T11:29:30.886Z</time></trkpt><trkpt lat="43.9427" lon="12.7475417"><ele>19.0</ele><time>2026-04-18T11:29:31.886Z</time></trkpt><trkpt lat="43.9426133" lon="12.7473467"><ele>18.333333333333332</ele><time>2026-04-18T11:29:32.887Z</time></trkpt><trkpt lat="43.942515" lon="12.74716"><ele>17.666666666666668</ele><time>2026-04-18T11:29:33.886Z</time></trkpt><trkpt lat="43.942405" lon="12.7469783"><ele>17.0</ele><time>2026-04-18T11:29:34.886Z</time></trkpt><trkpt lat="43.9422883" lon="12.7468033"><ele>16.666666666666668</ele><time>2026-04-18T11:29:35.887Z</time></trkpt><trkpt lat="43.9421633" lon="12.7466333"><ele>16.333333333333332</ele><time>2026-04-18T11:29:36.887Z</time></trkpt><trkpt lat="43.9420333" lon="12.74646"><ele>16.0</ele><time>2026-04-18T11:29:37.888Z</time></trkpt><trkpt lat="43.9419017" lon="12.7462867"><ele>16.0</ele><time>2026-04-18T11:29:38.886Z</time></trkpt><trkpt lat="43.94177" lon="12.7461167"><ele>16.0</ele><time>2026-04-18T11:29:39.886Z</time></trkpt><trkpt lat="43.941635" lon="12.7459467"><ele>16.0</ele><time>2026-04-18T11:29:40.887Z</time></trkpt><trkpt lat="43.941495" lon="12.7457733"><ele>15.666666666666666</ele><time>2026-04-18T11:29:41.887Z</time></trkpt><trkpt lat="43.941355" lon="12.745595"><ele>15.333333333333332</ele><time>2026-04-18T11:29:42.886Z</time></trkpt><trkpt lat="43.9412167" lon="12.7454167"><ele>15.0</ele><time>2026-04-18T11:29:43.887Z</time></trkpt><trkpt lat="43.94108" lon="12.7452383"><ele>15.0</ele><time>2026-04-18T11:29:44.885Z</time></trkpt><trkpt lat="43.94094" lon="12.74506"><ele>15.0</ele><time>2026-04-18T11:29:45.886Z</time></trkpt><trkpt lat="43.9408" lon="12.744885"><ele>15.0</ele><time>2026-04-18T11:29:46.887Z</time></trkpt><trkpt lat="43.9406667" lon="12.7447083"><ele>15.0</ele><time>2026-04-18T11:29:47.886Z</time></trkpt><trkpt lat="43.9405333" lon="12.744535"><ele>15.0</ele><time>2026-04-18T11:29:48.886Z</time></trkpt><trkpt lat="43.9404" lon="12.7443617"><ele>15.0</ele><time>2026-04-18T11:29:49.886Z</time></trkpt><trkpt lat="43.9402633" lon="12.7441883"><ele>15.0</ele><time>2026-04-18T11:29:50.886Z</time></trkpt><trkpt lat="43.94013" lon="12.74401"><ele>15.0</ele><time>2026-04-18T11:29:51.886Z</time></trkpt><trkpt lat="43.9399983" lon="12.7438317"><ele>15.0</ele><time>2026-04-18T11:29:52.886Z</time></trkpt><trkpt lat="43.9398683" lon="12.74365"><ele>15.333333333333332</ele><time>2026-04-18T11:29:53.887Z</time></trkpt><trkpt lat="43.9397367" lon="12.7434733"><ele>15.666666666666666</ele><time>2026-04-18T11:29:54.886Z</time></trkpt><trkpt lat="43.9396067" lon="12.7432917"><ele>16.0</ele><time>2026-04-18T11:29:55.887Z</time></trkpt><trkpt lat="43.9394767" lon="12.743115"><ele>16.0</ele><time>2026-04-18T11:29:56.885Z</time></trkpt><trkpt lat="43.9393483" lon="12.7429383"><ele>16.0</ele><time>2026-04-18T11:29:57.887Z</time></trkpt><trkpt lat="43.9392217" lon="12.742775"><ele>16.0</ele><time>2026-04-18T11:29:58.886Z</time></trkpt><trkpt lat="43.9390983" lon="12.7426117"><ele>16.333333333333332</ele><time>2026-04-18T11:29:59.889Z</time></trkpt><trkpt lat="43.9389867" lon="12.7424533"><ele>16.666666666666668</ele><time>2026-04-18T11:30:00.888Z</time></trkpt><trkpt lat="43.9388967" lon="12.7422833"><ele>17.0</ele><time>2026-04-18T11:30:01.888Z</time></trkpt><trkpt lat="43.938825" lon="12.7421117"><ele>17.0</ele><time>2026-04-18T11:30:02.886Z</time></trkpt><trkpt lat="43.9387783" lon="12.741945"><ele>17.0</ele><time>2026-04-18T11:30:03.885Z</time></trkpt><trkpt lat="43.9387467" lon="12.74179"><ele>17.0</ele><time>2026-04-18T11:30:04.887Z</time></trkpt><trkpt lat="43.9387217" lon="12.7416517"><ele>17.0</ele><time>2026-04-18T11:30:05.887Z</time></trkpt><trkpt lat="43.938705" lon="12.74154"><ele>17.0</ele><time>2026-04-18T11:30:06.886Z</time></trkpt><trkpt lat="43.93868" lon="12.7414433"><ele>17.2</ele><time>2026-04-18T11:30:07.888Z</time></trkpt><trkpt lat="43.9386017" lon="12.7413383"><ele>17.4</ele><time>2026-04-18T11:30:09.887Z</time></trkpt><trkpt lat="43.9385283" lon="12.7413383"><ele>17.6</ele><time>2026-04-18T11:30:10.885Z</time></trkpt><trkpt lat="43.9384217" lon="12.7413567"><ele>17.8</ele><time>2026-04-18T11:30:11.886Z</time></trkpt><trkpt lat="43.9382883" lon="12.7413733"><ele>18.0</ele><time>2026-04-18T11:30:12.887Z</time></trkpt><trkpt lat="43.93816" lon="12.7413733"><ele>18.0</ele><time>2026-04-18T11:30:13.889Z</time></trkpt><trkpt lat="43.9380183" lon="12.74136"><ele>18.0</ele><time>2026-04-18T11:30:14.889Z</time></trkpt><trkpt lat="43.93788" lon="12.7413383"><ele>18.0</ele><time>2026-04-18T11:30:15.885Z</time></trkpt><trkpt lat="43.9377433" lon="12.74132"><ele>18.0</ele><time>2026-04-18T11:30:16.887Z</time></trkpt><trkpt lat="43.9376033" lon="12.7413233"><ele>19.666666666666668</ele><time>2026-04-18T11:30:17.886Z</time></trkpt><trkpt lat="43.937465" lon="12.741365"><ele>21.333333333333336</ele><time>2026-04-18T11:30:18.886Z</time></trkpt><trkpt lat="43.9373217" lon="12.7414367"><ele>23.0</ele><time>2026-04-18T11:30:19.887Z</time></trkpt><trkpt lat="43.93717" lon="12.741515"><ele>23.0</ele><time>2026-04-18T11:30:20.885Z</time></trkpt><trkpt lat="43.9370067" lon="12.7415517"><ele>23.0</ele><time>2026-04-18T11:30:21.888Z</time></trkpt><trkpt lat="43.9368483" lon="12.7415217"><ele>23.0</ele><time>2026-04-18T11:30:22.887Z</time></trkpt><trkpt lat="43.93669" lon="12.7414667"><ele>26.333333333333336</ele><time>2026-04-18T11:30:23.887Z</time></trkpt><trkpt lat="43.9365283" lon="12.741415"><ele>29.666666666666668</ele><time>2026-04-18T11:30:24.887Z</time></trkpt><trkpt lat="43.936365" lon="12.7413767"><ele>33.0</ele><time>2026-04-18T11:30:25.887Z</time></trkpt><trkpt lat="43.9362033" lon="12.7413583"><ele>33.0</ele><time>2026-04-18T11:30:26.89Z</time></trkpt><trkpt lat="43.9360467" lon="12.7413583"><ele>33.0</ele><time>2026-04-18T11:30:27.886Z</time></trkpt><trkpt lat="43.9359067" lon="12.741375"><ele>33.0</ele><time>2026-04-18T11:30:28.886Z</time></trkpt><trkpt lat="43.9357983" lon="12.7414017"><ele>33.0</ele><time>2026-04-18T11:30:29.886Z</time></trkpt><trkpt lat="43.9357117" lon="12.7414267"><ele>35.2</ele><time>2026-04-18T11:30:30.887Z</time></trkpt><trkpt lat="43.9356317" lon="12.7414433"><ele>37.4</ele><time>2026-04-18T11:30:31.888Z</time></trkpt><trkpt lat="43.9355433" lon="12.741455"><ele>39.6</ele><time>2026-04-18T11:30:32.887Z</time></trkpt><trkpt lat="43.9354467" lon="12.7414633"><ele>41.800000000000004</ele><time>2026-04-18T11:30:33.887Z</time></trkpt><trkpt lat="43.9353333" lon="12.74147"><ele>44.0</ele><time>2026-04-18T11:30:34.886Z</time></trkpt><trkpt lat="43.9352083" lon="12.7414817"><ele>44.0</ele><time>2026-04-18T11:30:35.886Z</time></trkpt><trkpt lat="43.93508" lon="12.7414967"><ele>44.0</ele><time>2026-04-18T11:30:36.887Z</time></trkpt><trkpt lat="43.9349583" lon="12.7415133"><ele>44.0</ele><time>2026-04-18T11:30:37.887Z</time></trkpt><trkpt lat="43.9348333" lon="12.7415183"><ele>44.0</ele><time>2026-04-18T11:30:38.887Z</time></trkpt><trkpt lat="43.9347067" lon="12.7415067"><ele>43.25</ele><time>2026-04-18T11:30:39.885Z</time></trkpt><trkpt lat="43.93457" lon="12.7414883"><ele>42.5</ele><time>2026-04-18T11:30:40.886Z</time></trkpt><trkpt lat="43.934425" lon="12.74146"><ele>41.75</ele><time>2026-04-18T11:30:41.887Z</time></trkpt><trkpt lat="43.93427" lon="12.7414233"><ele>41.0</ele><time>2026-04-18T11:30:42.887Z</time></trkpt><trkpt lat="43.9341183" lon="12.741395"><ele>39.25</ele><time>2026-04-18T11:30:43.888Z</time></trkpt><trkpt lat="43.9339817" lon="12.74137"><ele>37.5</ele><time>2026-04-18T11:30:44.886Z</time></trkpt><trkpt lat="43.9338517" lon="12.74134"><ele>35.75</ele><time>2026-04-18T11:30:45.887Z</time></trkpt><trkpt lat="43.93373" lon="12.7413"><ele>34.0</ele><time>2026-04-18T11:30:46.887Z</time></trkpt><trkpt lat="43.9336083" lon="12.741255"><ele>34.0</ele><time>2026-04-18T11:30:47.886Z</time></trkpt><trkpt lat="43.933475" lon="12.7412333"><ele>34.0</ele><time>2026-04-18T11:30:48.886Z</time></trkpt><trkpt lat="43.9333317" lon="12.7412467"><ele>34.0</ele><time>2026-04-18T11:30:49.886Z</time></trkpt><trkpt lat="43.9331867" lon="12.7412817"><ele>34.0</ele><time>2026-04-18T11:30:50.887Z</time></trkpt><trkpt lat="43.9330483" lon="12.74133"><ele>33.25</ele><time>2026-04-18T11:30:51.886Z</time></trkpt><trkpt lat="43.9329183" lon="12.741375"><ele>32.5</ele><time>2026-04-18T11:30:52.886Z</time></trkpt><trkpt lat="43.9327983" lon="12.7413983"><ele>31.75</ele><time>2026-04-18T11:30:53.887Z</time></trkpt><trkpt lat="43.9326817" lon="12.7413867"><ele>31.0</ele><time>2026-04-18T11:30:54.886Z</time></trkpt><trkpt lat="43.932565" lon="12.7413367"><ele>30.25</ele><time>2026-04-18T11:30:55.887Z</time></trkpt><trkpt lat="43.9324467" lon="12.74126"><ele>29.5</ele><time>2026-04-18T11:30:56.889Z</time></trkpt><trkpt lat="43.9323217" lon="12.741165"><ele>28.75</ele><time>2026-04-18T11:30:57.886Z</time></trkpt><trkpt lat="43.9321917" lon="12.74107"><ele>28.0</ele><time>2026-04-18T11:30:58.887Z</time></trkpt><trkpt lat="43.9320567" lon="12.74097"><ele>27.75</ele><time>2026-04-18T11:30:59.886Z</time></trkpt><trkpt lat="43.9319267" lon="12.7408683"><ele>27.5</ele><time>2026-04-18T11:31:00.89Z</time></trkpt><trkpt lat="43.9318117" lon="12.7407667"><ele>27.25</ele><time>2026-04-18T11:31:01.889Z</time></trkpt><trkpt lat="43.9317133" lon="12.74066"><ele>27.0</ele><time>2026-04-18T11:31:02.885Z</time></trkpt><trkpt lat="43.9316283" lon="12.740555"><ele>26.833333333333332</ele><time>2026-04-18T11:31:03.889Z</time></trkpt><trkpt lat="43.9315517" lon="12.7404583"><ele>26.666666666666664</ele><time>2026-04-18T11:31:04.888Z</time></trkpt><trkpt lat="43.9314833" lon="12.7403717"><ele>26.5</ele><time>2026-04-18T11:31:05.887Z</time></trkpt><trkpt lat="43.9314183" lon="12.7403083"><ele>26.333333333333332</ele><time>2026-04-18T11:31:06.89Z</time></trkpt><trkpt lat="43.9313567" lon="12.7402767"><ele>26.166666666666664</ele><time>2026-04-18T11:31:07.886Z</time></trkpt><trkpt lat="43.9312867" lon="12.740275"><ele>26.0</ele><time>2026-04-18T11:31:08.886Z</time></trkpt><trkpt lat="43.9312033" lon="12.7403067"><ele>26.0</ele><time>2026-04-18T11:31:09.886Z</time></trkpt><trkpt lat="43.9311033" lon="12.7403533"><ele>26.0</ele><time>2026-04-18T11:31:10.886Z</time></trkpt><trkpt lat="43.93096" lon="12.740415"><ele>26.0</ele><time>2026-04-18T11:31:11.886Z</time></trkpt><trkpt lat="43.930815" lon="12.74046"><ele>26.0</ele><time>2026-04-18T11:31:12.888Z</time></trkpt><trkpt lat="43.9306667" lon="12.7404883"><ele>26.25</ele><time>2026-04-18T11:31:13.888Z</time></trkpt><trkpt lat="43.9305167" lon="12.7405033"><ele>26.5</ele><time>2026-04-18T11:31:14.886Z</time></trkpt><trkpt lat="43.9303717" lon="12.740515"><ele>26.75</ele><time>2026-04-18T11:31:15.887Z</time></trkpt><trkpt lat="43.930225" lon="12.7405217"><ele>27.0</ele><time>2026-04-18T11:31:16.887Z</time></trkpt><trkpt lat="43.9300783" lon="12.7405383"><ele>28.0</ele><time>2026-04-18T11:31:17.886Z</time></trkpt><trkpt lat="43.9299333" lon="12.7405617"><ele>29.0</ele><time>2026-04-18T11:31:18.886Z</time></trkpt><trkpt lat="43.92978" lon="12.7406"><ele>30.0</ele><time>2026-04-18T11:31:19.888Z</time></trkpt><trkpt lat="43.9296283" lon="12.74064"><ele>30.0</ele><time>2026-04-18T11:31:20.886Z</time></trkpt><trkpt lat="43.9294733" lon="12.74068"><ele>30.0</ele><time>2026-04-18T11:31:21.887Z</time></trkpt><trkpt lat="43.9293167" lon="12.740725"><ele>30.0</ele><time>2026-04-18T11:31:22.886Z</time></trkpt><trkpt lat="43.9291717" lon="12.7407567"><ele>30.0</ele><time>2026-04-18T11:31:23.889Z</time></trkpt><trkpt lat="43.9290333" lon="12.7407817"><ele>30.0</ele><time>2026-04-18T11:31:24.888Z</time></trkpt><trkpt lat="43.9289033" lon="12.740795"><ele>30.0</ele><time>2026-04-18T11:31:25.888Z</time></trkpt><trkpt lat="43.9287833" lon="12.7407933"><ele>30.0</ele><time>2026-04-18T11:31:26.885Z</time></trkpt><trkpt lat="43.92867" lon="12.7407783"><ele>30.0</ele><time>2026-04-18T11:31:27.886Z</time></trkpt><trkpt lat="43.9285717" lon="12.7407567"><ele>30.0</ele><time>2026-04-18T11:31:28.887Z</time></trkpt><trkpt lat="43.9284983" lon="12.7407283"><ele>30.0</ele><time>2026-04-18T11:31:29.886Z</time></trkpt><trkpt lat="43.9284383" lon="12.740695"><ele>30.0</ele><time>2026-04-18T11:31:30.885Z</time></trkpt><trkpt lat="43.9283433" lon="12.7405967"><ele>30.0</ele><time>2026-04-18T11:31:32.885Z</time></trkpt><trkpt lat="43.9282917" lon="12.74052"><ele>30.0</ele><time>2026-04-18T11:31:33.886Z</time></trkpt><trkpt lat="43.928245" lon="12.7404133"><ele>30.25</ele><time>2026-04-18T11:31:34.886Z</time></trkpt><trkpt lat="43.9281783" lon="12.740295"><ele>30.5</ele><time>2026-04-18T11:31:35.885Z</time></trkpt><trkpt lat="43.9280867" lon="12.7401417"><ele>30.75</ele><time>2026-04-18T11:31:36.886Z</time></trkpt><trkpt lat="43.9279717" lon="12.73997"><ele>31.0</ele><time>2026-04-18T11:31:37.887Z</time></trkpt><trkpt lat="43.927855" lon="12.739785"><ele>30.333333333333336</ele><time>2026-04-18T11:31:38.886Z</time></trkpt><trkpt lat="43.9277467" lon="12.73959"><ele>29.666666666666664</ele><time>2026-04-18T11:31:39.888Z</time></trkpt><trkpt lat="43.9276317" lon="12.7393933"><ele>29.0</ele><time>2026-04-18T11:31:40.886Z</time></trkpt><trkpt lat="43.927515" lon="12.739185"><ele>28.666666666666664</ele><time>2026-04-18T11:31:41.885Z</time></trkpt><trkpt lat="43.9273967" lon="12.7389817"><ele>28.333333333333336</ele><time>2026-04-18T11:31:42.885Z</time></trkpt><trkpt lat="43.9272783" lon="12.7387783"><ele>28.0</ele><time>2026-04-18T11:31:43.887Z</time></trkpt><trkpt lat="43.9271583" lon="12.7385717"><ele>28.0</ele><time>2026-04-18T11:31:44.886Z</time></trkpt><trkpt lat="43.92703" lon="12.7383717"><ele>28.0</ele><time>2026-04-18T11:31:45.887Z</time></trkpt><trkpt lat="43.9268867" lon="12.7381717"><ele>28.0</ele><time>2026-04-18T11:31:46.885Z</time></trkpt><trkpt lat="43.9267317" lon="12.738"><ele>27.666666666666668</ele><time>2026-04-18T11:31:47.885Z</time></trkpt><trkpt lat="43.9265617" lon="12.73786"><ele>27.333333333333336</ele><time>2026-04-18T11:31:48.886Z</time></trkpt><trkpt lat="43.9263767" lon="12.7377467"><ele>27.0</ele><time>2026-04-18T11:31:49.887Z</time></trkpt><trkpt lat="43.92619" lon="12.7376433"><ele>27.0</ele><time>2026-04-18T11:31:50.885Z</time></trkpt><trkpt lat="43.9259983" lon="12.73755"><ele>27.0</ele><time>2026-04-18T11:31:51.886Z</time></trkpt><trkpt lat="43.925805" lon="12.73747"><ele>27.0</ele><time>2026-04-18T11:31:52.886Z</time></trkpt><trkpt lat="43.9256133" lon="12.737405"><ele>27.0</ele><time>2026-04-18T11:31:53.885Z</time></trkpt><trkpt lat="43.9254383" lon="12.7373317"><ele>27.0</ele><time>2026-04-18T11:31:54.888Z</time></trkpt><trkpt lat="43.9252833" lon="12.7372267"><ele>27.0</ele><time>2026-04-18T11:31:55.889Z</time></trkpt><trkpt lat="43.9251533" lon="12.737085"><ele>27.666666666666664</ele><time>2026-04-18T11:31:56.888Z</time></trkpt><trkpt lat="43.9250583" lon="12.7368983"><ele>28.333333333333332</ele><time>2026-04-18T11:31:57.885Z</time></trkpt><trkpt lat="43.924995" lon="12.736675"><ele>29.0</ele><time>2026-04-18T11:31:58.886Z</time></trkpt><trkpt lat="43.9249583" lon="12.73644"><ele>29.0</ele><time>2026-04-18T11:31:59.885Z</time></trkpt><trkpt lat="43.9249367" lon="12.7361867"><ele>29.0</ele><time>2026-04-18T11:32:00.886Z</time></trkpt><trkpt lat="43.9249167" lon="12.7359283"><ele>29.0</ele><time>2026-04-18T11:32:01.887Z</time></trkpt><trkpt lat="43.92489" lon="12.7356717"><ele>29.0</ele><time>2026-04-18T11:32:02.886Z</time></trkpt><trkpt lat="43.92485" lon="12.7354133"><ele>29.0</ele><time>2026-04-18T11:32:03.887Z</time></trkpt><trkpt lat="43.924795" lon="12.7351567"><ele>29.0</ele><time>2026-04-18T11:32:04.885Z</time></trkpt><trkpt lat="43.92473" lon="12.7349017"><ele>28.333333333333332</ele><time>2026-04-18T11:32:05.885Z</time></trkpt><trkpt lat="43.9246583" lon="12.7346517"><ele>27.666666666666664</ele><time>2026-04-18T11:32:06.885Z</time></trkpt><trkpt lat="43.9245767" lon="12.73442"><ele>27.0</ele><time>2026-04-18T11:32:07.887Z</time></trkpt><trkpt lat="43.9244817" lon="12.73421"><ele>27.0</ele><time>2026-04-18T11:32:08.885Z</time></trkpt><trkpt lat="43.9243667" lon="12.7340217"><ele>27.0</ele><time>2026-04-18T11:32:09.886Z</time></trkpt><trkpt lat="43.9242283" lon="12.7338617"><ele>27.0</ele><time>2026-04-18T11:32:10.886Z</time></trkpt><trkpt lat="43.92407" lon="12.7337233"><ele>27.0</ele><time>2026-04-18T11:32:11.886Z</time></trkpt><trkpt lat="43.9239" lon="12.7336117"><ele>27.0</ele><time>2026-04-18T11:32:12.886Z</time></trkpt><trkpt lat="43.9237167" lon="12.7335433"><ele>27.0</ele><time>2026-04-18T11:32:13.885Z</time></trkpt><trkpt lat="43.923525" lon="12.73351"><ele>29.0</ele><time>2026-04-18T11:32:14.888Z</time></trkpt><trkpt lat="43.9233317" lon="12.73348"><ele>31.0</ele><time>2026-04-18T11:32:15.886Z</time></trkpt><trkpt lat="43.92314" lon="12.73344"><ele>33.0</ele><time>2026-04-18T11:32:16.886Z</time></trkpt><trkpt lat="43.9229533" lon="12.7333833"><ele>33.0</ele><time>2026-04-18T11:32:17.885Z</time></trkpt><trkpt lat="43.9227717" lon="12.733315"><ele>33.0</ele><time>2026-04-18T11:32:18.886Z</time></trkpt><trkpt lat="43.9226083" lon="12.73324"><ele>33.0</ele><time>2026-04-18T11:32:19.886Z</time></trkpt><trkpt lat="43.9224567" lon="12.7331633"><ele>34.0</ele><time>2026-04-18T11:32:20.885Z</time></trkpt><trkpt lat="43.922315" lon="12.7330867"><ele>35.0</ele><time>2026-04-18T11:32:21.886Z</time></trkpt><trkpt lat="43.9221767" lon="12.7330233"><ele>36.0</ele><time>2026-04-18T11:32:22.885Z</time></trkpt><trkpt lat="43.9220333" lon="12.7329767"><ele>37.0</ele><time>2026-04-18T11:32:23.885Z</time></trkpt><trkpt lat="43.92189" lon="12.7329367"><ele>37.0</ele><time>2026-04-18T11:32:24.885Z</time></trkpt><trkpt lat="43.9217583" lon="12.7328983"><ele>37.0</ele><time>2026-04-18T11:32:25.887Z</time></trkpt><trkpt lat="43.921645" lon="12.7328517"><ele>37.0</ele><time>2026-04-18T11:32:26.885Z</time></trkpt><trkpt lat="43.9215483" lon="12.7327883"><ele>37.0</ele><time>2026-04-18T11:32:27.886Z</time></trkpt><trkpt lat="43.9214517" lon="12.7327067"><ele>35.5</ele><time>2026-04-18T11:32:28.886Z</time></trkpt><trkpt lat="43.92135" lon="12.7326083"><ele>34.0</ele><time>2026-04-18T11:32:29.885Z</time></trkpt><trkpt lat="43.9212317" lon="12.7325083"><ele>32.5</ele><time>2026-04-18T11:32:30.886Z</time></trkpt><trkpt lat="43.9210983" lon="12.73241"><ele>31.0</ele><time>2026-04-18T11:32:31.887Z</time></trkpt><trkpt lat="43.920955" lon="12.732315"><ele>31.0</ele><time>2026-04-18T11:32:32.886Z</time></trkpt><trkpt lat="43.9208017" lon="12.73223"><ele>31.0</ele><time>2026-04-18T11:32:33.887Z</time></trkpt><trkpt lat="43.9206417" lon="12.7321617"><ele>31.0</ele><time>2026-04-18T11:32:34.885Z</time></trkpt><trkpt lat="43.9204733" lon="12.7321183"><ele>31.0</ele><time>2026-04-18T11:32:35.886Z</time></trkpt><trkpt lat="43.9202983" lon="12.7321"><ele>31.0</ele><time>2026-04-18T11:32:36.886Z</time></trkpt><trkpt lat="43.9201217" lon="12.7320983"><ele>31.0</ele><time>2026-04-18T11:32:37.89Z</time></trkpt><trkpt lat="43.9199367" lon="12.7320983"><ele>31.333333333333336</ele><time>2026-04-18T11:32:38.886Z</time></trkpt><trkpt lat="43.91975" lon="12.7321017"><ele>31.666666666666664</ele><time>2026-04-18T11:32:39.886Z</time></trkpt><trkpt lat="43.919565" lon="12.732115"><ele>32.0</ele><time>2026-04-18T11:32:40.888Z</time></trkpt><trkpt lat="43.9193833" lon="12.73214"><ele>32.0</ele><time>2026-04-18T11:32:41.886Z</time></trkpt><trkpt lat="43.9192033" lon="12.7321917"><ele>32.0</ele><time>2026-04-18T11:32:42.889Z</time></trkpt><trkpt lat="43.91903" lon="12.7322767"><ele>32.0</ele><time>2026-04-18T11:32:43.888Z</time></trkpt><trkpt lat="43.91887" lon="12.7323967"><ele>32.0</ele><time>2026-04-18T11:32:44.889Z</time></trkpt><trkpt lat="43.9187133" lon="12.7325433"><ele>32.0</ele><time>2026-04-18T11:32:45.886Z</time></trkpt><trkpt lat="43.918555" lon="12.7327017"><ele>32.0</ele><time>2026-04-18T11:32:46.886Z</time></trkpt><trkpt lat="43.9183967" lon="12.73285"><ele>32.33333333333333</ele><time>2026-04-18T11:32:47.886Z</time></trkpt><trkpt lat="43.918235" lon="12.7329933"><ele>32.666666666666664</ele><time>2026-04-18T11:32:48.885Z</time></trkpt><trkpt lat="43.9180767" lon="12.7331317"><ele>33.0</ele><time>2026-04-18T11:32:49.886Z</time></trkpt><trkpt lat="43.9179133" lon="12.7332567"><ele>33.0</ele><time>2026-04-18T11:32:50.885Z</time></trkpt><trkpt lat="43.9177483" lon="12.7333683"><ele>33.0</ele><time>2026-04-18T11:32:51.886Z</time></trkpt><trkpt lat="43.9175867" lon="12.7334683"><ele>33.0</ele><time>2026-04-18T11:32:52.885Z</time></trkpt><trkpt lat="43.91743" lon="12.7335583"><ele>33.666666666666664</ele><time>2026-04-18T11:32:53.886Z</time></trkpt><trkpt lat="43.9172733" lon="12.73363"><ele>34.33333333333333</ele><time>2026-04-18T11:32:54.886Z</time></trkpt><trkpt lat="43.9171133" lon="12.73367"><ele>35.0</ele><time>2026-04-18T11:32:55.886Z</time></trkpt><trkpt lat="43.9169483" lon="12.7336783"><ele>35.0</ele><time>2026-04-18T11:32:56.885Z</time></trkpt><trkpt lat="43.9167767" lon="12.7336567"><ele>35.0</ele><time>2026-04-18T11:32:57.885Z</time></trkpt><trkpt lat="43.9165983" lon="12.73361"><ele>35.0</ele><time>2026-04-18T11:32:58.886Z</time></trkpt><trkpt lat="43.9164217" lon="12.7335467"><ele>35.0</ele><time>2026-04-18T11:32:59.885Z</time></trkpt><trkpt lat="43.91624" lon="12.7334667"><ele>35.0</ele><time>2026-04-18T11:33:00.887Z</time></trkpt><trkpt lat="43.9160567" lon="12.7333817"><ele>35.0</ele><time>2026-04-18T11:33:01.886Z</time></trkpt><trkpt lat="43.91588" lon="12.7332817"><ele>34.666666666666664</ele><time>2026-04-18T11:33:02.885Z</time></trkpt><trkpt lat="43.9157217" lon="12.7331683"><ele>34.333333333333336</ele><time>2026-04-18T11:33:03.887Z</time></trkpt><trkpt lat="43.915575" lon="12.73306"><ele>34.0</ele><time>2026-04-18T11:33:04.887Z</time></trkpt><trkpt lat="43.9154317" lon="12.7329633"><ele>34.0</ele><time>2026-04-18T11:33:05.886Z</time></trkpt><trkpt lat="43.915295" lon="12.7328733"><ele>34.0</ele><time>2026-04-18T11:33:06.887Z</time></trkpt><trkpt lat="43.915165" lon="12.73279"><ele>34.0</ele><time>2026-04-18T11:33:07.886Z</time></trkpt><trkpt lat="43.9150417" lon="12.7327067"><ele>34.0</ele><time>2026-04-18T11:33:08.886Z</time></trkpt><trkpt lat="43.914925" lon="12.732625"><ele>34.16666666666667</ele><time>2026-04-18T11:33:09.885Z</time></trkpt><trkpt lat="43.9148183" lon="12.732555"><ele>34.333333333333336</ele><time>2026-04-18T11:33:10.886Z</time></trkpt><trkpt lat="43.9147267" lon="12.7324933"><ele>34.5</ele><time>2026-04-18T11:33:11.885Z</time></trkpt><trkpt lat="43.9146567" lon="12.732435"><ele>34.666666666666664</ele><time>2026-04-18T11:33:12.886Z</time></trkpt><trkpt lat="43.9146083" lon="12.732375"><ele>34.83333333333333</ele><time>2026-04-18T11:33:13.886Z</time></trkpt><trkpt lat="43.91456" lon="12.7323117"><ele>35.0</ele><time>2026-04-18T11:33:14.886Z</time></trkpt><trkpt lat="43.9145767" lon="12.73216"><ele>35.0</ele><time>2026-04-18T11:33:16.887Z</time></trkpt><trkpt lat="43.91473" lon="12.7320883"><ele>35.0</ele><time>2026-04-18T11:33:17.887Z</time></trkpt><trkpt lat="43.9148167" lon="12.7320383"><ele>35.0</ele><time>2026-04-18T11:33:18.888Z</time></trkpt><trkpt lat="43.914945" lon="12.7319783"><ele>35.0</ele><time>2026-04-18T11:33:19.886Z</time></trkpt><trkpt lat="43.91516" lon="12.7319083"><ele>35.0</ele><time>2026-04-18T11:33:20.885Z</time></trkpt><trkpt lat="43.9153317" lon="12.731815"><ele>35.0</ele><time>2026-04-18T11:33:21.887Z</time></trkpt><trkpt lat="43.915495" lon="12.731695"><ele>35.0</ele><time>2026-04-18T11:33:22.886Z</time></trkpt><trkpt lat="43.91563" lon="12.731555"><ele>35.0</ele><time>2026-04-18T11:33:23.886Z</time></trkpt><trkpt lat="43.9157467" lon="12.7313933"><ele>35.0</ele><time>2026-04-18T11:33:24.886Z</time></trkpt><trkpt lat="43.91585" lon="12.731225"><ele>35.0</ele><time>2026-04-18T11:33:25.889Z</time></trkpt><trkpt lat="43.915935" lon="12.731055"><ele>34.25</ele><time>2026-04-18T11:33:26.886Z</time></trkpt><trkpt lat="43.91601" lon="12.7308833"><ele>33.5</ele><time>2026-04-18T11:33:27.886Z</time></trkpt><trkpt lat="43.916075" lon="12.73072"><ele>32.75</ele><time>2026-04-18T11:33:28.887Z</time></trkpt><trkpt lat="43.9161333" lon="12.73056"><ele>32.0</ele><time>2026-04-18T11:33:29.885Z</time></trkpt><trkpt lat="43.916195" lon="12.7303983"><ele>32.0</ele><time>2026-04-18T11:33:30.886Z</time></trkpt><trkpt lat="43.9162617" lon="12.7302333"><ele>32.0</ele><time>2026-04-18T11:33:31.886Z</time></trkpt><trkpt lat="43.9163283" lon="12.7300633"><ele>32.0</ele><time>2026-04-18T11:33:32.889Z</time></trkpt><trkpt lat="43.9163983" lon="12.7298883"><ele>32.0</ele><time>2026-04-18T11:33:33.887Z</time></trkpt><trkpt lat="43.91647" lon="12.72971"><ele>31.25</ele><time>2026-04-18T11:33:34.886Z</time></trkpt><trkpt lat="43.91654" lon="12.7295317"><ele>30.5</ele><time>2026-04-18T11:33:35.886Z</time></trkpt><trkpt lat="43.9166067" lon="12.7293633"><ele>29.75</ele><time>2026-04-18T11:33:36.887Z</time></trkpt><trkpt lat="43.9166667" lon="12.72921"><ele>29.0</ele><time>2026-04-18T11:33:37.886Z</time></trkpt><trkpt lat="43.9167233" lon="12.7290733"><ele>28.799999999999997</ele><time>2026-04-18T11:33:38.887Z</time></trkpt><trkpt lat="43.9167733" lon="12.7289517"><ele>28.599999999999998</ele><time>2026-04-18T11:33:39.889Z</time></trkpt><trkpt lat="43.916815" lon="12.7288417"><ele>28.4</ele><time>2026-04-18T11:33:40.887Z</time></trkpt><trkpt lat="43.9168417" lon="12.7287383"><ele>28.2</ele><time>2026-04-18T11:33:41.886Z</time></trkpt><trkpt lat="43.9168133" lon="12.7285933"><ele>28.0</ele><time>2026-04-18T11:33:43.886Z</time></trkpt><trkpt lat="43.9166933" lon="12.728545"><ele>28.4</ele><time>2026-04-18T11:33:45.885Z</time></trkpt><trkpt lat="43.9166133" lon="12.7285483"><ele>28.799999999999997</ele><time>2026-04-18T11:33:46.887Z</time></trkpt><trkpt lat="43.916525" lon="12.7285333"><ele>29.2</ele><time>2026-04-18T11:33:47.887Z</time></trkpt><trkpt lat="43.9164367" lon="12.7284967"><ele>29.6</ele><time>2026-04-18T11:33:48.886Z</time></trkpt><trkpt lat="43.91635" lon="12.7284433"><ele>30.0</ele><time>2026-04-18T11:33:49.887Z</time></trkpt><trkpt lat="43.9162783" lon="12.7283583"><ele>30.0</ele><time>2026-04-18T11:33:50.885Z</time></trkpt><trkpt lat="43.91623" lon="12.7282417"><ele>30.0</ele><time>2026-04-18T11:33:51.886Z</time></trkpt><trkpt lat="43.9161717" lon="12.7281183"><ele>30.0</ele><time>2026-04-18T11:33:52.886Z</time></trkpt><trkpt lat="43.916105" lon="12.7280067"><ele>30.0</ele><time>2026-04-18T11:33:53.886Z</time></trkpt><trkpt lat="43.9160233" lon="12.7279283"><ele>30.0</ele><time>2026-04-18T11:33:54.886Z</time></trkpt><trkpt lat="43.9159367" lon="12.72789"><ele>30.2</ele><time>2026-04-18T11:33:55.886Z</time></trkpt><trkpt lat="43.915845" lon="12.7278867"><ele>30.4</ele><time>2026-04-18T11:33:56.886Z</time></trkpt><trkpt lat="43.9157317" lon="12.727905"><ele>30.6</ele><time>2026-04-18T11:33:57.887Z</time></trkpt><trkpt lat="43.91562" lon="12.7279467"><ele>30.8</ele><time>2026-04-18T11:33:58.886Z</time></trkpt><trkpt lat="43.9154983" lon="12.7279783"><ele>31.0</ele><time>2026-04-18T11:33:59.887Z</time></trkpt><trkpt lat="43.9153733" lon="12.728005"><ele>31.0</ele><time>2026-04-18T11:34:00.886Z</time></trkpt><trkpt lat="43.9152483" lon="12.7280233"><ele>31.0</ele><time>2026-04-18T11:34:01.886Z</time></trkpt><trkpt lat="43.9151267" lon="12.728035"><ele>31.0</ele><time>2026-04-18T11:34:02.886Z</time></trkpt><trkpt lat="43.9150067" lon="12.7280267"><ele>31.0</ele><time>2026-04-18T11:34:03.885Z</time></trkpt><trkpt lat="43.9148967" lon="12.7280283"><ele>31.200000000000003</ele><time>2026-04-18T11:34:04.886Z</time></trkpt><trkpt lat="43.914795" lon="12.728035"><ele>31.400000000000002</ele><time>2026-04-18T11:34:05.886Z</time></trkpt><trkpt lat="43.9147" lon="12.7280383"><ele>31.6</ele><time>2026-04-18T11:34:06.886Z</time></trkpt><trkpt lat="43.9146083" lon="12.7280367"><ele>31.8</ele><time>2026-04-18T11:34:07.888Z</time></trkpt><trkpt lat="43.9145233" lon="12.7280233"><ele>32.0</ele><time>2026-04-18T11:34:08.887Z</time></trkpt><trkpt lat="43.9144367" lon="12.727995"><ele>32.0</ele><time>2026-04-18T11:34:09.887Z</time></trkpt><trkpt lat="43.914355" lon="12.7279483"><ele>32.0</ele><time>2026-04-18T11:34:10.886Z</time></trkpt><trkpt lat="43.9142783" lon="12.7278683"><ele>32.0</ele><time>2026-04-18T11:34:11.887Z</time></trkpt><trkpt lat="43.9142017" lon="12.72776"><ele>32.0</ele><time>2026-04-18T11:34:12.886Z</time></trkpt><trkpt lat="43.914125" lon="12.727635"><ele>32.0</ele><time>2026-04-18T11:34:13.886Z</time></trkpt><trkpt lat="43.91404" lon="12.7275167"><ele>33.2</ele><time>2026-04-18T11:34:14.885Z</time></trkpt><trkpt lat="43.9139567" lon="12.7274183"><ele>34.400000000000006</ele><time>2026-04-18T11:34:15.887Z</time></trkpt><trkpt lat="43.9138783" lon="12.727335"><ele>35.599999999999994</ele><time>2026-04-18T11:34:16.887Z</time></trkpt><trkpt lat="43.9137933" lon="12.7272683"><ele>36.8</ele><time>2026-04-18T11:34:17.886Z</time></trkpt><trkpt lat="43.9137" lon="12.7272183"><ele>38.0</ele><time>2026-04-18T11:34:18.886Z</time></trkpt><trkpt lat="43.9136" lon="12.72718"><ele>38.0</ele><time>2026-04-18T11:34:19.886Z</time></trkpt><trkpt lat="43.9135" lon="12.727155"><ele>38.0</ele><time>2026-04-18T11:34:20.889Z</time></trkpt><trkpt lat="43.9134067" lon="12.7271317"><ele>38.0</ele><time>2026-04-18T11:34:21.886Z</time></trkpt><trkpt lat="43.913325" lon="12.7271133"><ele>38.0</ele><time>2026-04-18T11:34:22.886Z</time></trkpt><trkpt lat="43.9132233" lon="12.72706"><ele>38.0</ele><time>2026-04-18T11:34:24.889Z</time></trkpt><trkpt lat="43.9131917" lon="12.7269283"><ele>38.57142857142857</ele><time>2026-04-18T11:34:26.891Z</time></trkpt><trkpt lat="43.9131783" lon="12.72684"><ele>39.142857142857146</ele><time>2026-04-18T11:34:27.886Z</time></trkpt><trkpt lat="43.913175" lon="12.7267417"><ele>39.714285714285715</ele><time>2026-04-18T11:34:28.886Z</time></trkpt><trkpt lat="43.9131683" lon="12.7266383"><ele>40.285714285714285</ele><time>2026-04-18T11:34:29.886Z</time></trkpt><trkpt lat="43.91316" lon="12.72654"><ele>40.85714285714286</ele><time>2026-04-18T11:34:30.887Z</time></trkpt><trkpt lat="43.913165" lon="12.7264433"><ele>41.42857142857143</ele><time>2026-04-18T11:34:31.888Z</time></trkpt><trkpt lat="43.9131883" lon="12.726345"><ele>42.0</ele><time>2026-04-18T11:34:32.885Z</time></trkpt><trkpt lat="43.91322" lon="12.72623"><ele>42.0</ele><time>2026-04-18T11:34:33.889Z</time></trkpt><trkpt lat="43.9132633" lon="12.7260967"><ele>42.0</ele><time>2026-04-18T11:34:34.886Z</time></trkpt><trkpt lat="43.91331" lon="12.7259617"><ele>42.0</ele><time>2026-04-18T11:34:35.886Z</time></trkpt><trkpt lat="43.9133633" lon="12.7258317"><ele>42.0</ele><time>2026-04-18T11:34:36.887Z</time></trkpt><trkpt lat="43.9134167" lon="12.7257083"><ele>42.0</ele><time>2026-04-18T11:34:37.887Z</time></trkpt><trkpt lat="43.9134617" lon="12.7255983"><ele>43.5</ele><time>2026-04-18T11:34:38.886Z</time></trkpt><trkpt lat="43.9135017" lon="12.7254917"><ele>45.0</ele><time>2026-04-18T11:34:39.89Z</time></trkpt><trkpt lat="43.9135417" lon="12.7253883"><ele>46.5</ele><time>2026-04-18T11:34:40.886Z</time></trkpt><trkpt lat="43.9135833" lon="12.725295"><ele>48.0</ele><time>2026-04-18T11:34:41.887Z</time></trkpt><trkpt lat="43.9136267" lon="12.7251967"><ele>49.5</ele><time>2026-04-18T11:34:42.886Z</time></trkpt><trkpt lat="43.9136767" lon="12.7250983"><ele>51.0</ele><time>2026-04-18T11:34:43.886Z</time></trkpt><trkpt lat="43.9137367" lon="12.7250017"><ele>52.599999999999994</ele><time>2026-04-18T11:34:44.889Z</time></trkpt><trkpt lat="43.9138083" lon="12.72491"><ele>54.2</ele><time>2026-04-18T11:34:45.886Z</time></trkpt><trkpt lat="43.9138883" lon="12.7248267"><ele>55.800000000000004</ele><time>2026-04-18T11:34:46.886Z</time></trkpt><trkpt lat="43.91397" lon="12.7247383"><ele>57.400000000000006</ele><time>2026-04-18T11:34:47.886Z</time></trkpt><trkpt lat="43.914055" lon="12.724645"><ele>59.0</ele><time>2026-04-18T11:34:48.889Z</time></trkpt><trkpt lat="43.9141417" lon="12.724545"><ele>59.0</ele><time>2026-04-18T11:34:49.886Z</time></trkpt><trkpt lat="43.91423" lon="12.7244433"><ele>59.0</ele><time>2026-04-18T11:34:50.887Z</time></trkpt><trkpt lat="43.9143183" lon="12.7243383"><ele>59.0</ele><time>2026-04-18T11:34:51.886Z</time></trkpt><trkpt lat="43.9144017" lon="12.7242267"><ele>59.0</ele><time>2026-04-18T11:34:52.887Z</time></trkpt><trkpt lat="43.9144767" lon="12.7241033"><ele>60.5</ele><time>2026-04-18T11:34:53.89Z</time></trkpt><trkpt lat="43.9145467" lon="12.7239667"><ele>62.0</ele><time>2026-04-18T11:34:54.889Z</time></trkpt><trkpt lat="43.91461" lon="12.72382"><ele>63.5</ele><time>2026-04-18T11:34:55.888Z</time></trkpt><trkpt lat="43.9146717" lon="12.7236717"><ele>65.0</ele><time>2026-04-18T11:34:56.89Z</time></trkpt><trkpt lat="43.9147317" lon="12.7235217"><ele>67.5</ele><time>2026-04-18T11:34:57.886Z</time></trkpt><trkpt lat="43.9147917" lon="12.7233733"><ele>70.0</ele><time>2026-04-18T11:34:58.89Z</time></trkpt><trkpt lat="43.9148467" lon="12.7232267"><ele>72.5</ele><time>2026-04-18T11:34:59.886Z</time></trkpt><trkpt lat="43.9149" lon="12.7230867"><ele>75.0</ele><time>2026-04-18T11:35:00.888Z</time></trkpt><trkpt lat="43.9149517" lon="12.7229533"><ele>75.0</ele><time>2026-04-18T11:35:01.89Z</time></trkpt><trkpt lat="43.915" lon="12.7228233"><ele>75.0</ele><time>2026-04-18T11:35:02.889Z</time></trkpt><trkpt lat="43.9150483" lon="12.7226917"><ele>75.0</ele><time>2026-04-18T11:35:03.89Z</time></trkpt><trkpt lat="43.9151" lon="12.7225567"><ele>75.0</ele><time>2026-04-18T11:35:04.889Z</time></trkpt><trkpt lat="43.9151583" lon="12.722415"><ele>75.0</ele><time>2026-04-18T11:35:05.889Z</time></trkpt><trkpt lat="43.9152183" lon="12.72227"><ele>75.0</ele><time>2026-04-18T11:35:06.886Z</time></trkpt><trkpt lat="43.9152917" lon="12.7221333"><ele>75.0</ele><time>2026-04-18T11:35:07.89Z</time></trkpt><trkpt lat="43.9153783" lon="12.7219983"><ele>75.0</ele><time>2026-04-18T11:35:08.885Z</time></trkpt><trkpt lat="43.91547" lon="12.721865"><ele>75.0</ele><time>2026-04-18T11:35:09.89Z</time></trkpt><trkpt lat="43.915565" lon="12.7217283"><ele>74.75</ele><time>2026-04-18T11:35:10.889Z</time></trkpt><trkpt lat="43.9156617" lon="12.7215883"><ele>74.5</ele><time>2026-04-18T11:35:11.889Z</time></trkpt><trkpt lat="43.9157583" lon="12.72145"><ele>74.25</ele><time>2026-04-18T11:35:12.89Z</time></trkpt><trkpt lat="43.9158517" lon="12.7213083"><ele>74.0</ele><time>2026-04-18T11:35:13.889Z</time></trkpt><trkpt lat="43.91595" lon="12.721165"><ele>76.0</ele><time>2026-04-18T11:35:14.889Z</time></trkpt><trkpt lat="43.9160483" lon="12.7210217"><ele>78.0</ele><time>2026-04-18T11:35:15.887Z</time></trkpt><trkpt lat="43.91614" lon="12.7208783"><ele>80.0</ele><time>2026-04-18T11:35:16.886Z</time></trkpt><trkpt lat="43.9162233" lon="12.720745"><ele>82.0</ele><time>2026-04-18T11:35:17.886Z</time></trkpt><trkpt lat="43.9162983" lon="12.72062"><ele>82.0</ele><time>2026-04-18T11:35:18.888Z</time></trkpt><trkpt lat="43.9163617" lon="12.7205067"><ele>82.0</ele><time>2026-04-18T11:35:19.886Z</time></trkpt><trkpt lat="43.9164167" lon="12.7204083"><ele>82.0</ele><time>2026-04-18T11:35:20.887Z</time></trkpt><trkpt lat="43.9164583" lon="12.7203333"><ele>82.0</ele><time>2026-04-18T11:35:21.887Z</time></trkpt><trkpt lat="43.916505" lon="12.7202533"><ele>82.0</ele><time>2026-04-18T11:35:23.886Z</time></trkpt><trkpt lat="43.9165033" lon="12.7201417"><ele>82.0</ele><time>2026-04-18T11:35:26.89Z</time></trkpt><trkpt lat="43.9164583" lon="12.7200717"><ele>83.25</ele><time>2026-04-18T11:35:27.886Z</time></trkpt><trkpt lat="43.91639" lon="12.719985"><ele>84.5</ele><time>2026-04-18T11:35:28.887Z</time></trkpt><trkpt lat="43.916325" lon="12.719885"><ele>85.75</ele><time>2026-04-18T11:35:29.89Z</time></trkpt><trkpt lat="43.9162317" lon="12.7197417"><ele>87.0</ele><time>2026-04-18T11:35:30.887Z</time></trkpt><trkpt lat="43.9161467" lon="12.7195917"><ele>87.0</ele><time>2026-04-18T11:35:31.888Z</time></trkpt><trkpt lat="43.9160567" lon="12.71943"><ele>87.0</ele><time>2026-04-18T11:35:32.886Z</time></trkpt><trkpt lat="43.915965" lon="12.71926"><ele>87.0</ele><time>2026-04-18T11:35:33.887Z</time></trkpt><trkpt lat="43.9158667" lon="12.71908"><ele>87.0</ele><time>2026-04-18T11:35:34.887Z</time></trkpt><trkpt lat="43.915765" lon="12.718895"><ele>87.0</ele><time>2026-04-18T11:35:35.887Z</time></trkpt><trkpt lat="43.9156633" lon="12.7187"><ele>87.0</ele><time>2026-04-18T11:35:36.887Z</time></trkpt><trkpt lat="43.91556" lon="12.7185017"><ele>86.33333333333333</ele><time>2026-04-18T11:35:37.888Z</time></trkpt><trkpt lat="43.9154567" lon="12.7183017"><ele>85.66666666666666</ele><time>2026-04-18T11:35:38.886Z</time></trkpt><trkpt lat="43.9153533" lon="12.718105"><ele>85.0</ele><time>2026-04-18T11:35:39.887Z</time></trkpt><trkpt lat="43.9152517" lon="12.7179067"><ele>85.66666666666666</ele><time>2026-04-18T11:35:40.89Z</time></trkpt><trkpt lat="43.9151483" lon="12.7177083"><ele>86.33333333333333</ele><time>2026-04-18T11:35:41.887Z</time></trkpt><trkpt lat="43.9150417" lon="12.71751"><ele>87.0</ele><time>2026-04-18T11:35:42.887Z</time></trkpt><trkpt lat="43.9149317" lon="12.71732"><ele>87.0</ele><time>2026-04-18T11:35:43.888Z</time></trkpt><trkpt lat="43.914815" lon="12.7171383"><ele>87.0</ele><time>2026-04-18T11:35:44.887Z</time></trkpt><trkpt lat="43.9146917" lon="12.716965"><ele>87.0</ele><time>2026-04-18T11:35:45.888Z</time></trkpt><trkpt lat="43.914565" lon="12.716795"><ele>87.0</ele><time>2026-04-18T11:35:46.889Z</time></trkpt><trkpt lat="43.9144367" lon="12.7166267"><ele>87.0</ele><time>2026-04-18T11:35:47.889Z</time></trkpt><trkpt lat="43.914305" lon="12.71646"><ele>87.0</ele><time>2026-04-18T11:35:48.888Z</time></trkpt><trkpt lat="43.9141733" lon="12.7162917"><ele>87.66666666666667</ele><time>2026-04-18T11:35:49.888Z</time></trkpt><trkpt lat="43.9140383" lon="12.7161267"><ele>88.33333333333334</ele><time>2026-04-18T11:35:50.889Z</time></trkpt><trkpt lat="43.9139033" lon="12.7159617"><ele>89.0</ele><time>2026-04-18T11:35:51.89Z</time></trkpt><trkpt lat="43.91377" lon="12.7158"><ele>89.0</ele><time>2026-04-18T11:35:52.89Z</time></trkpt><trkpt lat="43.913635" lon="12.71564"><ele>89.0</ele><time>2026-04-18T11:35:53.889Z</time></trkpt><trkpt lat="43.913495" lon="12.7154867"><ele>89.0</ele><time>2026-04-18T11:35:54.889Z</time></trkpt><trkpt lat="43.9133517" lon="12.7153383"><ele>92.33333333333334</ele><time>2026-04-18T11:35:55.889Z</time></trkpt><trkpt lat="43.91321" lon="12.715195"><ele>95.66666666666667</ele><time>2026-04-18T11:35:56.89Z</time></trkpt><trkpt lat="43.9130683" lon="12.7150567"><ele>99.0</ele><time>2026-04-18T11:35:57.89Z</time></trkpt><trkpt lat="43.9129267" lon="12.71492"><ele>99.0</ele><time>2026-04-18T11:35:58.889Z</time></trkpt><trkpt lat="43.9127867" lon="12.714775"><ele>99.0</ele><time>2026-04-18T11:35:59.889Z</time></trkpt><trkpt lat="43.91265" lon="12.714635"><ele>99.0</ele><time>2026-04-18T11:36:00.887Z</time></trkpt><trkpt lat="43.9125317" lon="12.7145183"><ele>100.75</ele><time>2026-04-18T11:36:01.888Z</time></trkpt><trkpt lat="43.912425" lon="12.714425"><ele>102.5</ele><time>2026-04-18T11:36:02.886Z</time></trkpt><trkpt lat="43.91232" lon="12.7143367"><ele>104.25</ele><time>2026-04-18T11:36:03.886Z</time></trkpt><trkpt lat="43.9122067" lon="12.7142417"><ele>106.0</ele><time>2026-04-18T11:36:04.886Z</time></trkpt><trkpt lat="43.9120833" lon="12.7141433"><ele>106.0</ele><time>2026-04-18T11:36:05.886Z</time></trkpt><trkpt lat="43.9119467" lon="12.7140467"><ele>106.0</ele><time>2026-04-18T11:36:06.888Z</time></trkpt><trkpt lat="43.9118067" lon="12.7139417"><ele>106.0</ele><time>2026-04-18T11:36:07.886Z</time></trkpt><trkpt lat="43.9116683" lon="12.7138267"><ele>105.66666666666667</ele><time>2026-04-18T11:36:08.886Z</time></trkpt><trkpt lat="43.911535" lon="12.713695"><ele>105.33333333333334</ele><time>2026-04-18T11:36:09.886Z</time></trkpt><trkpt lat="43.9114117" lon="12.7135467"><ele>105.0</ele><time>2026-04-18T11:36:10.887Z</time></trkpt><trkpt lat="43.9112983" lon="12.7133717"><ele>105.0</ele><time>2026-04-18T11:36:11.886Z</time></trkpt><trkpt lat="43.9111983" lon="12.71318"><ele>105.0</ele><time>2026-04-18T11:36:12.886Z</time></trkpt><trkpt lat="43.9111083" lon="12.71298"><ele>105.0</ele><time>2026-04-18T11:36:13.887Z</time></trkpt><trkpt lat="43.9110217" lon="12.712775"><ele>103.66666666666666</ele><time>2026-04-18T11:36:14.887Z</time></trkpt><trkpt lat="43.910945" lon="12.7125633"><ele>102.33333333333333</ele><time>2026-04-18T11:36:15.886Z</time></trkpt><trkpt lat="43.9108733" lon="12.7123517"><ele>101.0</ele><time>2026-04-18T11:36:16.887Z</time></trkpt><trkpt lat="43.9108" lon="12.712135"><ele>104.66666666666666</ele><time>2026-04-18T11:36:17.885Z</time></trkpt><trkpt lat="43.9107267" lon="12.7119183"><ele>108.33333333333334</ele><time>2026-04-18T11:36:18.885Z</time></trkpt><trkpt lat="43.9106533" lon="12.7117017"><ele>112.0</ele><time>2026-04-18T11:36:19.886Z</time></trkpt><trkpt lat="43.9105817" lon="12.71149"><ele>112.33333333333334</ele><time>2026-04-18T11:36:20.885Z</time></trkpt><trkpt lat="43.91051" lon="12.711295"><ele>112.66666666666666</ele><time>2026-04-18T11:36:21.887Z</time></trkpt><trkpt lat="43.910435" lon="12.7111133"><ele>113.0</ele><time>2026-04-18T11:36:22.886Z</time></trkpt><trkpt lat="43.9103517" lon="12.710935"><ele>111.66666666666666</ele><time>2026-04-18T11:36:23.886Z</time></trkpt><trkpt lat="43.9102617" lon="12.710745"><ele>110.33333333333334</ele><time>2026-04-18T11:36:24.885Z</time></trkpt><trkpt lat="43.9101717" lon="12.7105433"><ele>109.0</ele><time>2026-04-18T11:36:25.885Z</time></trkpt><trkpt lat="43.9100783" lon="12.710335"><ele>111.0</ele><time>2026-04-18T11:36:26.886Z</time></trkpt><trkpt lat="43.909985" lon="12.710115"><ele>113.0</ele><time>2026-04-18T11:36:27.889Z</time></trkpt><trkpt lat="43.90989" lon="12.7098933"><ele>115.0</ele><time>2026-04-18T11:36:28.886Z</time></trkpt><trkpt lat="43.9098083" lon="12.7096717"><ele>115.0</ele><time>2026-04-18T11:36:29.886Z</time></trkpt><trkpt lat="43.9097433" lon="12.709455"><ele>115.0</ele><time>2026-04-18T11:36:30.885Z</time></trkpt><trkpt lat="43.9096867" lon="12.709245"><ele>115.0</ele><time>2026-04-18T11:36:31.889Z</time></trkpt><trkpt lat="43.909635" lon="12.7090367"><ele>113.0</ele><time>2026-04-18T11:36:32.885Z</time></trkpt><trkpt lat="43.9095717" lon="12.70883"><ele>111.0</ele><time>2026-04-18T11:36:33.886Z</time></trkpt><trkpt lat="43.90949" lon="12.7086217"><ele>109.0</ele><time>2026-04-18T11:36:34.886Z</time></trkpt><trkpt lat="43.9094017" lon="12.7084117"><ele>109.0</ele><time>2026-04-18T11:36:35.889Z</time></trkpt><trkpt lat="43.9093133" lon="12.7081933"><ele>109.0</ele><time>2026-04-18T11:36:36.886Z</time></trkpt><trkpt lat="43.90923" lon="12.7079683"><ele>109.0</ele><time>2026-04-18T11:36:37.888Z</time></trkpt><trkpt lat="43.909155" lon="12.7077367"><ele>109.33333333333334</ele><time>2026-04-18T11:36:38.886Z</time></trkpt><trkpt lat="43.9090883" lon="12.707495"><ele>109.66666666666666</ele><time>2026-04-18T11:36:39.885Z</time></trkpt><trkpt lat="43.90903" lon="12.70725"><ele>110.0</ele><time>2026-04-18T11:36:40.886Z</time></trkpt><trkpt lat="43.908975" lon="12.707005"><ele>110.5</ele><time>2026-04-18T11:36:41.888Z</time></trkpt><trkpt lat="43.908925" lon="12.7067783"><ele>111.0</ele><time>2026-04-18T11:36:42.885Z</time></trkpt><trkpt lat="43.9088917" lon="12.7065783"><ele>111.5</ele><time>2026-04-18T11:36:43.887Z</time></trkpt><trkpt lat="43.9088667" lon="12.7064017"><ele>112.0</ele><time>2026-04-18T11:36:44.885Z</time></trkpt><trkpt lat="43.908865" lon="12.7062217"><ele>112.0</ele><time>2026-04-18T11:36:45.885Z</time></trkpt><trkpt lat="43.90888" lon="12.70603"><ele>112.0</ele><time>2026-04-18T11:36:46.886Z</time></trkpt><trkpt lat="43.9088967" lon="12.705825"><ele>112.0</ele><time>2026-04-18T11:36:47.885Z</time></trkpt><trkpt lat="43.90892" lon="12.7056067"><ele>112.0</ele><time>2026-04-18T11:36:48.885Z</time></trkpt><trkpt lat="43.9089433" lon="12.705385"><ele>113.0</ele><time>2026-04-18T11:36:49.886Z</time></trkpt><trkpt lat="43.9089633" lon="12.705165"><ele>114.0</ele><time>2026-04-18T11:36:50.885Z</time></trkpt><trkpt lat="43.9089833" lon="12.7049517"><ele>115.0</ele><time>2026-04-18T11:36:51.886Z</time></trkpt><trkpt lat="43.9090017" lon="12.7047467"><ele>115.0</ele><time>2026-04-18T11:36:52.886Z</time></trkpt><trkpt lat="43.909015" lon="12.7045533"><ele>115.0</ele><time>2026-04-18T11:36:53.885Z</time></trkpt><trkpt lat="43.9090183" lon="12.7043767"><ele>115.0</ele><time>2026-04-18T11:36:54.886Z</time></trkpt><trkpt lat="43.909015" lon="12.7042083"><ele>115.0</ele><time>2026-04-18T11:36:55.886Z</time></trkpt><trkpt lat="43.9090067" lon="12.704045"><ele>115.25</ele><time>2026-04-18T11:36:56.888Z</time></trkpt><trkpt lat="43.9089967" lon="12.7038717"><ele>115.5</ele><time>2026-04-18T11:36:57.886Z</time></trkpt><trkpt lat="43.908985" lon="12.7036933"><ele>115.75</ele><time>2026-04-18T11:36:58.886Z</time></trkpt><trkpt lat="43.90897" lon="12.7035167"><ele>116.0</ele><time>2026-04-18T11:36:59.886Z</time></trkpt><trkpt lat="43.9089567" lon="12.70334"><ele>117.5</ele><time>2026-04-18T11:37:00.885Z</time></trkpt><trkpt lat="43.9089433" lon="12.7031633"><ele>119.0</ele><time>2026-04-18T11:37:01.887Z</time></trkpt><trkpt lat="43.9089283" lon="12.70299"><ele>120.5</ele><time>2026-04-18T11:37:02.885Z</time></trkpt><trkpt lat="43.908905" lon="12.7028233"><ele>122.0</ele><time>2026-04-18T11:37:03.886Z</time></trkpt><trkpt lat="43.9088733" lon="12.7026633"><ele>123.0</ele><time>2026-04-18T11:37:04.887Z</time></trkpt><trkpt lat="43.9088267" lon="12.702515"><ele>124.0</ele><time>2026-04-18T11:37:05.886Z</time></trkpt><trkpt lat="43.9087733" lon="12.7023733"><ele>125.0</ele><time>2026-04-18T11:37:06.886Z</time></trkpt><trkpt lat="43.9087233" lon="12.7022283"><ele>126.0</ele><time>2026-04-18T11:37:07.886Z</time></trkpt><trkpt lat="43.9086933" lon="12.70208"><ele>126.0</ele><time>2026-04-18T11:37:08.886Z</time></trkpt><trkpt lat="43.9086867" lon="12.701925"><ele>126.0</ele><time>2026-04-18T11:37:09.885Z</time></trkpt><trkpt lat="43.9086967" lon="12.7017633"><ele>126.0</ele><time>2026-04-18T11:37:10.886Z</time></trkpt><trkpt lat="43.9087167" lon="12.7015933"><ele>126.0</ele><time>2026-04-18T11:37:11.886Z</time></trkpt><trkpt lat="43.9087467" lon="12.701415"><ele>127.5</ele><time>2026-04-18T11:37:12.888Z</time></trkpt><trkpt lat="43.9087767" lon="12.7012317"><ele>129.0</ele><time>2026-04-18T11:37:13.887Z</time></trkpt><trkpt lat="43.9088067" lon="12.7010533"><ele>130.5</ele><time>2026-04-18T11:37:14.885Z</time></trkpt><trkpt lat="43.90883" lon="12.7008967"><ele>132.0</ele><time>2026-04-18T11:37:15.886Z</time></trkpt><trkpt lat="43.9088467" lon="12.70077"><ele>133.16666666666666</ele><time>2026-04-18T11:37:16.887Z</time></trkpt><trkpt lat="43.9088583" lon="12.7006733"><ele>134.33333333333334</ele><time>2026-04-18T11:37:17.886Z</time></trkpt><trkpt lat="43.9088533" lon="12.7005533"><ele>135.5</ele><time>2026-04-18T11:37:19.887Z</time></trkpt><trkpt lat="43.9087767" lon="12.7005317"><ele>136.66666666666669</ele><time>2026-04-18T11:37:21.885Z</time></trkpt><trkpt lat="43.9087067" lon="12.7005517"><ele>137.83333333333334</ele><time>2026-04-18T11:37:22.887Z</time></trkpt><trkpt lat="43.908615" lon="12.70059"><ele>139.0</ele><time>2026-04-18T11:37:23.886Z</time></trkpt><trkpt lat="43.9084917" lon="12.7006217"><ele>140.25</ele><time>2026-04-18T11:37:24.886Z</time></trkpt><trkpt lat="43.9083617" lon="12.700615"><ele>141.5</ele><time>2026-04-18T11:37:25.886Z</time></trkpt><trkpt lat="43.9082433" lon="12.70056"><ele>142.75</ele><time>2026-04-18T11:37:26.89Z</time></trkpt><trkpt lat="43.9081367" lon="12.7004517"><ele>144.0</ele><time>2026-04-18T11:37:27.885Z</time></trkpt><trkpt lat="43.908035" lon="12.7003017"><ele>145.66666666666666</ele><time>2026-04-18T11:37:28.887Z</time></trkpt><trkpt lat="43.907935" lon="12.7001383"><ele>147.33333333333331</ele><time>2026-04-18T11:37:29.885Z</time></trkpt><trkpt lat="43.9078333" lon="12.6999767"><ele>149.0</ele><time>2026-04-18T11:37:30.886Z</time></trkpt><trkpt lat="43.90772" lon="12.6998183"><ele>149.0</ele><time>2026-04-18T11:37:31.886Z</time></trkpt><trkpt lat="43.9075917" lon="12.6996667"><ele>149.0</ele><time>2026-04-18T11:37:32.885Z</time></trkpt><trkpt lat="43.90745" lon="12.699525"><ele>149.0</ele><time>2026-04-18T11:37:33.885Z</time></trkpt><trkpt lat="43.9073017" lon="12.6993933"><ele>148.33333333333331</ele><time>2026-04-18T11:37:34.887Z</time></trkpt><trkpt lat="43.9071517" lon="12.6992633"><ele>147.66666666666666</ele><time>2026-04-18T11:37:35.886Z</time></trkpt><trkpt lat="43.907005" lon="12.699145"><ele>147.0</ele><time>2026-04-18T11:37:36.885Z</time></trkpt><trkpt lat="43.906865" lon="12.69903"><ele>148.66666666666666</ele><time>2026-04-18T11:37:37.887Z</time></trkpt><trkpt lat="43.90673" lon="12.6989133"><ele>150.33333333333331</ele><time>2026-04-18T11:37:38.886Z</time></trkpt><trkpt lat="43.9065917" lon="12.69879"><ele>152.0</ele><time>2026-04-18T11:37:39.885Z</time></trkpt><trkpt lat="43.906445" lon="12.6986667"><ele>151.33333333333331</ele><time>2026-04-18T11:37:40.888Z</time></trkpt><trkpt lat="43.906295" lon="12.69854"><ele>150.66666666666666</ele><time>2026-04-18T11:37:41.889Z</time></trkpt><trkpt lat="43.90614" lon="12.69841"><ele>150.0</ele><time>2026-04-18T11:37:42.889Z</time></trkpt><trkpt lat="43.9059817" lon="12.698275"><ele>151.0</ele><time>2026-04-18T11:37:43.886Z</time></trkpt><trkpt lat="43.9058183" lon="12.6981383"><ele>152.0</ele><time>2026-04-18T11:37:44.89Z</time></trkpt><trkpt lat="43.905655" lon="12.698005"><ele>153.0</ele><time>2026-04-18T11:37:45.887Z</time></trkpt><trkpt lat="43.9054933" lon="12.697865"><ele>153.33333333333334</ele><time>2026-04-18T11:37:46.886Z</time></trkpt><trkpt lat="43.9053383" lon="12.697725"><ele>153.66666666666669</ele><time>2026-04-18T11:37:47.886Z</time></trkpt><trkpt lat="43.9051867" lon="12.6975833"><ele>154.0</ele><time>2026-04-18T11:37:48.886Z</time></trkpt><trkpt lat="43.90504" lon="12.6974467"><ele>153.33333333333334</ele><time>2026-04-18T11:37:49.886Z</time></trkpt><trkpt lat="43.9049033" lon="12.697315"><ele>152.66666666666666</ele><time>2026-04-18T11:37:50.886Z</time></trkpt><trkpt lat="43.9047767" lon="12.6971917"><ele>152.0</ele><time>2026-04-18T11:37:51.885Z</time></trkpt><trkpt lat="43.90466" lon="12.69707"><ele>152.0</ele><time>2026-04-18T11:37:52.886Z</time></trkpt><trkpt lat="43.9045483" lon="12.6969583"><ele>152.0</ele><time>2026-04-18T11:37:53.886Z</time></trkpt><trkpt lat="43.9044367" lon="12.6968617"><ele>152.0</ele><time>2026-04-18T11:37:54.886Z</time></trkpt><trkpt lat="43.904325" lon="12.6967783"><ele>152.0</ele><time>2026-04-18T11:37:55.889Z</time></trkpt><trkpt lat="43.9042083" lon="12.6967217"><ele>151.0</ele><time>2026-04-18T11:37:56.889Z</time></trkpt><trkpt lat="43.90408" lon="12.6966967"><ele>150.0</ele><time>2026-04-18T11:37:57.885Z</time></trkpt><trkpt lat="43.90394" lon="12.6967117"><ele>149.0</ele><time>2026-04-18T11:37:58.89Z</time></trkpt><trkpt lat="43.9037933" lon="12.6967467"><ele>148.0</ele><time>2026-04-18T11:37:59.888Z</time></trkpt><trkpt lat="43.903635" lon="12.6967783"><ele>148.0</ele><time>2026-04-18T11:38:00.885Z</time></trkpt><trkpt lat="43.903475" lon="12.6968067"><ele>148.0</ele><time>2026-04-18T11:38:01.89Z</time></trkpt><trkpt lat="43.90332" lon="12.6968317"><ele>148.0</ele><time>2026-04-18T11:38:02.887Z</time></trkpt><trkpt lat="43.90317" lon="12.69686"><ele>146.33333333333334</ele><time>2026-04-18T11:38:03.886Z</time></trkpt><trkpt lat="43.9030133" lon="12.6969033"><ele>144.66666666666666</ele><time>2026-04-18T11:38:04.889Z</time></trkpt><trkpt lat="43.9028567" lon="12.69697"><ele>143.0</ele><time>2026-04-18T11:38:05.886Z</time></trkpt><trkpt lat="43.9027" lon="12.6970433"><ele>141.66666666666666</ele><time>2026-04-18T11:38:06.888Z</time></trkpt><trkpt lat="43.9025333" lon="12.697115"><ele>140.33333333333334</ele><time>2026-04-18T11:38:07.886Z</time></trkpt><trkpt lat="43.9023633" lon="12.69717"><ele>139.0</ele><time>2026-04-18T11:38:08.889Z</time></trkpt><trkpt lat="43.9021883" lon="12.6971867"><ele>139.0</ele><time>2026-04-18T11:38:09.889Z</time></trkpt><trkpt lat="43.9020117" lon="12.69717"><ele>139.0</ele><time>2026-04-18T11:38:10.888Z</time></trkpt><trkpt lat="43.9018367" lon="12.697125"><ele>139.0</ele><time>2026-04-18T11:38:11.889Z</time></trkpt><trkpt lat="43.9016583" lon="12.697065"><ele>140.33333333333334</ele><time>2026-04-18T11:38:12.888Z</time></trkpt><trkpt lat="43.9014717" lon="12.6970033"><ele>141.66666666666666</ele><time>2026-04-18T11:38:13.889Z</time></trkpt><trkpt lat="43.901285" lon="12.69695"><ele>143.0</ele><time>2026-04-18T11:38:14.889Z</time></trkpt><trkpt lat="43.9011017" lon="12.6969083"><ele>144.66666666666666</ele><time>2026-04-18T11:38:15.889Z</time></trkpt><trkpt lat="43.900915" lon="12.6968767"><ele>146.33333333333334</ele><time>2026-04-18T11:38:16.886Z</time></trkpt><trkpt lat="43.900725" lon="12.696855"><ele>148.0</ele><time>2026-04-18T11:38:17.886Z</time></trkpt><trkpt lat="43.900535" lon="12.696845"><ele>148.0</ele><time>2026-04-18T11:38:18.888Z</time></trkpt><trkpt lat="43.9003483" lon="12.6968417"><ele>148.0</ele><time>2026-04-18T11:38:19.886Z</time></trkpt><trkpt lat="43.9001683" lon="12.6968383"><ele>148.0</ele><time>2026-04-18T11:38:20.886Z</time></trkpt><trkpt lat="43.90001" lon="12.69683"><ele>148.83333333333334</ele><time>2026-04-18T11:38:21.889Z</time></trkpt><trkpt lat="43.8998817" lon="12.6968217"><ele>149.66666666666669</ele><time>2026-04-18T11:38:22.888Z</time></trkpt><trkpt lat="43.8997833" lon="12.696815"><ele>150.5</ele><time>2026-04-18T11:38:23.889Z</time></trkpt><trkpt lat="43.8997117" lon="12.69681"><ele>151.33333333333334</ele><time>2026-04-18T11:38:24.889Z</time></trkpt><trkpt lat="43.8996467" lon="12.696795"><ele>152.16666666666666</ele><time>2026-04-18T11:38:26.889Z</time></trkpt><trkpt lat="43.8995917" lon="12.69672"><ele>153.0</ele><time>2026-04-18T11:38:29.889Z</time></trkpt><trkpt lat="43.8995433" lon="12.69665"><ele>153.0</ele><time>2026-04-18T11:38:30.888Z</time></trkpt><trkpt lat="43.8994833" lon="12.69658"><ele>153.0</ele><time>2026-04-18T11:38:31.887Z</time></trkpt><trkpt lat="43.8993967" lon="12.696515"><ele>153.0</ele><time>2026-04-18T11:38:32.888Z</time></trkpt><trkpt lat="43.8992817" lon="12.696445"><ele>153.0</ele><time>2026-04-18T11:38:33.887Z</time></trkpt><trkpt lat="43.89915" lon="12.6963617"><ele>153.0</ele><time>2026-04-18T11:38:34.887Z</time></trkpt><trkpt lat="43.8990067" lon="12.6962733"><ele>152.0</ele><time>2026-04-18T11:38:35.886Z</time></trkpt><trkpt lat="43.89886" lon="12.6961833"><ele>151.0</ele><time>2026-04-18T11:38:36.887Z</time></trkpt><trkpt lat="43.89871" lon="12.6960767"><ele>150.0</ele><time>2026-04-18T11:38:37.887Z</time></trkpt><trkpt lat="43.898565" lon="12.6959617"><ele>150.0</ele><time>2026-04-18T11:38:38.887Z</time></trkpt><trkpt lat="43.8984283" lon="12.6958467"><ele>150.0</ele><time>2026-04-18T11:38:39.888Z</time></trkpt><trkpt lat="43.8982917" lon="12.6957267"><ele>150.0</ele><time>2026-04-18T11:38:40.887Z</time></trkpt><trkpt lat="43.8981633" lon="12.6956033"><ele>149.0</ele><time>2026-04-18T11:38:41.886Z</time></trkpt><trkpt lat="43.8980467" lon="12.695465"><ele>148.0</ele><time>2026-04-18T11:38:42.886Z</time></trkpt><trkpt lat="43.897935" lon="12.6953183"><ele>147.0</ele><time>2026-04-18T11:38:43.888Z</time></trkpt><trkpt lat="43.8978283" lon="12.6951617"><ele>147.0</ele><time>2026-04-18T11:38:44.887Z</time></trkpt><trkpt lat="43.8977267" lon="12.69501"><ele>147.0</ele><time>2026-04-18T11:38:45.887Z</time></trkpt><trkpt lat="43.897635" lon="12.6948683"><ele>147.0</ele><time>2026-04-18T11:38:46.886Z</time></trkpt><trkpt lat="43.8975533" lon="12.694745"><ele>147.0</ele><time>2026-04-18T11:38:47.887Z</time></trkpt><trkpt lat="43.89748" lon="12.6946367"><ele>148.83333333333334</ele><time>2026-04-18T11:38:48.887Z</time></trkpt><trkpt lat="43.897425" lon="12.694545"><ele>150.66666666666666</ele><time>2026-04-18T11:38:49.887Z</time></trkpt><trkpt lat="43.8973817" lon="12.694475"><ele>152.5</ele><time>2026-04-18T11:38:50.887Z</time></trkpt><trkpt lat="43.8973067" lon="12.6944683"><ele>154.33333333333331</ele><time>2026-04-18T11:38:53.888Z</time></trkpt><trkpt lat="43.89728" lon="12.6946183"><ele>156.16666666666666</ele><time>2026-04-18T11:38:55.888Z</time></trkpt><trkpt lat="43.8972833" lon="12.6947367"><ele>158.0</ele><time>2026-04-18T11:38:56.888Z</time></trkpt><trkpt lat="43.8972867" lon="12.6948783"><ele>158.0</ele><time>2026-04-18T11:38:57.886Z</time></trkpt><trkpt lat="43.8972933" lon="12.69504"><ele>158.0</ele><time>2026-04-18T11:38:58.887Z</time></trkpt><trkpt lat="43.8972967" lon="12.695205"><ele>158.0</ele><time>2026-04-18T11:38:59.89Z</time></trkpt><trkpt lat="43.8973" lon="12.6953667"><ele>158.0</ele><time>2026-04-18T11:39:00.888Z</time></trkpt><trkpt lat="43.8972983" lon="12.69552"><ele>159.75</ele><time>2026-04-18T11:39:01.887Z</time></trkpt><trkpt lat="43.8972767" lon="12.6956633"><ele>161.5</ele><time>2026-04-18T11:39:02.886Z</time></trkpt><trkpt lat="43.8972317" lon="12.6958017"><ele>163.25</ele><time>2026-04-18T11:39:03.886Z</time></trkpt><trkpt lat="43.8971733" lon="12.695945"><ele>165.0</ele><time>2026-04-18T11:39:04.886Z</time></trkpt><trkpt lat="43.8971033" lon="12.696095"><ele>167.0</ele><time>2026-04-18T11:39:05.886Z</time></trkpt><trkpt lat="43.8970317" lon="12.6962433"><ele>169.0</ele><time>2026-04-18T11:39:06.887Z</time></trkpt><trkpt lat="43.896955" lon="12.69638"><ele>171.0</ele><time>2026-04-18T11:39:07.89Z</time></trkpt><trkpt lat="43.896865" lon="12.6964867"><ele>173.0</ele><time>2026-04-18T11:39:08.889Z</time></trkpt><trkpt lat="43.8967617" lon="12.6965667"><ele>172.0</ele><time>2026-04-18T11:39:09.886Z</time></trkpt><trkpt lat="43.8966633" lon="12.6966317"><ele>171.0</ele><time>2026-04-18T11:39:10.887Z</time></trkpt><trkpt lat="43.89657" lon="12.696695"><ele>170.0</ele><time>2026-04-18T11:39:11.886Z</time></trkpt><trkpt lat="43.8964783" lon="12.69677"><ele>169.0</ele><time>2026-04-18T11:39:12.887Z</time></trkpt><trkpt lat="43.8963917" lon="12.696845"><ele>168.0</ele><time>2026-04-18T11:39:13.887Z</time></trkpt><trkpt lat="43.8963083" lon="12.696905"><ele>168.60000000000002</ele><time>2026-04-18T11:39:14.886Z</time></trkpt><trkpt lat="43.8962233" lon="12.6969383"><ele>169.20000000000002</ele><time>2026-04-18T11:39:15.89Z</time></trkpt><trkpt lat="43.89613" lon="12.6969533"><ele>169.8</ele><time>2026-04-18T11:39:16.887Z</time></trkpt><trkpt lat="43.89603" lon="12.69695"><ele>170.4</ele><time>2026-04-18T11:39:17.886Z</time></trkpt><trkpt lat="43.895935" lon="12.696935"><ele>171.0</ele><time>2026-04-18T11:39:18.887Z</time></trkpt><trkpt lat="43.8958433" lon="12.696915"><ele>169.8</ele><time>2026-04-18T11:39:19.886Z</time></trkpt><trkpt lat="43.8957517" lon="12.6969"><ele>168.60000000000002</ele><time>2026-04-18T11:39:20.886Z</time></trkpt><trkpt lat="43.8956583" lon="12.6968917"><ele>167.4</ele><time>2026-04-18T11:39:21.885Z</time></trkpt><trkpt lat="43.8955667" lon="12.696895"><ele>166.2</ele><time>2026-04-18T11:39:22.887Z</time></trkpt><trkpt lat="43.8954683" lon="12.6969217"><ele>165.0</ele><time>2026-04-18T11:39:23.886Z</time></trkpt><trkpt lat="43.8953617" lon="12.69697"><ele>163.4</ele><time>2026-04-18T11:39:24.888Z</time></trkpt><trkpt lat="43.8952567" lon="12.6970217"><ele>161.8</ele><time>2026-04-18T11:39:25.886Z</time></trkpt><trkpt lat="43.8951533" lon="12.6970683"><ele>160.2</ele><time>2026-04-18T11:39:26.886Z</time></trkpt><trkpt lat="43.89506" lon="12.6970933"><ele>158.6</ele><time>2026-04-18T11:39:27.886Z</time></trkpt><trkpt lat="43.8949733" lon="12.69711"><ele>157.0</ele><time>2026-04-18T11:39:28.887Z</time></trkpt><trkpt lat="43.89489" lon="12.6971433"><ele>156.6</ele><time>2026-04-18T11:39:29.887Z</time></trkpt><trkpt lat="43.8948083" lon="12.6971917"><ele>156.2</ele><time>2026-04-18T11:39:30.89Z</time></trkpt><trkpt lat="43.8947233" lon="12.6972567"><ele>155.8</ele><time>2026-04-18T11:39:31.887Z</time></trkpt><trkpt lat="43.8946317" lon="12.697335"><ele>155.4</ele><time>2026-04-18T11:39:32.886Z</time></trkpt><trkpt lat="43.8945383" lon="12.6974217"><ele>155.0</ele><time>2026-04-18T11:39:33.887Z</time></trkpt><trkpt lat="43.8944483" lon="12.6975183"><ele>155.0</ele><time>2026-04-18T11:39:34.888Z</time></trkpt><trkpt lat="43.89436" lon="12.697625"><ele>155.0</ele><time>2026-04-18T11:39:35.886Z</time></trkpt><trkpt lat="43.8942667" lon="12.6977483"><ele>155.0</ele><time>2026-04-18T11:39:36.886Z</time></trkpt><trkpt lat="43.8941683" lon="12.69788"><ele>155.0</ele><time>2026-04-18T11:39:37.887Z</time></trkpt><trkpt lat="43.8940733" lon="12.6980117"><ele>151.25</ele><time>2026-04-18T11:39:38.885Z</time></trkpt><trkpt lat="43.893985" lon="12.6981417"><ele>147.5</ele><time>2026-04-18T11:39:39.886Z</time></trkpt><trkpt lat="43.8939" lon="12.6982667"><ele>143.75</ele><time>2026-04-18T11:39:40.889Z</time></trkpt><trkpt lat="43.8938217" lon="12.6983833"><ele>140.0</ele><time>2026-04-18T11:39:41.888Z</time></trkpt><trkpt lat="43.8937483" lon="12.6984933"><ele>138.2</ele><time>2026-04-18T11:39:42.889Z</time></trkpt><trkpt lat="43.893675" lon="12.698595"><ele>136.4</ele><time>2026-04-18T11:39:43.889Z</time></trkpt><trkpt lat="43.8935967" lon="12.6986833"><ele>134.6</ele><time>2026-04-18T11:39:44.889Z</time></trkpt><trkpt lat="43.8935117" lon="12.6987633"><ele>132.8</ele><time>2026-04-18T11:39:45.886Z</time></trkpt><trkpt lat="43.8934233" lon="12.6988217"><ele>131.0</ele><time>2026-04-18T11:39:46.887Z</time></trkpt><trkpt lat="43.8933383" lon="12.698855"><ele>131.0</ele><time>2026-04-18T11:39:47.885Z</time></trkpt><trkpt lat="43.8932583" lon="12.6988617"><ele>131.0</ele><time>2026-04-18T11:39:48.887Z</time></trkpt><trkpt lat="43.8931733" lon="12.698845"><ele>131.0</ele><time>2026-04-18T11:39:49.888Z</time></trkpt><trkpt lat="43.8930817" lon="12.698805"><ele>131.0</ele><time>2026-04-18T11:39:50.887Z</time></trkpt><trkpt lat="43.8929783" lon="12.6987583"><ele>131.0</ele><time>2026-04-18T11:39:51.885Z</time></trkpt><trkpt lat="43.8928767" lon="12.6987067"><ele>131.0</ele><time>2026-04-18T11:39:52.886Z</time></trkpt><trkpt lat="43.8927817" lon="12.698655"><ele>131.0</ele><time>2026-04-18T11:39:53.885Z</time></trkpt><trkpt lat="43.8926933" lon="12.6986083"><ele>131.0</ele><time>2026-04-18T11:39:54.887Z</time></trkpt><trkpt lat="43.89262" lon="12.69857"><ele>131.0</ele><time>2026-04-18T11:39:55.886Z</time></trkpt><trkpt lat="43.8925383" lon="12.6985"><ele>131.0</ele><time>2026-04-18T11:39:57.885Z</time></trkpt><trkpt lat="43.89263" lon="12.6985267"><ele>131.0</ele><time>2026-04-18T11:40:18.886Z</time></trkpt><trkpt lat="43.892695" lon="12.6985567"><ele>131.0</ele><time>2026-04-18T11:40:19.886Z</time></trkpt><trkpt lat="43.8927917" lon="12.6986183"><ele>131.0</ele><time>2026-04-18T11:40:20.886Z</time></trkpt><trkpt lat="43.8928817" lon="12.698665"><ele>131.0</ele><time>2026-04-18T11:40:21.886Z</time></trkpt><trkpt lat="43.892965" lon="12.69871"><ele>131.0</ele><time>2026-04-18T11:40:22.886Z</time></trkpt><trkpt lat="43.8930317" lon="12.6987433"><ele>131.0</ele><time>2026-04-18T11:40:23.886Z</time></trkpt><trkpt lat="43.893145" lon="12.6988"><ele>131.0</ele><time>2026-04-18T11:40:25.887Z</time></trkpt><trkpt lat="43.8932517" lon="12.6988317"><ele>131.0</ele><time>2026-04-18T11:40:27.887Z</time></trkpt><trkpt lat="43.8933233" lon="12.6988517"><ele>131.0</ele><time>2026-04-18T11:40:29.89Z</time></trkpt><trkpt lat="43.8932917" lon="12.6989517"><ele>131.0</ele><time>2026-04-18T11:40:33.888Z</time></trkpt><trkpt lat="43.8932" lon="12.6989983"><ele>131.0</ele><time>2026-04-18T11:40:35.889Z</time></trkpt><trkpt lat="43.8931383" lon="12.6990217"><ele>131.0</ele><time>2026-04-18T11:40:36.889Z</time></trkpt><trkpt lat="43.8930667" lon="12.699045"><ele>131.0</ele><time>2026-04-18T11:40:37.89Z</time></trkpt><trkpt lat="43.89299" lon="12.6990717"><ele>131.0</ele><time>2026-04-18T11:40:38.886Z</time></trkpt><trkpt lat="43.892915" lon="12.6990933"><ele>131.0</ele><time>2026-04-18T11:40:39.886Z</time></trkpt><trkpt lat="43.89284" lon="12.699115"><ele>131.0</ele><time>2026-04-18T11:40:40.89Z</time></trkpt><trkpt lat="43.89276" lon="12.699135"><ele>131.0</ele><time>2026-04-18T11:40:41.889Z</time></trkpt><trkpt lat="43.8926767" lon="12.6991583"><ele>131.0</ele><time>2026-04-18T11:40:42.889Z</time></trkpt><trkpt lat="43.89259" lon="12.6991833"><ele>131.33333333333331</ele><time>2026-04-18T11:40:43.889Z</time></trkpt><trkpt lat="43.892505" lon="12.69921"><ele>131.66666666666666</ele><time>2026-04-18T11:40:44.89Z</time></trkpt><trkpt lat="43.8924233" lon="12.6992333"><ele>132.0</ele><time>2026-04-18T11:40:45.89Z</time></trkpt><trkpt lat="43.89235" lon="12.699255"><ele>132.33333333333334</ele><time>2026-04-18T11:40:46.891Z</time></trkpt><trkpt lat="43.8922783" lon="12.6992767"><ele>132.66666666666669</ele><time>2026-04-18T11:40:47.885Z</time></trkpt><trkpt lat="43.89221" lon="12.6992983"><ele>133.0</ele><time>2026-04-18T11:40:48.887Z</time></trkpt><trkpt lat="43.8921433" lon="12.699315"><ele>133.0</ele><time>2026-04-18T11:40:49.886Z</time></trkpt><trkpt lat="43.89208" lon="12.6993317"><ele>133.0</ele><time>2026-04-18T11:40:50.887Z</time></trkpt><trkpt lat="43.8919683" lon="12.699355"><ele>133.0</ele><time>2026-04-18T11:40:52.886Z</time></trkpt><trkpt lat="43.8919067" lon="12.6993767"><ele>133.0</ele><time>2026-04-18T11:40:53.887Z</time></trkpt><trkpt lat="43.8918433" lon="12.6993983"><ele>133.0</ele><time>2026-04-18T11:40:54.886Z</time></trkpt><trkpt lat="43.8917767" lon="12.6994183"><ele>133.0</ele><time>2026-04-18T11:40:55.886Z</time></trkpt><trkpt lat="43.89171" lon="12.69944"><ele>133.0</ele><time>2026-04-18T11:40:56.885Z</time></trkpt><trkpt lat="43.891645" lon="12.699455"><ele>132.16666666666669</ele><time>2026-04-18T11:40:57.885Z</time></trkpt><trkpt lat="43.8915833" lon="12.6994733"><ele>131.33333333333334</ele><time>2026-04-18T11:40:58.886Z</time></trkpt><trkpt lat="43.89148" lon="12.6995033"><ele>130.5</ele><time>2026-04-18T11:41:00.886Z</time></trkpt><trkpt lat="43.8914033" lon="12.699515"><ele>129.66666666666666</ele><time>2026-04-18T11:41:02.887Z</time></trkpt><trkpt lat="43.8913367" lon="12.6995283"><ele>128.83333333333331</ele><time>2026-04-18T11:41:11.886Z</time></trkpt><trkpt lat="43.8912667" lon="12.6995517"><ele>128.0</ele><time>2026-04-18T11:41:14.885Z</time></trkpt><trkpt lat="43.8911933" lon="12.6995783"><ele>128.0</ele><time>2026-04-18T11:41:17.887Z</time></trkpt><trkpt lat="43.89113" lon="12.6995983"><ele>127.99999999999999</ele><time>2026-04-18T11:41:19.887Z</time></trkpt><trkpt lat="43.8910617" lon="12.6996183"><ele>128.0</ele><time>2026-04-18T11:41:21.89Z</time></trkpt><trkpt lat="43.8909733" lon="12.699645"><ele>128.0</ele><time>2026-04-18T11:41:24.886Z</time></trkpt><trkpt lat="43.8909067" lon="12.699665"><ele>127.99999999999999</ele><time>2026-04-18T11:41:26.89Z</time></trkpt><trkpt lat="43.890825" lon="12.699695"><ele>128.0</ele><time>2026-04-18T11:41:29.885Z</time></trkpt><trkpt lat="43.890755" lon="12.6997117"><ele>128.0</ele><time>2026-04-18T11:41:32.885Z</time></trkpt><trkpt lat="43.8906667" lon="12.699745"><ele>128.4</ele><time>2026-04-18T11:41:35.885Z</time></trkpt><trkpt lat="43.8905767" lon="12.699775"><ele>128.8</ele><time>2026-04-18T11:41:37.886Z</time></trkpt><trkpt lat="43.8904867" lon="12.6998033"><ele>129.2</ele><time>2026-04-18T11:41:39.885Z</time></trkpt><trkpt lat="43.8903817" lon="12.69983"><ele>129.6</ele><time>2026-04-18T11:41:41.886Z</time></trkpt><trkpt lat="43.89028" lon="12.6998583"><ele>130.0</ele><time>2026-04-18T11:41:43.887Z</time></trkpt><trkpt lat="43.89018" lon="12.6998817"><ele>130.5</ele><time>2026-04-18T11:41:45.885Z</time></trkpt><trkpt lat="43.8900767" lon="12.6999117"><ele>131.0</ele><time>2026-04-18T11:41:47.885Z</time></trkpt><trkpt lat="43.8899617" lon="12.69993"><ele>131.5</ele><time>2026-04-18T11:41:49.886Z</time></trkpt><trkpt lat="43.8898483" lon="12.699945"><ele>132.0</ele><time>2026-04-18T11:41:51.886Z</time></trkpt><trkpt lat="43.8897283" lon="12.6999567"><ele>132.0</ele><time>2026-04-18T11:41:53.887Z</time></trkpt><trkpt lat="43.889665" lon="12.6999583"><ele>132.0</ele><time>2026-04-18T11:41:54.885Z</time></trkpt><trkpt lat="43.8895483" lon="12.6999633"><ele>132.0</ele><time>2026-04-18T11:41:56.889Z</time></trkpt><trkpt lat="43.8894233" lon="12.6999633"><ele>132.0</ele><time>2026-04-18T11:41:58.889Z</time></trkpt><trkpt lat="43.8893033" lon="12.6999767"><ele>132.0</ele><time>2026-04-18T11:42:00.887Z</time></trkpt><trkpt lat="43.88924" lon="12.6999867"><ele>132.33333333333334</ele><time>2026-04-18T11:42:01.888Z</time></trkpt><trkpt lat="43.88917" lon="12.7"><ele>132.66666666666666</ele><time>2026-04-18T11:42:02.885Z</time></trkpt><trkpt lat="43.8891" lon="12.700005"><ele>133.0</ele><time>2026-04-18T11:42:03.885Z</time></trkpt><trkpt lat="43.888995" lon="12.7000083"><ele>133.33333333333331</ele><time>2026-04-18T11:42:05.888Z</time></trkpt><trkpt lat="43.88893" lon="12.7000083"><ele>133.66666666666666</ele><time>2026-04-18T11:42:07.887Z</time></trkpt><trkpt lat="43.8888667" lon="12.7000483"><ele>134.0</ele><time>2026-04-18T11:42:09.887Z</time></trkpt><trkpt lat="43.88878" lon="12.7001483"><ele>134.0</ele><time>2026-04-18T11:42:11.889Z</time></trkpt><trkpt lat="43.8887267" lon="12.700205"><ele>134.0</ele><time>2026-04-18T11:42:12.888Z</time></trkpt><trkpt lat="43.8886667" lon="12.7002633"><ele>134.0</ele><time>2026-04-18T11:42:13.888Z</time></trkpt><trkpt lat="43.8886017" lon="12.700325"><ele>134.0</ele><time>2026-04-18T11:42:14.889Z</time></trkpt><trkpt lat="43.8885367" lon="12.7003917"><ele>134.0</ele><time>2026-04-18T11:42:15.886Z</time></trkpt><trkpt lat="43.888475" lon="12.70046"><ele>134.0</ele><time>2026-04-18T11:42:16.885Z</time></trkpt><trkpt lat="43.8884117" lon="12.70053"><ele>132.66666666666666</ele><time>2026-04-18T11:42:17.885Z</time></trkpt><trkpt lat="43.8883467" lon="12.7006017"><ele>131.33333333333331</ele><time>2026-04-18T11:42:18.886Z</time></trkpt><trkpt lat="43.8882833" lon="12.7006733"><ele>130.0</ele><time>2026-04-18T11:42:19.888Z</time></trkpt><trkpt lat="43.8882183" lon="12.700745"><ele>128.66666666666666</ele><time>2026-04-18T11:42:20.885Z</time></trkpt><trkpt lat="43.8881467" lon="12.7008167"><ele>127.33333333333333</ele><time>2026-04-18T11:42:21.889Z</time></trkpt><trkpt lat="43.88808" lon="12.7008867"><ele>126.0</ele><time>2026-04-18T11:42:22.887Z</time></trkpt><trkpt lat="43.88802" lon="12.70095"><ele>126.0</ele><time>2026-04-18T11:42:23.886Z</time></trkpt><trkpt lat="43.887965" lon="12.7010133"><ele>126.0</ele><time>2026-04-18T11:42:24.89Z</time></trkpt><trkpt lat="43.88791" lon="12.701075"><ele>126.0</ele><time>2026-04-18T11:42:25.889Z</time></trkpt><trkpt lat="43.8878583" lon="12.7011417"><ele>126.0</ele><time>2026-04-18T11:42:26.886Z</time></trkpt><trkpt lat="43.8877983" lon="12.7012"><ele>126.0</ele><time>2026-04-18T11:42:27.89Z</time></trkpt><trkpt lat="43.887735" lon="12.7012617"><ele>126.0</ele><time>2026-04-18T11:42:28.889Z</time></trkpt><trkpt lat="43.8876633" lon="12.7013383"><ele>124.6</ele><time>2026-04-18T11:42:29.889Z</time></trkpt><trkpt lat="43.8875817" lon="12.7014267"><ele>123.19999999999999</ele><time>2026-04-18T11:42:30.89Z</time></trkpt><trkpt lat="43.8875" lon="12.7015167"><ele>121.80000000000001</ele><time>2026-04-18T11:42:31.889Z</time></trkpt><trkpt lat="43.8874283" lon="12.701605"><ele>120.4</ele><time>2026-04-18T11:42:32.888Z</time></trkpt><trkpt lat="43.8873633" lon="12.70169"><ele>119.0</ele><time>2026-04-18T11:42:33.89Z</time></trkpt><trkpt lat="43.8873033" lon="12.7017633"><ele>119.0</ele><time>2026-04-18T11:42:34.889Z</time></trkpt><trkpt lat="43.887245" lon="12.7018267"><ele>119.0</ele><time>2026-04-18T11:42:35.888Z</time></trkpt><trkpt lat="43.8871817" lon="12.7018783"><ele>119.0</ele><time>2026-04-18T11:42:36.89Z</time></trkpt><trkpt lat="43.8871167" lon="12.7019167"><ele>119.0</ele><time>2026-04-18T11:42:37.889Z</time></trkpt><trkpt lat="43.88705" lon="12.7019417"><ele>119.0</ele><time>2026-04-18T11:42:38.885Z</time></trkpt><trkpt lat="43.8869833" lon="12.7019567"><ele>119.0</ele><time>2026-04-18T11:42:39.886Z</time></trkpt><trkpt lat="43.8869183" lon="12.7019717"><ele>119.0</ele><time>2026-04-18T11:42:40.889Z</time></trkpt><trkpt lat="43.886855" lon="12.7019967"><ele>117.99999999999999</ele><time>2026-04-18T11:42:41.886Z</time></trkpt><trkpt lat="43.8867883" lon="12.7020333"><ele>117.0</ele><time>2026-04-18T11:42:42.886Z</time></trkpt><trkpt lat="43.8867217" lon="12.702075"><ele>116.0</ele><time>2026-04-18T11:42:43.886Z</time></trkpt><trkpt lat="43.8866567" lon="12.7021183"><ele>115.0</ele><time>2026-04-18T11:42:44.885Z</time></trkpt><trkpt lat="43.8865483" lon="12.7021867"><ele>113.99999999999999</ele><time>2026-04-18T11:42:46.886Z</time></trkpt><trkpt lat="43.88645" lon="12.70224"><ele>113.0</ele><time>2026-04-18T11:42:48.886Z</time></trkpt><trkpt lat="43.886355" lon="12.702295"><ele>112.2</ele><time>2026-04-18T11:42:50.886Z</time></trkpt><trkpt lat="43.8862517" lon="12.7023417"><ele>111.4</ele><time>2026-04-18T11:42:52.886Z</time></trkpt><trkpt lat="43.88613" lon="12.7023817"><ele>110.60000000000001</ele><time>2026-04-18T11:42:54.886Z</time></trkpt><trkpt lat="43.8860617" lon="12.7023983"><ele>109.80000000000001</ele><time>2026-04-18T11:42:55.886Z</time></trkpt><trkpt lat="43.885985" lon="12.7024167"><ele>109.0</ele><time>2026-04-18T11:42:56.887Z</time></trkpt><trkpt lat="43.88591" lon="12.7024333"><ele>107.16666666666667</ele><time>2026-04-18T11:42:57.885Z</time></trkpt><trkpt lat="43.8858283" lon="12.70245"><ele>105.33333333333334</ele><time>2026-04-18T11:42:58.889Z</time></trkpt><trkpt lat="43.8857433" lon="12.7024617"><ele>103.5</ele><time>2026-04-18T11:42:59.885Z</time></trkpt><trkpt lat="43.88566" lon="12.7024733"><ele>101.66666666666666</ele><time>2026-04-18T11:43:00.887Z</time></trkpt><trkpt lat="43.8855767" lon="12.702485"><ele>99.83333333333333</ele><time>2026-04-18T11:43:01.889Z</time></trkpt><trkpt lat="43.8855017" lon="12.7025033"><ele>98.0</ele><time>2026-04-18T11:43:02.889Z</time></trkpt><trkpt lat="43.8854317" lon="12.7025217"><ele>97.99999999999999</ele><time>2026-04-18T11:43:03.889Z</time></trkpt><trkpt lat="43.8853667" lon="12.702545"><ele>98.0</ele><time>2026-04-18T11:43:04.89Z</time></trkpt><trkpt lat="43.885265" lon="12.7025867"><ele>98.0</ele><time>2026-04-18T11:43:06.886Z</time></trkpt><trkpt lat="43.8851767" lon="12.7026"><ele>98.0</ele><time>2026-04-18T11:43:08.889Z</time></trkpt><trkpt lat="43.88513" lon="12.702535"><ele>97.99999999999999</ele><time>2026-04-18T11:43:11.885Z</time></trkpt><trkpt lat="43.885155" lon="12.7024033"><ele>98.0</ele><time>2026-04-18T11:43:13.886Z</time></trkpt><trkpt lat="43.88518" lon="12.7023067"><ele>97.99999999999999</ele><time>2026-04-18T11:43:14.889Z</time></trkpt><trkpt lat="43.8852167" lon="12.7021917"><ele>98.0</ele><time>2026-04-18T11:43:15.889Z</time></trkpt><trkpt lat="43.8852517" lon="12.70208"><ele>98.0</ele><time>2026-04-18T11:43:16.886Z</time></trkpt><trkpt lat="43.8852817" lon="12.701975"><ele>98.0</ele><time>2026-04-18T11:43:17.886Z</time></trkpt><trkpt lat="43.8852933" lon="12.701875"><ele>97.99999999999999</ele><time>2026-04-18T11:43:18.886Z</time></trkpt><trkpt lat="43.8852817" lon="12.7017817"><ele>98.0</ele><time>2026-04-18T11:43:19.889Z</time></trkpt><trkpt lat="43.8852467" lon="12.7016933"><ele>97.2</ele><time>2026-04-18T11:43:20.885Z</time></trkpt><trkpt lat="43.8851867" lon="12.701605"><ele>96.4</ele><time>2026-04-18T11:43:21.886Z</time></trkpt><trkpt lat="43.885105" lon="12.7015067"><ele>95.60000000000001</ele><time>2026-04-18T11:43:22.889Z</time></trkpt><trkpt lat="43.8850117" lon="12.701405"><ele>94.80000000000001</ele><time>2026-04-18T11:43:23.89Z</time></trkpt><trkpt lat="43.884915" lon="12.7013067"><ele>94.0</ele><time>2026-04-18T11:43:24.887Z</time></trkpt><trkpt lat="43.88482" lon="12.7012117"><ele>92.80000000000001</ele><time>2026-04-18T11:43:25.89Z</time></trkpt><trkpt lat="43.88474" lon="12.701105"><ele>91.60000000000001</ele><time>2026-04-18T11:43:26.887Z</time></trkpt><trkpt lat="43.8846767" lon="12.7009883"><ele>90.4</ele><time>2026-04-18T11:43:27.887Z</time></trkpt><trkpt lat="43.884625" lon="12.7008617"><ele>89.2</ele><time>2026-04-18T11:43:28.889Z</time></trkpt><trkpt lat="43.884585" lon="12.700725"><ele>88.0</ele><time>2026-04-18T11:43:29.889Z</time></trkpt><trkpt lat="43.8845567" lon="12.700575"><ele>88.0</ele><time>2026-04-18T11:43:30.887Z</time></trkpt><trkpt lat="43.884545" lon="12.7004167"><ele>88.0</ele><time>2026-04-18T11:43:31.888Z</time></trkpt><trkpt lat="43.8845517" lon="12.70025"><ele>88.0</ele><time>2026-04-18T11:43:32.887Z</time></trkpt><trkpt lat="43.8845683" lon="12.7000767"><ele>88.0</ele><time>2026-04-18T11:43:33.887Z</time></trkpt><trkpt lat="43.8845917" lon="12.6999"><ele>88.75</ele><time>2026-04-18T11:43:34.889Z</time></trkpt><trkpt lat="43.8846183" lon="12.69972"><ele>89.5</ele><time>2026-04-18T11:43:35.889Z</time></trkpt><trkpt lat="43.8846567" lon="12.69953"><ele>90.25</ele><time>2026-04-18T11:43:36.889Z</time></trkpt><trkpt lat="43.884695" lon="12.6993367"><ele>91.0</ele><time>2026-04-18T11:43:37.888Z</time></trkpt><trkpt lat="43.884735" lon="12.6991433"><ele>91.25</ele><time>2026-04-18T11:43:38.887Z</time></trkpt><trkpt lat="43.88477" lon="12.69896"><ele>91.5</ele><time>2026-04-18T11:43:39.887Z</time></trkpt><trkpt lat="43.8848" lon="12.6987833"><ele>91.75</ele><time>2026-04-18T11:43:40.889Z</time></trkpt><trkpt lat="43.88483" lon="12.69861"><ele>92.0</ele><time>2026-04-18T11:43:41.888Z</time></trkpt><trkpt lat="43.8848667" lon="12.69844"><ele>91.0</ele><time>2026-04-18T11:43:42.889Z</time></trkpt><trkpt lat="43.8849033" lon="12.6982833"><ele>90.0</ele><time>2026-04-18T11:43:43.889Z</time></trkpt><trkpt lat="43.8849483" lon="12.69814"><ele>89.0</ele><time>2026-04-18T11:43:44.889Z</time></trkpt><trkpt lat="43.885005" lon="12.6980133"><ele>88.0</ele><time>2026-04-18T11:43:45.888Z</time></trkpt><trkpt lat="43.88508" lon="12.6979067"><ele>87.0</ele><time>2026-04-18T11:43:46.889Z</time></trkpt><trkpt lat="43.8851533" lon="12.6977933"><ele>88.8</ele><time>2026-04-18T11:43:47.887Z</time></trkpt><trkpt lat="43.8852117" lon="12.697665"><ele>90.6</ele><time>2026-04-18T11:43:48.889Z</time></trkpt><trkpt lat="43.8852533" lon="12.69753"><ele>92.39999999999999</ele><time>2026-04-18T11:43:49.889Z</time></trkpt><trkpt lat="43.885275" lon="12.6973817"><ele>94.19999999999999</ele><time>2026-04-18T11:43:50.888Z</time></trkpt><trkpt lat="43.8852667" lon="12.6972183"><ele>96.0</ele><time>2026-04-18T11:43:51.888Z</time></trkpt><trkpt lat="43.885245" lon="12.6970583"><ele>95.0</ele><time>2026-04-18T11:43:52.889Z</time></trkpt><trkpt lat="43.8852133" lon="12.696905"><ele>94.0</ele><time>2026-04-18T11:43:53.888Z</time></trkpt><trkpt lat="43.88519" lon="12.69676"><ele>93.0</ele><time>2026-04-18T11:43:54.888Z</time></trkpt><trkpt lat="43.8851767" lon="12.6966167"><ele>92.0</ele><time>2026-04-18T11:43:55.889Z</time></trkpt><trkpt lat="43.88518" lon="12.69647"><ele>91.0</ele><time>2026-04-18T11:43:56.889Z</time></trkpt><trkpt lat="43.8851883" lon="12.69631"><ele>91.0</ele><time>2026-04-18T11:43:57.888Z</time></trkpt><trkpt lat="43.8852" lon="12.696135"><ele>91.0</ele><time>2026-04-18T11:43:58.888Z</time></trkpt><trkpt lat="43.8852133" lon="12.6959617"><ele>91.0</ele><time>2026-04-18T11:43:59.888Z</time></trkpt><trkpt lat="43.8852283" lon="12.6957817"><ele>91.0</ele><time>2026-04-18T11:44:00.888Z</time></trkpt><trkpt lat="43.88524" lon="12.6955933"><ele>89.75</ele><time>2026-04-18T11:44:01.89Z</time></trkpt><trkpt lat="43.88525" lon="12.6954033"><ele>88.5</ele><time>2026-04-18T11:44:02.887Z</time></trkpt><trkpt lat="43.8852633" lon="12.69521"><ele>87.25</ele><time>2026-04-18T11:44:03.887Z</time></trkpt><trkpt lat="43.885275" lon="12.6950183"><ele>86.0</ele><time>2026-04-18T11:44:04.888Z</time></trkpt><trkpt lat="43.88529" lon="12.6948217"><ele>84.25</ele><time>2026-04-18T11:44:05.887Z</time></trkpt><trkpt lat="43.8853067" lon="12.694625"><ele>82.5</ele><time>2026-04-18T11:44:06.889Z</time></trkpt><trkpt lat="43.8853217" lon="12.6944267"><ele>80.75</ele><time>2026-04-18T11:44:07.888Z</time></trkpt><trkpt lat="43.8853333" lon="12.694225"><ele>79.0</ele><time>2026-04-18T11:44:08.888Z</time></trkpt><trkpt lat="43.8853433" lon="12.6940333"><ele>79.25</ele><time>2026-04-18T11:44:09.887Z</time></trkpt><trkpt lat="43.8853533" lon="12.6938567"><ele>79.5</ele><time>2026-04-18T11:44:10.889Z</time></trkpt><trkpt lat="43.8853617" lon="12.693685"><ele>79.75</ele><time>2026-04-18T11:44:11.888Z</time></trkpt><trkpt lat="43.8853667" lon="12.69351"><ele>80.0</ele><time>2026-04-18T11:44:12.889Z</time></trkpt><trkpt lat="43.88537" lon="12.6933383"><ele>80.0</ele><time>2026-04-18T11:44:13.89Z</time></trkpt><trkpt lat="43.8853683" lon="12.6931733"><ele>80.0</ele><time>2026-04-18T11:44:14.887Z</time></trkpt><trkpt lat="43.885365" lon="12.693025"><ele>80.0</ele><time>2026-04-18T11:44:15.889Z</time></trkpt><trkpt lat="43.8853617" lon="12.6929083"><ele>80.0</ele><time>2026-04-18T11:44:16.888Z</time></trkpt><trkpt lat="43.8853383" lon="12.6927867"><ele>80.0</ele><time>2026-04-18T11:44:17.888Z</time></trkpt><trkpt lat="43.88531" lon="12.6926517"><ele>81.25</ele><time>2026-04-18T11:44:18.889Z</time></trkpt><trkpt lat="43.8852867" lon="12.6925083"><ele>82.5</ele><time>2026-04-18T11:44:19.889Z</time></trkpt><trkpt lat="43.885255" lon="12.69235"><ele>83.75</ele><time>2026-04-18T11:44:20.887Z</time></trkpt><trkpt lat="43.8852217" lon="12.69219"><ele>85.0</ele><time>2026-04-18T11:44:21.889Z</time></trkpt><trkpt lat="43.8851883" lon="12.6920233"><ele>84.25</ele><time>2026-04-18T11:44:22.889Z</time></trkpt><trkpt lat="43.8851517" lon="12.6918483"><ele>83.5</ele><time>2026-04-18T11:44:23.888Z</time></trkpt><trkpt lat="43.8851067" lon="12.6916717"><ele>82.75</ele><time>2026-04-18T11:44:24.888Z</time></trkpt><trkpt lat="43.885055" lon="12.6915017"><ele>82.0</ele><time>2026-04-18T11:44:25.889Z</time></trkpt><trkpt lat="43.8849917" lon="12.6913317"><ele>82.0</ele><time>2026-04-18T11:44:26.89Z</time></trkpt><trkpt lat="43.8849217" lon="12.6911583"><ele>82.0</ele><time>2026-04-18T11:44:27.888Z</time></trkpt><trkpt lat="43.884845" lon="12.6909833"><ele>82.0</ele><time>2026-04-18T11:44:28.888Z</time></trkpt><trkpt lat="43.8847633" lon="12.6908133"><ele>82.0</ele><time>2026-04-18T11:44:29.887Z</time></trkpt><trkpt lat="43.88468" lon="12.6906417"><ele>83.33333333333333</ele><time>2026-04-18T11:44:30.888Z</time></trkpt><trkpt lat="43.8845983" lon="12.6904683"><ele>84.66666666666667</ele><time>2026-04-18T11:44:31.888Z</time></trkpt><trkpt lat="43.8845167" lon="12.6902917"><ele>86.0</ele><time>2026-04-18T11:44:32.888Z</time></trkpt><trkpt lat="43.884435" lon="12.6901117"><ele>87.0</ele><time>2026-04-18T11:44:33.888Z</time></trkpt><trkpt lat="43.8843567" lon="12.6899283"><ele>88.0</ele><time>2026-04-18T11:44:34.888Z</time></trkpt><trkpt lat="43.8842817" lon="12.6897467"><ele>89.0</ele><time>2026-04-18T11:44:35.889Z</time></trkpt><trkpt lat="43.8842033" lon="12.68957"><ele>87.5</ele><time>2026-04-18T11:44:36.888Z</time></trkpt><trkpt lat="43.8841233" lon="12.6893933"><ele>86.0</ele><time>2026-04-18T11:44:37.888Z</time></trkpt><trkpt lat="43.8840467" lon="12.6892217"><ele>84.5</ele><time>2026-04-18T11:44:38.888Z</time></trkpt><trkpt lat="43.8839617" lon="12.6890583"><ele>83.0</ele><time>2026-04-18T11:44:39.889Z</time></trkpt><trkpt lat="43.88387" lon="12.68891"><ele>83.0</ele><time>2026-04-18T11:44:40.889Z</time></trkpt><trkpt lat="43.883775" lon="12.6887733"><ele>83.0</ele><time>2026-04-18T11:44:41.889Z</time></trkpt><trkpt lat="43.8836767" lon="12.68864"><ele>83.0</ele><time>2026-04-18T11:44:42.888Z</time></trkpt><trkpt lat="43.8835767" lon="12.6885067"><ele>83.0</ele><time>2026-04-18T11:44:43.888Z</time></trkpt><trkpt lat="43.88348" lon="12.68836"><ele>83.33333333333334</ele><time>2026-04-18T11:44:44.888Z</time></trkpt><trkpt lat="43.8833783" lon="12.68821"><ele>83.66666666666667</ele><time>2026-04-18T11:44:45.887Z</time></trkpt><trkpt lat="43.8832767" lon="12.6880567"><ele>84.0</ele><time>2026-04-18T11:44:46.888Z</time></trkpt><trkpt lat="43.8831683" lon="12.6878967"><ele>84.75</ele><time>2026-04-18T11:44:47.888Z</time></trkpt><trkpt lat="43.8830683" lon="12.6877383"><ele>85.5</ele><time>2026-04-18T11:44:48.889Z</time></trkpt><trkpt lat="43.8829683" lon="12.6875767"><ele>86.25</ele><time>2026-04-18T11:44:49.889Z</time></trkpt><trkpt lat="43.8828767" lon="12.6874233"><ele>87.0</ele><time>2026-04-18T11:44:50.889Z</time></trkpt><trkpt lat="43.8828117" lon="12.68728"><ele>87.0</ele><time>2026-04-18T11:44:51.89Z</time></trkpt><trkpt lat="43.8827783" lon="12.68714"><ele>87.0</ele><time>2026-04-18T11:44:52.889Z</time></trkpt><trkpt lat="43.8827833" lon="12.686995"><ele>87.0</ele><time>2026-04-18T11:44:53.889Z</time></trkpt><trkpt lat="43.8828017" lon="12.6868533"><ele>87.0</ele><time>2026-04-18T11:44:54.89Z</time></trkpt><trkpt lat="43.8828267" lon="12.6867183"><ele>87.0</ele><time>2026-04-18T11:44:55.887Z</time></trkpt><trkpt lat="43.88285" lon="12.68659"><ele>87.19999999999999</ele><time>2026-04-18T11:44:56.887Z</time></trkpt><trkpt lat="43.8828617" lon="12.686465"><ele>87.4</ele><time>2026-04-18T11:44:57.888Z</time></trkpt><trkpt lat="43.8828583" lon="12.68633"><ele>87.6</ele><time>2026-04-18T11:44:58.888Z</time></trkpt><trkpt lat="43.8828367" lon="12.6861717"><ele>87.80000000000001</ele><time>2026-04-18T11:44:59.89Z</time></trkpt><trkpt lat="43.8827983" lon="12.685995"><ele>88.0</ele><time>2026-04-18T11:45:00.886Z</time></trkpt><trkpt lat="43.882755" lon="12.6858017"><ele>88.0</ele><time>2026-04-18T11:45:01.889Z</time></trkpt><trkpt lat="43.8827267" lon="12.6856067"><ele>88.0</ele><time>2026-04-18T11:45:02.888Z</time></trkpt><trkpt lat="43.88273" lon="12.6854217"><ele>88.0</ele><time>2026-04-18T11:45:03.887Z</time></trkpt><trkpt lat="43.88276" lon="12.6852433"><ele>88.0</ele><time>2026-04-18T11:45:04.89Z</time></trkpt><trkpt lat="43.8827967" lon="12.685055"><ele>88.5</ele><time>2026-04-18T11:45:05.889Z</time></trkpt><trkpt lat="43.88282" lon="12.6848583"><ele>89.0</ele><time>2026-04-18T11:45:06.889Z</time></trkpt><trkpt lat="43.88283" lon="12.6846567"><ele>89.5</ele><time>2026-04-18T11:45:07.889Z</time></trkpt><trkpt lat="43.8828233" lon="12.6844433"><ele>90.0</ele><time>2026-04-18T11:45:08.891Z</time></trkpt><trkpt lat="43.882805" lon="12.6842267"><ele>91.66666666666667</ele><time>2026-04-18T11:45:09.89Z</time></trkpt><trkpt lat="43.8828017" lon="12.684015"><ele>93.33333333333334</ele><time>2026-04-18T11:45:10.891Z</time></trkpt><trkpt lat="43.8828267" lon="12.68381"><ele>95.0</ele><time>2026-04-18T11:45:11.887Z</time></trkpt><trkpt lat="43.8828633" lon="12.6836117"><ele>95.75</ele><time>2026-04-18T11:45:12.888Z</time></trkpt><trkpt lat="43.8828867" lon="12.6834167"><ele>96.5</ele><time>2026-04-18T11:45:13.887Z</time></trkpt><trkpt lat="43.882885" lon="12.6832233"><ele>97.25</ele><time>2026-04-18T11:45:14.887Z</time></trkpt><trkpt lat="43.88286" lon="12.6830283"><ele>98.0</ele><time>2026-04-18T11:45:15.89Z</time></trkpt><trkpt lat="43.8828133" lon="12.6828367"><ele>98.33333333333333</ele><time>2026-04-18T11:45:16.888Z</time></trkpt><trkpt lat="43.88275" lon="12.6826467"><ele>98.66666666666666</ele><time>2026-04-18T11:45:17.888Z</time></trkpt><trkpt lat="43.8826783" lon="12.682455"><ele>99.0</ele><time>2026-04-18T11:45:18.887Z</time></trkpt><trkpt lat="43.8826033" lon="12.6822633"><ele>104.0</ele><time>2026-04-18T11:45:19.888Z</time></trkpt><trkpt lat="43.8825283" lon="12.6820683"><ele>109.0</ele><time>2026-04-18T11:45:20.887Z</time></trkpt><trkpt lat="43.8824533" lon="12.6818683"><ele>114.0</ele><time>2026-04-18T11:45:21.889Z</time></trkpt><trkpt lat="43.882375" lon="12.6816733"><ele>114.0</ele><time>2026-04-18T11:45:22.888Z</time></trkpt><trkpt lat="43.8822917" lon="12.681485"><ele>114.0</ele><time>2026-04-18T11:45:23.89Z</time></trkpt><trkpt lat="43.8822083" lon="12.68132"><ele>114.0</ele><time>2026-04-18T11:45:24.89Z</time></trkpt><trkpt lat="43.8821383" lon="12.681165"><ele>114.0</ele><time>2026-04-18T11:45:25.889Z</time></trkpt><trkpt lat="43.8820917" lon="12.6810017"><ele>114.4</ele><time>2026-04-18T11:45:26.889Z</time></trkpt><trkpt lat="43.8820717" lon="12.6808317"><ele>114.80000000000001</ele><time>2026-04-18T11:45:27.89Z</time></trkpt><trkpt lat="43.8820917" lon="12.6806883"><ele>115.19999999999999</ele><time>2026-04-18T11:45:28.891Z</time></trkpt><trkpt lat="43.8821133" lon="12.6805567"><ele>115.6</ele><time>2026-04-18T11:45:29.889Z</time></trkpt><trkpt lat="43.8821117" lon="12.6804283"><ele>116.0</ele><time>2026-04-18T11:45:30.89Z</time></trkpt><trkpt lat="43.882085" lon="12.6803033"><ele>117.0</ele><time>2026-04-18T11:45:31.891Z</time></trkpt><trkpt lat="43.8820267" lon="12.680165"><ele>118.0</ele><time>2026-04-18T11:45:32.89Z</time></trkpt><trkpt lat="43.8819433" lon="12.68002"><ele>119.0</ele><time>2026-04-18T11:45:33.89Z</time></trkpt><trkpt lat="43.88186" lon="12.67986"><ele>120.0</ele><time>2026-04-18T11:45:34.888Z</time></trkpt><trkpt lat="43.8817767" lon="12.679695"><ele>122.5</ele><time>2026-04-18T11:45:35.889Z</time></trkpt><trkpt lat="43.881695" lon="12.67953"><ele>125.0</ele><time>2026-04-18T11:45:36.89Z</time></trkpt><trkpt lat="43.8816217" lon="12.6793833"><ele>127.5</ele><time>2026-04-18T11:45:37.89Z</time></trkpt><trkpt lat="43.8815533" lon="12.67926"><ele>130.0</ele><time>2026-04-18T11:45:38.89Z</time></trkpt><trkpt lat="43.8814783" lon="12.6791617"><ele>130.25</ele><time>2026-04-18T11:45:39.89Z</time></trkpt><trkpt lat="43.881385" lon="12.67908"><ele>130.5</ele><time>2026-04-18T11:45:40.887Z</time></trkpt><trkpt lat="43.8812733" lon="12.6790067"><ele>130.75</ele><time>2026-04-18T11:45:41.889Z</time></trkpt><trkpt lat="43.881155" lon="12.67893"><ele>131.0</ele><time>2026-04-18T11:45:42.889Z</time></trkpt><trkpt lat="43.88105" lon="12.678835"><ele>131.0</ele><time>2026-04-18T11:45:43.889Z</time></trkpt><trkpt lat="43.88097" lon="12.6787183"><ele>131.0</ele><time>2026-04-18T11:45:44.891Z</time></trkpt><trkpt lat="43.8809183" lon="12.67858"><ele>131.0</ele><time>2026-04-18T11:45:45.889Z</time></trkpt><trkpt lat="43.880885" lon="12.678425"><ele>131.0</ele><time>2026-04-18T11:45:46.889Z</time></trkpt><trkpt lat="43.8808667" lon="12.6782483"><ele>134.5</ele><time>2026-04-18T11:45:47.889Z</time></trkpt><trkpt lat="43.8808583" lon="12.67805"><ele>138.0</ele><time>2026-04-18T11:45:48.888Z</time></trkpt><trkpt lat="43.8808617" lon="12.677845"><ele>141.5</ele><time>2026-04-18T11:45:49.889Z</time></trkpt><trkpt lat="43.8808733" lon="12.67763"><ele>145.0</ele><time>2026-04-18T11:45:50.888Z</time></trkpt><trkpt lat="43.8808917" lon="12.6774167"><ele>145.25</ele><time>2026-04-18T11:45:51.889Z</time></trkpt><trkpt lat="43.8809167" lon="12.6772083"><ele>145.5</ele><time>2026-04-18T11:45:52.885Z</time></trkpt><trkpt lat="43.8809417" lon="12.6770283"><ele>145.75</ele><time>2026-04-18T11:45:53.889Z</time></trkpt><trkpt lat="43.88096" lon="12.6768783"><ele>146.0</ele><time>2026-04-18T11:45:54.886Z</time></trkpt><trkpt lat="43.8809683" lon="12.67674"><ele>146.83333333333331</ele><time>2026-04-18T11:45:55.887Z</time></trkpt><trkpt lat="43.880955" lon="12.6766283"><ele>147.66666666666666</ele><time>2026-04-18T11:45:56.888Z</time></trkpt><trkpt lat="43.880925" lon="12.67654"><ele>148.5</ele><time>2026-04-18T11:45:57.888Z</time></trkpt><trkpt lat="43.880875" lon="12.6764717"><ele>149.33333333333334</ele><time>2026-04-18T11:45:58.887Z</time></trkpt><trkpt lat="43.880805" lon="12.6764533"><ele>150.16666666666669</ele><time>2026-04-18T11:45:59.886Z</time></trkpt><trkpt lat="43.8807283" lon="12.6765017"><ele>151.0</ele><time>2026-04-18T11:46:00.887Z</time></trkpt><trkpt lat="43.8806467" lon="12.6766067"><ele>151.0</ele><time>2026-04-18T11:46:01.886Z</time></trkpt><trkpt lat="43.8805467" lon="12.6767583"><ele>151.0</ele><time>2026-04-18T11:46:02.885Z</time></trkpt><trkpt lat="43.88043" lon="12.6769283"><ele>151.0</ele><time>2026-04-18T11:46:03.885Z</time></trkpt><trkpt lat="43.8803167" lon="12.67709"><ele>149.33333333333334</ele><time>2026-04-18T11:46:04.887Z</time></trkpt><trkpt lat="43.8802" lon="12.67725"><ele>147.66666666666666</ele><time>2026-04-18T11:46:05.886Z</time></trkpt><trkpt lat="43.8800867" lon="12.67741"><ele>146.0</ele><time>2026-04-18T11:46:06.887Z</time></trkpt><trkpt lat="43.8799883" lon="12.6775883"><ele>150.0</ele><time>2026-04-18T11:46:07.886Z</time></trkpt><trkpt lat="43.879905" lon="12.677785"><ele>154.0</ele><time>2026-04-18T11:46:08.885Z</time></trkpt><trkpt lat="43.879825" lon="12.677995"><ele>158.0</ele><time>2026-04-18T11:46:09.886Z</time></trkpt><trkpt lat="43.87975" lon="12.6782067"><ele>158.0</ele><time>2026-04-18T11:46:10.886Z</time></trkpt><trkpt lat="43.8796917" lon="12.6784233"><ele>158.0</ele><time>2026-04-18T11:46:11.886Z</time></trkpt><trkpt lat="43.8796467" lon="12.67864"><ele>158.0</ele><time>2026-04-18T11:46:12.886Z</time></trkpt><trkpt lat="43.8796083" lon="12.67884"><ele>158.0</ele><time>2026-04-18T11:46:13.888Z</time></trkpt><trkpt lat="43.87957" lon="12.679025"><ele>158.0</ele><time>2026-04-18T11:46:14.889Z</time></trkpt><trkpt lat="43.879515" lon="12.6791883"><ele>158.0</ele><time>2026-04-18T11:46:15.889Z</time></trkpt><trkpt lat="43.8794483" lon="12.6793333"><ele>158.0</ele><time>2026-04-18T11:46:16.889Z</time></trkpt><trkpt lat="43.8793767" lon="12.67947"><ele>158.0</ele><time>2026-04-18T11:46:17.888Z</time></trkpt><trkpt lat="43.8793017" lon="12.6795967"><ele>158.0</ele><time>2026-04-18T11:46:18.887Z</time></trkpt><trkpt lat="43.879235" lon="12.6797167"><ele>158.0</ele><time>2026-04-18T11:46:19.888Z</time></trkpt><trkpt lat="43.8791833" lon="12.679815"><ele>158.0</ele><time>2026-04-18T11:46:20.887Z</time></trkpt><trkpt lat="43.879135" lon="12.6798833"><ele>158.0</ele><time>2026-04-18T11:46:21.888Z</time></trkpt><trkpt lat="43.87907" lon="12.6798"><ele>161.75</ele><time>2026-04-18T11:46:24.888Z</time></trkpt><trkpt lat="43.8790983" lon="12.6795667"><ele>165.5</ele><time>2026-04-18T11:46:26.889Z</time></trkpt><trkpt lat="43.8791333" lon="12.6794067"><ele>169.25</ele><time>2026-04-18T11:46:27.889Z</time></trkpt><trkpt lat="43.8791467" lon="12.6792633"><ele>173.0</ele><time>2026-04-18T11:46:28.893Z</time></trkpt><trkpt lat="43.8791617" lon="12.6791183"><ele>173.0</ele><time>2026-04-18T11:46:29.89Z</time></trkpt><trkpt lat="43.87917" lon="12.6789583"><ele>173.0</ele><time>2026-04-18T11:46:30.889Z</time></trkpt><trkpt lat="43.8791717" lon="12.6787867"><ele>173.0</ele><time>2026-04-18T11:46:31.887Z</time></trkpt><trkpt lat="43.87917" lon="12.6786367"><ele>173.0</ele><time>2026-04-18T11:46:32.886Z</time></trkpt><trkpt lat="43.87917" lon="12.67851"><ele>173.0</ele><time>2026-04-18T11:46:33.885Z</time></trkpt><trkpt lat="43.8791683" lon="12.6784083"><ele>173.0</ele><time>2026-04-18T11:46:34.887Z</time></trkpt><trkpt lat="43.87916" lon="12.6782583"><ele>173.0</ele><time>2026-04-18T11:46:36.886Z</time></trkpt><trkpt lat="43.8791467" lon="12.6781583"><ele>173.0</ele><time>2026-04-18T11:46:39.886Z</time></trkpt><trkpt lat="43.879145" lon="12.67832"><ele>173.0</ele><time>2026-04-18T11:46:42.886Z</time></trkpt><trkpt lat="43.8791583" lon="12.6784583"><ele>173.0</ele><time>2026-04-18T11:46:43.886Z</time></trkpt><trkpt lat="43.8791783" lon="12.6786033"><ele>173.0</ele><time>2026-04-18T11:46:44.885Z</time></trkpt><trkpt lat="43.8791817" lon="12.67881"><ele>173.0</ele><time>2026-04-18T11:46:45.886Z</time></trkpt><trkpt lat="43.8791767" lon="12.6790083"><ele>173.0</ele><time>2026-04-18T11:46:46.887Z</time></trkpt><trkpt lat="43.8791567" lon="12.6792"><ele>173.0</ele><time>2026-04-18T11:46:47.885Z</time></trkpt><trkpt lat="43.8791333" lon="12.6793833"><ele>173.25</ele><time>2026-04-18T11:46:48.887Z</time></trkpt><trkpt lat="43.87911" lon="12.6795567"><ele>173.5</ele><time>2026-04-18T11:46:49.889Z</time></trkpt><trkpt lat="43.8790883" lon="12.6797167"><ele>173.75</ele><time>2026-04-18T11:46:50.885Z</time></trkpt><trkpt lat="43.87907" lon="12.6798667"><ele>174.0</ele><time>2026-04-18T11:46:51.885Z</time></trkpt><trkpt lat="43.8790517" lon="12.680005"><ele>174.0</ele><time>2026-04-18T11:46:52.886Z</time></trkpt><trkpt lat="43.8790333" lon="12.68013"><ele>174.0</ele><time>2026-04-18T11:46:53.886Z</time></trkpt><trkpt lat="43.8790133" lon="12.6802517"><ele>174.0</ele><time>2026-04-18T11:46:54.885Z</time></trkpt><trkpt lat="43.87899" lon="12.680365"><ele>174.0</ele><time>2026-04-18T11:46:55.888Z</time></trkpt><trkpt lat="43.878965" lon="12.6804667"><ele>174.0</ele><time>2026-04-18T11:46:56.886Z</time></trkpt><trkpt lat="43.87894" lon="12.6805517"><ele>174.0</ele><time>2026-04-18T11:46:57.889Z</time></trkpt><trkpt lat="43.8788717" lon="12.6806367"><ele>174.0</ele><time>2026-04-18T11:46:59.888Z</time></trkpt><trkpt lat="43.8787833" lon="12.6805783"><ele>174.0</ele><time>2026-04-18T11:47:01.886Z</time></trkpt><trkpt lat="43.8787217" lon="12.6805083"><ele>174.0</ele><time>2026-04-18T11:47:02.886Z</time></trkpt><trkpt lat="43.8786567" lon="12.6804267"><ele>174.0</ele><time>2026-04-18T11:47:03.886Z</time></trkpt><trkpt lat="43.878575" lon="12.6803383"><ele>174.0</ele><time>2026-04-18T11:47:04.886Z</time></trkpt><trkpt lat="43.87847" lon="12.6802267"><ele>176.5</ele><time>2026-04-18T11:47:05.887Z</time></trkpt><trkpt lat="43.8783733" lon="12.68011"><ele>179.0</ele><time>2026-04-18T11:47:06.886Z</time></trkpt><trkpt lat="43.87828" lon="12.679975"><ele>181.5</ele><time>2026-04-18T11:47:07.888Z</time></trkpt><trkpt lat="43.8782017" lon="12.67982"><ele>184.0</ele><time>2026-04-18T11:47:08.887Z</time></trkpt><trkpt lat="43.8781317" lon="12.67965"><ele>184.0</ele><time>2026-04-18T11:47:09.888Z</time></trkpt><trkpt lat="43.8780633" lon="12.6794867"><ele>184.0</ele><time>2026-04-18T11:47:10.89Z</time></trkpt><trkpt lat="43.877995" lon="12.6793167"><ele>184.0</ele><time>2026-04-18T11:47:11.885Z</time></trkpt><trkpt lat="43.877935" lon="12.679145"><ele>184.0</ele><time>2026-04-18T11:47:12.888Z</time></trkpt><trkpt lat="43.8778783" lon="12.67897"><ele>184.75</ele><time>2026-04-18T11:47:13.887Z</time></trkpt><trkpt lat="43.8778133" lon="12.6788067"><ele>185.5</ele><time>2026-04-18T11:47:14.89Z</time></trkpt><trkpt lat="43.87774" lon="12.6786567"><ele>186.25</ele><time>2026-04-18T11:47:15.886Z</time></trkpt><trkpt lat="43.8776533" lon="12.678525"><ele>187.0</ele><time>2026-04-18T11:47:16.887Z</time></trkpt><trkpt lat="43.8775517" lon="12.67841"><ele>192.5</ele><time>2026-04-18T11:47:17.886Z</time></trkpt><trkpt lat="43.8774417" lon="12.6783133"><ele>198.0</ele><time>2026-04-18T11:47:18.886Z</time></trkpt><trkpt lat="43.8773217" lon="12.6782467"><ele>203.5</ele><time>2026-04-18T11:47:19.888Z</time></trkpt><trkpt lat="43.877205" lon="12.6782017"><ele>209.0</ele><time>2026-04-18T11:47:20.885Z</time></trkpt><trkpt lat="43.87708" lon="12.678175"><ele>209.0</ele><time>2026-04-18T11:47:21.887Z</time></trkpt><trkpt lat="43.87695" lon="12.6781467"><ele>209.0</ele><time>2026-04-18T11:47:22.888Z</time></trkpt><trkpt lat="43.8768083" lon="12.6781217"><ele>209.0</ele><time>2026-04-18T11:47:23.888Z</time></trkpt><trkpt lat="43.8766667" lon="12.6781017"><ele>209.0</ele><time>2026-04-18T11:47:24.888Z</time></trkpt><trkpt lat="43.8765333" lon="12.67807"><ele>213.0</ele><time>2026-04-18T11:47:25.89Z</time></trkpt><trkpt lat="43.87641" lon="12.67803"><ele>217.0</ele><time>2026-04-18T11:47:26.888Z</time></trkpt><trkpt lat="43.8762933" lon="12.6779583"><ele>221.0</ele><time>2026-04-18T11:47:27.889Z</time></trkpt><trkpt lat="43.8761883" lon="12.6778617"><ele>225.0</ele><time>2026-04-18T11:47:28.888Z</time></trkpt><trkpt lat="43.8761017" lon="12.6777617"><ele>226.0</ele><time>2026-04-18T11:47:29.888Z</time></trkpt><trkpt lat="43.8760417" lon="12.677655"><ele>227.0</ele><time>2026-04-18T11:47:30.888Z</time></trkpt><trkpt lat="43.875985" lon="12.6775233"><ele>228.0</ele><time>2026-04-18T11:47:31.889Z</time></trkpt><trkpt lat="43.8759317" lon="12.6773683"><ele>229.0</ele><time>2026-04-18T11:47:32.89Z</time></trkpt><trkpt lat="43.875885" lon="12.6771983"><ele>233.0</ele><time>2026-04-18T11:47:33.889Z</time></trkpt><trkpt lat="43.8758367" lon="12.6770133"><ele>237.0</ele><time>2026-04-18T11:47:34.887Z</time></trkpt><trkpt lat="43.875785" lon="12.6768217"><ele>241.0</ele><time>2026-04-18T11:47:35.889Z</time></trkpt><trkpt lat="43.875735" lon="12.6766267"><ele>245.0</ele><time>2026-04-18T11:47:36.887Z</time></trkpt><trkpt lat="43.8756817" lon="12.6764283"><ele>247.0</ele><time>2026-04-18T11:47:37.89Z</time></trkpt><trkpt lat="43.875625" lon="12.6762317"><ele>249.0</ele><time>2026-04-18T11:47:38.889Z</time></trkpt><trkpt lat="43.875575" lon="12.676045"><ele>251.0</ele><time>2026-04-18T11:47:39.888Z</time></trkpt><trkpt lat="43.8755417" lon="12.675875"><ele>253.0</ele><time>2026-04-18T11:47:40.888Z</time></trkpt><trkpt lat="43.8755333" lon="12.6757133"><ele>254.66666666666666</ele><time>2026-04-18T11:47:41.89Z</time></trkpt><trkpt lat="43.87554" lon="12.6755667"><ele>256.3333333333333</ele><time>2026-04-18T11:47:42.889Z</time></trkpt><trkpt lat="43.8755567" lon="12.67544"><ele>258.0</ele><time>2026-04-18T11:47:43.889Z</time></trkpt><trkpt lat="43.87557" lon="12.6753383"><ele>259.6666666666667</ele><time>2026-04-18T11:47:44.889Z</time></trkpt><trkpt lat="43.8755883" lon="12.6752183"><ele>261.33333333333337</ele><time>2026-04-18T11:47:46.887Z</time></trkpt><trkpt lat="43.8755133" lon="12.6752667"><ele>263.0</ele><time>2026-04-18T11:47:53.89Z</time></trkpt><trkpt lat="43.8754383" lon="12.6754217"><ele>263.0</ele><time>2026-04-18T11:47:55.889Z</time></trkpt><trkpt lat="43.875385" lon="12.6755433"><ele>263.0</ele><time>2026-04-18T11:47:56.89Z</time></trkpt><trkpt lat="43.875325" lon="12.67568"><ele>263.0</ele><time>2026-04-18T11:47:57.89Z</time></trkpt><trkpt lat="43.8752567" lon="12.6758233"><ele>263.0</ele><time>2026-04-18T11:47:58.889Z</time></trkpt><trkpt lat="43.875185" lon="12.6759567"><ele>265.0</ele><time>2026-04-18T11:47:59.89Z</time></trkpt><trkpt lat="43.875095" lon="12.6760683"><ele>267.0</ele><time>2026-04-18T11:48:00.89Z</time></trkpt><trkpt lat="43.874995" lon="12.6761683"><ele>269.0</ele><time>2026-04-18T11:48:01.886Z</time></trkpt><trkpt lat="43.8748783" lon="12.6762583"><ele>271.0</ele><time>2026-04-18T11:48:02.89Z</time></trkpt><trkpt lat="43.8747433" lon="12.67634"><ele>271.0</ele><time>2026-04-18T11:48:03.89Z</time></trkpt><trkpt lat="43.8745933" lon="12.6764267"><ele>271.0</ele><time>2026-04-18T11:48:04.89Z</time></trkpt><trkpt lat="43.8744517" lon="12.6765167"><ele>271.0</ele><time>2026-04-18T11:48:05.89Z</time></trkpt><trkpt lat="43.8743183" lon="12.6765933"><ele>274.0</ele><time>2026-04-18T11:48:06.89Z</time></trkpt><trkpt lat="43.8742" lon="12.6766433"><ele>277.0</ele><time>2026-04-18T11:48:07.89Z</time></trkpt><trkpt lat="43.8740783" lon="12.6766583"><ele>280.0</ele><time>2026-04-18T11:48:08.89Z</time></trkpt><trkpt lat="43.873955" lon="12.6766333"><ele>283.0</ele><time>2026-04-18T11:48:09.89Z</time></trkpt><trkpt lat="43.8738417" lon="12.676575"><ele>283.0</ele><time>2026-04-18T11:48:10.885Z</time></trkpt><trkpt lat="43.8737533" lon="12.6764383"><ele>283.0</ele><time>2026-04-18T11:48:11.886Z</time></trkpt><trkpt lat="43.8736733" lon="12.6762633"><ele>283.0</ele><time>2026-04-18T11:48:12.889Z</time></trkpt><trkpt lat="43.8736067" lon="12.676055"><ele>283.0</ele><time>2026-04-18T11:48:13.886Z</time></trkpt><trkpt lat="43.8735433" lon="12.6758283"><ele>283.0</ele><time>2026-04-18T11:48:14.886Z</time></trkpt><trkpt lat="43.873475" lon="12.67559"><ele>283.0</ele><time>2026-04-18T11:48:15.886Z</time></trkpt><trkpt lat="43.873405" lon="12.67535"><ele>283.0</ele><time>2026-04-18T11:48:16.887Z</time></trkpt><trkpt lat="43.8733317" lon="12.67511"><ele>287.66666666666663</ele><time>2026-04-18T11:48:17.887Z</time></trkpt><trkpt lat="43.8732567" lon="12.6748767"><ele>292.3333333333333</ele><time>2026-04-18T11:48:18.886Z</time></trkpt><trkpt lat="43.8731917" lon="12.6746367"><ele>297.0</ele><time>2026-04-18T11:48:19.888Z</time></trkpt><trkpt lat="43.8731467" lon="12.6743883"><ele>299.3333333333333</ele><time>2026-04-18T11:48:20.887Z</time></trkpt><trkpt lat="43.8731267" lon="12.674145"><ele>301.66666666666663</ele><time>2026-04-18T11:48:21.887Z</time></trkpt><trkpt lat="43.8731317" lon="12.6739183"><ele>304.0</ele><time>2026-04-18T11:48:22.888Z</time></trkpt><trkpt lat="43.87316" lon="12.6737183"><ele>304.0</ele><time>2026-04-18T11:48:23.889Z</time></trkpt><trkpt lat="43.8731983" lon="12.673525"><ele>304.0</ele><time>2026-04-18T11:48:24.886Z</time></trkpt><trkpt lat="43.8732483" lon="12.6733417"><ele>304.0</ele><time>2026-04-18T11:48:25.889Z</time></trkpt><trkpt lat="43.8733" lon="12.6731833"><ele>304.0</ele><time>2026-04-18T11:48:26.886Z</time></trkpt><trkpt lat="43.8733467" lon="12.67304"><ele>304.0</ele><time>2026-04-18T11:48:27.887Z</time></trkpt><trkpt lat="43.8733867" lon="12.6729233"><ele>304.0</ele><time>2026-04-18T11:48:28.888Z</time></trkpt><trkpt lat="43.87343" lon="12.672835"><ele>304.0</ele><time>2026-04-18T11:48:29.888Z</time></trkpt><trkpt lat="43.8734633" lon="12.6727567"><ele>304.0</ele><time>2026-04-18T11:48:30.887Z</time></trkpt><trkpt lat="43.8734633" lon="12.67264"><ele>304.0</ele><time>2026-04-18T11:48:33.885Z</time></trkpt><trkpt lat="43.87339" lon="12.6726517"><ele>304.0</ele><time>2026-04-18T11:48:50.887Z</time></trkpt><trkpt lat="43.8733017" lon="12.6727167"><ele>304.0</ele><time>2026-04-18T11:48:53.887Z</time></trkpt><trkpt lat="43.8732033" lon="12.6727633"><ele>304.0</ele><time>2026-04-18T11:48:55.886Z</time></trkpt><trkpt lat="43.8731067" lon="12.6727933"><ele>304.0</ele><time>2026-04-18T11:48:57.887Z</time></trkpt><trkpt lat="43.8730333" lon="12.6727917"><ele>304.0</ele><time>2026-04-18T11:48:59.886Z</time></trkpt><trkpt lat="43.8729717" lon="12.672755"><ele>304.0</ele><time>2026-04-18T11:49:01.887Z</time></trkpt><trkpt lat="43.8729167" lon="12.6726917"><ele>304.0</ele><time>2026-04-18T11:49:03.886Z</time></trkpt><trkpt lat="43.87283" lon="12.6726333"><ele>304.4</ele><time>2026-04-18T11:49:05.886Z</time></trkpt><trkpt lat="43.8727283" lon="12.6726017"><ele>304.79999999999995</ele><time>2026-04-18T11:49:07.886Z</time></trkpt><trkpt lat="43.872625" lon="12.6725633"><ele>305.20000000000005</ele><time>2026-04-18T11:49:09.889Z</time></trkpt><trkpt lat="43.872545" lon="12.672505"><ele>305.6</ele><time>2026-04-18T11:49:11.885Z</time></trkpt><trkpt lat="43.87249" lon="12.6724467"><ele>306.0</ele><time>2026-04-18T11:49:13.887Z</time></trkpt><trkpt lat="43.87244" lon="12.67235"><ele>306.0</ele><time>2026-04-18T11:49:16.887Z</time></trkpt><trkpt lat="43.8724983" lon="12.67242"><ele>306.0</ele><time>2026-04-18T11:49:41.89Z</time></trkpt><trkpt lat="43.8726017" lon="12.6725167"><ele>306.0</ele><time>2026-04-18T11:49:43.888Z</time></trkpt><trkpt lat="43.872675" lon="12.6725617"><ele>306.0</ele><time>2026-04-18T11:49:44.889Z</time></trkpt><trkpt lat="43.87276" lon="12.6726067"><ele>306.0</ele><time>2026-04-18T11:49:45.887Z</time></trkpt><trkpt lat="43.8728417" lon="12.6726483"><ele>306.0</ele><time>2026-04-18T11:49:46.888Z</time></trkpt><trkpt lat="43.8729117" lon="12.6726917"><ele>306.0</ele><time>2026-04-18T11:49:47.887Z</time></trkpt><trkpt lat="43.8730067" lon="12.6727817"><ele>306.0</ele><time>2026-04-18T11:49:49.889Z</time></trkpt><trkpt lat="43.873085" lon="12.67282"><ele>306.0</ele><time>2026-04-18T11:49:51.887Z</time></trkpt><trkpt lat="43.8731717" lon="12.6727983"><ele>306.0</ele><time>2026-04-18T11:49:53.887Z</time></trkpt><trkpt lat="43.8732733" lon="12.6727333"><ele>306.0</ele><time>2026-04-18T11:49:55.887Z</time></trkpt><trkpt lat="43.873345" lon="12.6726917"><ele>306.0</ele><time>2026-04-18T11:49:57.887Z</time></trkpt><trkpt lat="43.8733333" lon="12.6725533"><ele>306.0</ele><time>2026-04-18T11:50:00.887Z</time></trkpt><trkpt lat="43.8732867" lon="12.67237"><ele>306.0</ele><time>2026-04-18T11:50:02.887Z</time></trkpt><trkpt lat="43.873255" lon="12.6722533"><ele>306.0</ele><time>2026-04-18T11:50:03.887Z</time></trkpt><trkpt lat="43.8732217" lon="12.6721233"><ele>306.0</ele><time>2026-04-18T11:50:04.886Z</time></trkpt><trkpt lat="43.8731917" lon="12.6719917"><ele>306.0</ele><time>2026-04-18T11:50:05.886Z</time></trkpt><trkpt lat="43.87316" lon="12.6718533"><ele>306.0</ele><time>2026-04-18T11:50:06.888Z</time></trkpt><trkpt lat="43.8731467" lon="12.67172"><ele>306.0</ele><time>2026-04-18T11:50:07.887Z</time></trkpt><trkpt lat="43.8731383" lon="12.671575"><ele>306.0</ele><time>2026-04-18T11:50:08.886Z</time></trkpt><trkpt lat="43.8731417" lon="12.6714117"><ele>308.75</ele><time>2026-04-18T11:50:09.887Z</time></trkpt><trkpt lat="43.8731433" lon="12.67123"><ele>311.5</ele><time>2026-04-18T11:50:10.886Z</time></trkpt><trkpt lat="43.87315" lon="12.6710417"><ele>314.25</ele><time>2026-04-18T11:50:11.886Z</time></trkpt><trkpt lat="43.87315" lon="12.670855"><ele>317.0</ele><time>2026-04-18T11:50:12.886Z</time></trkpt><trkpt lat="43.8731467" lon="12.6706767"><ele>319.2</ele><time>2026-04-18T11:50:13.89Z</time></trkpt><trkpt lat="43.8731517" lon="12.670515"><ele>321.4</ele><time>2026-04-18T11:50:14.886Z</time></trkpt><trkpt lat="43.8731683" lon="12.6703733"><ele>323.59999999999997</ele><time>2026-04-18T11:50:15.889Z</time></trkpt><trkpt lat="43.8732" lon="12.6702633"><ele>325.79999999999995</ele><time>2026-04-18T11:50:16.886Z</time></trkpt><trkpt lat="43.8732233" lon="12.6701717"><ele>328.0</ele><time>2026-04-18T11:50:17.889Z</time></trkpt><trkpt lat="43.8732617" lon="12.6700633"><ele>329.5</ele><time>2026-04-18T11:50:19.886Z</time></trkpt><trkpt lat="43.8732167" lon="12.669975"><ele>331.0</ele><time>2026-04-18T11:50:22.887Z</time></trkpt><trkpt lat="43.873075" lon="12.66995"><ele>332.5</ele><time>2026-04-18T11:50:24.889Z</time></trkpt><trkpt lat="43.8729683" lon="12.6699383"><ele>334.0</ele><time>2026-04-18T11:50:25.89Z</time></trkpt><trkpt lat="43.8728467" lon="12.6699117"><ele>334.0</ele><time>2026-04-18T11:50:26.885Z</time></trkpt><trkpt lat="43.8727117" lon="12.6698167"><ele>334.0</ele><time>2026-04-18T11:50:27.889Z</time></trkpt><trkpt lat="43.8726083" lon="12.6697183"><ele>334.0</ele><time>2026-04-18T11:50:28.889Z</time></trkpt><trkpt lat="43.8725183" lon="12.6696"><ele>334.0</ele><time>2026-04-18T11:50:29.885Z</time></trkpt><trkpt lat="43.8724417" lon="12.66946"><ele>337.0</ele><time>2026-04-18T11:50:30.885Z</time></trkpt><trkpt lat="43.87238" lon="12.6693133"><ele>340.0</ele><time>2026-04-18T11:50:31.885Z</time></trkpt><trkpt lat="43.8723067" lon="12.66918"><ele>343.0</ele><time>2026-04-18T11:50:32.886Z</time></trkpt><trkpt lat="43.8722167" lon="12.66907"><ele>346.0</ele><time>2026-04-18T11:50:33.889Z</time></trkpt><trkpt lat="43.872095" lon="12.6689983"><ele>346.0</ele><time>2026-04-18T11:50:34.889Z</time></trkpt><trkpt lat="43.8719567" lon="12.6689483"><ele>346.0</ele><time>2026-04-18T11:50:35.888Z</time></trkpt><trkpt lat="43.8718017" lon="12.6689133"><ele>346.0</ele><time>2026-04-18T11:50:36.887Z</time></trkpt><trkpt lat="43.871645" lon="12.6688883"><ele>343.0</ele><time>2026-04-18T11:50:37.888Z</time></trkpt><trkpt lat="43.8714967" lon="12.668885"><ele>340.0</ele><time>2026-04-18T11:50:38.889Z</time></trkpt><trkpt lat="43.8713617" lon="12.6688983"><ele>337.0</ele><time>2026-04-18T11:50:39.888Z</time></trkpt><trkpt lat="43.87123" lon="12.6689283"><ele>334.0</ele><time>2026-04-18T11:50:40.888Z</time></trkpt><trkpt lat="43.8711067" lon="12.6689933"><ele>334.0</ele><time>2026-04-18T11:50:41.888Z</time></trkpt><trkpt lat="43.8709933" lon="12.6690867"><ele>334.0</ele><time>2026-04-18T11:50:42.887Z</time></trkpt><trkpt lat="43.8708883" lon="12.66918"><ele>334.0</ele><time>2026-04-18T11:50:43.885Z</time></trkpt><trkpt lat="43.870785" lon="12.669255"><ele>334.0</ele><time>2026-04-18T11:50:44.885Z</time></trkpt><trkpt lat="43.8706767" lon="12.6692983"><ele>334.79999999999995</ele><time>2026-04-18T11:50:45.887Z</time></trkpt><trkpt lat="43.8705767" lon="12.6692817"><ele>335.59999999999997</ele><time>2026-04-18T11:50:46.885Z</time></trkpt><trkpt lat="43.8705" lon="12.6692117"><ele>336.4</ele><time>2026-04-18T11:50:47.885Z</time></trkpt><trkpt lat="43.87044" lon="12.6690967"><ele>337.2</ele><time>2026-04-18T11:50:48.886Z</time></trkpt><trkpt lat="43.870405" lon="12.6689433"><ele>338.0</ele><time>2026-04-18T11:50:49.886Z</time></trkpt><trkpt lat="43.8703867" lon="12.668765"><ele>343.0</ele><time>2026-04-18T11:50:50.885Z</time></trkpt><trkpt lat="43.8703783" lon="12.6685583"><ele>348.0</ele><time>2026-04-18T11:50:51.885Z</time></trkpt><trkpt lat="43.8703567" lon="12.668355"><ele>353.0</ele><time>2026-04-18T11:50:52.889Z</time></trkpt><trkpt lat="43.8703267" lon="12.6681367"><ele>353.0</ele><time>2026-04-18T11:50:53.885Z</time></trkpt><trkpt lat="43.870285" lon="12.6679183"><ele>353.0</ele><time>2026-04-18T11:50:54.89Z</time></trkpt><trkpt lat="43.87023" lon="12.6676983"><ele>353.0</ele><time>2026-04-18T11:50:55.889Z</time></trkpt><trkpt lat="43.87016" lon="12.6674783"><ele>350.33333333333337</ele><time>2026-04-18T11:50:56.889Z</time></trkpt><trkpt lat="43.8700817" lon="12.66726"><ele>347.6666666666667</ele><time>2026-04-18T11:50:57.887Z</time></trkpt><trkpt lat="43.8699933" lon="12.6670517"><ele>345.0</ele><time>2026-04-18T11:50:58.886Z</time></trkpt><trkpt lat="43.8699083" lon="12.6668583"><ele>345.0</ele><time>2026-04-18T11:50:59.887Z</time></trkpt><trkpt lat="43.8698383" lon="12.6666633"><ele>345.0</ele><time>2026-04-18T11:51:00.887Z</time></trkpt><trkpt lat="43.8697717" lon="12.6664783"><ele>345.0</ele><time>2026-04-18T11:51:01.886Z</time></trkpt><trkpt lat="43.869715" lon="12.6662983"><ele>345.0</ele><time>2026-04-18T11:51:02.886Z</time></trkpt><trkpt lat="43.8696517" lon="12.6661233"><ele>341.3333333333333</ele><time>2026-04-18T11:51:03.886Z</time></trkpt><trkpt lat="43.8695717" lon="12.6659567"><ele>337.66666666666663</ele><time>2026-04-18T11:51:04.886Z</time></trkpt><trkpt lat="43.8694683" lon="12.6658017"><ele>334.0</ele><time>2026-04-18T11:51:05.888Z</time></trkpt><trkpt lat="43.869345" lon="12.6656533"><ele>335.3333333333333</ele><time>2026-04-18T11:51:06.887Z</time></trkpt><trkpt lat="43.8692083" lon="12.66551"><ele>336.6666666666667</ele><time>2026-04-18T11:51:07.886Z</time></trkpt><trkpt lat="43.8690683" lon="12.665375"><ele>338.0</ele><time>2026-04-18T11:51:08.887Z</time></trkpt><trkpt lat="43.8689383" lon="12.6652433"><ele>332.0</ele><time>2026-04-18T11:51:09.889Z</time></trkpt><trkpt lat="43.86881" lon="12.6651167"><ele>326.0</ele><time>2026-04-18T11:51:10.885Z</time></trkpt><trkpt lat="43.8686883" lon="12.6649933"><ele>320.0</ele><time>2026-04-18T11:51:11.885Z</time></trkpt><trkpt lat="43.868575" lon="12.6648733"><ele>320.0</ele><time>2026-04-18T11:51:12.887Z</time></trkpt><trkpt lat="43.868465" lon="12.6647617"><ele>320.0</ele><time>2026-04-18T11:51:13.888Z</time></trkpt><trkpt lat="43.8683533" lon="12.66466"><ele>320.0</ele><time>2026-04-18T11:51:14.886Z</time></trkpt><trkpt lat="43.8682367" lon="12.6645883"><ele>320.0</ele><time>2026-04-18T11:51:15.885Z</time></trkpt><trkpt lat="43.86812" lon="12.6645567"><ele>321.5</ele><time>2026-04-18T11:51:16.885Z</time></trkpt><trkpt lat="43.8680083" lon="12.6645917"><ele>323.0</ele><time>2026-04-18T11:51:17.885Z</time></trkpt><trkpt lat="43.8679133" lon="12.6646817"><ele>324.5</ele><time>2026-04-18T11:51:18.886Z</time></trkpt><trkpt lat="43.8678417" lon="12.6648083"><ele>326.0</ele><time>2026-04-18T11:51:19.888Z</time></trkpt><trkpt lat="43.8677783" lon="12.6649717"><ele>326.0</ele><time>2026-04-18T11:51:20.886Z</time></trkpt><trkpt lat="43.8677067" lon="12.6651483"><ele>326.0</ele><time>2026-04-18T11:51:21.886Z</time></trkpt><trkpt lat="43.867625" lon="12.66532"><ele>326.0</ele><time>2026-04-18T11:51:22.889Z</time></trkpt><trkpt lat="43.8675133" lon="12.6654633"><ele>326.0</ele><time>2026-04-18T11:51:23.888Z</time></trkpt><trkpt lat="43.8673717" lon="12.6655683"><ele>322.6666666666667</ele><time>2026-04-18T11:51:24.885Z</time></trkpt><trkpt lat="43.8672183" lon="12.665655"><ele>319.3333333333333</ele><time>2026-04-18T11:51:25.886Z</time></trkpt><trkpt lat="43.8670683" lon="12.665745"><ele>316.0</ele><time>2026-04-18T11:51:26.885Z</time></trkpt><trkpt lat="43.86692" lon="12.665835"><ele>313.66666666666663</ele><time>2026-04-18T11:51:27.885Z</time></trkpt><trkpt lat="43.8667683" lon="12.6659217"><ele>311.3333333333333</ele><time>2026-04-18T11:51:28.89Z</time></trkpt><trkpt lat="43.8666117" lon="12.6660083"><ele>309.0</ele><time>2026-04-18T11:51:29.889Z</time></trkpt><trkpt lat="43.866455" lon="12.6661"><ele>305.3333333333333</ele><time>2026-04-18T11:51:30.891Z</time></trkpt><trkpt lat="43.86629" lon="12.6661917"><ele>301.66666666666663</ele><time>2026-04-18T11:51:31.886Z</time></trkpt><trkpt lat="43.8661233" lon="12.666285"><ele>298.0</ele><time>2026-04-18T11:51:32.887Z</time></trkpt><trkpt lat="43.865955" lon="12.6663667"><ele>300.66666666666663</ele><time>2026-04-18T11:51:33.887Z</time></trkpt><trkpt lat="43.8657767" lon="12.6664333"><ele>303.3333333333333</ele><time>2026-04-18T11:51:34.887Z</time></trkpt><trkpt lat="43.8655983" lon="12.66649"><ele>306.0</ele><time>2026-04-18T11:51:35.887Z</time></trkpt><trkpt lat="43.8654183" lon="12.6665417"><ele>306.0</ele><time>2026-04-18T11:51:36.887Z</time></trkpt><trkpt lat="43.8652367" lon="12.6665917"><ele>306.0</ele><time>2026-04-18T11:51:37.887Z</time></trkpt><trkpt lat="43.865055" lon="12.6666417"><ele>306.0</ele><time>2026-04-18T11:51:38.888Z</time></trkpt><trkpt lat="43.86487" lon="12.6666917"><ele>309.6666666666667</ele><time>2026-04-18T11:51:39.886Z</time></trkpt><trkpt lat="43.8646883" lon="12.6667433"><ele>313.33333333333337</ele><time>2026-04-18T11:51:40.888Z</time></trkpt><trkpt lat="43.8645083" lon="12.6667967"><ele>317.0</ele><time>2026-04-18T11:51:41.889Z</time></trkpt><trkpt lat="43.8643317" lon="12.666845"><ele>319.6666666666667</ele><time>2026-04-18T11:51:42.888Z</time></trkpt><trkpt lat="43.864155" lon="12.6668833"><ele>322.3333333333333</ele><time>2026-04-18T11:51:43.887Z</time></trkpt><trkpt lat="43.8639833" lon="12.6669"><ele>325.0</ele><time>2026-04-18T11:51:44.888Z</time></trkpt><trkpt lat="43.8638133" lon="12.6668833"><ele>325.0</ele><time>2026-04-18T11:51:45.889Z</time></trkpt><trkpt lat="43.86364" lon="12.6668483"><ele>325.0</ele><time>2026-04-18T11:51:46.886Z</time></trkpt><trkpt lat="43.86346" lon="12.66682"><ele>325.0</ele><time>2026-04-18T11:51:47.885Z</time></trkpt><trkpt lat="43.8632867" lon="12.6668083"><ele>326.75</ele><time>2026-04-18T11:51:48.887Z</time></trkpt><trkpt lat="43.86313" lon="12.6667983"><ele>328.5</ele><time>2026-04-18T11:51:49.886Z</time></trkpt><trkpt lat="43.8629883" lon="12.6667967"><ele>330.25</ele><time>2026-04-18T11:51:50.885Z</time></trkpt><trkpt lat="43.86286" lon="12.6667867"><ele>332.0</ele><time>2026-04-18T11:51:51.887Z</time></trkpt><trkpt lat="43.8627433" lon="12.66677"><ele>332.0</ele><time>2026-04-18T11:51:52.887Z</time></trkpt><trkpt lat="43.8626267" lon="12.66675"><ele>332.0</ele><time>2026-04-18T11:51:53.885Z</time></trkpt><trkpt lat="43.8625133" lon="12.66673"><ele>332.0</ele><time>2026-04-18T11:51:54.887Z</time></trkpt><trkpt lat="43.86241" lon="12.6667117"><ele>332.0</ele><time>2026-04-18T11:51:55.887Z</time></trkpt><trkpt lat="43.8623183" lon="12.6666917"><ele>332.0</ele><time>2026-04-18T11:51:56.885Z</time></trkpt><trkpt lat="43.86224" lon="12.6666667"><ele>332.1666666666667</ele><time>2026-04-18T11:51:57.886Z</time></trkpt><trkpt lat="43.8621717" lon="12.666635"><ele>332.33333333333337</ele><time>2026-04-18T11:51:58.89Z</time></trkpt><trkpt lat="43.86211" lon="12.6666"><ele>332.5</ele><time>2026-04-18T11:51:59.889Z</time></trkpt><trkpt lat="43.8620533" lon="12.666535"><ele>332.6666666666667</ele><time>2026-04-18T11:52:00.888Z</time></trkpt><trkpt lat="43.861995" lon="12.6664433"><ele>332.8333333333333</ele><time>2026-04-18T11:52:01.886Z</time></trkpt><trkpt lat="43.8619283" lon="12.66634"><ele>333.0</ele><time>2026-04-18T11:52:02.886Z</time></trkpt><trkpt lat="43.861855" lon="12.66623"><ele>333.2</ele><time>2026-04-18T11:52:03.885Z</time></trkpt><trkpt lat="43.861775" lon="12.6661317"><ele>333.4</ele><time>2026-04-18T11:52:04.887Z</time></trkpt><trkpt lat="43.8616933" lon="12.6660367"><ele>333.59999999999997</ele><time>2026-04-18T11:52:05.886Z</time></trkpt><trkpt lat="43.8616117" lon="12.6659367"><ele>333.79999999999995</ele><time>2026-04-18T11:52:06.887Z</time></trkpt><trkpt lat="43.861525" lon="12.66583"><ele>334.0</ele><time>2026-04-18T11:52:07.886Z</time></trkpt><trkpt lat="43.86143" lon="12.6657167"><ele>334.75</ele><time>2026-04-18T11:52:08.885Z</time></trkpt><trkpt lat="43.8613317" lon="12.6656067"><ele>335.5</ele><time>2026-04-18T11:52:09.886Z</time></trkpt><trkpt lat="43.861235" lon="12.6654983"><ele>336.25</ele><time>2026-04-18T11:52:10.889Z</time></trkpt><trkpt lat="43.8611367" lon="12.6653833"><ele>337.0</ele><time>2026-04-18T11:52:11.885Z</time></trkpt><trkpt lat="43.861035" lon="12.6652617"><ele>339.75</ele><time>2026-04-18T11:52:12.886Z</time></trkpt><trkpt lat="43.860935" lon="12.66513"><ele>342.5</ele><time>2026-04-18T11:52:13.887Z</time></trkpt><trkpt lat="43.8608367" lon="12.6649883"><ele>345.25</ele><time>2026-04-18T11:52:14.885Z</time></trkpt><trkpt lat="43.86074" lon="12.6648517"><ele>348.0</ele><time>2026-04-18T11:52:15.886Z</time></trkpt><trkpt lat="43.8606467" lon="12.6647217"><ele>348.0</ele><time>2026-04-18T11:52:16.887Z</time></trkpt><trkpt lat="43.860545" lon="12.6646017"><ele>348.0</ele><time>2026-04-18T11:52:17.887Z</time></trkpt><trkpt lat="43.86043" lon="12.664505"><ele>348.0</ele><time>2026-04-18T11:52:18.887Z</time></trkpt><trkpt lat="43.8603183" lon="12.664425"><ele>348.0</ele><time>2026-04-18T11:52:19.888Z</time></trkpt><trkpt lat="43.8602133" lon="12.6643667"><ele>345.3333333333333</ele><time>2026-04-18T11:52:20.886Z</time></trkpt><trkpt lat="43.86013" lon="12.6643067"><ele>342.6666666666667</ele><time>2026-04-18T11:52:21.887Z</time></trkpt><trkpt lat="43.8600583" lon="12.66425"><ele>340.0</ele><time>2026-04-18T11:52:22.889Z</time></trkpt><trkpt lat="43.86" lon="12.664185"><ele>337.33333333333337</ele><time>2026-04-18T11:52:23.887Z</time></trkpt><trkpt lat="43.85995" lon="12.66411"><ele>334.6666666666667</ele><time>2026-04-18T11:52:24.887Z</time></trkpt><trkpt lat="43.8599283" lon="12.6640033"><ele>332.0</ele><time>2026-04-18T11:52:25.888Z</time></trkpt><trkpt lat="43.85992" lon="12.6638633"><ele>338.20000000000005</ele><time>2026-04-18T11:52:26.887Z</time></trkpt><trkpt lat="43.8599233" lon="12.6637083"><ele>344.4</ele><time>2026-04-18T11:52:27.886Z</time></trkpt><trkpt lat="43.8599417" lon="12.6635667"><ele>350.6</ele><time>2026-04-18T11:52:28.886Z</time></trkpt><trkpt lat="43.859975" lon="12.6634117"><ele>356.79999999999995</ele><time>2026-04-18T11:52:29.885Z</time></trkpt><trkpt lat="43.8600167" lon="12.6632733"><ele>363.0</ele><time>2026-04-18T11:52:30.887Z</time></trkpt><trkpt lat="43.8600567" lon="12.663155"><ele>363.0</ele><time>2026-04-18T11:52:31.887Z</time></trkpt><trkpt lat="43.86008" lon="12.6630417"><ele>363.0</ele><time>2026-04-18T11:52:32.886Z</time></trkpt><trkpt lat="43.8600917" lon="12.66293"><ele>363.0</ele><time>2026-04-18T11:52:33.89Z</time></trkpt><trkpt lat="43.8600867" lon="12.6628217"><ele>363.0</ele><time>2026-04-18T11:52:34.889Z</time></trkpt><trkpt lat="43.8600633" lon="12.6627133"><ele>363.0</ele><time>2026-04-18T11:52:35.886Z</time></trkpt><trkpt lat="43.8600267" lon="12.662615"><ele>363.0</ele><time>2026-04-18T11:52:36.887Z</time></trkpt><trkpt lat="43.8599517" lon="12.6625467"><ele>360.75</ele><time>2026-04-18T11:52:37.887Z</time></trkpt><trkpt lat="43.8598567" lon="12.6624917"><ele>358.5</ele><time>2026-04-18T11:52:38.885Z</time></trkpt><trkpt lat="43.8597517" lon="12.6624533"><ele>356.25</ele><time>2026-04-18T11:52:39.89Z</time></trkpt><trkpt lat="43.8596183" lon="12.6624217"><ele>354.0</ele><time>2026-04-18T11:52:40.885Z</time></trkpt><trkpt lat="43.8595033" lon="12.66237"><ele>354.0</ele><time>2026-04-18T11:52:41.885Z</time></trkpt><trkpt lat="43.8593733" lon="12.6623183"><ele>354.0</ele><time>2026-04-18T11:52:42.887Z</time></trkpt><trkpt lat="43.85924" lon="12.6622583"><ele>354.0</ele><time>2026-04-18T11:52:43.888Z</time></trkpt><trkpt lat="43.8591183" lon="12.6621883"><ele>354.0</ele><time>2026-04-18T11:52:44.885Z</time></trkpt><trkpt lat="43.8590017" lon="12.6621217"><ele>355.0</ele><time>2026-04-18T11:52:45.886Z</time></trkpt><trkpt lat="43.858895" lon="12.6620517"><ele>356.0</ele><time>2026-04-18T11:52:46.888Z</time></trkpt><trkpt lat="43.8588167" lon="12.661965"><ele>357.0</ele><time>2026-04-18T11:52:47.888Z</time></trkpt><trkpt lat="43.858785" lon="12.6618683"><ele>358.0</ele><time>2026-04-18T11:52:48.886Z</time></trkpt><trkpt lat="43.85877" lon="12.6617683"><ele>359.0</ele><time>2026-04-18T11:52:49.886Z</time></trkpt><trkpt lat="43.8587833" lon="12.6616667"><ele>360.0</ele><time>2026-04-18T11:52:50.886Z</time></trkpt><trkpt lat="43.8587833" lon="12.661565"><ele>360.0</ele><time>2026-04-18T11:52:51.887Z</time></trkpt><trkpt lat="43.85876" lon="12.661475"><ele>360.0</ele><time>2026-04-18T11:52:52.888Z</time></trkpt><trkpt lat="43.85872" lon="12.6613867"><ele>360.0</ele><time>2026-04-18T11:52:53.887Z</time></trkpt><trkpt lat="43.85865" lon="12.6613167"><ele>360.0</ele><time>2026-04-18T11:52:54.887Z</time></trkpt><trkpt lat="43.8585583" lon="12.66125"><ele>360.0</ele><time>2026-04-18T11:52:55.887Z</time></trkpt><trkpt lat="43.8584367" lon="12.6611967"><ele>366.25</ele><time>2026-04-18T11:52:56.888Z</time></trkpt><trkpt lat="43.8583183" lon="12.661165"><ele>372.5</ele><time>2026-04-18T11:52:57.889Z</time></trkpt><trkpt lat="43.8581933" lon="12.6611467"><ele>378.75</ele><time>2026-04-18T11:52:58.887Z</time></trkpt><trkpt lat="43.85807" lon="12.6611383"><ele>385.0</ele><time>2026-04-18T11:52:59.887Z</time></trkpt><trkpt lat="43.85794" lon="12.6611517"><ele>385.0</ele><time>2026-04-18T11:53:00.886Z</time></trkpt><trkpt lat="43.8578117" lon="12.6611883"><ele>385.0</ele><time>2026-04-18T11:53:01.887Z</time></trkpt><trkpt lat="43.8576883" lon="12.661245"><ele>385.0</ele><time>2026-04-18T11:53:02.886Z</time></trkpt><trkpt lat="43.8575717" lon="12.6612833"><ele>385.0</ele><time>2026-04-18T11:53:03.889Z</time></trkpt><trkpt lat="43.8574683" lon="12.6613033"><ele>385.33333333333337</ele><time>2026-04-18T11:53:04.888Z</time></trkpt><trkpt lat="43.857375" lon="12.6613167"><ele>385.6666666666667</ele><time>2026-04-18T11:53:05.887Z</time></trkpt><trkpt lat="43.8573" lon="12.6613233"><ele>386.0</ele><time>2026-04-18T11:53:06.887Z</time></trkpt><trkpt lat="43.8572133" lon="12.661325"><ele>386.33333333333337</ele><time>2026-04-18T11:53:08.888Z</time></trkpt><trkpt lat="43.8571533" lon="12.661255"><ele>386.6666666666667</ele><time>2026-04-18T11:53:18.886Z</time></trkpt><trkpt lat="43.85714" lon="12.6611183"><ele>387.0</ele><time>2026-04-18T11:53:20.886Z</time></trkpt><trkpt lat="43.8571533" lon="12.6610017"><ele>384.25</ele><time>2026-04-18T11:53:21.885Z</time></trkpt><trkpt lat="43.8571733" lon="12.6608733"><ele>381.5</ele><time>2026-04-18T11:53:22.887Z</time></trkpt><trkpt lat="43.857205" lon="12.6607067"><ele>378.75</ele><time>2026-04-18T11:53:23.889Z</time></trkpt><trkpt lat="43.8572683" lon="12.6605183"><ele>376.0</ele><time>2026-04-18T11:53:24.889Z</time></trkpt><trkpt lat="43.857345" lon="12.660335"><ele>376.5</ele><time>2026-04-18T11:53:25.89Z</time></trkpt><trkpt lat="43.8574217" lon="12.6601567"><ele>377.0</ele><time>2026-04-18T11:53:26.887Z</time></trkpt><trkpt lat="43.857495" lon="12.65998"><ele>377.5</ele><time>2026-04-18T11:53:27.889Z</time></trkpt><trkpt lat="43.8575667" lon="12.6597933"><ele>378.0</ele><time>2026-04-18T11:53:28.89Z</time></trkpt><trkpt lat="43.8576383" lon="12.6596033"><ele>373.25</ele><time>2026-04-18T11:53:29.889Z</time></trkpt><trkpt lat="43.8576917" lon="12.65942"><ele>368.5</ele><time>2026-04-18T11:53:30.891Z</time></trkpt><trkpt lat="43.8577317" lon="12.6592467"><ele>363.75</ele><time>2026-04-18T11:53:31.889Z</time></trkpt><trkpt lat="43.8577567" lon="12.6590833"><ele>359.0</ele><time>2026-04-18T11:53:32.889Z</time></trkpt><trkpt lat="43.857755" lon="12.6589317"><ele>359.0</ele><time>2026-04-18T11:53:33.888Z</time></trkpt><trkpt lat="43.8577317" lon="12.6587967"><ele>359.0</ele><time>2026-04-18T11:53:34.892Z</time></trkpt><trkpt lat="43.8576917" lon="12.6586783"><ele>359.0</ele><time>2026-04-18T11:53:35.889Z</time></trkpt><trkpt lat="43.8576417" lon="12.6585683"><ele>359.0</ele><time>2026-04-18T11:53:36.889Z</time></trkpt><trkpt lat="43.8575783" lon="12.6584717"><ele>359.0</ele><time>2026-04-18T11:53:37.889Z</time></trkpt><trkpt lat="43.85751" lon="12.6583783"><ele>363.79999999999995</ele><time>2026-04-18T11:53:38.887Z</time></trkpt><trkpt lat="43.8574433" lon="12.658285"><ele>368.59999999999997</ele><time>2026-04-18T11:53:39.888Z</time></trkpt><trkpt lat="43.8573767" lon="12.6581933"><ele>373.4</ele><time>2026-04-18T11:53:40.889Z</time></trkpt><trkpt lat="43.8573133" lon="12.6580967"><ele>378.2</ele><time>2026-04-18T11:53:41.889Z</time></trkpt><trkpt lat="43.8572467" lon="12.6579967"><ele>383.0</ele><time>2026-04-18T11:53:42.888Z</time></trkpt><trkpt lat="43.8571883" lon="12.6579"><ele>383.0</ele><time>2026-04-18T11:53:43.888Z</time></trkpt><trkpt lat="43.8571383" lon="12.6578067"><ele>383.0</ele><time>2026-04-18T11:53:44.888Z</time></trkpt><trkpt lat="43.857105" lon="12.6577167"><ele>383.0</ele><time>2026-04-18T11:53:45.888Z</time></trkpt><trkpt lat="43.8570833" lon="12.6576267"><ele>383.0</ele><time>2026-04-18T11:53:46.888Z</time></trkpt><trkpt lat="43.8570783" lon="12.657525"><ele>383.0</ele><time>2026-04-18T11:53:47.888Z</time></trkpt><trkpt lat="43.8571033" lon="12.6574217"><ele>383.0</ele><time>2026-04-18T11:53:48.89Z</time></trkpt><trkpt lat="43.857145" lon="12.657315"><ele>381.59999999999997</ele><time>2026-04-18T11:53:49.89Z</time></trkpt><trkpt lat="43.8572167" lon="12.65717"><ele>380.2</ele><time>2026-04-18T11:53:50.887Z</time></trkpt><trkpt lat="43.8572633" lon="12.6570383"><ele>378.8</ele><time>2026-04-18T11:53:51.888Z</time></trkpt><trkpt lat="43.8572883" lon="12.6569067"><ele>377.4</ele><time>2026-04-18T11:53:52.888Z</time></trkpt><trkpt lat="43.85728" lon="12.65679"><ele>376.0</ele><time>2026-04-18T11:53:53.889Z</time></trkpt><trkpt lat="43.85725" lon="12.6566833"><ele>374.25</ele><time>2026-04-18T11:53:54.889Z</time></trkpt><trkpt lat="43.8571917" lon="12.656585"><ele>372.5</ele><time>2026-04-18T11:53:55.887Z</time></trkpt><trkpt lat="43.8570867" lon="12.65648"><ele>370.75</ele><time>2026-04-18T11:53:56.889Z</time></trkpt><trkpt lat="43.8569617" lon="12.6563883"><ele>369.0</ele><time>2026-04-18T11:53:57.889Z</time></trkpt><trkpt lat="43.8568683" lon="12.656275"><ele>369.0</ele><time>2026-04-18T11:53:58.886Z</time></trkpt><trkpt lat="43.8567917" lon="12.6561417"><ele>369.0</ele><time>2026-04-18T11:53:59.889Z</time></trkpt><trkpt lat="43.8567333" lon="12.6559767"><ele>369.0</ele><time>2026-04-18T11:54:00.89Z</time></trkpt><trkpt lat="43.8567117" lon="12.6557817"><ele>369.0</ele><time>2026-04-18T11:54:01.887Z</time></trkpt><trkpt lat="43.8566933" lon="12.6555833"><ele>371.25</ele><time>2026-04-18T11:54:02.888Z</time></trkpt><trkpt lat="43.8566867" lon="12.6553917"><ele>373.5</ele><time>2026-04-18T11:54:03.887Z</time></trkpt><trkpt lat="43.85668" lon="12.65522"><ele>375.75</ele><time>2026-04-18T11:54:04.888Z</time></trkpt><trkpt lat="43.8566583" lon="12.655065"><ele>378.0</ele><time>2026-04-18T11:54:05.888Z</time></trkpt><trkpt lat="43.8566117" lon="12.6549283"><ele>378.0</ele><time>2026-04-18T11:54:06.889Z</time></trkpt><trkpt lat="43.85653" lon="12.654815"><ele>378.0</ele><time>2026-04-18T11:54:07.888Z</time></trkpt><trkpt lat="43.8564083" lon="12.654735"><ele>378.0</ele><time>2026-04-18T11:54:08.887Z</time></trkpt><trkpt lat="43.856265" lon="12.65468"><ele>378.0</ele><time>2026-04-18T11:54:09.887Z</time></trkpt><trkpt lat="43.856135" lon="12.6546117"><ele>378.0</ele><time>2026-04-18T11:54:10.89Z</time></trkpt><trkpt lat="43.8560117" lon="12.6545067"><ele>378.0</ele><time>2026-04-18T11:54:11.89Z</time></trkpt><trkpt lat="43.8558983" lon="12.6543783"><ele>378.0</ele><time>2026-04-18T11:54:12.886Z</time></trkpt><trkpt lat="43.8557967" lon="12.6542367"><ele>378.0</ele><time>2026-04-18T11:54:13.888Z</time></trkpt><trkpt lat="43.8557083" lon="12.654065"><ele>377.3333333333333</ele><time>2026-04-18T11:54:14.889Z</time></trkpt><trkpt lat="43.855655" lon="12.6538767"><ele>376.66666666666663</ele><time>2026-04-18T11:54:15.886Z</time></trkpt><trkpt lat="43.855615" lon="12.6536733"><ele>376.0</ele><time>2026-04-18T11:54:16.889Z</time></trkpt><trkpt lat="43.8555933" lon="12.6534583"><ele>373.0</ele><time>2026-04-18T11:54:17.887Z</time></trkpt><trkpt lat="43.855585" lon="12.6532383"><ele>370.0</ele><time>2026-04-18T11:54:18.888Z</time></trkpt><trkpt lat="43.855585" lon="12.6530183"><ele>367.0</ele><time>2026-04-18T11:54:19.888Z</time></trkpt><trkpt lat="43.8555833" lon="12.652795"><ele>365.75</ele><time>2026-04-18T11:54:20.889Z</time></trkpt><trkpt lat="43.8555867" lon="12.6525783"><ele>364.5</ele><time>2026-04-18T11:54:21.886Z</time></trkpt><trkpt lat="43.8555967" lon="12.6523783"><ele>363.25</ele><time>2026-04-18T11:54:22.886Z</time></trkpt><trkpt lat="43.8556017" lon="12.65219"><ele>362.0</ele><time>2026-04-18T11:54:23.887Z</time></trkpt><trkpt lat="43.8556017" lon="12.6520167"><ele>362.0</ele><time>2026-04-18T11:54:24.886Z</time></trkpt><trkpt lat="43.8556017" lon="12.6518433"><ele>362.0</ele><time>2026-04-18T11:54:25.887Z</time></trkpt><trkpt lat="43.8556033" lon="12.6516683"><ele>362.0</ele><time>2026-04-18T11:54:26.885Z</time></trkpt><trkpt lat="43.855605" lon="12.6514983"><ele>362.0</ele><time>2026-04-18T11:54:27.887Z</time></trkpt><trkpt lat="43.8555933" lon="12.6513267"><ele>362.0</ele><time>2026-04-18T11:54:28.887Z</time></trkpt><trkpt lat="43.8555667" lon="12.6511567"><ele>362.0</ele><time>2026-04-18T11:54:29.886Z</time></trkpt><trkpt lat="43.85553" lon="12.6509833"><ele>362.0</ele><time>2026-04-18T11:54:30.887Z</time></trkpt><trkpt lat="43.8554883" lon="12.65081"><ele>362.0</ele><time>2026-04-18T11:54:31.889Z</time></trkpt><trkpt lat="43.855445" lon="12.6506167"><ele>361.6666666666667</ele><time>2026-04-18T11:54:32.886Z</time></trkpt><trkpt lat="43.855395" lon="12.6504"><ele>361.3333333333333</ele><time>2026-04-18T11:54:33.886Z</time></trkpt><trkpt lat="43.8553417" lon="12.6501767"><ele>361.0</ele><time>2026-04-18T11:54:34.889Z</time></trkpt><trkpt lat="43.8552933" lon="12.6499617"><ele>361.0</ele><time>2026-04-18T11:54:35.887Z</time></trkpt><trkpt lat="43.855255" lon="12.6497467"><ele>361.0</ele><time>2026-04-18T11:54:36.888Z</time></trkpt><trkpt lat="43.8552167" lon="12.649545"><ele>361.0</ele><time>2026-04-18T11:54:37.888Z</time></trkpt><trkpt lat="43.85517" lon="12.64936"><ele>355.75</ele><time>2026-04-18T11:54:38.886Z</time></trkpt><trkpt lat="43.855105" lon="12.649195"><ele>350.5</ele><time>2026-04-18T11:54:39.888Z</time></trkpt><trkpt lat="43.8550183" lon="12.6490433"><ele>345.25</ele><time>2026-04-18T11:54:40.887Z</time></trkpt><trkpt lat="43.8549233" lon="12.6489083"><ele>340.0</ele><time>2026-04-18T11:54:41.889Z</time></trkpt><trkpt lat="43.85483" lon="12.6487767"><ele>340.0</ele><time>2026-04-18T11:54:42.888Z</time></trkpt><trkpt lat="43.8547417" lon="12.6486467"><ele>340.0</ele><time>2026-04-18T11:54:43.886Z</time></trkpt><trkpt lat="43.8546717" lon="12.64852"><ele>340.0</ele><time>2026-04-18T11:54:44.886Z</time></trkpt><trkpt lat="43.8546283" lon="12.6484033"><ele>340.0</ele><time>2026-04-18T11:54:45.886Z</time></trkpt><trkpt lat="43.8546267" lon="12.648305"><ele>340.0</ele><time>2026-04-18T11:54:46.889Z</time></trkpt><trkpt lat="43.85464" lon="12.64821"><ele>339.2</ele><time>2026-04-18T11:54:47.887Z</time></trkpt><trkpt lat="43.8546967" lon="12.6481433"><ele>338.4</ele><time>2026-04-18T11:54:48.887Z</time></trkpt><trkpt lat="43.8547767" lon="12.648075"><ele>337.6</ele><time>2026-04-18T11:54:49.887Z</time></trkpt><trkpt lat="43.854875" lon="12.6479933"><ele>336.8</ele><time>2026-04-18T11:54:50.887Z</time></trkpt><trkpt lat="43.85499" lon="12.6478817"><ele>336.0</ele><time>2026-04-18T11:54:51.888Z</time></trkpt><trkpt lat="43.8550817" lon="12.6477567"><ele>336.0</ele><time>2026-04-18T11:54:52.89Z</time></trkpt><trkpt lat="43.8551683" lon="12.64761"><ele>336.0</ele><time>2026-04-18T11:54:53.887Z</time></trkpt><trkpt lat="43.8552383" lon="12.6474433"><ele>336.0</ele><time>2026-04-18T11:54:54.887Z</time></trkpt><trkpt lat="43.855285" lon="12.6472667"><ele>336.0</ele><time>2026-04-18T11:54:55.886Z</time></trkpt><trkpt lat="43.8553117" lon="12.647065"><ele>334.75</ele><time>2026-04-18T11:54:56.89Z</time></trkpt><trkpt lat="43.8553167" lon="12.6468717"><ele>333.5</ele><time>2026-04-18T11:54:57.889Z</time></trkpt><trkpt lat="43.85532" lon="12.6466967"><ele>332.25</ele><time>2026-04-18T11:54:58.888Z</time></trkpt><trkpt lat="43.855335" lon="12.6465467"><ele>331.0</ele><time>2026-04-18T11:54:59.887Z</time></trkpt><trkpt lat="43.8553683" lon="12.6463867"><ele>331.0</ele><time>2026-04-18T11:55:00.888Z</time></trkpt><trkpt lat="43.8554267" lon="12.6462333"><ele>331.0</ele><time>2026-04-18T11:55:01.888Z</time></trkpt><trkpt lat="43.8555017" lon="12.6460733"><ele>331.0</ele><time>2026-04-18T11:55:02.886Z</time></trkpt><trkpt lat="43.8555833" lon="12.64591"><ele>331.0</ele><time>2026-04-18T11:55:03.888Z</time></trkpt><trkpt lat="43.855655" lon="12.6457467"><ele>328.25</ele><time>2026-04-18T11:55:04.886Z</time></trkpt><trkpt lat="43.8557117" lon="12.64558"><ele>325.5</ele><time>2026-04-18T11:55:05.889Z</time></trkpt><trkpt lat="43.8557267" lon="12.6454183"><ele>322.75</ele><time>2026-04-18T11:55:06.888Z</time></trkpt><trkpt lat="43.8556967" lon="12.6452733"><ele>320.0</ele><time>2026-04-18T11:55:07.887Z</time></trkpt><trkpt lat="43.8556433" lon="12.6451567"><ele>320.0</ele><time>2026-04-18T11:55:08.888Z</time></trkpt><trkpt lat="43.8555567" lon="12.6450583"><ele>320.0</ele><time>2026-04-18T11:55:09.888Z</time></trkpt><trkpt lat="43.8554333" lon="12.644985"><ele>320.0</ele><time>2026-04-18T11:55:10.888Z</time></trkpt><trkpt lat="43.8553" lon="12.6449133"><ele>320.0</ele><time>2026-04-18T11:55:11.889Z</time></trkpt><trkpt lat="43.8551633" lon="12.6448333"><ele>312.6666666666667</ele><time>2026-04-18T11:55:12.887Z</time></trkpt><trkpt lat="43.8550233" lon="12.6447317"><ele>305.3333333333333</ele><time>2026-04-18T11:55:13.888Z</time></trkpt><trkpt lat="43.854885" lon="12.644615"><ele>298.0</ele><time>2026-04-18T11:55:14.887Z</time></trkpt><trkpt lat="43.8547433" lon="12.6445033"><ele>303.0</ele><time>2026-04-18T11:55:15.886Z</time></trkpt><trkpt lat="43.8546033" lon="12.64439"><ele>308.0</ele><time>2026-04-18T11:55:16.885Z</time></trkpt><trkpt lat="43.8544683" lon="12.644275"><ele>313.0</ele><time>2026-04-18T11:55:17.889Z</time></trkpt><trkpt lat="43.854345" lon="12.6441617"><ele>307.6</ele><time>2026-04-18T11:55:18.887Z</time></trkpt><trkpt lat="43.85424" lon="12.64406"><ele>302.20000000000005</ele><time>2026-04-18T11:55:19.886Z</time></trkpt><trkpt lat="43.8541483" lon="12.643965"><ele>296.8</ele><time>2026-04-18T11:55:20.885Z</time></trkpt><trkpt lat="43.85407" lon="12.6438933"><ele>291.40000000000003</ele><time>2026-04-18T11:55:21.885Z</time></trkpt><trkpt lat="43.8539917" lon="12.6438533"><ele>286.0</ele><time>2026-04-18T11:55:22.887Z</time></trkpt><trkpt lat="43.853905" lon="12.64384"><ele>286.0</ele><time>2026-04-18T11:55:23.886Z</time></trkpt><trkpt lat="43.853805" lon="12.6438467"><ele>286.0</ele><time>2026-04-18T11:55:24.886Z</time></trkpt><trkpt lat="43.8537033" lon="12.6438567"><ele>286.0</ele><time>2026-04-18T11:55:25.889Z</time></trkpt><trkpt lat="43.8536" lon="12.6438667"><ele>286.0</ele><time>2026-04-18T11:55:26.885Z</time></trkpt><trkpt lat="43.8534967" lon="12.64387"><ele>286.0</ele><time>2026-04-18T11:55:27.886Z</time></trkpt><trkpt lat="43.8533967" lon="12.6438517"><ele>284.5</ele><time>2026-04-18T11:55:28.888Z</time></trkpt><trkpt lat="43.8532967" lon="12.6438167"><ele>283.0</ele><time>2026-04-18T11:55:29.886Z</time></trkpt><trkpt lat="43.85319" lon="12.6437467"><ele>281.5</ele><time>2026-04-18T11:55:30.889Z</time></trkpt><trkpt lat="43.8530817" lon="12.6436617"><ele>280.0</ele><time>2026-04-18T11:55:31.887Z</time></trkpt><trkpt lat="43.8529733" lon="12.6435817"><ele>280.0</ele><time>2026-04-18T11:55:32.886Z</time></trkpt><trkpt lat="43.8528733" lon="12.6434867"><ele>280.0</ele><time>2026-04-18T11:55:33.889Z</time></trkpt><trkpt lat="43.85279" lon="12.6433767"><ele>280.0</ele><time>2026-04-18T11:55:34.889Z</time></trkpt><trkpt lat="43.8527133" lon="12.6432483"><ele>280.0</ele><time>2026-04-18T11:55:35.885Z</time></trkpt><trkpt lat="43.8526517" lon="12.64311"><ele>276.75</ele><time>2026-04-18T11:55:36.887Z</time></trkpt><trkpt lat="43.852595" lon="12.64297"><ele>273.5</ele><time>2026-04-18T11:55:37.886Z</time></trkpt><trkpt lat="43.8525417" lon="12.6428417"><ele>270.25</ele><time>2026-04-18T11:55:38.885Z</time></trkpt><trkpt lat="43.85247" lon="12.6427217"><ele>267.0</ele><time>2026-04-18T11:55:39.887Z</time></trkpt><trkpt lat="43.8523883" lon="12.6425983"><ele>267.0</ele><time>2026-04-18T11:55:40.887Z</time></trkpt><trkpt lat="43.8523017" lon="12.64249"><ele>267.0</ele><time>2026-04-18T11:55:41.885Z</time></trkpt><trkpt lat="43.85221" lon="12.6424167"><ele>267.0</ele><time>2026-04-18T11:55:42.887Z</time></trkpt><trkpt lat="43.852115" lon="12.6423883"><ele>267.0</ele><time>2026-04-18T11:55:43.887Z</time></trkpt><trkpt lat="43.852015" lon="12.6423867"><ele>267.0</ele><time>2026-04-18T11:55:44.886Z</time></trkpt><trkpt lat="43.8519267" lon="12.642395"><ele>267.0</ele><time>2026-04-18T11:55:45.887Z</time></trkpt><trkpt lat="43.8518517" lon="12.642395"><ele>267.0</ele><time>2026-04-18T11:55:46.888Z</time></trkpt><trkpt lat="43.8517833" lon="12.6423833"><ele>267.0</ele><time>2026-04-18T11:55:47.886Z</time></trkpt><trkpt lat="43.8517083" lon="12.642315"><ele>267.0</ele><time>2026-04-18T11:55:49.891Z</time></trkpt><trkpt lat="43.8516267" lon="12.642205"><ele>267.0</ele><time>2026-04-18T11:55:51.885Z</time></trkpt><trkpt lat="43.8515683" lon="12.64213"><ele>267.0</ele><time>2026-04-18T11:55:52.885Z</time></trkpt><trkpt lat="43.851495" lon="12.6420517"><ele>268.5</ele><time>2026-04-18T11:55:53.886Z</time></trkpt><trkpt lat="43.851395" lon="12.641955"><ele>270.0</ele><time>2026-04-18T11:55:54.887Z</time></trkpt><trkpt lat="43.8512767" lon="12.6418383"><ele>271.5</ele><time>2026-04-18T11:55:55.886Z</time></trkpt><trkpt lat="43.8511817" lon="12.64173"><ele>273.0</ele><time>2026-04-18T11:55:56.885Z</time></trkpt><trkpt lat="43.8511033" lon="12.6416233"><ele>273.0</ele><time>2026-04-18T11:55:57.885Z</time></trkpt><trkpt lat="43.85104" lon="12.6415067"><ele>273.0</ele><time>2026-04-18T11:55:58.885Z</time></trkpt><trkpt lat="43.8509933" lon="12.64139"><ele>273.0</ele><time>2026-04-18T11:55:59.886Z</time></trkpt><trkpt lat="43.8509733" lon="12.6412583"><ele>273.0</ele><time>2026-04-18T11:56:00.886Z</time></trkpt><trkpt lat="43.8509533" lon="12.64113"><ele>273.0</ele><time>2026-04-18T11:56:01.886Z</time></trkpt><trkpt lat="43.8509117" lon="12.6410183"><ele>271.2</ele><time>2026-04-18T11:56:02.885Z</time></trkpt><trkpt lat="43.8508483" lon="12.6409317"><ele>269.4</ele><time>2026-04-18T11:56:03.886Z</time></trkpt><trkpt lat="43.850785" lon="12.6408717"><ele>267.59999999999997</ele><time>2026-04-18T11:56:04.885Z</time></trkpt><trkpt lat="43.8506983" lon="12.6408317"><ele>265.8</ele><time>2026-04-18T11:56:05.89Z</time></trkpt><trkpt lat="43.8505933" lon="12.6407983"><ele>264.0</ele><time>2026-04-18T11:56:06.887Z</time></trkpt><trkpt lat="43.85047" lon="12.640775"><ele>264.0</ele><time>2026-04-18T11:56:07.886Z</time></trkpt><trkpt lat="43.850365" lon="12.640745"><ele>264.0</ele><time>2026-04-18T11:56:08.885Z</time></trkpt><trkpt lat="43.8502717" lon="12.6407017"><ele>264.0</ele><time>2026-04-18T11:56:09.886Z</time></trkpt><trkpt lat="43.85019" lon="12.6406617"><ele>264.0</ele><time>2026-04-18T11:56:10.886Z</time></trkpt><trkpt lat="43.850115" lon="12.6406283"><ele>264.0</ele><time>2026-04-18T11:56:11.885Z</time></trkpt><trkpt lat="43.85005" lon="12.6406167"><ele>264.0</ele><time>2026-04-18T11:56:12.887Z</time></trkpt><trkpt lat="43.849945" lon="12.640635"><ele>262.59999999999997</ele><time>2026-04-18T11:56:14.885Z</time></trkpt><trkpt lat="43.8498867" lon="12.6406683"><ele>261.2</ele><time>2026-04-18T11:56:15.887Z</time></trkpt><trkpt lat="43.8498133" lon="12.64072"><ele>259.79999999999995</ele><time>2026-04-18T11:56:16.887Z</time></trkpt><trkpt lat="43.8497283" lon="12.6407817"><ele>258.4</ele><time>2026-04-18T11:56:17.886Z</time></trkpt><trkpt lat="43.8496367" lon="12.6408567"><ele>257.0</ele><time>2026-04-18T11:56:18.886Z</time></trkpt><trkpt lat="43.8495467" lon="12.6409517"><ele>257.0</ele><time>2026-04-18T11:56:19.886Z</time></trkpt><trkpt lat="43.8494567" lon="12.6410733"><ele>257.0</ele><time>2026-04-18T11:56:20.887Z</time></trkpt><trkpt lat="43.8493733" lon="12.6412183"><ele>257.0</ele><time>2026-04-18T11:56:21.887Z</time></trkpt><trkpt lat="43.8492917" lon="12.6413717"><ele>257.0</ele><time>2026-04-18T11:56:22.888Z</time></trkpt><trkpt lat="43.8492" lon="12.64151"><ele>253.75</ele><time>2026-04-18T11:56:23.887Z</time></trkpt><trkpt lat="43.849105" lon="12.6416383"><ele>250.5</ele><time>2026-04-18T11:56:24.887Z</time></trkpt><trkpt lat="43.84901" lon="12.64175"><ele>247.25</ele><time>2026-04-18T11:56:25.888Z</time></trkpt><trkpt lat="43.8489183" lon="12.641855"><ele>244.0</ele><time>2026-04-18T11:56:26.885Z</time></trkpt><trkpt lat="43.8488233" lon="12.6419433"><ele>241.79999999999998</ele><time>2026-04-18T11:56:27.89Z</time></trkpt><trkpt lat="43.8487333" lon="12.64202"><ele>239.59999999999997</ele><time>2026-04-18T11:56:28.889Z</time></trkpt><trkpt lat="43.8486483" lon="12.6420817"><ele>237.4</ele><time>2026-04-18T11:56:29.887Z</time></trkpt><trkpt lat="43.8485633" lon="12.642125"><ele>235.2</ele><time>2026-04-18T11:56:30.889Z</time></trkpt><trkpt lat="43.8484683" lon="12.6421517"><ele>233.0</ele><time>2026-04-18T11:56:31.886Z</time></trkpt><trkpt lat="43.8483733" lon="12.6421667"><ele>232.8</ele><time>2026-04-18T11:56:32.885Z</time></trkpt><trkpt lat="43.8482767" lon="12.642185"><ele>232.60000000000002</ele><time>2026-04-18T11:56:33.885Z</time></trkpt><trkpt lat="43.84818" lon="12.6422183"><ele>232.39999999999998</ele><time>2026-04-18T11:56:34.887Z</time></trkpt><trkpt lat="43.8480817" lon="12.6422767"><ele>232.2</ele><time>2026-04-18T11:56:35.885Z</time></trkpt><trkpt lat="43.8480033" lon="12.6423583"><ele>232.0</ele><time>2026-04-18T11:56:36.886Z</time></trkpt><trkpt lat="43.84794" lon="12.6424483"><ele>232.0</ele><time>2026-04-18T11:56:37.888Z</time></trkpt><trkpt lat="43.8479033" lon="12.6425517"><ele>232.0</ele><time>2026-04-18T11:56:38.888Z</time></trkpt><trkpt lat="43.847895" lon="12.6426667"><ele>232.0</ele><time>2026-04-18T11:56:39.886Z</time></trkpt><trkpt lat="43.84791" lon="12.6428033"><ele>232.0</ele><time>2026-04-18T11:56:40.888Z</time></trkpt><trkpt lat="43.8479183" lon="12.6429367"><ele>232.0</ele><time>2026-04-18T11:56:41.888Z</time></trkpt><trkpt lat="43.8479167" lon="12.6430667"><ele>230.99999999999997</ele><time>2026-04-18T11:56:42.887Z</time></trkpt><trkpt lat="43.8478933" lon="12.6431833"><ele>230.0</ele><time>2026-04-18T11:56:43.887Z</time></trkpt><trkpt lat="43.8478467" lon="12.6432717"><ele>229.0</ele><time>2026-04-18T11:56:44.886Z</time></trkpt><trkpt lat="43.84778" lon="12.6433267"><ele>228.0</ele><time>2026-04-18T11:56:45.885Z</time></trkpt><trkpt lat="43.8476983" lon="12.6433417"><ele>226.99999999999997</ele><time>2026-04-18T11:56:46.887Z</time></trkpt><trkpt lat="43.8476" lon="12.64331"><ele>226.0</ele><time>2026-04-18T11:56:47.89Z</time></trkpt><trkpt lat="43.8474967" lon="12.6432667"><ele>224.8</ele><time>2026-04-18T11:56:48.887Z</time></trkpt><trkpt lat="43.8474017" lon="12.6432217"><ele>223.60000000000002</ele><time>2026-04-18T11:56:49.887Z</time></trkpt><trkpt lat="43.84731" lon="12.6431667"><ele>222.4</ele><time>2026-04-18T11:56:50.887Z</time></trkpt><trkpt lat="43.84723" lon="12.6430983"><ele>221.2</ele><time>2026-04-18T11:56:51.887Z</time></trkpt><trkpt lat="43.8471733" lon="12.6430183"><ele>220.0</ele><time>2026-04-18T11:56:52.888Z</time></trkpt><trkpt lat="43.8471417" lon="12.6429167"><ele>220.0</ele><time>2026-04-18T11:56:53.888Z</time></trkpt><trkpt lat="43.84714" lon="12.6428"><ele>220.0</ele><time>2026-04-18T11:56:54.888Z</time></trkpt><trkpt lat="43.84713" lon="12.6427083"><ele>220.0</ele><time>2026-04-18T11:56:55.888Z</time></trkpt><trkpt lat="43.8471017" lon="12.6425933"><ele>220.0</ele><time>2026-04-18T11:56:57.885Z</time></trkpt><trkpt lat="43.846975" lon="12.6425917"><ele>220.0</ele><time>2026-04-18T11:56:59.889Z</time></trkpt><trkpt lat="43.8468767" lon="12.6426267"><ele>215.5</ele><time>2026-04-18T11:57:00.888Z</time></trkpt><trkpt lat="43.8467433" lon="12.6426917"><ele>211.0</ele><time>2026-04-18T11:57:01.889Z</time></trkpt><trkpt lat="43.8466067" lon="12.6427467"><ele>206.5</ele><time>2026-04-18T11:57:02.889Z</time></trkpt><trkpt lat="43.8464783" lon="12.64279"><ele>202.0</ele><time>2026-04-18T11:57:03.89Z</time></trkpt><trkpt lat="43.8463533" lon="12.6428367"><ele>202.0</ele><time>2026-04-18T11:57:04.889Z</time></trkpt><trkpt lat="43.8462367" lon="12.6428917"><ele>202.0</ele><time>2026-04-18T11:57:05.888Z</time></trkpt><trkpt lat="43.8461233" lon="12.64295"><ele>202.0</ele><time>2026-04-18T11:57:06.886Z</time></trkpt><trkpt lat="43.84602" lon="12.6429917"><ele>202.0</ele><time>2026-04-18T11:57:07.891Z</time></trkpt><trkpt lat="43.8459217" lon="12.6430033"><ele>198.39999999999998</ele><time>2026-04-18T11:57:08.885Z</time></trkpt><trkpt lat="43.8458283" lon="12.642975"><ele>194.79999999999998</ele><time>2026-04-18T11:57:09.886Z</time></trkpt><trkpt lat="43.8457533" lon="12.6429133"><ele>191.2</ele><time>2026-04-18T11:57:10.889Z</time></trkpt><trkpt lat="43.8456867" lon="12.64282"><ele>187.6</ele><time>2026-04-18T11:57:11.889Z</time></trkpt><trkpt lat="43.8456467" lon="12.6426967"><ele>184.0</ele><time>2026-04-18T11:57:12.889Z</time></trkpt><trkpt lat="43.8456083" lon="12.6425733"><ele>183.66666666666669</ele><time>2026-04-18T11:57:13.889Z</time></trkpt><trkpt lat="43.845565" lon="12.642465"><ele>183.33333333333334</ele><time>2026-04-18T11:57:14.888Z</time></trkpt><trkpt lat="43.8455133" lon="12.6423833"><ele>183.0</ele><time>2026-04-18T11:57:15.886Z</time></trkpt><trkpt lat="43.8454533" lon="12.6423283"><ele>182.66666666666666</ele><time>2026-04-18T11:57:16.886Z</time></trkpt><trkpt lat="43.84538" lon="12.642305"><ele>182.33333333333331</ele><time>2026-04-18T11:57:17.888Z</time></trkpt><trkpt lat="43.8453033" lon="12.6423317"><ele>182.0</ele><time>2026-04-18T11:57:18.886Z</time></trkpt><trkpt lat="43.8452183" lon="12.6424083"><ele>182.0</ele><time>2026-04-18T11:57:19.886Z</time></trkpt><trkpt lat="43.84513" lon="12.64248"><ele>182.0</ele><time>2026-04-18T11:57:20.887Z</time></trkpt><trkpt lat="43.8450367" lon="12.6425367"><ele>182.0</ele><time>2026-04-18T11:57:21.887Z</time></trkpt><trkpt lat="43.8449283" lon="12.6425617"><ele>182.0</ele><time>2026-04-18T11:57:22.889Z</time></trkpt><trkpt lat="43.8448133" lon="12.6425317"><ele>182.0</ele><time>2026-04-18T11:57:23.889Z</time></trkpt><trkpt lat="43.8446817" lon="12.6424683"><ele>177.33333333333331</ele><time>2026-04-18T11:57:24.89Z</time></trkpt><trkpt lat="43.8445433" lon="12.6423833"><ele>172.66666666666666</ele><time>2026-04-18T11:57:25.89Z</time></trkpt><trkpt lat="43.8444067" lon="12.6422917"><ele>168.0</ele><time>2026-04-18T11:57:26.889Z</time></trkpt><trkpt lat="43.844275" lon="12.6421967"><ele>163.0</ele><time>2026-04-18T11:57:27.89Z</time></trkpt><trkpt lat="43.8441433" lon="12.642105"><ele>158.0</ele><time>2026-04-18T11:57:28.889Z</time></trkpt><trkpt lat="43.844" lon="12.6420233"><ele>153.0</ele><time>2026-04-18T11:57:29.889Z</time></trkpt><trkpt lat="43.8438517" lon="12.641945"><ele>150.66666666666666</ele><time>2026-04-18T11:57:30.887Z</time></trkpt><trkpt lat="43.8437017" lon="12.64187"><ele>148.33333333333331</ele><time>2026-04-18T11:57:31.889Z</time></trkpt><trkpt lat="43.8435517" lon="12.6417933"><ele>146.0</ele><time>2026-04-18T11:57:32.889Z</time></trkpt><trkpt lat="43.843405" lon="12.64172"><ele>144.25</ele><time>2026-04-18T11:57:33.889Z</time></trkpt><trkpt lat="43.8432633" lon="12.6416417"><ele>142.5</ele><time>2026-04-18T11:57:34.89Z</time></trkpt><trkpt lat="43.8431283" lon="12.641555"><ele>140.75</ele><time>2026-04-18T11:57:35.889Z</time></trkpt><trkpt lat="43.8429967" lon="12.6414633"><ele>139.0</ele><time>2026-04-18T11:57:36.889Z</time></trkpt><trkpt lat="43.842875" lon="12.6413683"><ele>139.0</ele><time>2026-04-18T11:57:37.889Z</time></trkpt><trkpt lat="43.8427583" lon="12.6412683"><ele>139.0</ele><time>2026-04-18T11:57:38.889Z</time></trkpt><trkpt lat="43.8426517" lon="12.6411617"><ele>139.0</ele><time>2026-04-18T11:57:39.889Z</time></trkpt><trkpt lat="43.8425567" lon="12.641045"><ele>139.0</ele><time>2026-04-18T11:57:40.89Z</time></trkpt><trkpt lat="43.842475" lon="12.6409217"><ele>136.0</ele><time>2026-04-18T11:57:41.889Z</time></trkpt><trkpt lat="43.842405" lon="12.6407933"><ele>133.0</ele><time>2026-04-18T11:57:42.89Z</time></trkpt><trkpt lat="43.8423483" lon="12.64068"><ele>130.0</ele><time>2026-04-18T11:57:43.889Z</time></trkpt><trkpt lat="43.8422833" lon="12.6405983"><ele>127.0</ele><time>2026-04-18T11:57:44.885Z</time></trkpt><trkpt lat="43.8422033" lon="12.6405467"><ele>124.0</ele><time>2026-04-18T11:57:45.89Z</time></trkpt><trkpt lat="43.8421083" lon="12.6405267"><ele>124.0</ele><time>2026-04-18T11:57:46.888Z</time></trkpt><trkpt lat="43.842005" lon="12.6405383"><ele>124.0</ele><time>2026-04-18T11:57:47.886Z</time></trkpt><trkpt lat="43.8419033" lon="12.6405683"><ele>124.0</ele><time>2026-04-18T11:57:48.888Z</time></trkpt><trkpt lat="43.8418083" lon="12.6406183"><ele>124.0</ele><time>2026-04-18T11:57:49.889Z</time></trkpt><trkpt lat="43.8417267" lon="12.6406767"><ele>124.0</ele><time>2026-04-18T11:57:50.885Z</time></trkpt><trkpt lat="43.8416617" lon="12.640735"><ele>123.2</ele><time>2026-04-18T11:57:51.888Z</time></trkpt><trkpt lat="43.84158" lon="12.6408233"><ele>122.4</ele><time>2026-04-18T11:57:53.888Z</time></trkpt><trkpt lat="43.84154" lon="12.6409417"><ele>121.6</ele><time>2026-04-18T11:57:55.89Z</time></trkpt><trkpt lat="43.84152" lon="12.6410383"><ele>120.8</ele><time>2026-04-18T11:57:56.89Z</time></trkpt><trkpt lat="43.8415017" lon="12.6411433"><ele>120.0</ele><time>2026-04-18T11:57:57.886Z</time></trkpt><trkpt lat="43.8415017" lon="12.6412983"><ele>120.0</ele><time>2026-04-18T11:57:58.886Z</time></trkpt><trkpt lat="43.8414733" lon="12.6414567"><ele>120.0</ele><time>2026-04-18T11:57:59.887Z</time></trkpt><trkpt lat="43.8414267" lon="12.6416167"><ele>120.0</ele><time>2026-04-18T11:58:00.895Z</time></trkpt><trkpt lat="43.841375" lon="12.6417683"><ele>120.0</ele><time>2026-04-18T11:58:01.889Z</time></trkpt><trkpt lat="43.8413433" lon="12.6419083"><ele>120.25</ele><time>2026-04-18T11:58:02.887Z</time></trkpt><trkpt lat="43.841325" lon="12.6420633"><ele>120.5</ele><time>2026-04-18T11:58:03.889Z</time></trkpt><trkpt lat="43.8413033" lon="12.642255"><ele>120.75</ele><time>2026-04-18T11:58:04.89Z</time></trkpt><trkpt lat="43.841275" lon="12.6424667"><ele>121.0</ele><time>2026-04-18T11:58:05.89Z</time></trkpt><trkpt lat="43.8412267" lon="12.6426817"><ele>122.33333333333334</ele><time>2026-04-18T11:58:06.89Z</time></trkpt><trkpt lat="43.8411733" lon="12.6429"><ele>123.66666666666666</ele><time>2026-04-18T11:58:07.89Z</time></trkpt><trkpt lat="43.8411167" lon="12.6431183"><ele>125.0</ele><time>2026-04-18T11:58:08.89Z</time></trkpt><trkpt lat="43.8410617" lon="12.6433383"><ele>125.0</ele><time>2026-04-18T11:58:09.89Z</time></trkpt><trkpt lat="43.8410033" lon="12.6435667"><ele>125.0</ele><time>2026-04-18T11:58:10.89Z</time></trkpt><trkpt lat="43.84094" lon="12.643795"><ele>125.0</ele><time>2026-04-18T11:58:11.889Z</time></trkpt><trkpt lat="43.8408817" lon="12.6440067"><ele>123.25</ele><time>2026-04-18T11:58:12.89Z</time></trkpt><trkpt lat="43.840835" lon="12.6442"><ele>121.5</ele><time>2026-04-18T11:58:13.888Z</time></trkpt><trkpt lat="43.84081" lon="12.64437"><ele>119.75</ele><time>2026-04-18T11:58:14.889Z</time></trkpt><trkpt lat="43.8408083" lon="12.6445283"><ele>118.0</ele><time>2026-04-18T11:58:15.89Z</time></trkpt><trkpt lat="43.8408167" lon="12.64468"><ele>118.0</ele><time>2026-04-18T11:58:16.887Z</time></trkpt><trkpt lat="43.8408167" lon="12.644825"><ele>118.0</ele><time>2026-04-18T11:58:17.889Z</time></trkpt><trkpt lat="43.8408" lon="12.6449717"><ele>118.0</ele><time>2026-04-18T11:58:18.892Z</time></trkpt><trkpt lat="43.840765" lon="12.645125"><ele>118.0</ele><time>2026-04-18T11:58:19.887Z</time></trkpt><trkpt lat="43.8407233" lon="12.6452967"><ele>118.5</ele><time>2026-04-18T11:58:20.886Z</time></trkpt><trkpt lat="43.8406817" lon="12.6454817"><ele>119.0</ele><time>2026-04-18T11:58:21.887Z</time></trkpt><trkpt lat="43.840645" lon="12.6456617"><ele>119.5</ele><time>2026-04-18T11:58:22.887Z</time></trkpt><trkpt lat="43.8405983" lon="12.6458217"><ele>120.0</ele><time>2026-04-18T11:58:23.886Z</time></trkpt><trkpt lat="43.8405433" lon="12.6459633"><ele>120.0</ele><time>2026-04-18T11:58:24.886Z</time></trkpt><trkpt lat="43.8404767" lon="12.6460783"><ele>120.0</ele><time>2026-04-18T11:58:25.889Z</time></trkpt><trkpt lat="43.8403817" lon="12.6461733"><ele>120.0</ele><time>2026-04-18T11:58:26.885Z</time></trkpt><trkpt lat="43.840265" lon="12.6462567"><ele>120.0</ele><time>2026-04-18T11:58:27.89Z</time></trkpt><trkpt lat="43.8401283" lon="12.6463317"><ele>120.33333333333334</ele><time>2026-04-18T11:58:28.89Z</time></trkpt><trkpt lat="43.8399783" lon="12.6463967"><ele>120.66666666666667</ele><time>2026-04-18T11:58:29.889Z</time></trkpt><trkpt lat="43.8398267" lon="12.6464517"><ele>121.0</ele><time>2026-04-18T11:58:30.89Z</time></trkpt><trkpt lat="43.839675" lon="12.6465033"><ele>121.0</ele><time>2026-04-18T11:58:31.889Z</time></trkpt><trkpt lat="43.8395283" lon="12.6465583"><ele>121.0</ele><time>2026-04-18T11:58:32.888Z</time></trkpt><trkpt lat="43.8393917" lon="12.646615"><ele>121.0</ele><time>2026-04-18T11:58:33.889Z</time></trkpt><trkpt lat="43.8392667" lon="12.64668"><ele>121.0</ele><time>2026-04-18T11:58:34.887Z</time></trkpt><trkpt lat="43.8391533" lon="12.6467533"><ele>120.8</ele><time>2026-04-18T11:58:35.887Z</time></trkpt><trkpt lat="43.8390533" lon="12.646835"><ele>120.6</ele><time>2026-04-18T11:58:36.888Z</time></trkpt><trkpt lat="43.8389733" lon="12.646915"><ele>120.4</ele><time>2026-04-18T11:58:37.888Z</time></trkpt><trkpt lat="43.8389067" lon="12.647"><ele>120.2</ele><time>2026-04-18T11:58:38.886Z</time></trkpt><trkpt lat="43.8388617" lon="12.6471067"><ele>120.0</ele><time>2026-04-18T11:58:39.886Z</time></trkpt><trkpt lat="43.8388467" lon="12.6472333"><ele>120.0</ele><time>2026-04-18T11:58:40.89Z</time></trkpt><trkpt lat="43.8388417" lon="12.647355"><ele>120.0</ele><time>2026-04-18T11:58:41.887Z</time></trkpt><trkpt lat="43.8388383" lon="12.64747"><ele>120.0</ele><time>2026-04-18T11:58:42.887Z</time></trkpt><trkpt lat="43.83882" lon="12.6475817"><ele>120.0</ele><time>2026-04-18T11:58:43.887Z</time></trkpt><trkpt lat="43.8387683" lon="12.6476983"><ele>120.0</ele><time>2026-04-18T11:58:44.889Z</time></trkpt><trkpt lat="43.838675" lon="12.647825"><ele>121.25</ele><time>2026-04-18T11:58:45.889Z</time></trkpt><trkpt lat="43.838575" lon="12.64796"><ele>122.5</ele><time>2026-04-18T11:58:46.887Z</time></trkpt><trkpt lat="43.8384633" lon="12.6481"><ele>123.75</ele><time>2026-04-18T11:58:47.887Z</time></trkpt><trkpt lat="43.83835" lon="12.6482317"><ele>125.0</ele><time>2026-04-18T11:58:48.888Z</time></trkpt><trkpt lat="43.8382317" lon="12.648335"><ele>122.0</ele><time>2026-04-18T11:58:49.89Z</time></trkpt><trkpt lat="43.838105" lon="12.6484083"><ele>119.0</ele><time>2026-04-18T11:58:50.886Z</time></trkpt><trkpt lat="43.837975" lon="12.6484717"><ele>116.0</ele><time>2026-04-18T11:58:51.887Z</time></trkpt><trkpt lat="43.83786" lon="12.6485433"><ele>113.0</ele><time>2026-04-18T11:58:52.889Z</time></trkpt><trkpt lat="43.8377517" lon="12.6486317"><ele>113.0</ele><time>2026-04-18T11:58:53.888Z</time></trkpt><trkpt lat="43.8376567" lon="12.6487533"><ele>113.0</ele><time>2026-04-18T11:58:54.888Z</time></trkpt><trkpt lat="43.8375733" lon="12.648915"><ele>113.0</ele><time>2026-04-18T11:58:55.888Z</time></trkpt><trkpt lat="43.8375067" lon="12.6491"><ele>113.0</ele><time>2026-04-18T11:58:56.887Z</time></trkpt><trkpt lat="43.83745" lon="12.64929"><ele>111.75</ele><time>2026-04-18T11:58:57.887Z</time></trkpt><trkpt lat="43.8373967" lon="12.6494783"><ele>110.5</ele><time>2026-04-18T11:58:58.887Z</time></trkpt><trkpt lat="43.83735" lon="12.6496567"><ele>109.25</ele><time>2026-04-18T11:58:59.887Z</time></trkpt><trkpt lat="43.8372967" lon="12.6498167"><ele>108.0</ele><time>2026-04-18T11:59:00.887Z</time></trkpt><trkpt lat="43.8372417" lon="12.649975"><ele>108.0</ele><time>2026-04-18T11:59:01.887Z</time></trkpt><trkpt lat="43.8371883" lon="12.6501267"><ele>108.00000000000001</ele><time>2026-04-18T11:59:02.891Z</time></trkpt><trkpt lat="43.83715" lon="12.6502667"><ele>108.00000000000001</ele><time>2026-04-18T11:59:03.887Z</time></trkpt><trkpt lat="43.8371417" lon="12.65039"><ele>108.0</ele><time>2026-04-18T11:59:04.887Z</time></trkpt><trkpt lat="43.8371533" lon="12.6505017"><ele>108.0</ele><time>2026-04-18T11:59:05.887Z</time></trkpt><trkpt lat="43.8371917" lon="12.6506133"><ele>107.60000000000001</ele><time>2026-04-18T11:59:06.887Z</time></trkpt><trkpt lat="43.8372433" lon="12.6507233"><ele>107.20000000000002</ele><time>2026-04-18T11:59:07.887Z</time></trkpt><trkpt lat="43.8372883" lon="12.6508317"><ele>106.8</ele><time>2026-04-18T11:59:08.887Z</time></trkpt><trkpt lat="43.8373117" lon="12.65096"><ele>106.4</ele><time>2026-04-18T11:59:09.887Z</time></trkpt><trkpt lat="43.837305" lon="12.6511183"><ele>106.0</ele><time>2026-04-18T11:59:10.888Z</time></trkpt><trkpt lat="43.8372683" lon="12.6512933"><ele>106.0</ele><time>2026-04-18T11:59:11.887Z</time></trkpt><trkpt lat="43.8372233" lon="12.65146"><ele>106.0</ele><time>2026-04-18T11:59:12.889Z</time></trkpt><trkpt lat="43.8371633" lon="12.6516267"><ele>106.0</ele><time>2026-04-18T11:59:13.888Z</time></trkpt><trkpt lat="43.8370933" lon="12.6517883"><ele>106.0</ele><time>2026-04-18T11:59:14.888Z</time></trkpt><trkpt lat="43.8370067" lon="12.6519433"><ele>106.0</ele><time>2026-04-18T11:59:15.889Z</time></trkpt><trkpt lat="43.8369033" lon="12.652105"><ele>106.0</ele><time>2026-04-18T11:59:16.887Z</time></trkpt><trkpt lat="43.8367983" lon="12.6522683"><ele>106.0</ele><time>2026-04-18T11:59:17.888Z</time></trkpt><trkpt lat="43.83668" lon="12.652435"><ele>106.0</ele><time>2026-04-18T11:59:18.889Z</time></trkpt><trkpt lat="43.83655" lon="12.6525917"><ele>106.0</ele><time>2026-04-18T11:59:19.888Z</time></trkpt><trkpt lat="43.83642" lon="12.652745"><ele>106.0</ele><time>2026-04-18T11:59:20.887Z</time></trkpt><trkpt lat="43.8362867" lon="12.6528983"><ele>107.0</ele><time>2026-04-18T11:59:21.888Z</time></trkpt><trkpt lat="43.8361517" lon="12.6530467"><ele>108.0</ele><time>2026-04-18T11:59:22.888Z</time></trkpt><trkpt lat="43.8360167" lon="12.65319"><ele>109.0</ele><time>2026-04-18T11:59:23.89Z</time></trkpt><trkpt lat="43.8358833" lon="12.6533217"><ele>109.0</ele><time>2026-04-18T11:59:24.887Z</time></trkpt><trkpt lat="43.8357567" lon="12.6534367"><ele>109.0</ele><time>2026-04-18T11:59:25.888Z</time></trkpt><trkpt lat="43.835635" lon="12.6535483"><ele>109.0</ele><time>2026-04-18T11:59:26.887Z</time></trkpt><trkpt lat="43.83551" lon="12.65367"><ele>110.0</ele><time>2026-04-18T11:59:27.887Z</time></trkpt><trkpt lat="43.8353817" lon="12.6537983"><ele>111.0</ele><time>2026-04-18T11:59:28.887Z</time></trkpt><trkpt lat="43.8352467" lon="12.6539233"><ele>112.0</ele><time>2026-04-18T11:59:29.887Z</time></trkpt><trkpt lat="43.8351033" lon="12.6540317"><ele>112.0</ele><time>2026-04-18T11:59:30.89Z</time></trkpt><trkpt lat="43.8349517" lon="12.654135"><ele>112.0</ele><time>2026-04-18T11:59:31.888Z</time></trkpt><trkpt lat="43.8347933" lon="12.6542317"><ele>112.0</ele><time>2026-04-18T11:59:32.887Z</time></trkpt><trkpt lat="43.834625" lon="12.6543233"><ele>112.0</ele><time>2026-04-18T11:59:33.886Z</time></trkpt><trkpt lat="43.8344533" lon="12.6544083"><ele>112.0</ele><time>2026-04-18T11:59:34.889Z</time></trkpt><trkpt lat="43.8342783" lon="12.654485"><ele>112.0</ele><time>2026-04-18T11:59:35.886Z</time></trkpt><trkpt lat="43.8341067" lon="12.654555"><ele>113.33333333333334</ele><time>2026-04-18T11:59:36.888Z</time></trkpt><trkpt lat="43.833935" lon="12.6546267"><ele>114.66666666666666</ele><time>2026-04-18T11:59:37.886Z</time></trkpt><trkpt lat="43.8337667" lon="12.6546983"><ele>116.0</ele><time>2026-04-18T11:59:38.887Z</time></trkpt><trkpt lat="43.8335983" lon="12.65476"><ele>113.33333333333333</ele><time>2026-04-18T11:59:39.887Z</time></trkpt><trkpt lat="43.8334367" lon="12.6548117"><ele>110.66666666666666</ele><time>2026-04-18T11:59:40.888Z</time></trkpt><trkpt lat="43.8332683" lon="12.6548483"><ele>108.0</ele><time>2026-04-18T11:59:41.889Z</time></trkpt><trkpt lat="43.8331033" lon="12.6548683"><ele>108.0</ele><time>2026-04-18T11:59:42.887Z</time></trkpt><trkpt lat="43.8329383" lon="12.6548817"><ele>108.0</ele><time>2026-04-18T11:59:43.89Z</time></trkpt><trkpt lat="43.8327867" lon="12.654915"><ele>108.0</ele><time>2026-04-18T11:59:44.891Z</time></trkpt><trkpt lat="43.83264" lon="12.654965"><ele>106.0</ele><time>2026-04-18T11:59:45.886Z</time></trkpt><trkpt lat="43.8325033" lon="12.6550483"><ele>104.0</ele><time>2026-04-18T11:59:46.888Z</time></trkpt><trkpt lat="43.8323683" lon="12.6551583"><ele>102.0</ele><time>2026-04-18T11:59:47.888Z</time></trkpt><trkpt lat="43.8322383" lon="12.6552917"><ele>106.33333333333334</ele><time>2026-04-18T11:59:48.887Z</time></trkpt><trkpt lat="43.8321067" lon="12.65544"><ele>110.66666666666667</ele><time>2026-04-18T11:59:49.888Z</time></trkpt><trkpt lat="43.8319733" lon="12.655595"><ele>115.0</ele><time>2026-04-18T11:59:50.887Z</time></trkpt><trkpt lat="43.8318433" lon="12.6557433"><ele>115.25</ele><time>2026-04-18T11:59:51.887Z</time></trkpt><trkpt lat="43.831715" lon="12.6558833"><ele>115.5</ele><time>2026-04-18T11:59:52.888Z</time></trkpt><trkpt lat="43.8315967" lon="12.6560067"><ele>115.75</ele><time>2026-04-18T11:59:53.887Z</time></trkpt><trkpt lat="43.83148" lon="12.6561017"><ele>116.0</ele><time>2026-04-18T11:59:54.888Z</time></trkpt><trkpt lat="43.8313567" lon="12.6561633"><ele>116.0</ele><time>2026-04-18T11:59:55.889Z</time></trkpt><trkpt lat="43.8312333" lon="12.6562033"><ele>116.0</ele><time>2026-04-18T11:59:56.887Z</time></trkpt><trkpt lat="43.8311167" lon="12.6562467"><ele>116.0</ele><time>2026-04-18T11:59:57.886Z</time></trkpt><trkpt lat="43.83101" lon="12.6563067"><ele>116.0</ele><time>2026-04-18T11:59:58.886Z</time></trkpt><trkpt lat="43.8309167" lon="12.6563933"><ele>112.0</ele><time>2026-04-18T11:59:59.886Z</time></trkpt><trkpt lat="43.8308333" lon="12.65651"><ele>108.0</ele><time>2026-04-18T12:00:00.888Z</time></trkpt><trkpt lat="43.8307517" lon="12.656645"><ele>104.0</ele><time>2026-04-18T12:00:01.887Z</time></trkpt><trkpt lat="43.830665" lon="12.6567917"><ele>100.0</ele><time>2026-04-18T12:00:02.885Z</time></trkpt><trkpt lat="43.8305767" lon="12.6569467"><ele>102.75</ele><time>2026-04-18T12:00:03.885Z</time></trkpt><trkpt lat="43.830485" lon="12.6571017"><ele>105.5</ele><time>2026-04-18T12:00:04.885Z</time></trkpt><trkpt lat="43.8303867" lon="12.6572483"><ele>108.25</ele><time>2026-04-18T12:00:05.885Z</time></trkpt><trkpt lat="43.830285" lon="12.6573767"><ele>111.0</ele><time>2026-04-18T12:00:06.889Z</time></trkpt><trkpt lat="43.83018" lon="12.6574983"><ele>108.0</ele><time>2026-04-18T12:00:07.888Z</time></trkpt><trkpt lat="43.83007" lon="12.65762"><ele>105.0</ele><time>2026-04-18T12:00:08.887Z</time></trkpt><trkpt lat="43.82995" lon="12.6577483"><ele>102.0</ele><time>2026-04-18T12:00:09.888Z</time></trkpt><trkpt lat="43.82982" lon="12.6578767"><ele>102.0</ele><time>2026-04-18T12:00:10.889Z</time></trkpt><trkpt lat="43.8296883" lon="12.6580033"><ele>102.0</ele><time>2026-04-18T12:00:11.884Z</time></trkpt><trkpt lat="43.8295617" lon="12.6581333"><ele>102.0</ele><time>2026-04-18T12:00:12.889Z</time></trkpt><trkpt lat="43.82945" lon="12.6582567"><ele>102.0</ele><time>2026-04-18T12:00:13.887Z</time></trkpt><trkpt lat="43.8293533" lon="12.6583917"><ele>102.0</ele><time>2026-04-18T12:00:14.889Z</time></trkpt><trkpt lat="43.8292683" lon="12.6585483"><ele>102.0</ele><time>2026-04-18T12:00:15.885Z</time></trkpt><trkpt lat="43.8291917" lon="12.6587283"><ele>102.0</ele><time>2026-04-18T12:00:16.887Z</time></trkpt><trkpt lat="43.829115" lon="12.6589233"><ele>101.0</ele><time>2026-04-18T12:00:17.885Z</time></trkpt><trkpt lat="43.82904" lon="12.659115"><ele>100.0</ele><time>2026-04-18T12:00:18.887Z</time></trkpt><trkpt lat="43.8289617" lon="12.6593067"><ele>99.0</ele><time>2026-04-18T12:00:19.889Z</time></trkpt><trkpt lat="43.8288783" lon="12.6595017"><ele>99.0</ele><time>2026-04-18T12:00:20.89Z</time></trkpt><trkpt lat="43.8287883" lon="12.6597"><ele>99.0</ele><time>2026-04-18T12:00:21.888Z</time></trkpt><trkpt lat="43.8286983" lon="12.6599017"><ele>99.0</ele><time>2026-04-18T12:00:22.888Z</time></trkpt><trkpt lat="43.8286083" lon="12.660095"><ele>99.0</ele><time>2026-04-18T12:00:23.888Z</time></trkpt><trkpt lat="43.82853" lon="12.66026"><ele>99.0</ele><time>2026-04-18T12:00:24.888Z</time></trkpt><trkpt lat="43.8284567" lon="12.6604"><ele>99.0</ele><time>2026-04-18T12:00:25.888Z</time></trkpt><trkpt lat="43.8283833" lon="12.660545"><ele>99.0</ele><time>2026-04-18T12:00:26.886Z</time></trkpt><trkpt lat="43.8283067" lon="12.6607017"><ele>98.5</ele><time>2026-04-18T12:00:27.888Z</time></trkpt><trkpt lat="43.8282267" lon="12.6608617"><ele>98.0</ele><time>2026-04-18T12:00:28.888Z</time></trkpt><trkpt lat="43.8281433" lon="12.6610333"><ele>97.5</ele><time>2026-04-18T12:00:29.887Z</time></trkpt><trkpt lat="43.82806" lon="12.66121"><ele>97.0</ele><time>2026-04-18T12:00:30.887Z</time></trkpt><trkpt lat="43.82798" lon="12.6613917"><ele>101.66666666666667</ele><time>2026-04-18T12:00:31.887Z</time></trkpt><trkpt lat="43.8279017" lon="12.6615817"><ele>106.33333333333334</ele><time>2026-04-18T12:00:32.886Z</time></trkpt><trkpt lat="43.827835" lon="12.6617817"><ele>111.0</ele><time>2026-04-18T12:00:33.889Z</time></trkpt><trkpt lat="43.8277717" lon="12.66199"><ele>108.0</ele><time>2026-04-18T12:00:34.888Z</time></trkpt><trkpt lat="43.82771" lon="12.6621967"><ele>105.0</ele><time>2026-04-18T12:00:35.888Z</time></trkpt><trkpt lat="43.8276483" lon="12.6624033"><ele>102.0</ele><time>2026-04-18T12:00:36.885Z</time></trkpt><trkpt lat="43.8275867" lon="12.66261"><ele>103.25</ele><time>2026-04-18T12:00:37.885Z</time></trkpt><trkpt lat="43.8275233" lon="12.662805"><ele>104.5</ele><time>2026-04-18T12:00:38.885Z</time></trkpt><trkpt lat="43.82746" lon="12.6629883"><ele>105.75</ele><time>2026-04-18T12:00:39.886Z</time></trkpt><trkpt lat="43.827395" lon="12.6631583"><ele>107.0</ele><time>2026-04-18T12:00:40.886Z</time></trkpt><trkpt lat="43.827325" lon="12.663305"><ele>107.0</ele><time>2026-04-18T12:00:41.888Z</time></trkpt><trkpt lat="43.8272633" lon="12.6634517"><ele>107.0</ele><time>2026-04-18T12:00:42.885Z</time></trkpt><trkpt lat="43.8272217" lon="12.6636133"><ele>107.0</ele><time>2026-04-18T12:00:43.887Z</time></trkpt><trkpt lat="43.8271933" lon="12.6637883"><ele>107.0</ele><time>2026-04-18T12:00:44.885Z</time></trkpt><trkpt lat="43.8271667" lon="12.663975"><ele>109.0</ele><time>2026-04-18T12:00:45.886Z</time></trkpt><trkpt lat="43.827135" lon="12.6641683"><ele>111.0</ele><time>2026-04-18T12:00:46.887Z</time></trkpt><trkpt lat="43.827095" lon="12.664365"><ele>113.0</ele><time>2026-04-18T12:00:47.885Z</time></trkpt><trkpt lat="43.8270367" lon="12.66456"><ele>115.0</ele><time>2026-04-18T12:00:48.888Z</time></trkpt><trkpt lat="43.8269467" lon="12.6647233"><ele>115.0</ele><time>2026-04-18T12:00:49.888Z</time></trkpt><trkpt lat="43.826845" lon="12.6648633"><ele>115.0</ele><time>2026-04-18T12:00:50.889Z</time></trkpt><trkpt lat="43.8267517" lon="12.6649967"><ele>115.0</ele><time>2026-04-18T12:00:51.886Z</time></trkpt><trkpt lat="43.826675" lon="12.665135"><ele>115.0</ele><time>2026-04-18T12:00:52.886Z</time></trkpt><trkpt lat="43.82663" lon="12.6652817"><ele>115.0</ele><time>2026-04-18T12:00:53.89Z</time></trkpt><trkpt lat="43.826605" lon="12.66544"><ele>115.0</ele><time>2026-04-18T12:00:54.888Z</time></trkpt><trkpt lat="43.8265883" lon="12.66561"><ele>115.0</ele><time>2026-04-18T12:00:55.887Z</time></trkpt><trkpt lat="43.826585" lon="12.665785"><ele>115.0</ele><time>2026-04-18T12:00:56.885Z</time></trkpt><trkpt lat="43.8265817" lon="12.665955"><ele>115.0</ele><time>2026-04-18T12:00:57.885Z</time></trkpt><trkpt lat="43.8265683" lon="12.6661067"><ele>115.0</ele><time>2026-04-18T12:00:58.887Z</time></trkpt><trkpt lat="43.8265317" lon="12.66624"><ele>115.0</ele><time>2026-04-18T12:00:59.885Z</time></trkpt><trkpt lat="43.82648" lon="12.6663483"><ele>115.0</ele><time>2026-04-18T12:01:00.886Z</time></trkpt><trkpt lat="43.8264033" lon="12.6664267"><ele>115.0</ele><time>2026-04-18T12:01:01.885Z</time></trkpt><trkpt lat="43.826295" lon="12.6664967"><ele>115.2</ele><time>2026-04-18T12:01:02.885Z</time></trkpt><trkpt lat="43.826205" lon="12.6665833"><ele>115.4</ele><time>2026-04-18T12:01:03.885Z</time></trkpt><trkpt lat="43.8261233" lon="12.6666667"><ele>115.6</ele><time>2026-04-18T12:01:04.888Z</time></trkpt><trkpt lat="43.8260617" lon="12.6667417"><ele>115.8</ele><time>2026-04-18T12:01:05.887Z</time></trkpt><trkpt lat="43.8259933" lon="12.6668867"><ele>116.0</ele><time>2026-04-18T12:01:07.888Z</time></trkpt><trkpt lat="43.8259617" lon="12.6669783"><ele>116.0</ele><time>2026-04-18T12:01:08.885Z</time></trkpt><trkpt lat="43.8259217" lon="12.6670833"><ele>116.0</ele><time>2026-04-18T12:01:09.886Z</time></trkpt><trkpt lat="43.8258683" lon="12.6672133"><ele>116.0</ele><time>2026-04-18T12:01:10.885Z</time></trkpt><trkpt lat="43.8258033" lon="12.66735"><ele>116.0</ele><time>2026-04-18T12:01:11.885Z</time></trkpt><trkpt lat="43.8257217" lon="12.6674817"><ele>116.0</ele><time>2026-04-18T12:01:12.886Z</time></trkpt><trkpt lat="43.825625" lon="12.6676083"><ele>116.0</ele><time>2026-04-18T12:01:13.885Z</time></trkpt><trkpt lat="43.8255117" lon="12.667735"><ele>116.0</ele><time>2026-04-18T12:01:14.885Z</time></trkpt><trkpt lat="43.825385" lon="12.6678533"><ele>116.0</ele><time>2026-04-18T12:01:15.885Z</time></trkpt><trkpt lat="43.8252667" lon="12.6679667"><ele>116.0</ele><time>2026-04-18T12:01:16.886Z</time></trkpt><trkpt lat="43.8251483" lon="12.6680833"><ele>114.0</ele><time>2026-04-18T12:01:17.887Z</time></trkpt><trkpt lat="43.8250533" lon="12.66821"><ele>112.0</ele><time>2026-04-18T12:01:18.885Z</time></trkpt><trkpt lat="43.82497" lon="12.668345"><ele>110.0</ele><time>2026-04-18T12:01:19.887Z</time></trkpt><trkpt lat="43.82489" lon="12.6684867"><ele>108.0</ele><time>2026-04-18T12:01:20.886Z</time></trkpt><trkpt lat="43.8248167" lon="12.6686333"><ele>108.0</ele><time>2026-04-18T12:01:21.885Z</time></trkpt><trkpt lat="43.824755" lon="12.6687883"><ele>108.0</ele><time>2026-04-18T12:01:22.886Z</time></trkpt><trkpt lat="43.824715" lon="12.6689483"><ele>108.0</ele><time>2026-04-18T12:01:23.885Z</time></trkpt><trkpt lat="43.82469" lon="12.6691067"><ele>108.0</ele><time>2026-04-18T12:01:24.885Z</time></trkpt><trkpt lat="43.8246717" lon="12.6692467"><ele>108.0</ele><time>2026-04-18T12:01:25.885Z</time></trkpt><trkpt lat="43.8246633" lon="12.6693583"><ele>108.00000000000001</ele><time>2026-04-18T12:01:26.886Z</time></trkpt><trkpt lat="43.8246483" lon="12.6694567"><ele>108.00000000000001</ele><time>2026-04-18T12:01:27.887Z</time></trkpt><trkpt lat="43.82463" lon="12.6695967"><ele>108.0</ele><time>2026-04-18T12:01:29.885Z</time></trkpt><trkpt lat="43.8246817" lon="12.6696983"><ele>108.0</ele><time>2026-04-18T12:01:32.885Z</time></trkpt><trkpt lat="43.8247867" lon="12.66981"><ele>107.66666666666667</ele><time>2026-04-18T12:01:34.887Z</time></trkpt><trkpt lat="43.8248467" lon="12.6698833"><ele>107.33333333333334</ele><time>2026-04-18T12:01:35.887Z</time></trkpt><trkpt lat="43.8249067" lon="12.6699633"><ele>107.0</ele><time>2026-04-18T12:01:36.886Z</time></trkpt><trkpt lat="43.8249633" lon="12.670045"><ele>106.66666666666667</ele><time>2026-04-18T12:01:37.888Z</time></trkpt><trkpt lat="43.8250233" lon="12.6701267"><ele>106.33333333333334</ele><time>2026-04-18T12:01:38.886Z</time></trkpt><trkpt lat="43.8251017" lon="12.670205"><ele>106.0</ele><time>2026-04-18T12:01:39.886Z</time></trkpt><trkpt lat="43.825175" lon="12.6702817"><ele>108.16666666666667</ele><time>2026-04-18T12:01:40.886Z</time></trkpt><trkpt lat="43.8252417" lon="12.670355"><ele>110.33333333333334</ele><time>2026-04-18T12:01:41.887Z</time></trkpt><trkpt lat="43.8252917" lon="12.6704167"><ele>112.5</ele><time>2026-04-18T12:01:42.885Z</time></trkpt><trkpt lat="43.82537" lon="12.6705217"><ele>114.66666666666666</ele><time>2026-04-18T12:01:44.886Z</time></trkpt><trkpt lat="43.8254567" lon="12.670605"><ele>116.83333333333333</ele><time>2026-04-18T12:01:46.886Z</time></trkpt><trkpt lat="43.8255133" lon="12.6706483"><ele>119.0</ele><time>2026-04-18T12:01:47.885Z</time></trkpt><trkpt lat="43.8255717" lon="12.6707"><ele>119.0</ele><time>2026-04-18T12:01:48.885Z</time></trkpt><trkpt lat="43.8256333" lon="12.6707517"><ele>119.0</ele><time>2026-04-18T12:01:49.888Z</time></trkpt><trkpt lat="43.8257117" lon="12.6708133"><ele>119.0</ele><time>2026-04-18T12:01:50.885Z</time></trkpt><trkpt lat="43.8258017" lon="12.6708767"><ele>119.0</ele><time>2026-04-18T12:01:51.886Z</time></trkpt><trkpt lat="43.8258833" lon="12.6709417"><ele>119.0</ele><time>2026-04-18T12:01:52.886Z</time></trkpt><trkpt lat="43.8259617" lon="12.6710117"><ele>120.0</ele><time>2026-04-18T12:01:53.885Z</time></trkpt><trkpt lat="43.8260383" lon="12.671075"><ele>121.0</ele><time>2026-04-18T12:01:54.886Z</time></trkpt><trkpt lat="43.826115" lon="12.6711417"><ele>122.0</ele><time>2026-04-18T12:01:55.887Z</time></trkpt><trkpt lat="43.8261967" lon="12.6712133"><ele>123.0</ele><time>2026-04-18T12:01:56.885Z</time></trkpt><trkpt lat="43.8262733" lon="12.6712783"><ele>124.0</ele><time>2026-04-18T12:01:57.886Z</time></trkpt><trkpt lat="43.8263517" lon="12.6713483"><ele>124.0</ele><time>2026-04-18T12:01:58.885Z</time></trkpt><trkpt lat="43.8264217" lon="12.6714183"><ele>124.0</ele><time>2026-04-18T12:01:59.886Z</time></trkpt><trkpt lat="43.82649" lon="12.67148"><ele>124.0</ele><time>2026-04-18T12:02:00.886Z</time></trkpt><trkpt lat="43.826555" lon="12.6715317"><ele>124.0</ele><time>2026-04-18T12:02:01.887Z</time></trkpt><trkpt lat="43.8266567" lon="12.6716183"><ele>124.0</ele><time>2026-04-18T12:02:03.886Z</time></trkpt><trkpt lat="43.82674" lon="12.6716917"><ele>123.6</ele><time>2026-04-18T12:02:05.886Z</time></trkpt><trkpt lat="43.82682" lon="12.6717583"><ele>123.2</ele><time>2026-04-18T12:02:07.888Z</time></trkpt><trkpt lat="43.8269067" lon="12.6718167"><ele>122.79999999999998</ele><time>2026-04-18T12:02:09.885Z</time></trkpt><trkpt lat="43.8270117" lon="12.6719083"><ele>122.39999999999999</ele><time>2026-04-18T12:02:11.886Z</time></trkpt><trkpt lat="43.827065" lon="12.671965"><ele>122.0</ele><time>2026-04-18T12:02:12.887Z</time></trkpt><trkpt lat="43.8271483" lon="12.6720617"><ele>122.0</ele><time>2026-04-18T12:02:14.889Z</time></trkpt><trkpt lat="43.82721" lon="12.6721233"><ele>121.99999999999999</ele><time>2026-04-18T12:02:16.888Z</time></trkpt><trkpt lat="43.8273017" lon="12.672135"><ele>121.99999999999999</ele><time>2026-04-18T12:02:18.888Z</time></trkpt><trkpt lat="43.827415" lon="12.6721283"><ele>122.0</ele><time>2026-04-18T12:02:20.885Z</time></trkpt><trkpt lat="43.8275217" lon="12.6721317"><ele>122.0</ele><time>2026-04-18T12:02:22.889Z</time></trkpt><trkpt lat="43.82763" lon="12.6721433"><ele>126.0</ele><time>2026-04-18T12:02:24.889Z</time></trkpt><trkpt lat="43.8277333" lon="12.6721417"><ele>130.0</ele><time>2026-04-18T12:02:26.886Z</time></trkpt><trkpt lat="43.8278333" lon="12.6721083"><ele>134.0</ele><time>2026-04-18T12:02:28.885Z</time></trkpt><trkpt lat="43.8279367" lon="12.67206"><ele>138.0</ele><time>2026-04-18T12:02:30.887Z</time></trkpt><trkpt lat="43.8280317" lon="12.6720167"><ele>142.0</ele><time>2026-04-18T12:02:32.887Z</time></trkpt><trkpt lat="43.82812" lon="12.672"><ele>142.0</ele><time>2026-04-18T12:02:34.886Z</time></trkpt><trkpt lat="43.8282033" lon="12.67201"><ele>142.0</ele><time>2026-04-18T12:02:36.886Z</time></trkpt><trkpt lat="43.8282717" lon="12.6720433"><ele>142.0</ele><time>2026-04-18T12:02:38.886Z</time></trkpt><trkpt lat="43.8283433" lon="12.6720983"><ele>142.0</ele><time>2026-04-18T12:02:40.886Z</time></trkpt><trkpt lat="43.8284367" lon="12.6721767"><ele>142.0</ele><time>2026-04-18T12:02:42.885Z</time></trkpt><trkpt lat="43.82849" lon="12.6722367"><ele>142.0</ele><time>2026-04-18T12:02:43.887Z</time></trkpt><trkpt lat="43.8285467" lon="12.6723"><ele>147.6</ele><time>2026-04-18T12:02:44.887Z</time></trkpt><trkpt lat="43.8285917" lon="12.6723683"><ele>153.2</ele><time>2026-04-18T12:02:45.885Z</time></trkpt><trkpt lat="43.828635" lon="12.6724317"><ele>158.8</ele><time>2026-04-18T12:02:46.886Z</time></trkpt><trkpt lat="43.8287217" lon="12.67253"><ele>164.4</ele><time>2026-04-18T12:02:48.888Z</time></trkpt><trkpt lat="43.8288233" lon="12.6726133"><ele>170.0</ele><time>2026-04-18T12:02:50.885Z</time></trkpt><trkpt lat="43.8289267" lon="12.672705"><ele>170.0</ele><time>2026-04-18T12:02:52.886Z</time></trkpt><trkpt lat="43.8289833" lon="12.67277"><ele>170.0</ele><time>2026-04-18T12:02:53.886Z</time></trkpt><trkpt lat="43.8290383" lon="12.67284"><ele>170.0</ele><time>2026-04-18T12:02:54.887Z</time></trkpt><trkpt lat="43.82909" lon="12.6729017"><ele>170.0</ele><time>2026-04-18T12:02:55.891Z</time></trkpt><trkpt lat="43.8291467" lon="12.6729467"><ele>170.0</ele><time>2026-04-18T12:02:56.886Z</time></trkpt><trkpt lat="43.8292667" lon="12.6730067"><ele>170.0</ele><time>2026-04-18T12:02:58.886Z</time></trkpt><trkpt lat="43.8293367" lon="12.6730283"><ele>169.71428571428572</ele><time>2026-04-18T12:02:59.887Z</time></trkpt><trkpt lat="43.82941" lon="12.6730483"><ele>169.42857142857142</ele><time>2026-04-18T12:03:00.886Z</time></trkpt><trkpt lat="43.829485" lon="12.67308"><ele>169.14285714285714</ele><time>2026-04-18T12:03:01.887Z</time></trkpt><trkpt lat="43.8295617" lon="12.673105"><ele>168.85714285714286</ele><time>2026-04-18T12:03:02.886Z</time></trkpt><trkpt lat="43.8296317" lon="12.67313"><ele>168.57142857142856</ele><time>2026-04-18T12:03:03.886Z</time></trkpt><trkpt lat="43.8296983" lon="12.6731567"><ele>168.28571428571428</ele><time>2026-04-18T12:03:04.885Z</time></trkpt><trkpt lat="43.8297617" lon="12.6731883"><ele>168.0</ele><time>2026-04-18T12:03:05.887Z</time></trkpt><trkpt lat="43.8298233" lon="12.6732317"><ele>168.0</ele><time>2026-04-18T12:03:06.886Z</time></trkpt><trkpt lat="43.82988" lon="12.6732883"><ele>168.0</ele><time>2026-04-18T12:03:07.888Z</time></trkpt><trkpt lat="43.829925" lon="12.6733567"><ele>168.0</ele><time>2026-04-18T12:03:08.886Z</time></trkpt><trkpt lat="43.8299617" lon="12.6734367"><ele>168.0</ele><time>2026-04-18T12:03:09.886Z</time></trkpt><trkpt lat="43.8299933" lon="12.67352"><ele>168.0</ele><time>2026-04-18T12:03:10.888Z</time></trkpt><trkpt lat="43.83001" lon="12.673605"><ele>168.0</ele><time>2026-04-18T12:03:11.888Z</time></trkpt><trkpt lat="43.8300033" lon="12.6737717"><ele>167.57142857142858</ele><time>2026-04-18T12:03:13.886Z</time></trkpt><trkpt lat="43.8299933" lon="12.673875"><ele>167.14285714285714</ele><time>2026-04-18T12:03:15.889Z</time></trkpt><trkpt lat="43.8300567" lon="12.6739267"><ele>166.71428571428572</ele><time>2026-04-18T12:03:20.886Z</time></trkpt><trkpt lat="43.8301233" lon="12.6739183"><ele>166.28571428571428</ele><time>2026-04-18T12:03:23.887Z</time></trkpt><trkpt lat="43.8301833" lon="12.6739517"><ele>165.85714285714286</ele><time>2026-04-18T12:03:29.887Z</time></trkpt><trkpt lat="43.8302383" lon="12.6740667"><ele>165.42857142857144</ele><time>2026-04-18T12:03:31.886Z</time></trkpt><trkpt lat="43.83028" lon="12.6741367"><ele>165.0</ele><time>2026-04-18T12:03:32.887Z</time></trkpt><trkpt lat="43.8303333" lon="12.6742067"><ele>165.0</ele><time>2026-04-18T12:03:33.886Z</time></trkpt><trkpt lat="43.8304067" lon="12.67428"><ele>165.0</ele><time>2026-04-18T12:03:34.89Z</time></trkpt><trkpt lat="43.83048" lon="12.67435"><ele>165.0</ele><time>2026-04-18T12:03:35.887Z</time></trkpt><trkpt lat="43.830545" lon="12.6744117"><ele>165.0</ele><time>2026-04-18T12:03:36.887Z</time></trkpt><trkpt lat="43.8306067" lon="12.6744667"><ele>165.0</ele><time>2026-04-18T12:03:37.886Z</time></trkpt><trkpt lat="43.8306567" lon="12.67452"><ele>165.0</ele><time>2026-04-18T12:03:38.886Z</time></trkpt><trkpt lat="43.8307233" lon="12.6746467"><ele>162.5</ele><time>2026-04-18T12:03:40.887Z</time></trkpt><trkpt lat="43.8307517" lon="12.6748183"><ele>160.0</ele><time>2026-04-18T12:03:42.887Z</time></trkpt><trkpt lat="43.8307517" lon="12.67492"><ele>157.5</ele><time>2026-04-18T12:03:43.887Z</time></trkpt><trkpt lat="43.8307417" lon="12.6750267"><ele>155.0</ele><time>2026-04-18T12:03:44.889Z</time></trkpt><trkpt lat="43.8307233" lon="12.6751383"><ele>152.5</ele><time>2026-04-18T12:03:45.889Z</time></trkpt><trkpt lat="43.8307033" lon="12.675255"><ele>150.0</ele><time>2026-04-18T12:03:46.887Z</time></trkpt><trkpt lat="43.8306833" lon="12.6753733"><ele>148.0</ele><time>2026-04-18T12:03:47.887Z</time></trkpt><trkpt lat="43.8306667" lon="12.6754967"><ele>146.0</ele><time>2026-04-18T12:03:48.887Z</time></trkpt><trkpt lat="43.830655" lon="12.6756233"><ele>144.0</ele><time>2026-04-18T12:03:49.887Z</time></trkpt><trkpt lat="43.83065" lon="12.6757467"><ele>142.0</ele><time>2026-04-18T12:03:50.889Z</time></trkpt><trkpt lat="43.8306533" lon="12.6758667"><ele>140.0</ele><time>2026-04-18T12:03:51.889Z</time></trkpt><trkpt lat="43.8306683" lon="12.6759833"><ele>138.0</ele><time>2026-04-18T12:03:52.888Z</time></trkpt><trkpt lat="43.8306983" lon="12.6761017"><ele>135.20000000000002</ele><time>2026-04-18T12:03:53.887Z</time></trkpt><trkpt lat="43.8307367" lon="12.676215"><ele>132.4</ele><time>2026-04-18T12:03:54.888Z</time></trkpt><trkpt lat="43.8307717" lon="12.6763283"><ele>129.60000000000002</ele><time>2026-04-18T12:03:55.887Z</time></trkpt><trkpt lat="43.8307967" lon="12.67645"><ele>126.80000000000001</ele><time>2026-04-18T12:03:56.887Z</time></trkpt><trkpt lat="43.8308033" lon="12.6765733"><ele>124.0</ele><time>2026-04-18T12:03:57.888Z</time></trkpt><trkpt lat="43.8307933" lon="12.6767017"><ele>124.0</ele><time>2026-04-18T12:03:58.889Z</time></trkpt><trkpt lat="43.8307733" lon="12.67683"><ele>124.0</ele><time>2026-04-18T12:03:59.886Z</time></trkpt><trkpt lat="43.8307433" lon="12.6769617"><ele>124.0</ele><time>2026-04-18T12:04:00.889Z</time></trkpt><trkpt lat="43.8307133" lon="12.6770933"><ele>124.0</ele><time>2026-04-18T12:04:01.887Z</time></trkpt><trkpt lat="43.8306783" lon="12.6772233"><ele>124.0</ele><time>2026-04-18T12:04:02.889Z</time></trkpt><trkpt lat="43.8306417" lon="12.677355"><ele>122.0</ele><time>2026-04-18T12:04:03.89Z</time></trkpt><trkpt lat="43.8305983" lon="12.6774833"><ele>120.0</ele><time>2026-04-18T12:04:04.889Z</time></trkpt><trkpt lat="43.8305467" lon="12.6776067"><ele>118.0</ele><time>2026-04-18T12:04:05.886Z</time></trkpt><trkpt lat="43.83049" lon="12.6777267"><ele>116.0</ele><time>2026-04-18T12:04:06.887Z</time></trkpt><trkpt lat="43.83043" lon="12.677845"><ele>114.0</ele><time>2026-04-18T12:04:07.886Z</time></trkpt><trkpt lat="43.8303717" lon="12.6779633"><ele>112.0</ele><time>2026-04-18T12:04:08.886Z</time></trkpt><trkpt lat="43.83031" lon="12.67808"><ele>110.0</ele><time>2026-04-18T12:04:09.886Z</time></trkpt><trkpt lat="43.8302483" lon="12.6781933"><ele>108.0</ele><time>2026-04-18T12:04:10.887Z</time></trkpt><trkpt lat="43.8301833" lon="12.6783067"><ele>106.0</ele><time>2026-04-18T12:04:11.887Z</time></trkpt><trkpt lat="43.8301183" lon="12.6784167"><ele>104.0</ele><time>2026-04-18T12:04:12.887Z</time></trkpt><trkpt lat="43.830055" lon="12.6785217"><ele>100.80000000000001</ele><time>2026-04-18T12:04:13.887Z</time></trkpt><trkpt lat="43.8299933" lon="12.6786217"><ele>97.60000000000001</ele><time>2026-04-18T12:04:14.885Z</time></trkpt><trkpt lat="43.829935" lon="12.67871"><ele>94.4</ele><time>2026-04-18T12:04:15.886Z</time></trkpt><trkpt lat="43.8298767" lon="12.6788033"><ele>91.2</ele><time>2026-04-18T12:04:16.887Z</time></trkpt><trkpt lat="43.8298117" lon="12.678905"><ele>88.0</ele><time>2026-04-18T12:04:17.887Z</time></trkpt><trkpt lat="43.8297483" lon="12.6790233"><ele>88.0</ele><time>2026-04-18T12:04:18.886Z</time></trkpt><trkpt lat="43.8297017" lon="12.67916"><ele>88.0</ele><time>2026-04-18T12:04:19.886Z</time></trkpt><trkpt lat="43.82967" lon="12.67931"><ele>88.0</ele><time>2026-04-18T12:04:20.886Z</time></trkpt><trkpt lat="43.8296483" lon="12.6794667"><ele>88.0</ele><time>2026-04-18T12:04:21.887Z</time></trkpt><trkpt lat="43.8296317" lon="12.67962"><ele>88.0</ele><time>2026-04-18T12:04:22.887Z</time></trkpt><trkpt lat="43.82961" lon="12.6797583"><ele>87.60000000000001</ele><time>2026-04-18T12:04:23.887Z</time></trkpt><trkpt lat="43.829565" lon="12.6798733"><ele>87.2</ele><time>2026-04-18T12:04:24.889Z</time></trkpt><trkpt lat="43.8294917" lon="12.67996"><ele>86.8</ele><time>2026-04-18T12:04:25.887Z</time></trkpt><trkpt lat="43.829395" lon="12.6800233"><ele>86.4</ele><time>2026-04-18T12:04:26.887Z</time></trkpt><trkpt lat="43.829285" lon="12.6800833"><ele>86.0</ele><time>2026-04-18T12:04:27.886Z</time></trkpt><trkpt lat="43.8291683" lon="12.680145"><ele>86.0</ele><time>2026-04-18T12:04:28.886Z</time></trkpt><trkpt lat="43.82906" lon="12.6802033"><ele>86.0</ele><time>2026-04-18T12:04:29.89Z</time></trkpt><trkpt lat="43.8289617" lon="12.680255"><ele>86.0</ele><time>2026-04-18T12:04:30.889Z</time></trkpt><trkpt lat="43.82888" lon="12.6803067"><ele>86.0</ele><time>2026-04-18T12:04:31.89Z</time></trkpt><trkpt lat="43.82881" lon="12.68036"><ele>86.0</ele><time>2026-04-18T12:04:32.885Z</time></trkpt><trkpt lat="43.82875" lon="12.6804067"><ele>86.0</ele><time>2026-04-18T12:04:33.886Z</time></trkpt><trkpt lat="43.8287267" lon="12.6805333"><ele>86.0</ele><time>2026-04-18T12:04:35.889Z</time></trkpt><trkpt lat="43.82876" lon="12.6806367"><ele>86.0</ele><time>2026-04-18T12:04:36.887Z</time></trkpt><trkpt lat="43.828785" lon="12.6807467"><ele>86.0</ele><time>2026-04-18T12:04:37.887Z</time></trkpt><trkpt lat="43.8287967" lon="12.6808583"><ele>86.0</ele><time>2026-04-18T12:04:38.887Z</time></trkpt><trkpt lat="43.828795" lon="12.680975"><ele>86.0</ele><time>2026-04-18T12:04:39.887Z</time></trkpt><trkpt lat="43.8287783" lon="12.6810867"><ele>85.66666666666667</ele><time>2026-04-18T12:04:40.889Z</time></trkpt><trkpt lat="43.828745" lon="12.6811883"><ele>85.33333333333334</ele><time>2026-04-18T12:04:41.885Z</time></trkpt><trkpt lat="43.8286767" lon="12.6812583"><ele>85.0</ele><time>2026-04-18T12:04:42.89Z</time></trkpt><trkpt lat="43.8286083" lon="12.68131"><ele>84.66666666666667</ele><time>2026-04-18T12:04:43.89Z</time></trkpt><trkpt lat="43.828535" lon="12.6813733"><ele>84.33333333333333</ele><time>2026-04-18T12:04:45.887Z</time></trkpt><trkpt lat="43.82843" lon="12.6813417"><ele>84.0</ele><time>2026-04-18T12:04:52.889Z</time></trkpt><trkpt lat="43.8283533" lon="12.6812767"><ele>82.5</ele><time>2026-04-18T12:04:53.888Z</time></trkpt><trkpt lat="43.8282433" lon="12.6811717"><ele>81.0</ele><time>2026-04-18T12:04:54.888Z</time></trkpt><trkpt lat="43.8281167" lon="12.6810583"><ele>79.5</ele><time>2026-04-18T12:04:55.887Z</time></trkpt><trkpt lat="43.8279867" lon="12.6809483"><ele>78.0</ele><time>2026-04-18T12:04:56.887Z</time></trkpt><trkpt lat="43.82786" lon="12.680835"><ele>78.0</ele><time>2026-04-18T12:04:57.889Z</time></trkpt><trkpt lat="43.82773" lon="12.6807183"><ele>78.0</ele><time>2026-04-18T12:04:58.888Z</time></trkpt><trkpt lat="43.8275917" lon="12.6806033"><ele>78.0</ele><time>2026-04-18T12:04:59.887Z</time></trkpt><trkpt lat="43.8274483" lon="12.680495"><ele>78.0</ele><time>2026-04-18T12:05:00.888Z</time></trkpt><trkpt lat="43.8272983" lon="12.6804"><ele>78.0</ele><time>2026-04-18T12:05:01.888Z</time></trkpt><trkpt lat="43.8271417" lon="12.6803317"><ele>78.0</ele><time>2026-04-18T12:05:02.886Z</time></trkpt><trkpt lat="43.8269817" lon="12.680285"><ele>79.0</ele><time>2026-04-18T12:05:03.888Z</time></trkpt><trkpt lat="43.82682" lon="12.6802617"><ele>80.0</ele><time>2026-04-18T12:05:04.888Z</time></trkpt><trkpt lat="43.826655" lon="12.6802617"><ele>81.0</ele><time>2026-04-18T12:05:05.888Z</time></trkpt><trkpt lat="43.826485" lon="12.6802733"><ele>83.0</ele><time>2026-04-18T12:05:06.889Z</time></trkpt><trkpt lat="43.826315" lon="12.68031"><ele>85.0</ele><time>2026-04-18T12:05:07.888Z</time></trkpt><trkpt lat="43.8261517" lon="12.6803733"><ele>87.0</ele><time>2026-04-18T12:05:08.887Z</time></trkpt><trkpt lat="43.8259867" lon="12.6804467"><ele>87.0</ele><time>2026-04-18T12:05:09.887Z</time></trkpt><trkpt lat="43.8258267" lon="12.6805233"><ele>87.0</ele><time>2026-04-18T12:05:10.889Z</time></trkpt><trkpt lat="43.8256783" lon="12.6805967"><ele>87.0</ele><time>2026-04-18T12:05:11.888Z</time></trkpt><trkpt lat="43.8255383" lon="12.6806617"><ele>87.0</ele><time>2026-04-18T12:05:12.888Z</time></trkpt><trkpt lat="43.825405" lon="12.680725"><ele>87.0</ele><time>2026-04-18T12:05:13.888Z</time></trkpt><trkpt lat="43.8252717" lon="12.6807833"><ele>87.0</ele><time>2026-04-18T12:05:14.885Z</time></trkpt><trkpt lat="43.82514" lon="12.680835"><ele>87.0</ele><time>2026-04-18T12:05:15.888Z</time></trkpt><trkpt lat="43.8250133" lon="12.6808717"><ele>87.19999999999999</ele><time>2026-04-18T12:05:16.887Z</time></trkpt><trkpt lat="43.8248933" lon="12.6808933"><ele>87.4</ele><time>2026-04-18T12:05:17.887Z</time></trkpt><trkpt lat="43.8247817" lon="12.6809083"><ele>87.6</ele><time>2026-04-18T12:05:18.887Z</time></trkpt><trkpt lat="43.8246783" lon="12.680915"><ele>87.80000000000001</ele><time>2026-04-18T12:05:19.889Z</time></trkpt><trkpt lat="43.8245833" lon="12.6809133"><ele>88.0</ele><time>2026-04-18T12:05:20.888Z</time></trkpt><trkpt lat="43.824495" lon="12.6809117"><ele>88.0</ele><time>2026-04-18T12:05:21.888Z</time></trkpt><trkpt lat="43.824415" lon="12.6809217"><ele>88.0</ele><time>2026-04-18T12:05:22.889Z</time></trkpt><trkpt lat="43.82435" lon="12.6809533"><ele>88.0</ele><time>2026-04-18T12:05:23.886Z</time></trkpt><trkpt lat="43.8242983" lon="12.6810967"><ele>88.0</ele><time>2026-04-18T12:05:25.888Z</time></trkpt><trkpt lat="43.8242883" lon="12.6812533"><ele>88.0</ele><time>2026-04-18T12:05:27.885Z</time></trkpt><trkpt lat="43.8241967" lon="12.68137"><ele>87.2</ele><time>2026-04-18T12:05:29.885Z</time></trkpt><trkpt lat="43.8241167" lon="12.6814217"><ele>86.4</ele><time>2026-04-18T12:05:30.887Z</time></trkpt><trkpt lat="43.8240267" lon="12.681475"><ele>85.60000000000001</ele><time>2026-04-18T12:05:31.888Z</time></trkpt><trkpt lat="43.823945" lon="12.6815483"><ele>84.80000000000001</ele><time>2026-04-18T12:05:32.887Z</time></trkpt><trkpt lat="43.8238767" lon="12.6816367"><ele>84.0</ele><time>2026-04-18T12:05:33.887Z</time></trkpt><trkpt lat="43.82383" lon="12.6817533"><ele>84.0</ele><time>2026-04-18T12:05:34.888Z</time></trkpt><trkpt lat="43.8238183" lon="12.6818817"><ele>84.0</ele><time>2026-04-18T12:05:35.888Z</time></trkpt><trkpt lat="43.8238333" lon="12.6820333"><ele>84.0</ele><time>2026-04-18T12:05:36.887Z</time></trkpt><trkpt lat="43.82389" lon="12.6822033"><ele>84.0</ele><time>2026-04-18T12:05:37.888Z</time></trkpt><trkpt lat="43.82395" lon="12.68239"><ele>82.33333333333333</ele><time>2026-04-18T12:05:38.888Z</time></trkpt><trkpt lat="43.8240217" lon="12.6825817"><ele>80.66666666666666</ele><time>2026-04-18T12:05:39.886Z</time></trkpt><trkpt lat="43.8240917" lon="12.6827667"><ele>79.0</ele><time>2026-04-18T12:05:40.89Z</time></trkpt><trkpt lat="43.8241583" lon="12.6829467"><ele>78.60000000000001</ele><time>2026-04-18T12:05:41.886Z</time></trkpt><trkpt lat="43.824225" lon="12.6831133"><ele>78.2</ele><time>2026-04-18T12:05:42.89Z</time></trkpt><trkpt lat="43.824285" lon="12.683265"><ele>77.80000000000001</ele><time>2026-04-18T12:05:43.887Z</time></trkpt><trkpt lat="43.8243267" lon="12.683395"><ele>77.4</ele><time>2026-04-18T12:05:44.885Z</time></trkpt><trkpt lat="43.824335" lon="12.6835017"><ele>77.0</ele><time>2026-04-18T12:05:45.886Z</time></trkpt><trkpt lat="43.824325" lon="12.6836033"><ele>75.5</ele><time>2026-04-18T12:05:46.886Z</time></trkpt><trkpt lat="43.8242767" lon="12.6836833"><ele>74.0</ele><time>2026-04-18T12:05:47.886Z</time></trkpt><trkpt lat="43.8241883" lon="12.6837583"><ele>72.5</ele><time>2026-04-18T12:05:48.886Z</time></trkpt><trkpt lat="43.8240633" lon="12.6838467"><ele>71.0</ele><time>2026-04-18T12:05:49.888Z</time></trkpt><trkpt lat="43.8239467" lon="12.6839417"><ele>71.0</ele><time>2026-04-18T12:05:50.886Z</time></trkpt><trkpt lat="43.82384" lon="12.6840317"><ele>71.0</ele><time>2026-04-18T12:05:51.886Z</time></trkpt><trkpt lat="43.82375" lon="12.6841033"><ele>71.0</ele><time>2026-04-18T12:05:52.887Z</time></trkpt><trkpt lat="43.8236667" lon="12.6841467"><ele>71.0</ele><time>2026-04-18T12:05:53.888Z</time></trkpt><trkpt lat="43.8235867" lon="12.6841767"><ele>71.0</ele><time>2026-04-18T12:05:54.886Z</time></trkpt><trkpt lat="43.8235083" lon="12.6841683"><ele>73.5</ele><time>2026-04-18T12:05:55.887Z</time></trkpt><trkpt lat="43.823425" lon="12.684105"><ele>76.0</ele><time>2026-04-18T12:05:56.885Z</time></trkpt><trkpt lat="43.82335" lon="12.6840333"><ele>78.5</ele><time>2026-04-18T12:05:57.885Z</time></trkpt><trkpt lat="43.8232617" lon="12.6838967"><ele>81.0</ele><time>2026-04-18T12:05:58.887Z</time></trkpt><trkpt lat="43.8231883" lon="12.6836917"><ele>78.75</ele><time>2026-04-18T12:05:59.886Z</time></trkpt><trkpt lat="43.8231383" lon="12.6834733"><ele>76.5</ele><time>2026-04-18T12:06:00.885Z</time></trkpt><trkpt lat="43.8230817" lon="12.6833017"><ele>74.25</ele><time>2026-04-18T12:06:01.886Z</time></trkpt><trkpt lat="43.82302" lon="12.6831583"><ele>72.0</ele><time>2026-04-18T12:06:02.885Z</time></trkpt><trkpt lat="43.8229633" lon="12.683025"><ele>72.0</ele><time>2026-04-18T12:06:03.885Z</time></trkpt><trkpt lat="43.822915" lon="12.6829033"><ele>72.0</ele><time>2026-04-18T12:06:04.886Z</time></trkpt><trkpt lat="43.82286" lon="12.6828"><ele>72.0</ele><time>2026-04-18T12:06:05.885Z</time></trkpt><trkpt lat="43.82281" lon="12.682715"><ele>72.0</ele><time>2026-04-18T12:06:06.887Z</time></trkpt><trkpt lat="43.8227567" lon="12.6826417"><ele>72.0</ele><time>2026-04-18T12:06:07.885Z</time></trkpt><trkpt lat="43.8227083" lon="12.6825833"><ele>72.0</ele><time>2026-04-18T12:06:08.886Z</time></trkpt><trkpt lat="43.82263" lon="12.68252"><ele>73.4</ele><time>2026-04-18T12:06:10.887Z</time></trkpt><trkpt lat="43.822565" lon="12.6825733"><ele>74.80000000000001</ele><time>2026-04-18T12:06:12.889Z</time></trkpt><trkpt lat="43.8225117" lon="12.682715"><ele>76.2</ele><time>2026-04-18T12:06:14.89Z</time></trkpt><trkpt lat="43.8224783" lon="12.68282"><ele>77.60000000000001</ele><time>2026-04-18T12:06:15.889Z</time></trkpt><trkpt lat="43.8224467" lon="12.6829483"><ele>79.0</ele><time>2026-04-18T12:06:16.886Z</time></trkpt><trkpt lat="43.8224067" lon="12.68312"><ele>80.0</ele><time>2026-04-18T12:06:17.886Z</time></trkpt><trkpt lat="43.8223433" lon="12.6833367"><ele>81.0</ele><time>2026-04-18T12:06:18.885Z</time></trkpt><trkpt lat="43.8222783" lon="12.6835767"><ele>82.0</ele><time>2026-04-18T12:06:19.886Z</time></trkpt><trkpt lat="43.8222233" lon="12.6838017"><ele>84.66666666666666</ele><time>2026-04-18T12:06:20.887Z</time></trkpt><trkpt lat="43.8221733" lon="12.6840367"><ele>87.33333333333333</ele><time>2026-04-18T12:06:21.886Z</time></trkpt><trkpt lat="43.8221267" lon="12.684275"><ele>90.0</ele><time>2026-04-18T12:06:22.887Z</time></trkpt><trkpt lat="43.8220767" lon="12.684495"><ele>92.5</ele><time>2026-04-18T12:06:23.886Z</time></trkpt><trkpt lat="43.8220317" lon="12.6847017"><ele>95.0</ele><time>2026-04-18T12:06:24.888Z</time></trkpt><trkpt lat="43.8219883" lon="12.6848967"><ele>97.5</ele><time>2026-04-18T12:06:25.889Z</time></trkpt><trkpt lat="43.8219467" lon="12.68508"><ele>100.0</ele><time>2026-04-18T12:06:26.885Z</time></trkpt><trkpt lat="43.821915" lon="12.6852683"><ele>102.33333333333334</ele><time>2026-04-18T12:06:27.886Z</time></trkpt><trkpt lat="43.82189" lon="12.6854667"><ele>104.66666666666666</ele><time>2026-04-18T12:06:28.887Z</time></trkpt><trkpt lat="43.82188" lon="12.6856783"><ele>107.0</ele><time>2026-04-18T12:06:29.889Z</time></trkpt><trkpt lat="43.82188" lon="12.6858917"><ele>113.0</ele><time>2026-04-18T12:06:30.889Z</time></trkpt><trkpt lat="43.821895" lon="12.6861033"><ele>119.0</ele><time>2026-04-18T12:06:31.887Z</time></trkpt><trkpt lat="43.821925" lon="12.68632"><ele>125.0</ele><time>2026-04-18T12:06:32.889Z</time></trkpt><trkpt lat="43.8219533" lon="12.68653"><ele>125.0</ele><time>2026-04-18T12:06:33.887Z</time></trkpt><trkpt lat="43.8219633" lon="12.686735"><ele>125.0</ele><time>2026-04-18T12:06:34.889Z</time></trkpt><trkpt lat="43.82195" lon="12.686935"><ele>125.0</ele><time>2026-04-18T12:06:35.886Z</time></trkpt><trkpt lat="43.8219233" lon="12.6871317"><ele>125.0</ele><time>2026-04-18T12:06:36.885Z</time></trkpt><trkpt lat="43.8218933" lon="12.6873367"><ele>131.0</ele><time>2026-04-18T12:06:37.888Z</time></trkpt><trkpt lat="43.82186" lon="12.68754"><ele>137.0</ele><time>2026-04-18T12:06:38.885Z</time></trkpt><trkpt lat="43.8218233" lon="12.6877483"><ele>143.0</ele><time>2026-04-18T12:06:39.885Z</time></trkpt><trkpt lat="43.8217817" lon="12.6879567"><ele>143.0</ele><time>2026-04-18T12:06:40.886Z</time></trkpt><trkpt lat="43.8217267" lon="12.6881617"><ele>143.0</ele><time>2026-04-18T12:06:41.889Z</time></trkpt><trkpt lat="43.82166" lon="12.6883633"><ele>143.0</ele><time>2026-04-18T12:06:42.887Z</time></trkpt><trkpt lat="43.82159" lon="12.6885583"><ele>143.75</ele><time>2026-04-18T12:06:43.888Z</time></trkpt><trkpt lat="43.8215167" lon="12.6887467"><ele>144.5</ele><time>2026-04-18T12:06:44.888Z</time></trkpt><trkpt lat="43.8214433" lon="12.6889267"><ele>145.25</ele><time>2026-04-18T12:06:45.887Z</time></trkpt><trkpt lat="43.82137" lon="12.6890983"><ele>146.0</ele><time>2026-04-18T12:06:46.886Z</time></trkpt><trkpt lat="43.8213017" lon="12.689255"><ele>146.0</ele><time>2026-04-18T12:06:47.887Z</time></trkpt><trkpt lat="43.821235" lon="12.6893983"><ele>146.0</ele><time>2026-04-18T12:06:48.888Z</time></trkpt><trkpt lat="43.8211833" lon="12.6895183"><ele>146.0</ele><time>2026-04-18T12:06:49.888Z</time></trkpt><trkpt lat="43.8211267" lon="12.68961"><ele>146.0</ele><time>2026-04-18T12:06:50.888Z</time></trkpt><trkpt lat="43.8210583" lon="12.6896733"><ele>146.0</ele><time>2026-04-18T12:06:51.888Z</time></trkpt><trkpt lat="43.8209883" lon="12.6897083"><ele>147.25</ele><time>2026-04-18T12:06:52.89Z</time></trkpt><trkpt lat="43.82091" lon="12.6896867"><ele>148.5</ele><time>2026-04-18T12:06:53.886Z</time></trkpt><trkpt lat="43.8208167" lon="12.6896117"><ele>149.75</ele><time>2026-04-18T12:06:54.888Z</time></trkpt><trkpt lat="43.820715" lon="12.6894683"><ele>151.0</ele><time>2026-04-18T12:06:55.888Z</time></trkpt><trkpt lat="43.82059" lon="12.6892467"><ele>151.0</ele><time>2026-04-18T12:06:56.889Z</time></trkpt><trkpt lat="43.8204717" lon="12.6890617"><ele>151.0</ele><time>2026-04-18T12:06:57.889Z</time></trkpt><trkpt lat="43.8203583" lon="12.6888883"><ele>151.0</ele><time>2026-04-18T12:06:58.889Z</time></trkpt><trkpt lat="43.8202417" lon="12.6887167"><ele>153.75</ele><time>2026-04-18T12:06:59.887Z</time></trkpt><trkpt lat="43.8201383" lon="12.68855"><ele>156.5</ele><time>2026-04-18T12:07:00.887Z</time></trkpt><trkpt lat="43.8200433" lon="12.688395"><ele>159.25</ele><time>2026-04-18T12:07:01.887Z</time></trkpt><trkpt lat="43.8199517" lon="12.68825"><ele>162.0</ele><time>2026-04-18T12:07:02.887Z</time></trkpt><trkpt lat="43.8198617" lon="12.68812"><ele>162.0</ele><time>2026-04-18T12:07:03.887Z</time></trkpt><trkpt lat="43.8197817" lon="12.688005"><ele>162.0</ele><time>2026-04-18T12:07:04.887Z</time></trkpt><trkpt lat="43.8197133" lon="12.6879067"><ele>162.0</ele><time>2026-04-18T12:07:05.887Z</time></trkpt><trkpt lat="43.8196517" lon="12.6878183"><ele>162.0</ele><time>2026-04-18T12:07:06.887Z</time></trkpt><trkpt lat="43.8195967" lon="12.6877483"><ele>162.0</ele><time>2026-04-18T12:07:07.887Z</time></trkpt><trkpt lat="43.8194933" lon="12.6877183"><ele>162.0</ele><time>2026-04-18T12:07:09.887Z</time></trkpt><trkpt lat="43.81944" lon="12.6877733"><ele>162.0</ele><time>2026-04-18T12:07:10.888Z</time></trkpt><trkpt lat="43.8193817" lon="12.68787"><ele>162.0</ele><time>2026-04-18T12:07:11.889Z</time></trkpt><trkpt lat="43.819325" lon="12.6879933"><ele>162.0</ele><time>2026-04-18T12:07:12.888Z</time></trkpt><trkpt lat="43.8192533" lon="12.6881183"><ele>162.0</ele><time>2026-04-18T12:07:13.89Z</time></trkpt><trkpt lat="43.8191833" lon="12.6882467"><ele>162.25</ele><time>2026-04-18T12:07:14.889Z</time></trkpt><trkpt lat="43.81911" lon="12.688375"><ele>162.5</ele><time>2026-04-18T12:07:15.887Z</time></trkpt><trkpt lat="43.8190367" lon="12.688515"><ele>162.75</ele><time>2026-04-18T12:07:16.887Z</time></trkpt><trkpt lat="43.81896" lon="12.68866"><ele>163.0</ele><time>2026-04-18T12:07:17.888Z</time></trkpt><trkpt lat="43.8188817" lon="12.6888067"><ele>165.25</ele><time>2026-04-18T12:07:18.887Z</time></trkpt><trkpt lat="43.8188033" lon="12.688955"><ele>167.5</ele><time>2026-04-18T12:07:19.887Z</time></trkpt><trkpt lat="43.81872" lon="12.6891033"><ele>169.75</ele><time>2026-04-18T12:07:20.887Z</time></trkpt><trkpt lat="43.8186333" lon="12.6892533"><ele>172.0</ele><time>2026-04-18T12:07:21.888Z</time></trkpt><trkpt lat="43.818555" lon="12.6894033"><ele>176.5</ele><time>2026-04-18T12:07:22.886Z</time></trkpt><trkpt lat="43.8184817" lon="12.6895517"><ele>181.0</ele><time>2026-04-18T12:07:23.887Z</time></trkpt><trkpt lat="43.8184083" lon="12.6897033"><ele>185.5</ele><time>2026-04-18T12:07:24.886Z</time></trkpt><trkpt lat="43.81833" lon="12.6898517"><ele>190.0</ele><time>2026-04-18T12:07:25.886Z</time></trkpt><trkpt lat="43.81825" lon="12.6899867"><ele>190.0</ele><time>2026-04-18T12:07:26.886Z</time></trkpt><trkpt lat="43.8181633" lon="12.6901033"><ele>190.0</ele><time>2026-04-18T12:07:27.887Z</time></trkpt><trkpt lat="43.8180633" lon="12.6901983"><ele>190.0</ele><time>2026-04-18T12:07:28.887Z</time></trkpt><trkpt lat="43.8179567" lon="12.6902783"><ele>190.0</ele><time>2026-04-18T12:07:29.886Z</time></trkpt><trkpt lat="43.817845" lon="12.6903383"><ele>193.2</ele><time>2026-04-18T12:07:30.888Z</time></trkpt><trkpt lat="43.8177433" lon="12.69039"><ele>196.4</ele><time>2026-04-18T12:07:31.889Z</time></trkpt><trkpt lat="43.8176417" lon="12.6904233"><ele>199.60000000000002</ele><time>2026-04-18T12:07:32.886Z</time></trkpt><trkpt lat="43.8175233" lon="12.6904417"><ele>202.8</ele><time>2026-04-18T12:07:33.886Z</time></trkpt><trkpt lat="43.8174083" lon="12.6904567"><ele>206.0</ele><time>2026-04-18T12:07:34.886Z</time></trkpt><trkpt lat="43.817295" lon="12.6904633"><ele>206.20000000000002</ele><time>2026-04-18T12:07:35.886Z</time></trkpt><trkpt lat="43.8171817" lon="12.6904617"><ele>206.4</ele><time>2026-04-18T12:07:36.887Z</time></trkpt><trkpt lat="43.817085" lon="12.6904467"><ele>206.6</ele><time>2026-04-18T12:07:37.887Z</time></trkpt><trkpt lat="43.817005" lon="12.69041"><ele>206.8</ele><time>2026-04-18T12:07:38.887Z</time></trkpt><trkpt lat="43.81692" lon="12.6903483"><ele>207.0</ele><time>2026-04-18T12:07:39.888Z</time></trkpt><trkpt lat="43.81685" lon="12.6902533"><ele>205.25</ele><time>2026-04-18T12:07:40.89Z</time></trkpt><trkpt lat="43.8167917" lon="12.6901433"><ele>203.5</ele><time>2026-04-18T12:07:41.887Z</time></trkpt><trkpt lat="43.816755" lon="12.6899483"><ele>201.75</ele><time>2026-04-18T12:07:42.887Z</time></trkpt><trkpt lat="43.8167217" lon="12.68978"><ele>200.0</ele><time>2026-04-18T12:07:43.888Z</time></trkpt><trkpt lat="43.8166533" lon="12.6896417"><ele>200.0</ele><time>2026-04-18T12:07:44.886Z</time></trkpt><trkpt lat="43.8165817" lon="12.689515"><ele>200.0</ele><time>2026-04-18T12:07:45.888Z</time></trkpt><trkpt lat="43.8165" lon="12.6893717"><ele>200.0</ele><time>2026-04-18T12:07:46.887Z</time></trkpt><trkpt lat="43.816405" lon="12.6892433"><ele>200.0</ele><time>2026-04-18T12:07:47.887Z</time></trkpt><trkpt lat="43.8162933" lon="12.689115"><ele>199.5</ele><time>2026-04-18T12:07:48.887Z</time></trkpt><trkpt lat="43.8162067" lon="12.6890283"><ele>199.0</ele><time>2026-04-18T12:07:49.888Z</time></trkpt><trkpt lat="43.81609" lon="12.6888833"><ele>198.5</ele><time>2026-04-18T12:07:50.89Z</time></trkpt><trkpt lat="43.815965" lon="12.6887283"><ele>198.0</ele><time>2026-04-18T12:07:51.889Z</time></trkpt><trkpt lat="43.8158433" lon="12.688585"><ele>198.0</ele><time>2026-04-18T12:07:52.886Z</time></trkpt><trkpt lat="43.8157217" lon="12.68845"><ele>198.0</ele><time>2026-04-18T12:07:53.885Z</time></trkpt><trkpt lat="43.8156133" lon="12.6883233"><ele>198.0</ele><time>2026-04-18T12:07:54.887Z</time></trkpt><trkpt lat="43.8155217" lon="12.6882217"><ele>198.0</ele><time>2026-04-18T12:07:55.887Z</time></trkpt><trkpt lat="43.8154383" lon="12.6881583"><ele>198.0</ele><time>2026-04-18T12:07:56.886Z</time></trkpt><trkpt lat="43.8153633" lon="12.6881233"><ele>198.0</ele><time>2026-04-18T12:07:57.889Z</time></trkpt><trkpt lat="43.8152833" lon="12.6881383"><ele>198.0</ele><time>2026-04-18T12:07:58.889Z</time></trkpt><trkpt lat="43.8152117" lon="12.6882017"><ele>198.0</ele><time>2026-04-18T12:07:59.887Z</time></trkpt><trkpt lat="43.8151433" lon="12.6883033"><ele>198.0</ele><time>2026-04-18T12:08:00.886Z</time></trkpt><trkpt lat="43.8150783" lon="12.68841"><ele>198.0</ele><time>2026-04-18T12:08:01.886Z</time></trkpt><trkpt lat="43.8150267" lon="12.6885367"><ele>200.8</ele><time>2026-04-18T12:08:02.886Z</time></trkpt><trkpt lat="43.8149983" lon="12.6886617"><ele>203.60000000000002</ele><time>2026-04-18T12:08:03.886Z</time></trkpt><trkpt lat="43.814995" lon="12.6887867"><ele>206.39999999999998</ele><time>2026-04-18T12:08:04.887Z</time></trkpt><trkpt lat="43.81502" lon="12.6889133"><ele>209.2</ele><time>2026-04-18T12:08:05.89Z</time></trkpt><trkpt lat="43.8150783" lon="12.6890483"><ele>212.0</ele><time>2026-04-18T12:08:06.887Z</time></trkpt><trkpt lat="43.8151433" lon="12.689185"><ele>212.0</ele><time>2026-04-18T12:08:07.887Z</time></trkpt><trkpt lat="43.8152033" lon="12.6893217"><ele>212.0</ele><time>2026-04-18T12:08:08.886Z</time></trkpt><trkpt lat="43.8152567" lon="12.6894567"><ele>212.0</ele><time>2026-04-18T12:08:09.888Z</time></trkpt><trkpt lat="43.8152783" lon="12.6895967"><ele>212.0</ele><time>2026-04-18T12:08:10.888Z</time></trkpt><trkpt lat="43.8152767" lon="12.6897633"><ele>212.0</ele><time>2026-04-18T12:08:11.889Z</time></trkpt><trkpt lat="43.8152683" lon="12.6899483"><ele>212.0</ele><time>2026-04-18T12:08:12.888Z</time></trkpt><trkpt lat="43.8152617" lon="12.6901317"><ele>212.0</ele><time>2026-04-18T12:08:13.887Z</time></trkpt><trkpt lat="43.8152467" lon="12.6902967"><ele>212.0</ele><time>2026-04-18T12:08:14.887Z</time></trkpt><trkpt lat="43.8152083" lon="12.6904367"><ele>215.0</ele><time>2026-04-18T12:08:15.889Z</time></trkpt><trkpt lat="43.8151617" lon="12.6905683"><ele>218.0</ele><time>2026-04-18T12:08:16.886Z</time></trkpt><trkpt lat="43.8151017" lon="12.690675"><ele>221.0</ele><time>2026-04-18T12:08:17.886Z</time></trkpt><trkpt lat="43.8150233" lon="12.690755"><ele>224.0</ele><time>2026-04-18T12:08:18.886Z</time></trkpt><trkpt lat="43.8149367" lon="12.69082"><ele>227.0</ele><time>2026-04-18T12:08:19.886Z</time></trkpt><trkpt lat="43.814835" lon="12.6908683"><ele>230.75</ele><time>2026-04-18T12:08:20.886Z</time></trkpt><trkpt lat="43.8147117" lon="12.690905"><ele>234.5</ele><time>2026-04-18T12:08:21.887Z</time></trkpt><trkpt lat="43.8145817" lon="12.69094"><ele>238.25</ele><time>2026-04-18T12:08:22.887Z</time></trkpt><trkpt lat="43.814475" lon="12.690985"><ele>242.0</ele><time>2026-04-18T12:08:23.889Z</time></trkpt><trkpt lat="43.814375" lon="12.6910467"><ele>241.33333333333334</ele><time>2026-04-18T12:08:24.89Z</time></trkpt><trkpt lat="43.81431" lon="12.69113"><ele>240.66666666666669</ele><time>2026-04-18T12:08:25.888Z</time></trkpt><trkpt lat="43.8142883" lon="12.69124"><ele>240.0</ele><time>2026-04-18T12:08:26.889Z</time></trkpt><trkpt lat="43.8142917" lon="12.691355"><ele>239.33333333333331</ele><time>2026-04-18T12:08:27.89Z</time></trkpt><trkpt lat="43.8143333" lon="12.6914633"><ele>238.66666666666666</ele><time>2026-04-18T12:08:28.886Z</time></trkpt><trkpt lat="43.814405" lon="12.691565"><ele>238.0</ele><time>2026-04-18T12:08:29.887Z</time></trkpt><trkpt lat="43.814495" lon="12.6916717"><ele>242.0</ele><time>2026-04-18T12:08:30.886Z</time></trkpt><trkpt lat="43.8146033" lon="12.6917867"><ele>246.0</ele><time>2026-04-18T12:08:31.888Z</time></trkpt><trkpt lat="43.8146883" lon="12.69191"><ele>250.0</ele><time>2026-04-18T12:08:32.886Z</time></trkpt><trkpt lat="43.8147667" lon="12.69205"><ele>254.0</ele><time>2026-04-18T12:08:33.887Z</time></trkpt><trkpt lat="43.8148567" lon="12.6922033"><ele>253.75</ele><time>2026-04-18T12:08:34.888Z</time></trkpt><trkpt lat="43.8149233" lon="12.692365"><ele>253.5</ele><time>2026-04-18T12:08:35.886Z</time></trkpt><trkpt lat="43.8149783" lon="12.6925283"><ele>253.25</ele><time>2026-04-18T12:08:36.888Z</time></trkpt><trkpt lat="43.815025" lon="12.6926883"><ele>253.0</ele><time>2026-04-18T12:08:37.888Z</time></trkpt><trkpt lat="43.81507" lon="12.6928483"><ele>253.0</ele><time>2026-04-18T12:08:38.889Z</time></trkpt><trkpt lat="43.8151083" lon="12.69301"><ele>253.0</ele><time>2026-04-18T12:08:39.888Z</time></trkpt><trkpt lat="43.8151383" lon="12.6931667"><ele>253.0</ele><time>2026-04-18T12:08:40.888Z</time></trkpt><trkpt lat="43.81517" lon="12.693315"><ele>253.0</ele><time>2026-04-18T12:08:41.887Z</time></trkpt><trkpt lat="43.8151983" lon="12.6934433"><ele>253.0</ele><time>2026-04-18T12:08:42.887Z</time></trkpt><trkpt lat="43.815215" lon="12.6935533"><ele>250.4</ele><time>2026-04-18T12:08:43.887Z</time></trkpt><trkpt lat="43.81523" lon="12.6936433"><ele>247.8</ele><time>2026-04-18T12:08:44.888Z</time></trkpt><trkpt lat="43.8151817" lon="12.693795"><ele>245.2</ele><time>2026-04-18T12:08:46.89Z</time></trkpt><trkpt lat="43.8150983" lon="12.6938383"><ele>242.6</ele><time>2026-04-18T12:08:47.887Z</time></trkpt><trkpt lat="43.8149767" lon="12.69387"><ele>240.0</ele><time>2026-04-18T12:08:48.889Z</time></trkpt><trkpt lat="43.8148667" lon="12.6939217"><ele>240.0</ele><time>2026-04-18T12:08:49.89Z</time></trkpt><trkpt lat="43.8147383" lon="12.693975"><ele>240.0</ele><time>2026-04-18T12:08:50.888Z</time></trkpt><trkpt lat="43.8146183" lon="12.694035"><ele>240.0</ele><time>2026-04-18T12:08:51.89Z</time></trkpt><trkpt lat="43.8144933" lon="12.6940933"><ele>240.0</ele><time>2026-04-18T12:08:52.887Z</time></trkpt><trkpt lat="43.8143733" lon="12.6941617"><ele>241.0</ele><time>2026-04-18T12:08:53.89Z</time></trkpt><trkpt lat="43.814255" lon="12.694235"><ele>242.0</ele><time>2026-04-18T12:08:54.889Z</time></trkpt><trkpt lat="43.814135" lon="12.6943117"><ele>243.0</ele><time>2026-04-18T12:08:55.888Z</time></trkpt><trkpt lat="43.81401" lon="12.69439"><ele>244.0</ele><time>2026-04-18T12:08:56.89Z</time></trkpt><trkpt lat="43.8138817" lon="12.6944783"><ele>244.0</ele><time>2026-04-18T12:08:57.89Z</time></trkpt><trkpt lat="43.8137533" lon="12.6945617"><ele>244.0</ele><time>2026-04-18T12:08:58.886Z</time></trkpt><trkpt lat="43.8136233" lon="12.694655"><ele>244.0</ele><time>2026-04-18T12:08:59.89Z</time></trkpt><trkpt lat="43.8134967" lon="12.6947483"><ele>244.0</ele><time>2026-04-18T12:09:00.889Z</time></trkpt><trkpt lat="43.81337" lon="12.6948467"><ele>247.66666666666666</ele><time>2026-04-18T12:09:01.889Z</time></trkpt><trkpt lat="43.8132433" lon="12.694955"><ele>251.33333333333331</ele><time>2026-04-18T12:09:02.89Z</time></trkpt><trkpt lat="43.813115" lon="12.6950667"><ele>255.0</ele><time>2026-04-18T12:09:03.887Z</time></trkpt><trkpt lat="43.8129883" lon="12.6951767"><ele>256.5</ele><time>2026-04-18T12:09:04.887Z</time></trkpt><trkpt lat="43.81288" lon="12.6952967"><ele>258.0</ele><time>2026-04-18T12:09:05.887Z</time></trkpt><trkpt lat="43.81279" lon="12.695425"><ele>259.5</ele><time>2026-04-18T12:09:06.889Z</time></trkpt><trkpt lat="43.8127133" lon="12.6955617"><ele>261.0</ele><time>2026-04-18T12:09:07.888Z</time></trkpt><trkpt lat="43.8126567" lon="12.6957"><ele>262.8333333333333</ele><time>2026-04-18T12:09:08.887Z</time></trkpt><trkpt lat="43.8126167" lon="12.6958267"><ele>264.6666666666667</ele><time>2026-04-18T12:09:09.888Z</time></trkpt><trkpt lat="43.8125867" lon="12.6959417"><ele>266.5</ele><time>2026-04-18T12:09:10.888Z</time></trkpt><trkpt lat="43.8125667" lon="12.696045"><ele>268.33333333333337</ele><time>2026-04-18T12:09:11.887Z</time></trkpt><trkpt lat="43.8125417" lon="12.69615"><ele>270.1666666666667</ele><time>2026-04-18T12:09:12.887Z</time></trkpt><trkpt lat="43.8125117" lon="12.6962433"><ele>272.0</ele><time>2026-04-18T12:09:13.888Z</time></trkpt><trkpt lat="43.8124767" lon="12.6963217"><ele>272.2857142857143</ele><time>2026-04-18T12:09:14.889Z</time></trkpt><trkpt lat="43.8124183" lon="12.6963617"><ele>272.57142857142856</ele><time>2026-04-18T12:09:15.887Z</time></trkpt><trkpt lat="43.8123517" lon="12.6963917"><ele>272.8571428571429</ele><time>2026-04-18T12:09:16.888Z</time></trkpt><trkpt lat="43.8122833" lon="12.696385"><ele>273.1428571428571</ele><time>2026-04-18T12:09:17.888Z</time></trkpt><trkpt lat="43.8122167" lon="12.6963533"><ele>273.42857142857144</ele><time>2026-04-18T12:09:19.889Z</time></trkpt><trkpt lat="43.8121833" lon="12.6964567"><ele>273.7142857142857</ele><time>2026-04-18T12:09:22.89Z</time></trkpt><trkpt lat="43.8121833" lon="12.6965633"><ele>274.0</ele><time>2026-04-18T12:09:23.887Z</time></trkpt><trkpt lat="43.8121867" lon="12.6966767"><ele>274.0</ele><time>2026-04-18T12:09:24.887Z</time></trkpt><trkpt lat="43.8121917" lon="12.6968017"><ele>274.0</ele><time>2026-04-18T12:09:25.887Z</time></trkpt><trkpt lat="43.8121967" lon="12.69694"><ele>274.0</ele><time>2026-04-18T12:09:26.889Z</time></trkpt><trkpt lat="43.812205" lon="12.6970917"><ele>274.0</ele><time>2026-04-18T12:09:27.89Z</time></trkpt><trkpt lat="43.8122233" lon="12.6972367"><ele>274.0</ele><time>2026-04-18T12:09:28.886Z</time></trkpt><trkpt lat="43.8122633" lon="12.69737"><ele>275.59999999999997</ele><time>2026-04-18T12:09:29.89Z</time></trkpt><trkpt lat="43.8123217" lon="12.697475"><ele>277.2</ele><time>2026-04-18T12:09:30.89Z</time></trkpt><trkpt lat="43.8124067" lon="12.6975317"><ele>278.79999999999995</ele><time>2026-04-18T12:09:31.89Z</time></trkpt><trkpt lat="43.8124983" lon="12.6975517"><ele>280.4</ele><time>2026-04-18T12:09:32.89Z</time></trkpt><trkpt lat="43.8126017" lon="12.69754"><ele>282.0</ele><time>2026-04-18T12:09:33.888Z</time></trkpt><trkpt lat="43.812745" lon="12.697465"><ele>283.5</ele><time>2026-04-18T12:09:34.886Z</time></trkpt><trkpt lat="43.8128833" lon="12.6974217"><ele>285.0</ele><time>2026-04-18T12:09:35.889Z</time></trkpt><trkpt lat="43.8130217" lon="12.6974267"><ele>286.5</ele><time>2026-04-18T12:09:36.888Z</time></trkpt><trkpt lat="43.8131567" lon="12.6974567"><ele>288.0</ele><time>2026-04-18T12:09:37.889Z</time></trkpt><trkpt lat="43.8132833" lon="12.6974917"><ele>288.0</ele><time>2026-04-18T12:09:38.884Z</time></trkpt><trkpt lat="43.8134" lon="12.6975317"><ele>288.0</ele><time>2026-04-18T12:09:39.887Z</time></trkpt><trkpt lat="43.813505" lon="12.6975817"><ele>288.0</ele><time>2026-04-18T12:09:40.888Z</time></trkpt><trkpt lat="43.813585" lon="12.6976517"><ele>288.0</ele><time>2026-04-18T12:09:41.888Z</time></trkpt><trkpt lat="43.8136517" lon="12.69774"><ele>288.0</ele><time>2026-04-18T12:09:42.888Z</time></trkpt><trkpt lat="43.8137017" lon="12.6978467"><ele>285.25</ele><time>2026-04-18T12:09:43.89Z</time></trkpt><trkpt lat="43.8137267" lon="12.69798"><ele>282.5</ele><time>2026-04-18T12:09:44.888Z</time></trkpt><trkpt lat="43.81373" lon="12.6981333"><ele>279.75</ele><time>2026-04-18T12:09:45.886Z</time></trkpt><trkpt lat="43.81372" lon="12.698305"><ele>277.0</ele><time>2026-04-18T12:09:46.886Z</time></trkpt><trkpt lat="43.8137033" lon="12.69849"><ele>276.75</ele><time>2026-04-18T12:09:47.886Z</time></trkpt><trkpt lat="43.8136967" lon="12.6986783"><ele>276.5</ele><time>2026-04-18T12:09:48.885Z</time></trkpt><trkpt lat="43.8136833" lon="12.698865"><ele>276.25</ele><time>2026-04-18T12:09:49.886Z</time></trkpt><trkpt lat="43.8136683" lon="12.69905"><ele>276.0</ele><time>2026-04-18T12:09:50.885Z</time></trkpt><trkpt lat="43.8136467" lon="12.6992317"><ele>276.5</ele><time>2026-04-18T12:09:51.885Z</time></trkpt><trkpt lat="43.8136283" lon="12.69942"><ele>277.0</ele><time>2026-04-18T12:09:52.885Z</time></trkpt><trkpt lat="43.813615" lon="12.6996183"><ele>277.5</ele><time>2026-04-18T12:09:53.885Z</time></trkpt><trkpt lat="43.8136133" lon="12.6998117"><ele>278.0</ele><time>2026-04-18T12:09:54.889Z</time></trkpt><trkpt lat="43.8136133" lon="12.7000033"><ele>278.0</ele><time>2026-04-18T12:09:55.885Z</time></trkpt><trkpt lat="43.8136367" lon="12.7001967"><ele>278.0</ele><time>2026-04-18T12:09:56.889Z</time></trkpt><trkpt lat="43.81369" lon="12.7003917"><ele>278.0</ele><time>2026-04-18T12:09:57.889Z</time></trkpt><trkpt lat="43.813755" lon="12.7005733"><ele>278.0</ele><time>2026-04-18T12:09:58.887Z</time></trkpt><trkpt lat="43.8138283" lon="12.70073"><ele>281.25</ele><time>2026-04-18T12:09:59.889Z</time></trkpt><trkpt lat="43.8139133" lon="12.7008733"><ele>284.5</ele><time>2026-04-18T12:10:00.889Z</time></trkpt><trkpt lat="43.8139983" lon="12.701015"><ele>287.75</ele><time>2026-04-18T12:10:01.892Z</time></trkpt><trkpt lat="43.8140833" lon="12.7011667"><ele>291.0</ele><time>2026-04-18T12:10:02.889Z</time></trkpt><trkpt lat="43.8141667" lon="12.7013267"><ele>292.6</ele><time>2026-04-18T12:10:03.888Z</time></trkpt><trkpt lat="43.8142417" lon="12.70148"><ele>294.20000000000005</ele><time>2026-04-18T12:10:04.888Z</time></trkpt><trkpt lat="43.8143083" lon="12.7016067"><ele>295.79999999999995</ele><time>2026-04-18T12:10:05.888Z</time></trkpt><trkpt lat="43.81437" lon="12.7016933"><ele>297.4</ele><time>2026-04-18T12:10:06.887Z</time></trkpt><trkpt lat="43.8144233" lon="12.7017683"><ele>299.0</ele><time>2026-04-18T12:10:07.889Z</time></trkpt><trkpt lat="43.814475" lon="12.7018433"><ele>300.0</ele><time>2026-04-18T12:10:08.888Z</time></trkpt><trkpt lat="43.8145217" lon="12.7019483"><ele>301.0</ele><time>2026-04-18T12:10:09.889Z</time></trkpt><trkpt lat="43.8145567" lon="12.7020767"><ele>302.0</ele><time>2026-04-18T12:10:10.889Z</time></trkpt><trkpt lat="43.8145767" lon="12.7022083"><ele>303.0</ele><time>2026-04-18T12:10:11.89Z</time></trkpt><trkpt lat="43.8145967" lon="12.7023233"><ele>304.0</ele><time>2026-04-18T12:10:12.889Z</time></trkpt><trkpt lat="43.8146233" lon="12.7024633"><ele>304.0</ele><time>2026-04-18T12:10:14.89Z</time></trkpt><trkpt lat="43.8146217" lon="12.70234"><ele>304.0</ele><time>2026-04-18T12:10:20.885Z</time></trkpt><trkpt lat="43.8146017" lon="12.7022483"><ele>304.0</ele><time>2026-04-18T12:10:21.885Z</time></trkpt><trkpt lat="43.81458" lon="12.7021333"><ele>304.0</ele><time>2026-04-18T12:10:22.885Z</time></trkpt><trkpt lat="43.81456" lon="12.7020217"><ele>304.0</ele><time>2026-04-18T12:10:23.89Z</time></trkpt><trkpt lat="43.8145383" lon="12.7019217"><ele>304.0</ele><time>2026-04-18T12:10:24.889Z</time></trkpt><trkpt lat="43.8144967" lon="12.7017833"><ele>304.0</ele><time>2026-04-18T12:10:26.888Z</time></trkpt><trkpt lat="43.814425" lon="12.7018"><ele>304.0</ele><time>2026-04-18T12:10:29.888Z</time></trkpt><trkpt lat="43.8144417" lon="12.7019767"><ele>304.0</ele><time>2026-04-18T12:10:31.89Z</time></trkpt><trkpt lat="43.814455" lon="12.7021017"><ele>304.0</ele><time>2026-04-18T12:10:32.889Z</time></trkpt><trkpt lat="43.8144667" lon="12.7022433"><ele>304.0</ele><time>2026-04-18T12:10:33.889Z</time></trkpt><trkpt lat="43.8144633" lon="12.7023883"><ele>304.0</ele><time>2026-04-18T12:10:34.888Z</time></trkpt><trkpt lat="43.814445" lon="12.7025433"><ele>304.0</ele><time>2026-04-18T12:10:35.888Z</time></trkpt><trkpt lat="43.8144117" lon="12.7027067"><ele>304.0</ele><time>2026-04-18T12:10:36.889Z</time></trkpt><trkpt lat="43.8143717" lon="12.7028883"><ele>304.0</ele><time>2026-04-18T12:10:37.89Z</time></trkpt><trkpt lat="43.8143267" lon="12.7030817"><ele>305.25</ele><time>2026-04-18T12:10:38.888Z</time></trkpt><trkpt lat="43.81428" lon="12.7032683"><ele>306.5</ele><time>2026-04-18T12:10:39.887Z</time></trkpt><trkpt lat="43.8142367" lon="12.7034483"><ele>307.75</ele><time>2026-04-18T12:10:40.886Z</time></trkpt><trkpt lat="43.8141933" lon="12.7036267"><ele>309.0</ele><time>2026-04-18T12:10:41.886Z</time></trkpt><trkpt lat="43.8141533" lon="12.7038083"><ele>310.0</ele><time>2026-04-18T12:10:42.885Z</time></trkpt><trkpt lat="43.814125" lon="12.70399"><ele>311.0</ele><time>2026-04-18T12:10:43.886Z</time></trkpt><trkpt lat="43.81411" lon="12.704165"><ele>312.0</ele><time>2026-04-18T12:10:44.886Z</time></trkpt><trkpt lat="43.8141167" lon="12.7043383"><ele>313.0</ele><time>2026-04-18T12:10:45.89Z</time></trkpt><trkpt lat="43.814145" lon="12.704515"><ele>314.25</ele><time>2026-04-18T12:10:46.886Z</time></trkpt><trkpt lat="43.8141883" lon="12.7046883"><ele>315.5</ele><time>2026-04-18T12:10:47.89Z</time></trkpt><trkpt lat="43.8142333" lon="12.7048483"><ele>316.75</ele><time>2026-04-18T12:10:48.889Z</time></trkpt><trkpt lat="43.8142633" lon="12.7049983"><ele>318.0</ele><time>2026-04-18T12:10:49.887Z</time></trkpt><trkpt lat="43.81426" lon="12.7051283"><ele>318.0</ele><time>2026-04-18T12:10:50.888Z</time></trkpt><trkpt lat="43.81424" lon="12.7052367"><ele>318.0</ele><time>2026-04-18T12:10:51.887Z</time></trkpt><trkpt lat="43.8141933" lon="12.7053117"><ele>318.0</ele><time>2026-04-18T12:10:52.888Z</time></trkpt><trkpt lat="43.8141067" lon="12.7053417"><ele>318.0</ele><time>2026-04-18T12:10:53.889Z</time></trkpt><trkpt lat="43.8139917" lon="12.7053717"><ele>318.0</ele><time>2026-04-18T12:10:54.889Z</time></trkpt><trkpt lat="43.81387" lon="12.7054417"><ele>317.5</ele><time>2026-04-18T12:10:55.889Z</time></trkpt><trkpt lat="43.81374" lon="12.70552"><ele>317.0</ele><time>2026-04-18T12:10:56.893Z</time></trkpt><trkpt lat="43.813625" lon="12.7056167"><ele>316.5</ele><time>2026-04-18T12:10:57.886Z</time></trkpt><trkpt lat="43.81351" lon="12.7057217"><ele>316.0</ele><time>2026-04-18T12:10:58.885Z</time></trkpt><trkpt lat="43.8133967" lon="12.7058283"><ele>316.0</ele><time>2026-04-18T12:10:59.891Z</time></trkpt><trkpt lat="43.813285" lon="12.70592"><ele>316.0</ele><time>2026-04-18T12:11:00.888Z</time></trkpt><trkpt lat="43.813175" lon="12.705995"><ele>316.0</ele><time>2026-04-18T12:11:01.888Z</time></trkpt><trkpt lat="43.8130783" lon="12.706065"><ele>316.0</ele><time>2026-04-18T12:11:02.889Z</time></trkpt><trkpt lat="43.8130117" lon="12.7061133"><ele>316.0</ele><time>2026-04-18T12:11:03.888Z</time></trkpt><trkpt lat="43.81295" lon="12.706145"><ele>316.0</ele><time>2026-04-18T12:11:04.888Z</time></trkpt><trkpt lat="43.8128367" lon="12.7061333"><ele>316.0</ele><time>2026-04-18T12:11:06.885Z</time></trkpt><trkpt lat="43.8127417" lon="12.70607"><ele>316.0</ele><time>2026-04-18T12:11:08.886Z</time></trkpt><trkpt lat="43.812625" lon="12.70601"><ele>316.0</ele><time>2026-04-18T12:11:10.887Z</time></trkpt><trkpt lat="43.812555" lon="12.7059733"><ele>316.0</ele><time>2026-04-18T12:11:11.887Z</time></trkpt><trkpt lat="43.8124883" lon="12.7059433"><ele>315.5</ele><time>2026-04-18T12:11:12.886Z</time></trkpt><trkpt lat="43.8124133" lon="12.70592"><ele>315.0</ele><time>2026-04-18T12:11:13.886Z</time></trkpt><trkpt lat="43.812335" lon="12.7058983"><ele>314.5</ele><time>2026-04-18T12:11:14.889Z</time></trkpt><trkpt lat="43.81226" lon="12.7058717"><ele>314.0</ele><time>2026-04-18T12:11:15.889Z</time></trkpt><trkpt lat="43.8121833" lon="12.7058317"><ele>313.5</ele><time>2026-04-18T12:11:16.887Z</time></trkpt><trkpt lat="43.812105" lon="12.7057817"><ele>313.0</ele><time>2026-04-18T12:11:17.885Z</time></trkpt><trkpt lat="43.8120283" lon="12.7057233"><ele>313.0</ele><time>2026-04-18T12:11:18.886Z</time></trkpt><trkpt lat="43.8119583" lon="12.70566"><ele>313.0</ele><time>2026-04-18T12:11:19.887Z</time></trkpt><trkpt lat="43.8118933" lon="12.7055917"><ele>313.0</ele><time>2026-04-18T12:11:20.887Z</time></trkpt><trkpt lat="43.81183" lon="12.7055233"><ele>313.0</ele><time>2026-04-18T12:11:21.887Z</time></trkpt><trkpt lat="43.81177" lon="12.7054567"><ele>313.0</ele><time>2026-04-18T12:11:22.888Z</time></trkpt><trkpt lat="43.81168" lon="12.7053667"><ele>313.0</ele><time>2026-04-18T12:11:24.888Z</time></trkpt><trkpt lat="43.8116067" lon="12.70531"><ele>312.3333333333333</ele><time>2026-04-18T12:11:26.887Z</time></trkpt><trkpt lat="43.81154" lon="12.7052717"><ele>311.66666666666663</ele><time>2026-04-18T12:11:28.891Z</time></trkpt><trkpt lat="43.8114733" lon="12.7052333"><ele>311.0</ele><time>2026-04-18T12:11:30.889Z</time></trkpt><trkpt lat="43.8113833" lon="12.7051983"><ele>310.3333333333333</ele><time>2026-04-18T12:11:39.889Z</time></trkpt><trkpt lat="43.8112967" lon="12.7051567"><ele>309.6666666666667</ele><time>2026-04-18T12:11:41.888Z</time></trkpt><trkpt lat="43.8111933" lon="12.7051167"><ele>309.0</ele><time>2026-04-18T12:11:43.888Z</time></trkpt><trkpt lat="43.811105" lon="12.7050883"><ele>308.8333333333333</ele><time>2026-04-18T12:11:45.886Z</time></trkpt><trkpt lat="43.8110333" lon="12.7050833"><ele>308.6666666666667</ele><time>2026-04-18T12:11:47.887Z</time></trkpt><trkpt lat="43.81095" lon="12.7051"><ele>308.5</ele><time>2026-04-18T12:11:50.886Z</time></trkpt><trkpt lat="43.81102" lon="12.7050867"><ele>308.33333333333337</ele><time>2026-04-18T12:12:01.887Z</time></trkpt><trkpt lat="43.8110833" lon="12.7051033"><ele>308.1666666666667</ele><time>2026-04-18T12:12:02.885Z</time></trkpt><trkpt lat="43.8111583" lon="12.70513"><ele>308.0</ele><time>2026-04-18T12:12:03.887Z</time></trkpt><trkpt lat="43.81124" lon="12.7051567"><ele>308.0</ele><time>2026-04-18T12:12:04.886Z</time></trkpt><trkpt lat="43.81133" lon="12.705195"><ele>308.0</ele><time>2026-04-18T12:12:05.887Z</time></trkpt><trkpt lat="43.8114233" lon="12.7052417"><ele>308.0</ele><time>2026-04-18T12:12:06.888Z</time></trkpt><trkpt lat="43.8115083" lon="12.7052883"><ele>308.0</ele><time>2026-04-18T12:12:07.888Z</time></trkpt><trkpt lat="43.81159" lon="12.7053383"><ele>308.0</ele><time>2026-04-18T12:12:08.886Z</time></trkpt><trkpt lat="43.811665" lon="12.7053983"><ele>308.1666666666667</ele><time>2026-04-18T12:12:09.887Z</time></trkpt><trkpt lat="43.8117383" lon="12.705465"><ele>308.33333333333337</ele><time>2026-04-18T12:12:10.888Z</time></trkpt><trkpt lat="43.8118117" lon="12.7055317"><ele>308.5</ele><time>2026-04-18T12:12:11.888Z</time></trkpt><trkpt lat="43.8118767" lon="12.705595"><ele>308.6666666666667</ele><time>2026-04-18T12:12:12.886Z</time></trkpt><trkpt lat="43.81194" lon="12.70565"><ele>308.8333333333333</ele><time>2026-04-18T12:12:13.887Z</time></trkpt><trkpt lat="43.811995" lon="12.7057017"><ele>309.0</ele><time>2026-04-18T12:12:14.885Z</time></trkpt><trkpt lat="43.8121017" lon="12.7057917"><ele>309.8</ele><time>2026-04-18T12:12:16.886Z</time></trkpt><trkpt lat="43.8122133" lon="12.7058517"><ele>310.59999999999997</ele><time>2026-04-18T12:12:18.892Z</time></trkpt><trkpt lat="43.812305" lon="12.7058867"><ele>311.4</ele><time>2026-04-18T12:12:20.887Z</time></trkpt><trkpt lat="43.8123917" lon="12.70593"><ele>312.2</ele><time>2026-04-18T12:12:46.886Z</time></trkpt><trkpt lat="43.8124883" lon="12.7059467"><ele>313.0</ele><time>2026-04-18T12:12:48.887Z</time></trkpt><trkpt lat="43.812605" lon="12.705995"><ele>313.6</ele><time>2026-04-18T12:12:50.886Z</time></trkpt><trkpt lat="43.8127233" lon="12.7060467"><ele>314.20000000000005</ele><time>2026-04-18T12:12:52.887Z</time></trkpt><trkpt lat="43.812825" lon="12.7061083"><ele>314.8</ele><time>2026-04-18T12:12:54.887Z</time></trkpt><trkpt lat="43.8128783" lon="12.7061917"><ele>315.40000000000003</ele><time>2026-04-18T12:12:57.89Z</time></trkpt><trkpt lat="43.8128733" lon="12.7063133"><ele>316.0</ele><time>2026-04-18T12:12:59.89Z</time></trkpt><trkpt lat="43.8128617" lon="12.7064017"><ele>319.5</ele><time>2026-04-18T12:13:00.889Z</time></trkpt><trkpt lat="43.8128517" lon="12.7064983"><ele>323.0</ele><time>2026-04-18T12:13:01.889Z</time></trkpt><trkpt lat="43.81284" lon="12.7066033"><ele>326.5</ele><time>2026-04-18T12:13:02.889Z</time></trkpt><trkpt lat="43.812825" lon="12.7067233"><ele>330.0</ele><time>2026-04-18T12:13:03.89Z</time></trkpt><trkpt lat="43.812805" lon="12.7068433"><ele>333.5</ele><time>2026-04-18T12:13:04.889Z</time></trkpt><trkpt lat="43.81278" lon="12.7069633"><ele>337.0</ele><time>2026-04-18T12:13:05.885Z</time></trkpt><trkpt lat="43.8127533" lon="12.7070833"><ele>338.8</ele><time>2026-04-18T12:13:06.889Z</time></trkpt><trkpt lat="43.8127183" lon="12.7072033"><ele>340.6</ele><time>2026-04-18T12:13:07.889Z</time></trkpt><trkpt lat="43.812675" lon="12.707325"><ele>342.40000000000003</ele><time>2026-04-18T12:13:08.886Z</time></trkpt><trkpt lat="43.8126333" lon="12.70745"><ele>344.20000000000005</ele><time>2026-04-18T12:13:09.887Z</time></trkpt><trkpt lat="43.81259" lon="12.7075833"><ele>346.0</ele><time>2026-04-18T12:13:10.889Z</time></trkpt><trkpt lat="43.8125417" lon="12.70772"><ele>340.2</ele><time>2026-04-18T12:13:11.889Z</time></trkpt><trkpt lat="43.8124933" lon="12.70786"><ele>334.40000000000003</ele><time>2026-04-18T12:13:12.887Z</time></trkpt><trkpt lat="43.812455" lon="12.708"><ele>328.6</ele><time>2026-04-18T12:13:13.886Z</time></trkpt><trkpt lat="43.8124317" lon="12.7081433"><ele>322.8</ele><time>2026-04-18T12:13:14.885Z</time></trkpt><trkpt lat="43.8124167" lon="12.7082833"><ele>317.0</ele><time>2026-04-18T12:13:15.887Z</time></trkpt><trkpt lat="43.8124333" lon="12.7084383"><ele>315.75</ele><time>2026-04-18T12:13:16.886Z</time></trkpt><trkpt lat="43.81246" lon="12.7085917"><ele>314.5</ele><time>2026-04-18T12:13:17.886Z</time></trkpt><trkpt lat="43.8124983" lon="12.7087417"><ele>313.25</ele><time>2026-04-18T12:13:18.886Z</time></trkpt><trkpt lat="43.8125533" lon="12.708885"><ele>312.0</ele><time>2026-04-18T12:13:19.89Z</time></trkpt><trkpt lat="43.8126217" lon="12.7090033"><ele>316.5</ele><time>2026-04-18T12:13:20.885Z</time></trkpt><trkpt lat="43.8126967" lon="12.70909"><ele>321.0</ele><time>2026-04-18T12:13:21.887Z</time></trkpt><trkpt lat="43.8127617" lon="12.7091717"><ele>325.5</ele><time>2026-04-18T12:13:22.887Z</time></trkpt><trkpt lat="43.8128183" lon="12.7092617"><ele>330.0</ele><time>2026-04-18T12:13:23.886Z</time></trkpt><trkpt lat="43.8128567" lon="12.7093517"><ele>334.5</ele><time>2026-04-18T12:13:24.888Z</time></trkpt><trkpt lat="43.8128433" lon="12.7094833"><ele>339.0</ele><time>2026-04-18T12:13:26.885Z</time></trkpt><trkpt lat="43.8127817" lon="12.7095483"><ele>341.2</ele><time>2026-04-18T12:13:27.888Z</time></trkpt><trkpt lat="43.8127117" lon="12.7096067"><ele>343.4</ele><time>2026-04-18T12:13:28.886Z</time></trkpt><trkpt lat="43.812625" lon="12.709665"><ele>345.6</ele><time>2026-04-18T12:13:29.888Z</time></trkpt><trkpt lat="43.812525" lon="12.7097333"><ele>347.8</ele><time>2026-04-18T12:13:30.89Z</time></trkpt><trkpt lat="43.8124083" lon="12.7098167"><ele>350.0</ele><time>2026-04-18T12:13:31.887Z</time></trkpt><trkpt lat="43.8123133" lon="12.709935"><ele>345.5</ele><time>2026-04-18T12:13:32.886Z</time></trkpt><trkpt lat="43.8122267" lon="12.7100517"><ele>341.0</ele><time>2026-04-18T12:13:33.886Z</time></trkpt><trkpt lat="43.8121417" lon="12.7101667"><ele>336.5</ele><time>2026-04-18T12:13:34.887Z</time></trkpt><trkpt lat="43.81207" lon="12.7102933"><ele>332.0</ele><time>2026-04-18T12:13:35.887Z</time></trkpt><trkpt lat="43.81202" lon="12.7104183"><ele>332.0</ele><time>2026-04-18T12:13:36.887Z</time></trkpt><trkpt lat="43.811985" lon="12.7105317"><ele>332.0</ele><time>2026-04-18T12:13:37.888Z</time></trkpt><trkpt lat="43.8119583" lon="12.7106433"><ele>332.0</ele><time>2026-04-18T12:13:38.885Z</time></trkpt><trkpt lat="43.811955" lon="12.7107583"><ele>332.0</ele><time>2026-04-18T12:13:39.886Z</time></trkpt><trkpt lat="43.8119683" lon="12.7108683"><ele>332.0</ele><time>2026-04-18T12:13:40.887Z</time></trkpt><trkpt lat="43.812" lon="12.710985"><ele>332.0</ele><time>2026-04-18T12:13:41.887Z</time></trkpt><trkpt lat="43.8120317" lon="12.7110967"><ele>332.1428571428571</ele><time>2026-04-18T12:13:42.887Z</time></trkpt><trkpt lat="43.8120583" lon="12.7112033"><ele>332.28571428571433</ele><time>2026-04-18T12:13:43.887Z</time></trkpt><trkpt lat="43.8120817" lon="12.7113017"><ele>332.42857142857144</ele><time>2026-04-18T12:13:44.885Z</time></trkpt><trkpt lat="43.8121067" lon="12.711395"><ele>332.57142857142856</ele><time>2026-04-18T12:13:45.886Z</time></trkpt><trkpt lat="43.81212" lon="12.7114883"><ele>332.71428571428567</ele><time>2026-04-18T12:13:46.888Z</time></trkpt><trkpt lat="43.81212" lon="12.7115783"><ele>332.8571428571429</ele><time>2026-04-18T12:13:47.887Z</time></trkpt><trkpt lat="43.81212" lon="12.7116783"><ele>333.0</ele><time>2026-04-18T12:13:48.889Z</time></trkpt><trkpt lat="43.81202" lon="12.711785"><ele>333.0</ele><time>2026-04-18T12:13:50.886Z</time></trkpt><trkpt lat="43.8119167" lon="12.71181"><ele>333.0</ele><time>2026-04-18T12:13:51.886Z</time></trkpt><trkpt lat="43.8118417" lon="12.711845"><ele>333.0</ele><time>2026-04-18T12:13:52.889Z</time></trkpt><trkpt lat="43.8117367" lon="12.7119267"><ele>333.0</ele><time>2026-04-18T12:13:54.888Z</time></trkpt><trkpt lat="43.81168" lon="12.711975"><ele>333.0</ele><time>2026-04-18T12:13:55.888Z</time></trkpt><trkpt lat="43.81164" lon="12.7120433"><ele>333.0</ele><time>2026-04-18T12:13:56.887Z</time></trkpt><trkpt lat="43.811605" lon="12.7121467"><ele>331.0</ele><time>2026-04-18T12:13:57.887Z</time></trkpt><trkpt lat="43.8115633" lon="12.7122533"><ele>329.0</ele><time>2026-04-18T12:13:58.889Z</time></trkpt><trkpt lat="43.8115267" lon="12.7123617"><ele>327.0</ele><time>2026-04-18T12:13:59.888Z</time></trkpt><trkpt lat="43.8115017" lon="12.71248"><ele>325.0</ele><time>2026-04-18T12:14:00.888Z</time></trkpt><trkpt lat="43.811475" lon="12.712595"><ele>323.0</ele><time>2026-04-18T12:14:01.887Z</time></trkpt><trkpt lat="43.8114433" lon="12.7127133"><ele>321.0</ele><time>2026-04-18T12:14:02.886Z</time></trkpt><trkpt lat="43.8114117" lon="12.7128283"><ele>321.0</ele><time>2026-04-18T12:14:03.89Z</time></trkpt><trkpt lat="43.8113767" lon="12.712935"><ele>321.0</ele><time>2026-04-18T12:14:04.891Z</time></trkpt><trkpt lat="43.81134" lon="12.7130317"><ele>321.0</ele><time>2026-04-18T12:14:05.886Z</time></trkpt><trkpt lat="43.8112967" lon="12.713115"><ele>321.0</ele><time>2026-04-18T12:14:06.888Z</time></trkpt><trkpt lat="43.8112533" lon="12.7131783"><ele>321.0</ele><time>2026-04-18T12:14:07.891Z</time></trkpt><trkpt lat="43.8111283" lon="12.7132183"><ele>321.0</ele><time>2026-04-18T12:14:09.888Z</time></trkpt><trkpt lat="43.8110517" lon="12.7132083"><ele>320.1666666666667</ele><time>2026-04-18T12:14:10.888Z</time></trkpt><trkpt lat="43.810975" lon="12.713195"><ele>319.3333333333333</ele><time>2026-04-18T12:14:11.889Z</time></trkpt><trkpt lat="43.8108933" lon="12.7131833"><ele>318.5</ele><time>2026-04-18T12:14:12.888Z</time></trkpt><trkpt lat="43.8108067" lon="12.7131683"><ele>317.66666666666663</ele><time>2026-04-18T12:14:13.889Z</time></trkpt><trkpt lat="43.8107183" lon="12.7131433"><ele>316.8333333333333</ele><time>2026-04-18T12:14:14.886Z</time></trkpt><trkpt lat="43.8106233" lon="12.71311"><ele>316.0</ele><time>2026-04-18T12:14:15.887Z</time></trkpt><trkpt lat="43.810525" lon="12.7130733"><ele>316.0</ele><time>2026-04-18T12:14:16.888Z</time></trkpt><trkpt lat="43.81043" lon="12.7130383"><ele>316.0</ele><time>2026-04-18T12:14:17.888Z</time></trkpt><trkpt lat="43.81033" lon="12.713005"><ele>316.0</ele><time>2026-04-18T12:14:18.891Z</time></trkpt><trkpt lat="43.81023" lon="12.7129633"><ele>316.0</ele><time>2026-04-18T12:14:19.888Z</time></trkpt><trkpt lat="43.8101383" lon="12.7129083"><ele>316.0</ele><time>2026-04-18T12:14:20.886Z</time></trkpt><trkpt lat="43.8100583" lon="12.712855"><ele>314.2</ele><time>2026-04-18T12:14:21.886Z</time></trkpt><trkpt lat="43.8099783" lon="12.7127983"><ele>312.40000000000003</ele><time>2026-04-18T12:14:22.887Z</time></trkpt><trkpt lat="43.809895" lon="12.7127383"><ele>310.6</ele><time>2026-04-18T12:14:23.889Z</time></trkpt><trkpt lat="43.80981" lon="12.7126767"><ele>308.8</ele><time>2026-04-18T12:14:24.888Z</time></trkpt><trkpt lat="43.809725" lon="12.7126217"><ele>307.0</ele><time>2026-04-18T12:14:25.888Z</time></trkpt><trkpt lat="43.80965" lon="12.7125733"><ele>304.4285714285714</ele><time>2026-04-18T12:14:26.887Z</time></trkpt><trkpt lat="43.80958" lon="12.7125233"><ele>301.85714285714283</ele><time>2026-04-18T12:14:27.888Z</time></trkpt><trkpt lat="43.809515" lon="12.7124733"><ele>299.2857142857143</ele><time>2026-04-18T12:14:28.889Z</time></trkpt><trkpt lat="43.8094517" lon="12.71242"><ele>296.71428571428567</ele><time>2026-04-18T12:14:29.887Z</time></trkpt><trkpt lat="43.8093867" lon="12.71238"><ele>294.1428571428571</ele><time>2026-04-18T12:14:30.888Z</time></trkpt><trkpt lat="43.8093183" lon="12.7123583"><ele>291.57142857142856</ele><time>2026-04-18T12:14:31.889Z</time></trkpt><trkpt lat="43.809245" lon="12.71236"><ele>289.0</ele><time>2026-04-18T12:14:32.888Z</time></trkpt><trkpt lat="43.80917" lon="12.7123883"><ele>288.66666666666663</ele><time>2026-04-18T12:14:33.888Z</time></trkpt><trkpt lat="43.8091133" lon="12.7124467"><ele>288.3333333333333</ele><time>2026-04-18T12:14:34.888Z</time></trkpt><trkpt lat="43.809055" lon="12.7125183"><ele>288.0</ele><time>2026-04-18T12:14:35.888Z</time></trkpt><trkpt lat="43.8090017" lon="12.7126017"><ele>287.6666666666667</ele><time>2026-04-18T12:14:36.887Z</time></trkpt><trkpt lat="43.8089483" lon="12.7126817"><ele>287.33333333333337</ele><time>2026-04-18T12:14:37.887Z</time></trkpt><trkpt lat="43.8089017" lon="12.71275"><ele>287.0</ele><time>2026-04-18T12:14:38.887Z</time></trkpt><trkpt lat="43.8088283" lon="12.7128183"><ele>287.0</ele><time>2026-04-18T12:14:40.888Z</time></trkpt><trkpt lat="43.8088133" lon="12.7127217"><ele>287.0</ele><time>2026-04-18T12:14:42.888Z</time></trkpt><trkpt lat="43.80884" lon="12.7126017"><ele>287.0</ele><time>2026-04-18T12:14:43.888Z</time></trkpt><trkpt lat="43.80887" lon="12.7124983"><ele>287.0</ele><time>2026-04-18T12:14:44.889Z</time></trkpt><trkpt lat="43.8089267" lon="12.7123733"><ele>287.0</ele><time>2026-04-18T12:14:45.889Z</time></trkpt><trkpt lat="43.8089983" lon="12.7122433"><ele>287.0</ele><time>2026-04-18T12:14:46.888Z</time></trkpt><trkpt lat="43.809075" lon="12.7121333"><ele>287.0</ele><time>2026-04-18T12:14:47.886Z</time></trkpt><trkpt lat="43.809155" lon="12.7120483"><ele>287.0</ele><time>2026-04-18T12:14:48.886Z</time></trkpt><trkpt lat="43.8092417" lon="12.7119883"><ele>287.0</ele><time>2026-04-18T12:14:49.885Z</time></trkpt><trkpt lat="43.809335" lon="12.7119567"><ele>287.0</ele><time>2026-04-18T12:14:50.886Z</time></trkpt><trkpt lat="43.8094333" lon="12.7119517"><ele>287.33333333333337</ele><time>2026-04-18T12:14:51.885Z</time></trkpt><trkpt lat="43.8095267" lon="12.7119633"><ele>287.6666666666667</ele><time>2026-04-18T12:14:52.889Z</time></trkpt><trkpt lat="43.809605" lon="12.7119783"><ele>288.0</ele><time>2026-04-18T12:14:53.886Z</time></trkpt><trkpt lat="43.8096717" lon="12.7119733"><ele>288.3333333333333</ele><time>2026-04-18T12:14:54.889Z</time></trkpt><trkpt lat="43.809745" lon="12.7119483"><ele>288.66666666666663</ele><time>2026-04-18T12:14:56.885Z</time></trkpt><trkpt lat="43.8098117" lon="12.7119367"><ele>289.0</ele><time>2026-04-18T12:15:07.887Z</time></trkpt><trkpt lat="43.809865" lon="12.7120017"><ele>289.0</ele><time>2026-04-18T12:15:10.886Z</time></trkpt><trkpt lat="43.809935" lon="12.7121017"><ele>289.0</ele><time>2026-04-18T12:15:12.888Z</time></trkpt><trkpt lat="43.8099817" lon="12.712165"><ele>289.0</ele><time>2026-04-18T12:15:13.89Z</time></trkpt><trkpt lat="43.810035" lon="12.7122267"><ele>289.0</ele><time>2026-04-18T12:15:14.889Z</time></trkpt><trkpt lat="43.8100917" lon="12.71228"><ele>289.0</ele><time>2026-04-18T12:15:15.892Z</time></trkpt><trkpt lat="43.8102067" lon="12.7123467"><ele>289.0</ele><time>2026-04-18T12:15:17.886Z</time></trkpt><trkpt lat="43.8102717" lon="12.7123417"><ele>289.0</ele><time>2026-04-18T12:15:18.888Z</time></trkpt><trkpt lat="43.8103483" lon="12.7122267"><ele>289.0</ele><time>2026-04-18T12:15:20.888Z</time></trkpt><trkpt lat="43.81038" lon="12.712135"><ele>289.0</ele><time>2026-04-18T12:15:21.886Z</time></trkpt><trkpt lat="43.810385" lon="12.71202"><ele>289.0</ele><time>2026-04-18T12:15:22.888Z</time></trkpt><trkpt lat="43.81039" lon="12.71191"><ele>289.0</ele><time>2026-04-18T12:15:23.888Z</time></trkpt><trkpt lat="43.8104067" lon="12.7118117"><ele>289.0</ele><time>2026-04-18T12:15:24.889Z</time></trkpt><trkpt lat="43.8104267" lon="12.7117117"><ele>289.0</ele><time>2026-04-18T12:15:25.887Z</time></trkpt><trkpt lat="43.81045" lon="12.711605"><ele>289.0</ele><time>2026-04-18T12:15:26.887Z</time></trkpt><trkpt lat="43.8104817" lon="12.711505"><ele>289.0</ele><time>2026-04-18T12:15:27.889Z</time></trkpt><trkpt lat="43.8105217" lon="12.7114117"><ele>289.0</ele><time>2026-04-18T12:15:28.889Z</time></trkpt><trkpt lat="43.8105583" lon="12.7113233"><ele>289.0</ele><time>2026-04-18T12:15:29.89Z</time></trkpt><trkpt lat="43.8106017" lon="12.7112367"><ele>289.0</ele><time>2026-04-18T12:15:30.889Z</time></trkpt><trkpt lat="43.8106417" lon="12.71115"><ele>287.0</ele><time>2026-04-18T12:15:31.889Z</time></trkpt><trkpt lat="43.8106833" lon="12.7110733"><ele>285.0</ele><time>2026-04-18T12:15:32.885Z</time></trkpt><trkpt lat="43.81073" lon="12.7110133"><ele>283.0</ele><time>2026-04-18T12:15:33.889Z</time></trkpt><trkpt lat="43.8108267" lon="12.7109533"><ele>281.0</ele><time>2026-04-18T12:15:35.886Z</time></trkpt><trkpt lat="43.81091" lon="12.7109233"><ele>279.0</ele><time>2026-04-18T12:15:37.887Z</time></trkpt><trkpt lat="43.8109717" lon="12.7108983"><ele>277.0</ele><time>2026-04-18T12:15:46.888Z</time></trkpt><trkpt lat="43.8109917" lon="12.7107833"><ele>277.0</ele><time>2026-04-18T12:15:48.885Z</time></trkpt><trkpt lat="43.8110117" lon="12.7106367"><ele>277.0</ele><time>2026-04-18T12:15:50.885Z</time></trkpt><trkpt lat="43.8109983" lon="12.71047"><ele>277.0</ele><time>2026-04-18T12:15:52.885Z</time></trkpt><trkpt lat="43.8109683" lon="12.710305"><ele>277.0</ele><time>2026-04-18T12:15:54.886Z</time></trkpt><trkpt lat="43.8109483" lon="12.7102217"><ele>277.0</ele><time>2026-04-18T12:15:55.888Z</time></trkpt><trkpt lat="43.810925" lon="12.7101317"><ele>275.5</ele><time>2026-04-18T12:15:56.886Z</time></trkpt><trkpt lat="43.8109017" lon="12.7100317"><ele>274.0</ele><time>2026-04-18T12:15:57.887Z</time></trkpt><trkpt lat="43.81089" lon="12.7099333"><ele>272.5</ele><time>2026-04-18T12:15:58.886Z</time></trkpt><trkpt lat="43.8108833" lon="12.70983"><ele>271.0</ele><time>2026-04-18T12:15:59.887Z</time></trkpt><trkpt lat="43.8108733" lon="12.7097183"><ele>269.5</ele><time>2026-04-18T12:16:00.886Z</time></trkpt><trkpt lat="43.8108667" lon="12.7096067"><ele>268.0</ele><time>2026-04-18T12:16:01.889Z</time></trkpt><trkpt lat="43.81087" lon="12.709495"><ele>266.0</ele><time>2026-04-18T12:16:02.887Z</time></trkpt><trkpt lat="43.8108867" lon="12.70939"><ele>264.0</ele><time>2026-04-18T12:16:03.887Z</time></trkpt><trkpt lat="43.8109" lon="12.70927"><ele>262.0</ele><time>2026-04-18T12:16:04.886Z</time></trkpt><trkpt lat="43.8109217" lon="12.7091617"><ele>260.0</ele><time>2026-04-18T12:16:05.886Z</time></trkpt><trkpt lat="43.810945" lon="12.7090583"><ele>258.0</ele><time>2026-04-18T12:16:06.887Z</time></trkpt><trkpt lat="43.81097" lon="12.7089517"><ele>256.0</ele><time>2026-04-18T12:16:07.887Z</time></trkpt><trkpt lat="43.8110017" lon="12.7088533"><ele>259.66666666666663</ele><time>2026-04-18T12:16:08.886Z</time></trkpt><trkpt lat="43.81103" lon="12.7087517"><ele>263.3333333333333</ele><time>2026-04-18T12:16:09.886Z</time></trkpt><trkpt lat="43.8110533" lon="12.7086517"><ele>267.0</ele><time>2026-04-18T12:16:10.886Z</time></trkpt><trkpt lat="43.81107" lon="12.7085483"><ele>270.6666666666667</ele><time>2026-04-18T12:16:11.888Z</time></trkpt><trkpt lat="43.81107" lon="12.708445"><ele>274.33333333333337</ele><time>2026-04-18T12:16:12.888Z</time></trkpt><trkpt lat="43.8110583" lon="12.70834"><ele>278.0</ele><time>2026-04-18T12:16:13.888Z</time></trkpt><trkpt lat="43.8110317" lon="12.7082333"><ele>278.0</ele><time>2026-04-18T12:16:14.886Z</time></trkpt><trkpt lat="43.8110017" lon="12.7081283"><ele>278.0</ele><time>2026-04-18T12:16:15.887Z</time></trkpt><trkpt lat="43.810965" lon="12.7080333"><ele>278.0</ele><time>2026-04-18T12:16:16.886Z</time></trkpt><trkpt lat="43.8109133" lon="12.7079433"><ele>278.0</ele><time>2026-04-18T12:16:17.885Z</time></trkpt><trkpt lat="43.8108483" lon="12.7078583"><ele>278.0</ele><time>2026-04-18T12:16:18.886Z</time></trkpt><trkpt lat="43.8107867" lon="12.7077767"><ele>278.0</ele><time>2026-04-18T12:16:19.887Z</time></trkpt><trkpt lat="43.8107183" lon="12.707695"><ele>274.0</ele><time>2026-04-18T12:16:20.886Z</time></trkpt><trkpt lat="43.8106567" lon="12.7076233"><ele>270.0</ele><time>2026-04-18T12:16:21.886Z</time></trkpt><trkpt lat="43.8106" lon="12.7075483"><ele>266.0</ele><time>2026-04-18T12:16:22.887Z</time></trkpt><trkpt lat="43.81055" lon="12.7074767"><ele>262.0</ele><time>2026-04-18T12:16:23.888Z</time></trkpt><trkpt lat="43.81048" lon="12.70736"><ele>258.0</ele><time>2026-04-18T12:16:25.887Z</time></trkpt><trkpt lat="43.8104333" lon="12.7072583"><ele>254.0</ele><time>2026-04-18T12:16:27.886Z</time></trkpt><trkpt lat="43.8103967" lon="12.7071633"><ele>254.00000000000003</ele><time>2026-04-18T12:16:29.889Z</time></trkpt><trkpt lat="43.810365" lon="12.7070733"><ele>254.0</ele><time>2026-04-18T12:16:32.886Z</time></trkpt><trkpt lat="43.8103967" lon="12.70717"><ele>254.0</ele><time>2026-04-18T12:16:47.888Z</time></trkpt><trkpt lat="43.8104483" lon="12.707285"><ele>254.0</ele><time>2026-04-18T12:16:50.886Z</time></trkpt><trkpt lat="43.8104983" lon="12.70738"><ele>254.00000000000003</ele><time>2026-04-18T12:16:52.888Z</time></trkpt><trkpt lat="43.81056" lon="12.70748"><ele>254.0</ele><time>2026-04-18T12:16:54.888Z</time></trkpt><trkpt lat="43.8106433" lon="12.707585"><ele>254.00000000000003</ele><time>2026-04-18T12:16:56.887Z</time></trkpt><trkpt lat="43.810735" lon="12.7077033"><ele>254.0</ele><time>2026-04-18T12:16:58.889Z</time></trkpt><trkpt lat="43.810785" lon="12.7077717"><ele>254.0</ele><time>2026-04-18T12:16:59.889Z</time></trkpt><trkpt lat="43.81084" lon="12.707845"><ele>254.0</ele><time>2026-04-18T12:17:00.888Z</time></trkpt><trkpt lat="43.8108933" lon="12.707925"><ele>254.00000000000003</ele><time>2026-04-18T12:17:01.891Z</time></trkpt><trkpt lat="43.8109433" lon="12.7080167"><ele>254.0</ele><time>2026-04-18T12:17:02.889Z</time></trkpt><trkpt lat="43.8109833" lon="12.708125"><ele>258.0</ele><time>2026-04-18T12:17:03.889Z</time></trkpt><trkpt lat="43.81102" lon="12.7082433"><ele>262.0</ele><time>2026-04-18T12:17:04.887Z</time></trkpt><trkpt lat="43.8110467" lon="12.7083583"><ele>266.0</ele><time>2026-04-18T12:17:05.888Z</time></trkpt><trkpt lat="43.8110633" lon="12.7084683"><ele>270.0</ele><time>2026-04-18T12:17:06.887Z</time></trkpt><trkpt lat="43.811065" lon="12.7085733"><ele>274.0</ele><time>2026-04-18T12:17:07.888Z</time></trkpt><trkpt lat="43.811045" lon="12.7086667"><ele>278.0</ele><time>2026-04-18T12:17:08.89Z</time></trkpt><trkpt lat="43.8110083" lon="12.7087567"><ele>276.33333333333337</ele><time>2026-04-18T12:17:09.887Z</time></trkpt><trkpt lat="43.8109783" lon="12.7088533"><ele>274.6666666666667</ele><time>2026-04-18T12:17:10.888Z</time></trkpt><trkpt lat="43.8109467" lon="12.7089483"><ele>273.0</ele><time>2026-04-18T12:17:11.888Z</time></trkpt><trkpt lat="43.810915" lon="12.7090533"><ele>271.3333333333333</ele><time>2026-04-18T12:17:12.887Z</time></trkpt><trkpt lat="43.8108933" lon="12.7091683"><ele>269.66666666666663</ele><time>2026-04-18T12:17:13.887Z</time></trkpt><trkpt lat="43.81088" lon="12.7092917"><ele>268.0</ele><time>2026-04-18T12:17:14.886Z</time></trkpt><trkpt lat="43.810865" lon="12.7094167"><ele>268.0</ele><time>2026-04-18T12:17:15.887Z</time></trkpt><trkpt lat="43.810865" lon="12.7095417"><ele>268.0</ele><time>2026-04-18T12:17:16.888Z</time></trkpt><trkpt lat="43.8108733" lon="12.7096733"><ele>268.0</ele><time>2026-04-18T12:17:17.887Z</time></trkpt><trkpt lat="43.8108883" lon="12.7098117"><ele>268.0</ele><time>2026-04-18T12:17:18.887Z</time></trkpt><trkpt lat="43.8109083" lon="12.7099417"><ele>268.0</ele><time>2026-04-18T12:17:19.889Z</time></trkpt><trkpt lat="43.81093" lon="12.7100617"><ele>268.0</ele><time>2026-04-18T12:17:20.888Z</time></trkpt><trkpt lat="43.8109617" lon="12.7101783"><ele>268.0</ele><time>2026-04-18T12:17:21.887Z</time></trkpt><trkpt lat="43.8109983" lon="12.7103"><ele>268.0</ele><time>2026-04-18T12:17:22.888Z</time></trkpt><trkpt lat="43.8110267" lon="12.7104167"><ele>268.0</ele><time>2026-04-18T12:17:23.888Z</time></trkpt><trkpt lat="43.8110417" lon="12.7105517"><ele>268.0</ele><time>2026-04-18T12:17:24.887Z</time></trkpt><trkpt lat="43.8110483" lon="12.7106817"><ele>269.8</ele><time>2026-04-18T12:17:25.888Z</time></trkpt><trkpt lat="43.8110333" lon="12.7107883"><ele>271.6</ele><time>2026-04-18T12:17:26.888Z</time></trkpt><trkpt lat="43.8110133" lon="12.7108767"><ele>273.4</ele><time>2026-04-18T12:17:27.888Z</time></trkpt><trkpt lat="43.810945" lon="12.7109883"><ele>275.2</ele><time>2026-04-18T12:17:29.888Z</time></trkpt><trkpt lat="43.81082" lon="12.7110583"><ele>277.0</ele><time>2026-04-18T12:17:31.889Z</time></trkpt><trkpt lat="43.8107567" lon="12.7111233"><ele>279.4</ele><time>2026-04-18T12:17:32.888Z</time></trkpt><trkpt lat="43.8106967" lon="12.7112117"><ele>281.79999999999995</ele><time>2026-04-18T12:17:33.89Z</time></trkpt><trkpt lat="43.8106233" lon="12.7113267"><ele>284.2</ele><time>2026-04-18T12:17:34.887Z</time></trkpt><trkpt lat="43.8105567" lon="12.7114467"><ele>286.59999999999997</ele><time>2026-04-18T12:17:35.891Z</time></trkpt><trkpt lat="43.8105" lon="12.711565"><ele>289.0</ele><time>2026-04-18T12:17:36.887Z</time></trkpt><trkpt lat="43.8104517" lon="12.7116933"><ele>289.0</ele><time>2026-04-18T12:17:37.886Z</time></trkpt><trkpt lat="43.8104183" lon="12.711825"><ele>289.0</ele><time>2026-04-18T12:17:38.886Z</time></trkpt><trkpt lat="43.810395" lon="12.7119533"><ele>289.0</ele><time>2026-04-18T12:17:39.886Z</time></trkpt><trkpt lat="43.8103733" lon="12.7120767"><ele>289.0</ele><time>2026-04-18T12:17:40.887Z</time></trkpt><trkpt lat="43.8103567" lon="12.7121833"><ele>289.0</ele><time>2026-04-18T12:17:41.891Z</time></trkpt><trkpt lat="43.8103317" lon="12.7122733"><ele>289.0</ele><time>2026-04-18T12:17:42.886Z</time></trkpt><trkpt lat="43.8102633" lon="12.7123633"><ele>289.0</ele><time>2026-04-18T12:17:44.886Z</time></trkpt><trkpt lat="43.8101983" lon="12.7123683"><ele>289.0</ele><time>2026-04-18T12:17:45.889Z</time></trkpt><trkpt lat="43.81011" lon="12.7123267"><ele>289.0</ele><time>2026-04-18T12:17:46.887Z</time></trkpt><trkpt lat="43.8100183" lon="12.7122283"><ele>289.0</ele><time>2026-04-18T12:17:47.887Z</time></trkpt><trkpt lat="43.809935" lon="12.712105"><ele>289.0</ele><time>2026-04-18T12:17:48.889Z</time></trkpt><trkpt lat="43.8098717" lon="12.7120167"><ele>289.0</ele><time>2026-04-18T12:17:49.889Z</time></trkpt><trkpt lat="43.8098083" lon="12.7119517"><ele>289.0</ele><time>2026-04-18T12:17:50.887Z</time></trkpt><trkpt lat="43.8097133" lon="12.71188"><ele>289.0</ele><time>2026-04-18T12:17:52.889Z</time></trkpt><trkpt lat="43.80964" lon="12.7118417"><ele>289.0</ele><time>2026-04-18T12:17:55.893Z</time></trkpt><trkpt lat="43.8095433" lon="12.711785"><ele>289.0</ele><time>2026-04-18T12:17:57.889Z</time></trkpt><trkpt lat="43.8094833" lon="12.7117583"><ele>289.0</ele><time>2026-04-18T12:17:58.886Z</time></trkpt><trkpt lat="43.8094133" lon="12.7117267"><ele>286.16666666666663</ele><time>2026-04-18T12:17:59.887Z</time></trkpt><trkpt lat="43.809335" lon="12.71169"><ele>283.3333333333333</ele><time>2026-04-18T12:18:00.887Z</time></trkpt><trkpt lat="43.809255" lon="12.7116533"><ele>280.5</ele><time>2026-04-18T12:18:01.89Z</time></trkpt><trkpt lat="43.809175" lon="12.7116167"><ele>277.6666666666667</ele><time>2026-04-18T12:18:02.887Z</time></trkpt><trkpt lat="43.8090967" lon="12.711585"><ele>274.83333333333337</ele><time>2026-04-18T12:18:03.887Z</time></trkpt><trkpt lat="43.8090233" lon="12.7115617"><ele>272.0</ele><time>2026-04-18T12:18:04.89Z</time></trkpt><trkpt lat="43.8089533" lon="12.7115517"><ele>272.0</ele><time>2026-04-18T12:18:05.889Z</time></trkpt><trkpt lat="43.8088783" lon="12.7115533"><ele>272.0</ele><time>2026-04-18T12:18:06.89Z</time></trkpt><trkpt lat="43.8088" lon="12.711575"><ele>272.0</ele><time>2026-04-18T12:18:07.886Z</time></trkpt><trkpt lat="43.80873" lon="12.7116267"><ele>272.0</ele><time>2026-04-18T12:18:08.888Z</time></trkpt><trkpt lat="43.80866" lon="12.7117117"><ele>272.0</ele><time>2026-04-18T12:18:09.889Z</time></trkpt><trkpt lat="43.8085817" lon="12.7118217"><ele>272.0</ele><time>2026-04-18T12:18:10.89Z</time></trkpt><trkpt lat="43.808505" lon="12.7119383"><ele>269.6</ele><time>2026-04-18T12:18:11.89Z</time></trkpt><trkpt lat="43.8084317" lon="12.7120517"><ele>267.2</ele><time>2026-04-18T12:18:12.89Z</time></trkpt><trkpt lat="43.80837" lon="12.7121717"><ele>264.8</ele><time>2026-04-18T12:18:13.889Z</time></trkpt><trkpt lat="43.808315" lon="12.712285"><ele>262.4</ele><time>2026-04-18T12:18:14.89Z</time></trkpt><trkpt lat="43.8082633" lon="12.7123833"><ele>260.0</ele><time>2026-04-18T12:18:15.889Z</time></trkpt><trkpt lat="43.8082167" lon="12.7124533"><ele>260.0</ele><time>2026-04-18T12:18:16.886Z</time></trkpt><trkpt lat="43.8081233" lon="12.7124983"><ele>260.0</ele><time>2026-04-18T12:18:18.887Z</time></trkpt><trkpt lat="43.8081083" lon="12.7123467"><ele>260.0</ele><time>2026-04-18T12:18:21.887Z</time></trkpt><trkpt lat="43.8081517" lon="12.7122417"><ele>260.0</ele><time>2026-04-18T12:18:22.887Z</time></trkpt><trkpt lat="43.808245" lon="12.712065"><ele>260.0</ele><time>2026-04-18T12:18:23.888Z</time></trkpt><trkpt lat="43.808315" lon="12.7119083"><ele>260.0</ele><time>2026-04-18T12:18:24.888Z</time></trkpt><trkpt lat="43.8083533" lon="12.7117817"><ele>260.0</ele><time>2026-04-18T12:18:25.888Z</time></trkpt><trkpt lat="43.8083683" lon="12.711665"><ele>260.0</ele><time>2026-04-18T12:18:26.889Z</time></trkpt><trkpt lat="43.8083567" lon="12.71156"><ele>260.0</ele><time>2026-04-18T12:18:27.886Z</time></trkpt><trkpt lat="43.8083033" lon="12.711475"><ele>258.25</ele><time>2026-04-18T12:18:28.89Z</time></trkpt><trkpt lat="43.8082367" lon="12.7114017"><ele>256.5</ele><time>2026-04-18T12:18:29.889Z</time></trkpt><trkpt lat="43.8081467" lon="12.7113333"><ele>254.75</ele><time>2026-04-18T12:18:30.889Z</time></trkpt><trkpt lat="43.80801" lon="12.7112933"><ele>253.0</ele><time>2026-04-18T12:18:31.892Z</time></trkpt><trkpt lat="43.8078583" lon="12.711255"><ele>253.0</ele><time>2026-04-18T12:18:32.885Z</time></trkpt><trkpt lat="43.807735" lon="12.711205"><ele>253.0</ele><time>2026-04-18T12:18:33.885Z</time></trkpt><trkpt lat="43.807615" lon="12.7111533"><ele>253.0</ele><time>2026-04-18T12:18:34.886Z</time></trkpt><trkpt lat="43.8074983" lon="12.7110983"><ele>253.0</ele><time>2026-04-18T12:18:35.886Z</time></trkpt><trkpt lat="43.8073867" lon="12.7110333"><ele>248.75</ele><time>2026-04-18T12:18:36.886Z</time></trkpt><trkpt lat="43.80728" lon="12.7109567"><ele>244.5</ele><time>2026-04-18T12:18:37.887Z</time></trkpt><trkpt lat="43.8071817" lon="12.7108567"><ele>240.25</ele><time>2026-04-18T12:18:38.886Z</time></trkpt><trkpt lat="43.8071017" lon="12.7107417"><ele>236.0</ele><time>2026-04-18T12:18:39.887Z</time></trkpt><trkpt lat="43.807035" lon="12.7106233"><ele>236.0</ele><time>2026-04-18T12:18:40.885Z</time></trkpt><trkpt lat="43.806965" lon="12.710515"><ele>236.00000000000003</ele><time>2026-04-18T12:18:41.887Z</time></trkpt><trkpt lat="43.806905" lon="12.710425"><ele>236.00000000000003</ele><time>2026-04-18T12:18:42.886Z</time></trkpt><trkpt lat="43.8068317" lon="12.7103567"><ele>236.0</ele><time>2026-04-18T12:18:43.886Z</time></trkpt><trkpt lat="43.806745" lon="12.7102967"><ele>236.0</ele><time>2026-04-18T12:18:44.885Z</time></trkpt><trkpt lat="43.8066633" lon="12.710235"><ele>234.8</ele><time>2026-04-18T12:18:45.886Z</time></trkpt><trkpt lat="43.8065767" lon="12.710165"><ele>233.60000000000002</ele><time>2026-04-18T12:18:46.886Z</time></trkpt><trkpt lat="43.806485" lon="12.7100967"><ele>232.4</ele><time>2026-04-18T12:18:47.885Z</time></trkpt><trkpt lat="43.80639" lon="12.71003"><ele>231.2</ele><time>2026-04-18T12:18:48.885Z</time></trkpt><trkpt lat="43.806295" lon="12.7099583"><ele>230.0</ele><time>2026-04-18T12:18:49.887Z</time></trkpt><trkpt lat="43.806195" lon="12.7098817"><ele>230.0</ele><time>2026-04-18T12:18:50.886Z</time></trkpt><trkpt lat="43.8060967" lon="12.709805"><ele>230.0</ele><time>2026-04-18T12:18:51.887Z</time></trkpt><trkpt lat="43.8059983" lon="12.7097333"><ele>230.0</ele><time>2026-04-18T12:18:52.887Z</time></trkpt><trkpt lat="43.8058967" lon="12.7096667"><ele>230.0</ele><time>2026-04-18T12:18:53.886Z</time></trkpt><trkpt lat="43.8057867" lon="12.7096133"><ele>227.83333333333334</ele><time>2026-04-18T12:18:54.886Z</time></trkpt><trkpt lat="43.8057" lon="12.7095867"><ele>225.66666666666669</ele><time>2026-04-18T12:18:55.887Z</time></trkpt><trkpt lat="43.8056217" lon="12.7095683"><ele>223.5</ele><time>2026-04-18T12:18:56.886Z</time></trkpt><trkpt lat="43.8055467" lon="12.70956"><ele>221.33333333333331</ele><time>2026-04-18T12:18:57.89Z</time></trkpt><trkpt lat="43.8054467" lon="12.7096083"><ele>219.16666666666666</ele><time>2026-04-18T12:18:59.892Z</time></trkpt><trkpt lat="43.8054317" lon="12.7097317"><ele>217.0</ele><time>2026-04-18T12:19:01.889Z</time></trkpt><trkpt lat="43.8054583" lon="12.7098133"><ele>217.0</ele><time>2026-04-18T12:19:02.887Z</time></trkpt><trkpt lat="43.8054867" lon="12.71"><ele>217.0</ele><time>2026-04-18T12:19:04.888Z</time></trkpt><trkpt lat="43.8055283" lon="12.71013"><ele>217.0</ele><time>2026-04-18T12:19:05.888Z</time></trkpt><trkpt lat="43.8056483" lon="12.71032"><ele>217.0</ele><time>2026-04-18T12:19:06.887Z</time></trkpt><trkpt lat="43.805735" lon="12.7105067"><ele>211.33333333333331</ele><time>2026-04-18T12:19:07.888Z</time></trkpt><trkpt lat="43.8058517" lon="12.7107167"><ele>205.66666666666669</ele><time>2026-04-18T12:19:08.887Z</time></trkpt><trkpt lat="43.8058967" lon="12.7108967"><ele>200.0</ele><time>2026-04-18T12:19:09.888Z</time></trkpt><trkpt lat="43.805925" lon="12.71108"><ele>199.0</ele><time>2026-04-18T12:19:10.888Z</time></trkpt><trkpt lat="43.8059083" lon="12.71126"><ele>198.0</ele><time>2026-04-18T12:19:11.888Z</time></trkpt><trkpt lat="43.8058633" lon="12.7114467"><ele>197.0</ele><time>2026-04-18T12:19:12.888Z</time></trkpt><trkpt lat="43.805805" lon="12.71164"><ele>196.0</ele><time>2026-04-18T12:19:13.889Z</time></trkpt><trkpt lat="43.8057467" lon="12.71183"><ele>197.5</ele><time>2026-04-18T12:19:14.887Z</time></trkpt><trkpt lat="43.8056883" lon="12.7120083"><ele>199.0</ele><time>2026-04-18T12:19:15.888Z</time></trkpt><trkpt lat="43.805615" lon="12.7121617"><ele>200.5</ele><time>2026-04-18T12:19:16.888Z</time></trkpt><trkpt lat="43.80553" lon="12.7122867"><ele>202.0</ele><time>2026-04-18T12:19:17.887Z</time></trkpt><trkpt lat="43.8054217" lon="12.7123767"><ele>202.0</ele><time>2026-04-18T12:19:18.889Z</time></trkpt><trkpt lat="43.8053133" lon="12.7124317"><ele>202.0</ele><time>2026-04-18T12:19:19.889Z</time></trkpt><trkpt lat="43.8051883" lon="12.71245"><ele>202.0</ele><time>2026-04-18T12:19:20.888Z</time></trkpt><trkpt lat="43.8050633" lon="12.71246"><ele>202.0</ele><time>2026-04-18T12:19:21.889Z</time></trkpt><trkpt lat="43.80495" lon="12.7124733"><ele>198.99999999999997</ele><time>2026-04-18T12:19:22.888Z</time></trkpt><trkpt lat="43.8048433" lon="12.7125017"><ele>196.0</ele><time>2026-04-18T12:19:23.887Z</time></trkpt><trkpt lat="43.8047633" lon="12.7125467"><ele>193.0</ele><time>2026-04-18T12:19:24.89Z</time></trkpt><trkpt lat="43.8047" lon="12.712615"><ele>190.0</ele><time>2026-04-18T12:19:25.888Z</time></trkpt><trkpt lat="43.804665" lon="12.712715"><ele>187.0</ele><time>2026-04-18T12:19:26.887Z</time></trkpt><trkpt lat="43.8046583" lon="12.71284"><ele>184.0</ele><time>2026-04-18T12:19:27.887Z</time></trkpt><trkpt lat="43.804675" lon="12.7129867"><ele>183.2</ele><time>2026-04-18T12:19:28.889Z</time></trkpt><trkpt lat="43.8046833" lon="12.7131333"><ele>182.39999999999998</ele><time>2026-04-18T12:19:29.887Z</time></trkpt><trkpt lat="43.8047017" lon="12.7132783"><ele>181.6</ele><time>2026-04-18T12:19:30.888Z</time></trkpt><trkpt lat="43.8047433" lon="12.71342"><ele>180.8</ele><time>2026-04-18T12:19:31.889Z</time></trkpt><trkpt lat="43.8048167" lon="12.7135417"><ele>180.0</ele><time>2026-04-18T12:19:32.887Z</time></trkpt><trkpt lat="43.8049217" lon="12.71366"><ele>182.33333333333334</ele><time>2026-04-18T12:19:33.888Z</time></trkpt><trkpt lat="43.8050467" lon="12.713765"><ele>184.66666666666669</ele><time>2026-04-18T12:19:34.889Z</time></trkpt><trkpt lat="43.8051783" lon="12.71389"><ele>187.0</ele><time>2026-04-18T12:19:35.888Z</time></trkpt><trkpt lat="43.8052933" lon="12.7140183"><ele>187.0</ele><time>2026-04-18T12:19:36.889Z</time></trkpt><trkpt lat="43.8053967" lon="12.71414"><ele>187.0</ele><time>2026-04-18T12:19:37.887Z</time></trkpt><trkpt lat="43.805485" lon="12.7142483"><ele>187.0</ele><time>2026-04-18T12:19:38.885Z</time></trkpt><trkpt lat="43.80556" lon="12.714355"><ele>187.0</ele><time>2026-04-18T12:19:39.887Z</time></trkpt><trkpt lat="43.8056233" lon="12.7144867"><ele>185.2</ele><time>2026-04-18T12:19:40.886Z</time></trkpt><trkpt lat="43.805675" lon="12.7146317"><ele>183.39999999999998</ele><time>2026-04-18T12:19:41.891Z</time></trkpt><trkpt lat="43.8057117" lon="12.7147717"><ele>181.60000000000002</ele><time>2026-04-18T12:19:42.887Z</time></trkpt><trkpt lat="43.80574" lon="12.7148933"><ele>179.8</ele><time>2026-04-18T12:19:43.887Z</time></trkpt><trkpt lat="43.80576" lon="12.715"><ele>178.0</ele><time>2026-04-18T12:19:44.885Z</time></trkpt><trkpt lat="43.805725" lon="12.715145"><ele>178.0</ele><time>2026-04-18T12:19:46.887Z</time></trkpt><trkpt lat="43.8056617" lon="12.71519"><ele>178.0</ele><time>2026-04-18T12:19:48.886Z</time></trkpt><trkpt lat="43.80551" lon="12.7151467"><ele>178.0</ele><time>2026-04-18T12:19:49.886Z</time></trkpt><trkpt lat="43.8053533" lon="12.7151267"><ele>178.0</ele><time>2026-04-18T12:19:50.886Z</time></trkpt><trkpt lat="43.8052117" lon="12.715155"><ele>175.66666666666669</ele><time>2026-04-18T12:19:51.886Z</time></trkpt><trkpt lat="43.80505" lon="12.715195"><ele>173.33333333333334</ele><time>2026-04-18T12:19:52.885Z</time></trkpt><trkpt lat="43.8048783" lon="12.7152683"><ele>171.0</ele><time>2026-04-18T12:19:53.889Z</time></trkpt><trkpt lat="43.8047267" lon="12.7153633"><ele>171.0</ele><time>2026-04-18T12:19:54.89Z</time></trkpt><trkpt lat="43.8045917" lon="12.7154733"><ele>171.0</ele><time>2026-04-18T12:19:55.887Z</time></trkpt><trkpt lat="43.8044817" lon="12.71559"><ele>171.0</ele><time>2026-04-18T12:19:56.888Z</time></trkpt><trkpt lat="43.8043833" lon="12.7157133"><ele>171.0</ele><time>2026-04-18T12:19:57.887Z</time></trkpt><trkpt lat="43.8042917" lon="12.7158483"><ele>170.25</ele><time>2026-04-18T12:19:58.886Z</time></trkpt><trkpt lat="43.8042017" lon="12.7159833"><ele>169.5</ele><time>2026-04-18T12:19:59.89Z</time></trkpt><trkpt lat="43.8041083" lon="12.71612"><ele>168.75</ele><time>2026-04-18T12:20:00.888Z</time></trkpt><trkpt lat="43.8040167" lon="12.7162533"><ele>168.0</ele><time>2026-04-18T12:20:01.889Z</time></trkpt><trkpt lat="43.803935" lon="12.7163783"><ele>168.0</ele><time>2026-04-18T12:20:02.889Z</time></trkpt><trkpt lat="43.80386" lon="12.7164917"><ele>168.0</ele><time>2026-04-18T12:20:03.888Z</time></trkpt><trkpt lat="43.8038017" lon="12.7166083"><ele>168.0</ele><time>2026-04-18T12:20:04.888Z</time></trkpt><trkpt lat="43.8037667" lon="12.716735"><ele>168.0</ele><time>2026-04-18T12:20:05.887Z</time></trkpt><trkpt lat="43.8037467" lon="12.7168683"><ele>168.0</ele><time>2026-04-18T12:20:06.888Z</time></trkpt><trkpt lat="43.8037383" lon="12.7170217"><ele>168.8</ele><time>2026-04-18T12:20:07.889Z</time></trkpt><trkpt lat="43.803725" lon="12.7171817"><ele>169.60000000000002</ele><time>2026-04-18T12:20:08.89Z</time></trkpt><trkpt lat="43.8036967" lon="12.7173383"><ele>170.39999999999998</ele><time>2026-04-18T12:20:09.89Z</time></trkpt><trkpt lat="43.8036667" lon="12.7174867"><ele>171.2</ele><time>2026-04-18T12:20:10.886Z</time></trkpt><trkpt lat="43.8036167" lon="12.7176117"><ele>172.0</ele><time>2026-04-18T12:20:11.886Z</time></trkpt><trkpt lat="43.8035567" lon="12.7177183"><ele>167.6</ele><time>2026-04-18T12:20:12.886Z</time></trkpt><trkpt lat="43.803485" lon="12.71782"><ele>163.2</ele><time>2026-04-18T12:20:13.889Z</time></trkpt><trkpt lat="43.803415" lon="12.7179233"><ele>158.8</ele><time>2026-04-18T12:20:14.886Z</time></trkpt><trkpt lat="43.803345" lon="12.71804"><ele>154.4</ele><time>2026-04-18T12:20:15.888Z</time></trkpt><trkpt lat="43.8032883" lon="12.7181833"><ele>150.0</ele><time>2026-04-18T12:20:16.889Z</time></trkpt><trkpt lat="43.8032417" lon="12.71834"><ele>150.0</ele><time>2026-04-18T12:20:17.888Z</time></trkpt><trkpt lat="43.8032" lon="12.7185183"><ele>150.0</ele><time>2026-04-18T12:20:18.889Z</time></trkpt><trkpt lat="43.8031533" lon="12.7187033"><ele>150.0</ele><time>2026-04-18T12:20:19.888Z</time></trkpt><trkpt lat="43.8031" lon="12.7188817"><ele>150.0</ele><time>2026-04-18T12:20:20.89Z</time></trkpt><trkpt lat="43.8030433" lon="12.7190533"><ele>150.5</ele><time>2026-04-18T12:20:21.887Z</time></trkpt><trkpt lat="43.8029817" lon="12.719215"><ele>151.0</ele><time>2026-04-18T12:20:22.888Z</time></trkpt><trkpt lat="43.8029133" lon="12.7193617"><ele>151.5</ele><time>2026-04-18T12:20:23.887Z</time></trkpt><trkpt lat="43.802845" lon="12.7195067"><ele>152.0</ele><time>2026-04-18T12:20:24.888Z</time></trkpt><trkpt lat="43.8027833" lon="12.719655"><ele>149.25</ele><time>2026-04-18T12:20:25.89Z</time></trkpt><trkpt lat="43.8027267" lon="12.71981"><ele>146.5</ele><time>2026-04-18T12:20:26.89Z</time></trkpt><trkpt lat="43.8026783" lon="12.7199733"><ele>143.75</ele><time>2026-04-18T12:20:27.888Z</time></trkpt><trkpt lat="43.8026333" lon="12.7201383"><ele>141.0</ele><time>2026-04-18T12:20:28.887Z</time></trkpt><trkpt lat="43.8026" lon="12.7202933"><ele>136.0</ele><time>2026-04-18T12:20:29.889Z</time></trkpt><trkpt lat="43.8025783" lon="12.7204517"><ele>131.0</ele><time>2026-04-18T12:20:30.887Z</time></trkpt><trkpt lat="43.80258" lon="12.7206083"><ele>126.0</ele><time>2026-04-18T12:20:31.889Z</time></trkpt><trkpt lat="43.80261" lon="12.7207567"><ele>121.0</ele><time>2026-04-18T12:20:32.888Z</time></trkpt><trkpt lat="43.80267" lon="12.7208967"><ele>121.0</ele><time>2026-04-18T12:20:33.887Z</time></trkpt><trkpt lat="43.80275" lon="12.721015"><ele>121.0</ele><time>2026-04-18T12:20:34.894Z</time></trkpt><trkpt lat="43.80285" lon="12.7211067"><ele>121.0</ele><time>2026-04-18T12:20:35.889Z</time></trkpt><trkpt lat="43.8029583" lon="12.7211833"><ele>121.0</ele><time>2026-04-18T12:20:36.889Z</time></trkpt><trkpt lat="43.8030683" lon="12.7212583"><ele>118.19999999999999</ele><time>2026-04-18T12:20:37.886Z</time></trkpt><trkpt lat="43.8031633" lon="12.7213367"><ele>115.39999999999999</ele><time>2026-04-18T12:20:38.888Z</time></trkpt><trkpt lat="43.80323" lon="12.72141"><ele>112.6</ele><time>2026-04-18T12:20:39.888Z</time></trkpt><trkpt lat="43.8032817" lon="12.7214983"><ele>109.8</ele><time>2026-04-18T12:20:40.887Z</time></trkpt><trkpt lat="43.80329" lon="12.721655"><ele>107.0</ele><time>2026-04-18T12:20:42.889Z</time></trkpt><trkpt lat="43.803255" lon="12.72175"><ele>107.0</ele><time>2026-04-18T12:20:43.889Z</time></trkpt><trkpt lat="43.8032017" lon="12.7218667"><ele>106.99999999999999</ele><time>2026-04-18T12:20:44.886Z</time></trkpt><trkpt lat="43.80315" lon="12.7219817"><ele>106.99999999999999</ele><time>2026-04-18T12:20:45.889Z</time></trkpt><trkpt lat="43.8030917" lon="12.7220933"><ele>107.0</ele><time>2026-04-18T12:20:46.89Z</time></trkpt><trkpt lat="43.803015" lon="12.7221817"><ele>107.0</ele><time>2026-04-18T12:20:47.887Z</time></trkpt><trkpt lat="43.8029383" lon="12.72224"><ele>105.99999999999999</ele><time>2026-04-18T12:20:48.889Z</time></trkpt><trkpt lat="43.8028633" lon="12.7222717"><ele>105.0</ele><time>2026-04-18T12:20:49.886Z</time></trkpt><trkpt lat="43.80279" lon="12.7222717"><ele>104.0</ele><time>2026-04-18T12:20:50.887Z</time></trkpt><trkpt lat="43.8027133" lon="12.7222483"><ele>103.0</ele><time>2026-04-18T12:20:51.889Z</time></trkpt><trkpt lat="43.8026383" lon="12.722215"><ele>101.99999999999999</ele><time>2026-04-18T12:20:52.888Z</time></trkpt><trkpt lat="43.8025633" lon="12.722185"><ele>101.0</ele><time>2026-04-18T12:20:53.885Z</time></trkpt><trkpt lat="43.802495" lon="12.7221617"><ele>99.16666666666666</ele><time>2026-04-18T12:20:54.889Z</time></trkpt><trkpt lat="43.8024283" lon="12.7221417"><ele>97.33333333333333</ele><time>2026-04-18T12:20:55.891Z</time></trkpt><trkpt lat="43.80235" lon="12.7221283"><ele>95.5</ele><time>2026-04-18T12:20:56.889Z</time></trkpt><trkpt lat="43.8022617" lon="12.7221233"><ele>93.66666666666666</ele><time>2026-04-18T12:20:57.888Z</time></trkpt><trkpt lat="43.8021583" lon="12.722125"><ele>91.83333333333333</ele><time>2026-04-18T12:20:58.888Z</time></trkpt><trkpt lat="43.80205" lon="12.7221417"><ele>90.0</ele><time>2026-04-18T12:20:59.889Z</time></trkpt><trkpt lat="43.80194" lon="12.7221717"><ele>90.25</ele><time>2026-04-18T12:21:00.887Z</time></trkpt><trkpt lat="43.8018267" lon="12.7222067"><ele>90.5</ele><time>2026-04-18T12:21:01.889Z</time></trkpt><trkpt lat="43.8017117" lon="12.722245"><ele>90.75</ele><time>2026-04-18T12:21:02.888Z</time></trkpt><trkpt lat="43.8015967" lon="12.7222833"><ele>91.0</ele><time>2026-04-18T12:21:03.889Z</time></trkpt><trkpt lat="43.8014817" lon="12.72232"><ele>91.0</ele><time>2026-04-18T12:21:04.888Z</time></trkpt><trkpt lat="43.801365" lon="12.7223567"><ele>91.0</ele><time>2026-04-18T12:21:05.888Z</time></trkpt><trkpt lat="43.8012467" lon="12.7223933"><ele>91.0</ele><time>2026-04-18T12:21:06.889Z</time></trkpt><trkpt lat="43.8011317" lon="12.7224267"><ele>91.0</ele><time>2026-04-18T12:21:07.889Z</time></trkpt><trkpt lat="43.8010217" lon="12.7224517"><ele>92.33333333333333</ele><time>2026-04-18T12:21:08.888Z</time></trkpt><trkpt lat="43.8009267" lon="12.722475"><ele>93.66666666666666</ele><time>2026-04-18T12:21:09.887Z</time></trkpt><trkpt lat="43.800845" lon="12.7224967"><ele>95.0</ele><time>2026-04-18T12:21:10.888Z</time></trkpt><trkpt lat="43.80077" lon="12.7225117"><ele>96.33333333333333</ele><time>2026-04-18T12:21:11.89Z</time></trkpt><trkpt lat="43.8007" lon="12.72251"><ele>97.66666666666667</ele><time>2026-04-18T12:21:12.889Z</time></trkpt><trkpt lat="43.80061" lon="12.722425"><ele>99.0</ele><time>2026-04-18T12:21:14.891Z</time></trkpt><trkpt lat="43.8005883" lon="12.7222633"><ele>99.0</ele><time>2026-04-18T12:21:16.89Z</time></trkpt><trkpt lat="43.8005917" lon="12.7221567"><ele>99.0</ele><time>2026-04-18T12:21:17.889Z</time></trkpt><trkpt lat="43.8006083" lon="12.722025"><ele>99.0</ele><time>2026-04-18T12:21:18.89Z</time></trkpt><trkpt lat="43.80062" lon="12.7219"><ele>99.0</ele><time>2026-04-18T12:21:19.889Z</time></trkpt><trkpt lat="43.8006317" lon="12.7217683"><ele>99.0</ele><time>2026-04-18T12:21:20.888Z</time></trkpt><trkpt lat="43.800645" lon="12.721625"><ele>100.0</ele><time>2026-04-18T12:21:21.888Z</time></trkpt><trkpt lat="43.8006567" lon="12.7214667"><ele>101.0</ele><time>2026-04-18T12:21:22.889Z</time></trkpt><trkpt lat="43.8006683" lon="12.7212967"><ele>102.0</ele><time>2026-04-18T12:21:23.889Z</time></trkpt><trkpt lat="43.8006833" lon="12.721125"><ele>103.0</ele><time>2026-04-18T12:21:24.89Z</time></trkpt><trkpt lat="43.8007" lon="12.7209567"><ele>104.2</ele><time>2026-04-18T12:21:25.89Z</time></trkpt><trkpt lat="43.8007167" lon="12.7208"><ele>105.4</ele><time>2026-04-18T12:21:26.889Z</time></trkpt><trkpt lat="43.80073" lon="12.7206567"><ele>106.60000000000001</ele><time>2026-04-18T12:21:27.889Z</time></trkpt><trkpt lat="43.8007333" lon="12.720535"><ele>107.80000000000001</ele><time>2026-04-18T12:21:28.889Z</time></trkpt><trkpt lat="43.8007217" lon="12.7204233"><ele>109.0</ele><time>2026-04-18T12:21:29.889Z</time></trkpt><trkpt lat="43.8006883" lon="12.7203183"><ele>110.4</ele><time>2026-04-18T12:21:30.888Z</time></trkpt><trkpt lat="43.8006367" lon="12.72021"><ele>111.80000000000001</ele><time>2026-04-18T12:21:31.889Z</time></trkpt><trkpt lat="43.800575" lon="12.7200967"><ele>113.19999999999999</ele><time>2026-04-18T12:21:32.885Z</time></trkpt><trkpt lat="43.8005083" lon="12.7199783"><ele>114.6</ele><time>2026-04-18T12:21:33.885Z</time></trkpt><trkpt lat="43.8004433" lon="12.719865"><ele>116.0</ele><time>2026-04-18T12:21:34.887Z</time></trkpt><trkpt lat="43.800385" lon="12.7197517"><ele>116.0</ele><time>2026-04-18T12:21:35.885Z</time></trkpt><trkpt lat="43.8003417" lon="12.71963"><ele>116.0</ele><time>2026-04-18T12:21:36.89Z</time></trkpt><trkpt lat="43.8003117" lon="12.7195033"><ele>116.0</ele><time>2026-04-18T12:21:37.887Z</time></trkpt><trkpt lat="43.800295" lon="12.7193617"><ele>116.0</ele><time>2026-04-18T12:21:38.886Z</time></trkpt><trkpt lat="43.8002883" lon="12.7192167"><ele>116.0</ele><time>2026-04-18T12:21:39.89Z</time></trkpt><trkpt lat="43.80029" lon="12.7190717"><ele>117.25</ele><time>2026-04-18T12:21:40.887Z</time></trkpt><trkpt lat="43.8003" lon="12.7189083"><ele>118.5</ele><time>2026-04-18T12:21:41.891Z</time></trkpt><trkpt lat="43.80031" lon="12.7187283"><ele>119.75</ele><time>2026-04-18T12:21:42.889Z</time></trkpt><trkpt lat="43.8003267" lon="12.71853"><ele>121.0</ele><time>2026-04-18T12:21:43.889Z</time></trkpt><trkpt lat="43.8003517" lon="12.718315"><ele>123.0</ele><time>2026-04-18T12:21:44.889Z</time></trkpt><trkpt lat="43.8003767" lon="12.718095"><ele>125.0</ele><time>2026-04-18T12:21:45.886Z</time></trkpt><trkpt lat="43.800405" lon="12.7178883"><ele>127.0</ele><time>2026-04-18T12:21:46.887Z</time></trkpt><trkpt lat="43.8004317" lon="12.7176917"><ele>129.5</ele><time>2026-04-18T12:21:47.888Z</time></trkpt><trkpt lat="43.80046" lon="12.7175017"><ele>132.0</ele><time>2026-04-18T12:21:48.887Z</time></trkpt><trkpt lat="43.8004967" lon="12.717315"><ele>134.5</ele><time>2026-04-18T12:21:49.89Z</time></trkpt><trkpt lat="43.8005367" lon="12.7171267"><ele>137.0</ele><time>2026-04-18T12:21:50.886Z</time></trkpt><trkpt lat="43.8005767" lon="12.71693"><ele>138.75</ele><time>2026-04-18T12:21:51.888Z</time></trkpt><trkpt lat="43.8006117" lon="12.71672"><ele>140.5</ele><time>2026-04-18T12:21:52.889Z</time></trkpt><trkpt lat="43.8006367" lon="12.716515"><ele>142.25</ele><time>2026-04-18T12:21:53.887Z</time></trkpt><trkpt lat="43.8006567" lon="12.7163233"><ele>144.0</ele><time>2026-04-18T12:21:54.888Z</time></trkpt><trkpt lat="43.8006733" lon="12.7161433"><ele>144.4</ele><time>2026-04-18T12:21:55.887Z</time></trkpt><trkpt lat="43.800695" lon="12.7159817"><ele>144.8</ele><time>2026-04-18T12:21:56.887Z</time></trkpt><trkpt lat="43.8007267" lon="12.71584"><ele>145.2</ele><time>2026-04-18T12:21:57.887Z</time></trkpt><trkpt lat="43.8007617" lon="12.7157133"><ele>145.6</ele><time>2026-04-18T12:21:58.89Z</time></trkpt><trkpt lat="43.80078" lon="12.7156033"><ele>146.0</ele><time>2026-04-18T12:21:59.887Z</time></trkpt><trkpt lat="43.8007883" lon="12.7155033"><ele>146.0</ele><time>2026-04-18T12:22:00.887Z</time></trkpt><trkpt lat="43.80079" lon="12.7154133"><ele>146.0</ele><time>2026-04-18T12:22:01.887Z</time></trkpt><trkpt lat="43.800795" lon="12.715325"><ele>146.0</ele><time>2026-04-18T12:22:02.887Z</time></trkpt><trkpt lat="43.800795" lon="12.7152333"><ele>146.0</ele><time>2026-04-18T12:22:03.888Z</time></trkpt><trkpt lat="43.8008083" lon="12.71514"><ele>146.0</ele><time>2026-04-18T12:22:04.891Z</time></trkpt><trkpt lat="43.8008133" lon="12.7150367"><ele>146.0</ele><time>2026-04-18T12:22:05.89Z</time></trkpt><trkpt lat="43.8008133" lon="12.71494"><ele>146.0</ele><time>2026-04-18T12:22:06.89Z</time></trkpt><trkpt lat="43.8007817" lon="12.7147867"><ele>145.33333333333331</ele><time>2026-04-18T12:22:08.89Z</time></trkpt><trkpt lat="43.8007367" lon="12.7147217"><ele>144.66666666666666</ele><time>2026-04-18T12:22:09.89Z</time></trkpt><trkpt lat="43.8006533" lon="12.7146717"><ele>144.0</ele><time>2026-04-18T12:22:10.891Z</time></trkpt><trkpt lat="43.8005617" lon="12.71462"><ele>143.33333333333334</ele><time>2026-04-18T12:22:11.89Z</time></trkpt><trkpt lat="43.8004867" lon="12.714555"><ele>142.66666666666669</ele><time>2026-04-18T12:22:12.889Z</time></trkpt><trkpt lat="43.8004117" lon="12.7144667"><ele>142.0</ele><time>2026-04-18T12:22:13.89Z</time></trkpt><trkpt lat="43.80035" lon="12.71434"><ele>140.0</ele><time>2026-04-18T12:22:14.89Z</time></trkpt><trkpt lat="43.8003333" lon="12.71416"><ele>138.0</ele><time>2026-04-18T12:22:15.885Z</time></trkpt><trkpt lat="43.8003317" lon="12.7139983"><ele>136.0</ele><time>2026-04-18T12:22:16.889Z</time></trkpt><trkpt lat="43.8003467" lon="12.7138383"><ele>134.0</ele><time>2026-04-18T12:22:17.885Z</time></trkpt><trkpt lat="43.8003817" lon="12.7136733"><ele>136.0</ele><time>2026-04-18T12:22:18.888Z</time></trkpt><trkpt lat="43.800415" lon="12.7135167"><ele>138.0</ele><time>2026-04-18T12:22:19.89Z</time></trkpt><trkpt lat="43.8004517" lon="12.7133667"><ele>140.0</ele><time>2026-04-18T12:22:20.886Z</time></trkpt><trkpt lat="43.800505" lon="12.7132333"><ele>142.0</ele><time>2026-04-18T12:22:21.889Z</time></trkpt><trkpt lat="43.8005583" lon="12.7131233"><ele>144.0</ele><time>2026-04-18T12:22:22.891Z</time></trkpt><trkpt lat="43.80061" lon="12.71303"><ele>144.0</ele><time>2026-04-18T12:22:23.888Z</time></trkpt><trkpt lat="43.8006467" lon="12.7129383"><ele>144.0</ele><time>2026-04-18T12:22:24.888Z</time></trkpt><trkpt lat="43.800675" lon="12.7128433"><ele>144.0</ele><time>2026-04-18T12:22:25.889Z</time></trkpt><trkpt lat="43.8007033" lon="12.7127483"><ele>144.0</ele><time>2026-04-18T12:22:26.887Z</time></trkpt><trkpt lat="43.8007333" lon="12.71266"><ele>144.0</ele><time>2026-04-18T12:22:27.89Z</time></trkpt><trkpt lat="43.80077" lon="12.71252"><ele>144.0</ele><time>2026-04-18T12:22:29.889Z</time></trkpt><trkpt lat="43.800715" lon="12.7124267"><ele>147.6</ele><time>2026-04-18T12:22:32.89Z</time></trkpt><trkpt lat="43.8006117" lon="12.7124517"><ele>151.2</ele><time>2026-04-18T12:22:34.89Z</time></trkpt><trkpt lat="43.8005067" lon="12.712495"><ele>154.79999999999998</ele><time>2026-04-18T12:22:36.89Z</time></trkpt><trkpt lat="43.8004017" lon="12.7125117"><ele>158.4</ele><time>2026-04-18T12:22:38.889Z</time></trkpt><trkpt lat="43.8003383" lon="12.7124617"><ele>162.0</ele><time>2026-04-18T12:22:41.887Z</time></trkpt><trkpt lat="43.8003117" lon="12.7123517"><ele>162.0</ele><time>2026-04-18T12:22:43.89Z</time></trkpt><trkpt lat="43.8002967" lon="12.7122317"><ele>162.0</ele><time>2026-04-18T12:22:44.889Z</time></trkpt><trkpt lat="43.800275" lon="12.7121083"><ele>162.0</ele><time>2026-04-18T12:22:45.89Z</time></trkpt><trkpt lat="43.8002667" lon="12.7119817"><ele>162.0</ele><time>2026-04-18T12:22:46.887Z</time></trkpt><trkpt lat="43.8002667" lon="12.7118633"><ele>162.0</ele><time>2026-04-18T12:22:47.887Z</time></trkpt><trkpt lat="43.8002667" lon="12.71177"><ele>162.0</ele><time>2026-04-18T12:22:48.887Z</time></trkpt><trkpt lat="43.8002667" lon="12.7116083"><ele>161.8</ele><time>2026-04-18T12:22:50.886Z</time></trkpt><trkpt lat="43.8002683" lon="12.7114683"><ele>161.6</ele><time>2026-04-18T12:22:52.888Z</time></trkpt><trkpt lat="43.8002867" lon="12.7113417"><ele>161.4</ele><time>2026-04-18T12:22:54.886Z</time></trkpt><trkpt lat="43.80033" lon="12.7112"><ele>161.20000000000002</ele><time>2026-04-18T12:22:56.889Z</time></trkpt><trkpt lat="43.8003783" lon="12.7110717"><ele>161.0</ele><time>2026-04-18T12:22:58.889Z</time></trkpt><trkpt lat="43.8004117" lon="12.7109567"><ele>161.0</ele><time>2026-04-18T12:23:00.889Z</time></trkpt><trkpt lat="43.8003683" lon="12.7110383"><ele>161.0</ele><time>2026-04-18T12:23:07.889Z</time></trkpt><trkpt lat="43.8003267" lon="12.7111817"><ele>161.0</ele><time>2026-04-18T12:23:09.888Z</time></trkpt><trkpt lat="43.8003033" lon="12.7112733"><ele>161.0</ele><time>2026-04-18T12:23:10.887Z</time></trkpt><trkpt lat="43.8002783" lon="12.71138"><ele>161.0</ele><time>2026-04-18T12:23:11.889Z</time></trkpt><trkpt lat="43.8002683" lon="12.711505"><ele>161.0</ele><time>2026-04-18T12:23:12.888Z</time></trkpt><trkpt lat="43.8002667" lon="12.7116417"><ele>161.0</ele><time>2026-04-18T12:23:13.888Z</time></trkpt><trkpt lat="43.80027" lon="12.7117717"><ele>161.0</ele><time>2026-04-18T12:23:14.888Z</time></trkpt><trkpt lat="43.8002767" lon="12.7118967"><ele>161.0</ele><time>2026-04-18T12:23:15.889Z</time></trkpt><trkpt lat="43.8002867" lon="12.7120083"><ele>161.0</ele><time>2026-04-18T12:23:16.886Z</time></trkpt><trkpt lat="43.8003067" lon="12.712105"><ele>161.0</ele><time>2026-04-18T12:23:17.887Z</time></trkpt><trkpt lat="43.8003267" lon="12.71219"><ele>161.0</ele><time>2026-04-18T12:23:18.889Z</time></trkpt><trkpt lat="43.8003517" lon="12.7123433"><ele>161.20000000000002</ele><time>2026-04-18T12:23:20.889Z</time></trkpt><trkpt lat="43.8003667" lon="12.7124783"><ele>161.4</ele><time>2026-04-18T12:23:22.888Z</time></trkpt><trkpt lat="43.8003667" lon="12.712575"><ele>161.6</ele><time>2026-04-18T12:23:24.889Z</time></trkpt><trkpt lat="43.8003" lon="12.7126583"><ele>161.8</ele><time>2026-04-18T12:23:27.887Z</time></trkpt><trkpt lat="43.8002183" lon="12.712715"><ele>162.0</ele><time>2026-04-18T12:23:29.888Z</time></trkpt><trkpt lat="43.80012" lon="12.7128133"><ele>164.66666666666666</ele><time>2026-04-18T12:23:31.888Z</time></trkpt><trkpt lat="43.8000717" lon="12.71288"><ele>167.33333333333334</ele><time>2026-04-18T12:23:32.888Z</time></trkpt><trkpt lat="43.8000267" lon="12.7129517"><ele>170.0</ele><time>2026-04-18T12:23:33.887Z</time></trkpt><trkpt lat="43.799985" lon="12.7130283"><ele>172.66666666666669</ele><time>2026-04-18T12:23:34.887Z</time></trkpt><trkpt lat="43.7999317" lon="12.7131767"><ele>175.33333333333334</ele><time>2026-04-18T12:23:36.89Z</time></trkpt><trkpt lat="43.7999233" lon="12.7133367"><ele>178.0</ele><time>2026-04-18T12:23:38.889Z</time></trkpt><trkpt lat="43.7999033" lon="12.7134967"><ele>175.66666666666669</ele><time>2026-04-18T12:23:40.887Z</time></trkpt><trkpt lat="43.7998317" lon="12.7136267"><ele>173.33333333333334</ele><time>2026-04-18T12:23:42.89Z</time></trkpt><trkpt lat="43.799775" lon="12.713695"><ele>171.0</ele><time>2026-04-18T12:23:43.89Z</time></trkpt><trkpt lat="43.79971" lon="12.7137567"><ele>168.66666666666666</ele><time>2026-04-18T12:23:44.887Z</time></trkpt><trkpt lat="43.79964" lon="12.7138167"><ele>166.33333333333331</ele><time>2026-04-18T12:23:45.889Z</time></trkpt><trkpt lat="43.7995683" lon="12.71387"><ele>164.0</ele><time>2026-04-18T12:23:46.887Z</time></trkpt><trkpt lat="43.7995067" lon="12.7139233"><ele>163.99999999999997</ele><time>2026-04-18T12:23:47.888Z</time></trkpt><trkpt lat="43.7994417" lon="12.713965"><ele>164.0</ele><time>2026-04-18T12:23:48.887Z</time></trkpt><trkpt lat="43.7993783" lon="12.7139983"><ele>164.0</ele><time>2026-04-18T12:23:49.888Z</time></trkpt><trkpt lat="43.7993067" lon="12.714025"><ele>164.0</ele><time>2026-04-18T12:23:50.887Z</time></trkpt><trkpt lat="43.7992383" lon="12.7140567"><ele>164.0</ele><time>2026-04-18T12:23:51.889Z</time></trkpt><trkpt lat="43.7991683" lon="12.7140883"><ele>163.99999999999997</ele><time>2026-04-18T12:23:52.887Z</time></trkpt><trkpt lat="43.799095" lon="12.714135"><ele>164.0</ele><time>2026-04-18T12:23:53.889Z</time></trkpt><trkpt lat="43.799025" lon="12.7141933"><ele>167.16666666666666</ele><time>2026-04-18T12:23:54.887Z</time></trkpt><trkpt lat="43.7989667" lon="12.7142517"><ele>170.33333333333331</ele><time>2026-04-18T12:23:55.888Z</time></trkpt><trkpt lat="43.7988867" lon="12.7143433"><ele>173.5</ele><time>2026-04-18T12:23:57.887Z</time></trkpt><trkpt lat="43.798805" lon="12.7143917"><ele>176.66666666666666</ele><time>2026-04-18T12:24:00.889Z</time></trkpt><trkpt lat="43.798705" lon="12.71442"><ele>179.83333333333334</ele><time>2026-04-18T12:24:02.885Z</time></trkpt><trkpt lat="43.7986417" lon="12.71443"><ele>183.0</ele><time>2026-04-18T12:24:03.886Z</time></trkpt><trkpt lat="43.798575" lon="12.71444"><ele>183.0</ele><time>2026-04-18T12:24:04.886Z</time></trkpt><trkpt lat="43.7985033" lon="12.714445"><ele>183.0</ele><time>2026-04-18T12:24:05.886Z</time></trkpt><trkpt lat="43.7984383" lon="12.714445"><ele>183.0</ele><time>2026-04-18T12:24:06.886Z</time></trkpt><trkpt lat="43.79834" lon="12.7144367"><ele>183.0</ele><time>2026-04-18T12:24:08.885Z</time></trkpt><trkpt lat="43.798245" lon="12.7144417"><ele>183.0</ele><time>2026-04-18T12:24:10.887Z</time></trkpt><trkpt lat="43.7981783" lon="12.7144467"><ele>183.0</ele><time>2026-04-18T12:24:11.888Z</time></trkpt><trkpt lat="43.798105" lon="12.7144533"><ele>188.33333333333334</ele><time>2026-04-18T12:24:12.888Z</time></trkpt><trkpt lat="43.7980233" lon="12.7144583"><ele>193.66666666666669</ele><time>2026-04-18T12:24:13.889Z</time></trkpt><trkpt lat="43.7979367" lon="12.7144467"><ele>199.0</ele><time>2026-04-18T12:24:14.888Z</time></trkpt><trkpt lat="43.7978433" lon="12.714435"><ele>204.33333333333334</ele><time>2026-04-18T12:24:15.886Z</time></trkpt><trkpt lat="43.7977633" lon="12.7144083"><ele>209.66666666666669</ele><time>2026-04-18T12:24:16.889Z</time></trkpt><trkpt lat="43.7976883" lon="12.71439"><ele>215.0</ele><time>2026-04-18T12:24:17.888Z</time></trkpt><trkpt lat="43.797585" lon="12.7143317"><ele>216.83333333333334</ele><time>2026-04-18T12:24:19.888Z</time></trkpt><trkpt lat="43.7975083" lon="12.7142333"><ele>218.66666666666669</ele><time>2026-04-18T12:24:21.886Z</time></trkpt><trkpt lat="43.7974583" lon="12.7141533"><ele>220.5</ele><time>2026-04-18T12:24:23.886Z</time></trkpt><trkpt lat="43.7975067" lon="12.7140817"><ele>222.33333333333331</ele><time>2026-04-18T12:24:27.888Z</time></trkpt><trkpt lat="43.7975983" lon="12.7141183"><ele>224.16666666666666</ele><time>2026-04-18T12:24:29.885Z</time></trkpt><trkpt lat="43.7976983" lon="12.71413"><ele>226.0</ele><time>2026-04-18T12:24:31.89Z</time></trkpt><trkpt lat="43.7977867" lon="12.7140667"><ele>226.0</ele><time>2026-04-18T12:24:33.886Z</time></trkpt><trkpt lat="43.7978283" lon="12.714"><ele>226.00000000000003</ele><time>2026-04-18T12:24:34.888Z</time></trkpt><trkpt lat="43.7978783" lon="12.71385"><ele>226.00000000000003</ele><time>2026-04-18T12:24:36.888Z</time></trkpt><trkpt lat="43.79789" lon="12.713685"><ele>226.0</ele><time>2026-04-18T12:24:38.889Z</time></trkpt><trkpt lat="43.7978683" lon="12.7135167"><ele>226.0</ele><time>2026-04-18T12:24:40.889Z</time></trkpt><trkpt lat="43.79787" lon="12.7134267"><ele>226.0</ele><time>2026-04-18T12:24:41.886Z</time></trkpt><trkpt lat="43.7978817" lon="12.7133283"><ele>226.0</ele><time>2026-04-18T12:24:42.887Z</time></trkpt><trkpt lat="43.7978933" lon="12.7132267"><ele>226.0</ele><time>2026-04-18T12:24:43.888Z</time></trkpt><trkpt lat="43.797895" lon="12.7131283"><ele>226.0</ele><time>2026-04-18T12:24:44.888Z</time></trkpt><trkpt lat="43.7978817" lon="12.71303"><ele>226.0</ele><time>2026-04-18T12:24:45.887Z</time></trkpt><trkpt lat="43.79786" lon="12.71293"><ele>226.0</ele><time>2026-04-18T12:24:46.888Z</time></trkpt><trkpt lat="43.797825" lon="12.71283"><ele>226.0</ele><time>2026-04-18T12:24:47.89Z</time></trkpt><trkpt lat="43.79778" lon="12.7127233"><ele>226.0</ele><time>2026-04-18T12:24:48.889Z</time></trkpt><trkpt lat="43.7977333" lon="12.71261"><ele>226.00000000000003</ele><time>2026-04-18T12:24:49.889Z</time></trkpt><trkpt lat="43.797685" lon="12.7124983"><ele>226.00000000000003</ele><time>2026-04-18T12:24:50.889Z</time></trkpt><trkpt lat="43.797635" lon="12.7123867"><ele>226.0</ele><time>2026-04-18T12:24:51.885Z</time></trkpt><trkpt lat="43.7975833" lon="12.7122833"><ele>226.0</ele><time>2026-04-18T12:24:52.888Z</time></trkpt><trkpt lat="43.7975317" lon="12.7121983"><ele>230.60000000000002</ele><time>2026-04-18T12:24:53.887Z</time></trkpt><trkpt lat="43.7974717" lon="12.7121267"><ele>235.20000000000002</ele><time>2026-04-18T12:24:54.889Z</time></trkpt><trkpt lat="43.7973883" lon="12.7120867"><ele>239.79999999999998</ele><time>2026-04-18T12:24:55.889Z</time></trkpt><trkpt lat="43.7972933" lon="12.7120617"><ele>244.39999999999998</ele><time>2026-04-18T12:24:56.888Z</time></trkpt><trkpt lat="43.797195" lon="12.71204"><ele>249.0</ele><time>2026-04-18T12:24:57.889Z</time></trkpt><trkpt lat="43.7970983" lon="12.71201"><ele>249.0</ele><time>2026-04-18T12:24:58.889Z</time></trkpt><trkpt lat="43.7969983" lon="12.7119783"><ele>248.99999999999997</ele><time>2026-04-18T12:24:59.887Z</time></trkpt><trkpt lat="43.7969" lon="12.7119433"><ele>248.99999999999997</ele><time>2026-04-18T12:25:00.888Z</time></trkpt><trkpt lat="43.7968067" lon="12.7119083"><ele>249.0</ele><time>2026-04-18T12:25:01.887Z</time></trkpt><trkpt lat="43.79671" lon="12.7118767"><ele>249.0</ele><time>2026-04-18T12:25:02.888Z</time></trkpt><trkpt lat="43.7966217" lon="12.711845"><ele>252.0</ele><time>2026-04-18T12:25:03.888Z</time></trkpt><trkpt lat="43.7965317" lon="12.7118133"><ele>254.99999999999997</ele><time>2026-04-18T12:25:04.889Z</time></trkpt><trkpt lat="43.7964517" lon="12.71178"><ele>258.0</ele><time>2026-04-18T12:25:05.889Z</time></trkpt><trkpt lat="43.7963517" lon="12.7117117"><ele>261.0</ele><time>2026-04-18T12:25:07.888Z</time></trkpt><trkpt lat="43.7963" lon="12.7116033"><ele>264.0</ele><time>2026-04-18T12:25:09.888Z</time></trkpt><trkpt lat="43.7963017" lon="12.7114467"><ele>264.0</ele><time>2026-04-18T12:25:11.886Z</time></trkpt><trkpt lat="43.7963133" lon="12.7113383"><ele>264.0</ele><time>2026-04-18T12:25:12.886Z</time></trkpt><trkpt lat="43.7963333" lon="12.7112233"><ele>264.0</ele><time>2026-04-18T12:25:13.887Z</time></trkpt><trkpt lat="43.7963417" lon="12.7111033"><ele>264.0</ele><time>2026-04-18T12:25:14.886Z</time></trkpt><trkpt lat="43.7963533" lon="12.7109783"><ele>264.0</ele><time>2026-04-18T12:25:15.886Z</time></trkpt><trkpt lat="43.7963517" lon="12.7108433"><ele>264.0</ele><time>2026-04-18T12:25:16.885Z</time></trkpt><trkpt lat="43.7963483" lon="12.7107267"><ele>266.8</ele><time>2026-04-18T12:25:17.886Z</time></trkpt><trkpt lat="43.79633" lon="12.7106117"><ele>269.59999999999997</ele><time>2026-04-18T12:25:18.886Z</time></trkpt><trkpt lat="43.7962983" lon="12.7104983"><ele>272.4</ele><time>2026-04-18T12:25:19.886Z</time></trkpt><trkpt lat="43.796255" lon="12.7103667"><ele>275.2</ele><time>2026-04-18T12:25:20.886Z</time></trkpt><trkpt lat="43.7962217" lon="12.7102433"><ele>278.0</ele><time>2026-04-18T12:25:21.887Z</time></trkpt><trkpt lat="43.7961933" lon="12.7101167"><ele>279.6</ele><time>2026-04-18T12:25:22.887Z</time></trkpt><trkpt lat="43.7961633" lon="12.7099817"><ele>281.20000000000005</ele><time>2026-04-18T12:25:23.887Z</time></trkpt><trkpt lat="43.7961333" lon="12.7098433"><ele>282.8</ele><time>2026-04-18T12:25:24.887Z</time></trkpt><trkpt lat="43.796105" lon="12.70971"><ele>284.40000000000003</ele><time>2026-04-18T12:25:25.886Z</time></trkpt><trkpt lat="43.79608" lon="12.7095733"><ele>286.0</ele><time>2026-04-18T12:25:26.886Z</time></trkpt><trkpt lat="43.7960667" lon="12.709445"><ele>286.40000000000003</ele><time>2026-04-18T12:25:27.887Z</time></trkpt><trkpt lat="43.7960383" lon="12.7093083"><ele>286.8</ele><time>2026-04-18T12:25:28.889Z</time></trkpt><trkpt lat="43.7960067" lon="12.7091667"><ele>287.20000000000005</ele><time>2026-04-18T12:25:29.888Z</time></trkpt><trkpt lat="43.7959683" lon="12.709015"><ele>287.6</ele><time>2026-04-18T12:25:30.888Z</time></trkpt><trkpt lat="43.7959333" lon="12.7088667"><ele>288.0</ele><time>2026-04-18T12:25:31.889Z</time></trkpt><trkpt lat="43.7958983" lon="12.7087183"><ele>284.6</ele><time>2026-04-18T12:25:32.889Z</time></trkpt><trkpt lat="43.7958583" lon="12.708565"><ele>281.20000000000005</ele><time>2026-04-18T12:25:33.889Z</time></trkpt><trkpt lat="43.7958117" lon="12.708425"><ele>277.8</ele><time>2026-04-18T12:25:34.888Z</time></trkpt><trkpt lat="43.7957583" lon="12.708305"><ele>274.40000000000003</ele><time>2026-04-18T12:25:35.889Z</time></trkpt><trkpt lat="43.7957067" lon="12.7082017"><ele>271.0</ele><time>2026-04-18T12:25:36.981Z</time></trkpt><trkpt lat="43.7956567" lon="12.7081017"><ele>271.0</ele><time>2026-04-18T12:25:37.888Z</time></trkpt><trkpt lat="43.7956067" lon="12.708005"><ele>271.0</ele><time>2026-04-18T12:25:38.889Z</time></trkpt><trkpt lat="43.7955617" lon="12.7079067"><ele>271.0</ele><time>2026-04-18T12:25:39.889Z</time></trkpt><trkpt lat="43.7955133" lon="12.7078067"><ele>271.0</ele><time>2026-04-18T12:25:40.886Z</time></trkpt><trkpt lat="43.79546" lon="12.7077033"><ele>271.0</ele><time>2026-04-18T12:25:41.887Z</time></trkpt><trkpt lat="43.7954117" lon="12.7076033"><ele>271.0</ele><time>2026-04-18T12:25:42.89Z</time></trkpt><trkpt lat="43.795365" lon="12.7075117"><ele>271.57142857142856</ele><time>2026-04-18T12:25:43.89Z</time></trkpt><trkpt lat="43.7953217" lon="12.7074233"><ele>272.14285714285717</ele><time>2026-04-18T12:25:44.889Z</time></trkpt><trkpt lat="43.7952883" lon="12.7073367"><ele>272.7142857142857</ele><time>2026-04-18T12:25:45.89Z</time></trkpt><trkpt lat="43.7952683" lon="12.7072483"><ele>273.2857142857143</ele><time>2026-04-18T12:25:46.888Z</time></trkpt><trkpt lat="43.7952617" lon="12.70716"><ele>273.85714285714283</ele><time>2026-04-18T12:25:47.887Z</time></trkpt><trkpt lat="43.795265" lon="12.7070683"><ele>274.42857142857144</ele><time>2026-04-18T12:25:48.888Z</time></trkpt><trkpt lat="43.7952833" lon="12.706975"><ele>275.0</ele><time>2026-04-18T12:25:49.888Z</time></trkpt><trkpt lat="43.7953133" lon="12.7068817"><ele>275.0</ele><time>2026-04-18T12:25:50.887Z</time></trkpt><trkpt lat="43.795335" lon="12.70679"><ele>275.0</ele><time>2026-04-18T12:25:51.888Z</time></trkpt><trkpt lat="43.7953517" lon="12.7067033"><ele>275.0</ele><time>2026-04-18T12:25:52.888Z</time></trkpt><trkpt lat="43.7953567" lon="12.7066067"><ele>275.0</ele><time>2026-04-18T12:25:53.889Z</time></trkpt><trkpt lat="43.79535" lon="12.70651"><ele>275.0</ele><time>2026-04-18T12:25:54.888Z</time></trkpt><trkpt lat="43.7953383" lon="12.70642"><ele>275.0</ele><time>2026-04-18T12:25:55.89Z</time></trkpt><trkpt lat="43.7953183" lon="12.706335"><ele>275.0</ele><time>2026-04-18T12:25:56.89Z</time></trkpt><trkpt lat="43.795255" lon="12.7061883"><ele>274.0</ele><time>2026-04-18T12:25:58.889Z</time></trkpt><trkpt lat="43.795175" lon="12.7060617"><ele>273.0</ele><time>2026-04-18T12:26:00.889Z</time></trkpt><trkpt lat="43.7951083" lon="12.7059667"><ele>272.0</ele><time>2026-04-18T12:26:02.887Z</time></trkpt><trkpt lat="43.7950483" lon="12.705935"><ele>271.0</ele><time>2026-04-18T12:26:04.888Z</time></trkpt><trkpt lat="43.7949717" lon="12.7059867"><ele>270.0</ele><time>2026-04-18T12:26:06.887Z</time></trkpt><trkpt lat="43.7949167" lon="12.7060367"><ele>269.0</ele><time>2026-04-18T12:26:07.888Z</time></trkpt><trkpt lat="43.7948533" lon="12.7060933"><ele>269.0</ele><time>2026-04-18T12:26:08.887Z</time></trkpt><trkpt lat="43.79479" lon="12.7061533"><ele>269.0</ele><time>2026-04-18T12:26:09.89Z</time></trkpt><trkpt lat="43.7947183" lon="12.70621"><ele>269.0</ele><time>2026-04-18T12:26:10.89Z</time></trkpt><trkpt lat="43.7946567" lon="12.7062617"><ele>269.0</ele><time>2026-04-18T12:26:11.887Z</time></trkpt><trkpt lat="43.7945767" lon="12.7063433"><ele>269.0</ele><time>2026-04-18T12:26:13.89Z</time></trkpt><trkpt lat="43.7945767" lon="12.706215"><ele>269.0</ele><time>2026-04-18T12:26:26.889Z</time></trkpt><trkpt lat="43.7946417" lon="12.7061117"><ele>267.5</ele><time>2026-04-18T12:26:27.89Z</time></trkpt><trkpt lat="43.79473" lon="12.7060117"><ele>266.0</ele><time>2026-04-18T12:26:28.89Z</time></trkpt><trkpt lat="43.7948367" lon="12.705925"><ele>264.5</ele><time>2026-04-18T12:26:29.892Z</time></trkpt><trkpt lat="43.794935" lon="12.705825"><ele>263.0</ele><time>2026-04-18T12:26:30.89Z</time></trkpt><trkpt lat="43.7950267" lon="12.7056933"><ele>263.0</ele><time>2026-04-18T12:26:31.889Z</time></trkpt><trkpt lat="43.7951133" lon="12.7055517"><ele>263.0</ele><time>2026-04-18T12:26:32.887Z</time></trkpt><trkpt lat="43.7952" lon="12.7054167"><ele>263.0</ele><time>2026-04-18T12:26:33.89Z</time></trkpt><trkpt lat="43.7952967" lon="12.7052933"><ele>263.0</ele><time>2026-04-18T12:26:34.887Z</time></trkpt><trkpt lat="43.7954017" lon="12.7051817"><ele>262.25</ele><time>2026-04-18T12:26:35.889Z</time></trkpt><trkpt lat="43.7955167" lon="12.7050833"><ele>261.5</ele><time>2026-04-18T12:26:36.886Z</time></trkpt><trkpt lat="43.7956267" lon="12.705"><ele>260.75</ele><time>2026-04-18T12:26:37.892Z</time></trkpt><trkpt lat="43.7957333" lon="12.7049233"><ele>260.0</ele><time>2026-04-18T12:26:38.891Z</time></trkpt><trkpt lat="43.7958333" lon="12.7048483"><ele>260.0</ele><time>2026-04-18T12:26:39.89Z</time></trkpt><trkpt lat="43.795915" lon="12.7047583"><ele>260.0</ele><time>2026-04-18T12:26:40.892Z</time></trkpt><trkpt lat="43.7959633" lon="12.7046533"><ele>260.0</ele><time>2026-04-18T12:26:41.889Z</time></trkpt><trkpt lat="43.7959917" lon="12.7045467"><ele>260.0</ele><time>2026-04-18T12:26:42.889Z</time></trkpt><trkpt lat="43.795995" lon="12.7044317"><ele>260.0</ele><time>2026-04-18T12:26:43.89Z</time></trkpt><trkpt lat="43.7959867" lon="12.7043017"><ele>259.8</ele><time>2026-04-18T12:26:44.889Z</time></trkpt><trkpt lat="43.7959533" lon="12.704165"><ele>259.6</ele><time>2026-04-18T12:26:45.886Z</time></trkpt><trkpt lat="43.7959083" lon="12.7040317"><ele>259.4</ele><time>2026-04-18T12:26:46.889Z</time></trkpt><trkpt lat="43.7958433" lon="12.7038967"><ele>259.2</ele><time>2026-04-18T12:26:47.888Z</time></trkpt><trkpt lat="43.7957767" lon="12.7037583"><ele>259.0</ele><time>2026-04-18T12:26:48.888Z</time></trkpt><trkpt lat="43.7957133" lon="12.7036117"><ele>261.0</ele><time>2026-04-18T12:26:49.889Z</time></trkpt><trkpt lat="43.795665" lon="12.7034583"><ele>263.0</ele><time>2026-04-18T12:26:50.888Z</time></trkpt><trkpt lat="43.7956217" lon="12.7032983"><ele>265.0</ele><time>2026-04-18T12:26:51.889Z</time></trkpt><trkpt lat="43.7955767" lon="12.703145"><ele>267.0</ele><time>2026-04-18T12:26:52.889Z</time></trkpt><trkpt lat="43.7955233" lon="12.7030033"><ele>267.0</ele><time>2026-04-18T12:26:53.887Z</time></trkpt><trkpt lat="43.79547" lon="12.7028717"><ele>267.0</ele><time>2026-04-18T12:26:54.89Z</time></trkpt><trkpt lat="43.7954233" lon="12.7027417"><ele>267.0</ele><time>2026-04-18T12:26:55.887Z</time></trkpt><trkpt lat="43.795385" lon="12.7026067"><ele>267.0</ele><time>2026-04-18T12:26:56.887Z</time></trkpt><trkpt lat="43.79536" lon="12.7024667"><ele>267.0</ele><time>2026-04-18T12:26:57.888Z</time></trkpt><trkpt lat="43.7953533" lon="12.70232"><ele>267.2</ele><time>2026-04-18T12:26:58.886Z</time></trkpt><trkpt lat="43.7953567" lon="12.7021717"><ele>267.4</ele><time>2026-04-18T12:26:59.887Z</time></trkpt><trkpt lat="43.7953533" lon="12.7020217"><ele>267.6</ele><time>2026-04-18T12:27:00.887Z</time></trkpt><trkpt lat="43.79534" lon="12.701875"><ele>267.8</ele><time>2026-04-18T12:27:01.887Z</time></trkpt><trkpt lat="43.79531" lon="12.70173"><ele>268.0</ele><time>2026-04-18T12:27:02.887Z</time></trkpt><trkpt lat="43.7952733" lon="12.70158"><ele>266.25</ele><time>2026-04-18T12:27:03.887Z</time></trkpt><trkpt lat="43.79523" lon="12.7014233"><ele>264.5</ele><time>2026-04-18T12:27:04.888Z</time></trkpt><trkpt lat="43.7951767" lon="12.7012617"><ele>262.75</ele><time>2026-04-18T12:27:05.887Z</time></trkpt><trkpt lat="43.795115" lon="12.7010983"><ele>261.0</ele><time>2026-04-18T12:27:06.888Z</time></trkpt><trkpt lat="43.7950367" lon="12.7009283"><ele>257.3333333333333</ele><time>2026-04-18T12:27:07.889Z</time></trkpt><trkpt lat="43.7949383" lon="12.7007567"><ele>253.66666666666666</ele><time>2026-04-18T12:27:08.886Z</time></trkpt><trkpt lat="43.79484" lon="12.70058"><ele>250.0</ele><time>2026-04-18T12:27:09.886Z</time></trkpt><trkpt lat="43.79474" lon="12.7004017"><ele>249.0</ele><time>2026-04-18T12:27:10.887Z</time></trkpt><trkpt lat="43.7946433" lon="12.7002217"><ele>248.0</ele><time>2026-04-18T12:27:11.887Z</time></trkpt><trkpt lat="43.794555" lon="12.7000283"><ele>247.0</ele><time>2026-04-18T12:27:12.887Z</time></trkpt><trkpt lat="43.7944717" lon="12.6998233"><ele>247.0</ele><time>2026-04-18T12:27:13.886Z</time></trkpt><trkpt lat="43.79439" lon="12.6996083"><ele>247.0</ele><time>2026-04-18T12:27:14.89Z</time></trkpt><trkpt lat="43.7943083" lon="12.6993933"><ele>247.0</ele><time>2026-04-18T12:27:15.889Z</time></trkpt><trkpt lat="43.794225" lon="12.6991817"><ele>248.33333333333331</ele><time>2026-04-18T12:27:16.887Z</time></trkpt><trkpt lat="43.7941483" lon="12.69897"><ele>249.66666666666669</ele><time>2026-04-18T12:27:17.888Z</time></trkpt><trkpt lat="43.7940783" lon="12.6987567"><ele>251.0</ele><time>2026-04-18T12:27:18.888Z</time></trkpt><trkpt lat="43.7940117" lon="12.6985683"><ele>251.75</ele><time>2026-04-18T12:27:19.887Z</time></trkpt><trkpt lat="43.793945" lon="12.6984067"><ele>252.5</ele><time>2026-04-18T12:27:20.885Z</time></trkpt><trkpt lat="43.7938667" lon="12.6982567"><ele>253.25</ele><time>2026-04-18T12:27:21.887Z</time></trkpt><trkpt lat="43.79377" lon="12.6981167"><ele>254.0</ele><time>2026-04-18T12:27:22.886Z</time></trkpt><trkpt lat="43.7936567" lon="12.6979833"><ele>254.0</ele><time>2026-04-18T12:27:23.887Z</time></trkpt><trkpt lat="43.79353" lon="12.6978517"><ele>254.0</ele><time>2026-04-18T12:27:24.888Z</time></trkpt><trkpt lat="43.7934" lon="12.69772"><ele>254.0</ele><time>2026-04-18T12:27:25.89Z</time></trkpt><trkpt lat="43.7932667" lon="12.6975917"><ele>254.33333333333334</ele><time>2026-04-18T12:27:26.886Z</time></trkpt><trkpt lat="43.793135" lon="12.6974683"><ele>254.66666666666669</ele><time>2026-04-18T12:27:27.886Z</time></trkpt><trkpt lat="43.7930033" lon="12.6973467"><ele>255.0</ele><time>2026-04-18T12:27:28.886Z</time></trkpt><trkpt lat="43.7928817" lon="12.69723"><ele>255.0</ele><time>2026-04-18T12:27:29.886Z</time></trkpt><trkpt lat="43.7927633" lon="12.69712"><ele>255.0</ele><time>2026-04-18T12:27:30.889Z</time></trkpt><trkpt lat="43.7926467" lon="12.697015"><ele>255.0</ele><time>2026-04-18T12:27:31.889Z</time></trkpt><trkpt lat="43.7925217" lon="12.6969133"><ele>255.0</ele><time>2026-04-18T12:27:32.89Z</time></trkpt><trkpt lat="43.792395" lon="12.69682"><ele>253.75</ele><time>2026-04-18T12:27:33.89Z</time></trkpt><trkpt lat="43.7922733" lon="12.6967333"><ele>252.5</ele><time>2026-04-18T12:27:34.89Z</time></trkpt><trkpt lat="43.7921633" lon="12.696655"><ele>251.25</ele><time>2026-04-18T12:27:35.889Z</time></trkpt><trkpt lat="43.79206" lon="12.6965883"><ele>250.0</ele><time>2026-04-18T12:27:36.885Z</time></trkpt><trkpt lat="43.79195" lon="12.6965333"><ele>247.75</ele><time>2026-04-18T12:27:37.888Z</time></trkpt><trkpt lat="43.7918367" lon="12.6964967"><ele>245.5</ele><time>2026-04-18T12:27:38.888Z</time></trkpt><trkpt lat="43.791715" lon="12.69649"><ele>243.25</ele><time>2026-04-18T12:27:39.889Z</time></trkpt><trkpt lat="43.7915867" lon="12.6965117"><ele>241.0</ele><time>2026-04-18T12:27:40.888Z</time></trkpt><trkpt lat="43.791465" lon="12.6965517"><ele>241.0</ele><time>2026-04-18T12:27:41.888Z</time></trkpt><trkpt lat="43.7913517" lon="12.696595"><ele>241.0</ele><time>2026-04-18T12:27:42.889Z</time></trkpt><trkpt lat="43.7912383" lon="12.6966383"><ele>241.0</ele><time>2026-04-18T12:27:43.889Z</time></trkpt><trkpt lat="43.791125" lon="12.6966917"><ele>241.0</ele><time>2026-04-18T12:27:44.889Z</time></trkpt><trkpt lat="43.791015" lon="12.6967683"><ele>239.25</ele><time>2026-04-18T12:27:45.888Z</time></trkpt><trkpt lat="43.7909067" lon="12.6968617"><ele>237.5</ele><time>2026-04-18T12:27:46.889Z</time></trkpt><trkpt lat="43.790795" lon="12.6969683"><ele>235.75</ele><time>2026-04-18T12:27:47.885Z</time></trkpt><trkpt lat="43.79068" lon="12.6970767"><ele>234.0</ele><time>2026-04-18T12:27:48.887Z</time></trkpt><trkpt lat="43.7905583" lon="12.69719"><ele>233.66666666666669</ele><time>2026-04-18T12:27:49.888Z</time></trkpt><trkpt lat="43.7904317" lon="12.697315"><ele>233.33333333333334</ele><time>2026-04-18T12:27:50.888Z</time></trkpt><trkpt lat="43.7903017" lon="12.6974517"><ele>233.0</ele><time>2026-04-18T12:27:51.888Z</time></trkpt><trkpt lat="43.7901617" lon="12.6975983"><ele>229.0</ele><time>2026-04-18T12:27:52.888Z</time></trkpt><trkpt lat="43.79002" lon="12.697755"><ele>225.0</ele><time>2026-04-18T12:27:53.888Z</time></trkpt><trkpt lat="43.7898817" lon="12.69791"><ele>221.0</ele><time>2026-04-18T12:27:54.888Z</time></trkpt><trkpt lat="43.7897483" lon="12.6980633"><ele>221.0</ele><time>2026-04-18T12:27:55.889Z</time></trkpt><trkpt lat="43.789615" lon="12.6982133"><ele>221.0</ele><time>2026-04-18T12:27:56.887Z</time></trkpt><trkpt lat="43.7894767" lon="12.6983633"><ele>221.0</ele><time>2026-04-18T12:27:57.888Z</time></trkpt><trkpt lat="43.7893283" lon="12.69851"><ele>219.66666666666669</ele><time>2026-04-18T12:27:58.889Z</time></trkpt><trkpt lat="43.7891717" lon="12.69866"><ele>218.33333333333331</ele><time>2026-04-18T12:27:59.888Z</time></trkpt><trkpt lat="43.7890117" lon="12.69881"><ele>217.0</ele><time>2026-04-18T12:28:00.889Z</time></trkpt><trkpt lat="43.7888583" lon="12.6989533"><ele>217.0</ele><time>2026-04-18T12:28:01.888Z</time></trkpt><trkpt lat="43.7887017" lon="12.699095"><ele>217.0</ele><time>2026-04-18T12:28:02.888Z</time></trkpt><trkpt lat="43.7885383" lon="12.69923"><ele>217.0</ele><time>2026-04-18T12:28:03.888Z</time></trkpt><trkpt lat="43.7883783" lon="12.6993633"><ele>215.33333333333331</ele><time>2026-04-18T12:28:04.888Z</time></trkpt><trkpt lat="43.788225" lon="12.699495"><ele>213.66666666666669</ele><time>2026-04-18T12:28:05.889Z</time></trkpt><trkpt lat="43.7880733" lon="12.699625"><ele>212.0</ele><time>2026-04-18T12:28:06.888Z</time></trkpt><trkpt lat="43.7879117" lon="12.699755"><ele>212.0</ele><time>2026-04-18T12:28:07.888Z</time></trkpt><trkpt lat="43.78775" lon="12.6998817"><ele>212.0</ele><time>2026-04-18T12:28:08.889Z</time></trkpt><trkpt lat="43.7875933" lon="12.6999983"><ele>212.0</ele><time>2026-04-18T12:28:09.89Z</time></trkpt><trkpt lat="43.78744" lon="12.7001083"><ele>209.66666666666669</ele><time>2026-04-18T12:28:10.888Z</time></trkpt><trkpt lat="43.78729" lon="12.7002"><ele>207.33333333333331</ele><time>2026-04-18T12:28:11.891Z</time></trkpt><trkpt lat="43.7871433" lon="12.7002633"><ele>205.0</ele><time>2026-04-18T12:28:12.888Z</time></trkpt><trkpt lat="43.7869917" lon="12.7003067"><ele>204.5</ele><time>2026-04-18T12:28:13.889Z</time></trkpt><trkpt lat="43.7868417" lon="12.7003367"><ele>204.0</ele><time>2026-04-18T12:28:14.888Z</time></trkpt><trkpt lat="43.7866967" lon="12.7003617"><ele>203.5</ele><time>2026-04-18T12:28:15.889Z</time></trkpt><trkpt lat="43.78656" lon="12.70038"><ele>203.0</ele><time>2026-04-18T12:28:16.886Z</time></trkpt><trkpt lat="43.7864317" lon="12.700405"><ele>203.0</ele><time>2026-04-18T12:28:17.885Z</time></trkpt><trkpt lat="43.7863083" lon="12.7004383"><ele>203.0</ele><time>2026-04-18T12:28:18.887Z</time></trkpt><trkpt lat="43.7861917" lon="12.7004883"><ele>203.0</ele><time>2026-04-18T12:28:19.886Z</time></trkpt><trkpt lat="43.7860833" lon="12.70055"><ele>203.0</ele><time>2026-04-18T12:28:20.885Z</time></trkpt><trkpt lat="43.7859783" lon="12.7006283"><ele>202.0</ele><time>2026-04-18T12:28:21.886Z</time></trkpt><trkpt lat="43.78588" lon="12.700725"><ele>201.0</ele><time>2026-04-18T12:28:22.886Z</time></trkpt><trkpt lat="43.785785" lon="12.70083"><ele>200.0</ele><time>2026-04-18T12:28:23.886Z</time></trkpt><trkpt lat="43.7856967" lon="12.7009267"><ele>199.0</ele><time>2026-04-18T12:28:24.887Z</time></trkpt><trkpt lat="43.785605" lon="12.7010117"><ele>196.25</ele><time>2026-04-18T12:28:25.887Z</time></trkpt><trkpt lat="43.7855033" lon="12.701085"><ele>193.5</ele><time>2026-04-18T12:28:26.886Z</time></trkpt><trkpt lat="43.7853983" lon="12.70115"><ele>190.75</ele><time>2026-04-18T12:28:27.886Z</time></trkpt><trkpt lat="43.7853" lon="12.7012317"><ele>188.0</ele><time>2026-04-18T12:28:28.889Z</time></trkpt><trkpt lat="43.7852133" lon="12.7013417"><ele>188.25</ele><time>2026-04-18T12:28:29.888Z</time></trkpt><trkpt lat="43.78514" lon="12.7014783"><ele>188.5</ele><time>2026-04-18T12:28:30.889Z</time></trkpt><trkpt lat="43.78509" lon="12.7016433"><ele>188.75</ele><time>2026-04-18T12:28:31.887Z</time></trkpt><trkpt lat="43.7850533" lon="12.70184"><ele>189.0</ele><time>2026-04-18T12:28:32.886Z</time></trkpt><trkpt lat="43.78502" lon="12.7020483"><ele>187.5</ele><time>2026-04-18T12:28:33.886Z</time></trkpt><trkpt lat="43.784985" lon="12.7022417"><ele>186.0</ele><time>2026-04-18T12:28:34.888Z</time></trkpt><trkpt lat="43.7849517" lon="12.70242"><ele>184.5</ele><time>2026-04-18T12:28:35.885Z</time></trkpt><trkpt lat="43.78491" lon="12.7025967"><ele>183.0</ele><time>2026-04-18T12:28:36.887Z</time></trkpt><trkpt lat="43.7848617" lon="12.7027817"><ele>181.0</ele><time>2026-04-18T12:28:37.888Z</time></trkpt><trkpt lat="43.7848067" lon="12.702975"><ele>179.0</ele><time>2026-04-18T12:28:38.886Z</time></trkpt><trkpt lat="43.78474" lon="12.7031767"><ele>177.0</ele><time>2026-04-18T12:28:39.886Z</time></trkpt><trkpt lat="43.78467" lon="12.7033717"><ele>177.0</ele><time>2026-04-18T12:28:40.886Z</time></trkpt><trkpt lat="43.7846" lon="12.7035583"><ele>177.0</ele><time>2026-04-18T12:28:41.886Z</time></trkpt><trkpt lat="43.7845283" lon="12.70373"><ele>177.0</ele><time>2026-04-18T12:28:42.887Z</time></trkpt><trkpt lat="43.784455" lon="12.7038917"><ele>177.0</ele><time>2026-04-18T12:28:43.887Z</time></trkpt><trkpt lat="43.7843883" lon="12.7040483"><ele>175.0</ele><time>2026-04-18T12:28:44.885Z</time></trkpt><trkpt lat="43.78433" lon="12.7041983"><ele>173.0</ele><time>2026-04-18T12:28:45.888Z</time></trkpt><trkpt lat="43.784285" lon="12.7043467"><ele>171.0</ele><time>2026-04-18T12:28:46.887Z</time></trkpt><trkpt lat="43.78425" lon="12.7045067"><ele>169.0</ele><time>2026-04-18T12:28:47.885Z</time></trkpt><trkpt lat="43.7842267" lon="12.7046833"><ele>168.0</ele><time>2026-04-18T12:28:48.889Z</time></trkpt><trkpt lat="43.7842117" lon="12.7048583"><ele>167.0</ele><time>2026-04-18T12:28:49.888Z</time></trkpt><trkpt lat="43.7841933" lon="12.7050167"><ele>166.0</ele><time>2026-04-18T12:28:50.888Z</time></trkpt><trkpt lat="43.784175" lon="12.7051717"><ele>165.0</ele><time>2026-04-18T12:28:51.888Z</time></trkpt><trkpt lat="43.7841617" lon="12.70534"><ele>162.75</ele><time>2026-04-18T12:28:52.888Z</time></trkpt><trkpt lat="43.7841583" lon="12.705525"><ele>160.5</ele><time>2026-04-18T12:28:53.887Z</time></trkpt><trkpt lat="43.78416" lon="12.7057133"><ele>158.25</ele><time>2026-04-18T12:28:54.888Z</time></trkpt><trkpt lat="43.784165" lon="12.7059033"><ele>156.0</ele><time>2026-04-18T12:28:55.887Z</time></trkpt><trkpt lat="43.7841717" lon="12.706085"><ele>154.0</ele><time>2026-04-18T12:28:56.89Z</time></trkpt><trkpt lat="43.78418" lon="12.70625"><ele>152.0</ele><time>2026-04-18T12:28:57.887Z</time></trkpt><trkpt lat="43.7842" lon="12.7063833"><ele>150.0</ele><time>2026-04-18T12:28:58.889Z</time></trkpt><trkpt lat="43.784235" lon="12.7064883"><ele>148.0</ele><time>2026-04-18T12:28:59.889Z</time></trkpt><trkpt lat="43.784275" lon="12.7065767"><ele>146.0</ele><time>2026-04-18T12:29:00.888Z</time></trkpt><trkpt lat="43.7843083" lon="12.706655"><ele>144.0</ele><time>2026-04-18T12:29:01.888Z</time></trkpt><trkpt lat="43.7843333" lon="12.7067383"><ele>144.0</ele><time>2026-04-18T12:29:02.889Z</time></trkpt><trkpt lat="43.7843" lon="12.7068967"><ele>144.0</ele><time>2026-04-18T12:29:04.888Z</time></trkpt><trkpt lat="43.78423" lon="12.7069533"><ele>144.0</ele><time>2026-04-18T12:29:05.886Z</time></trkpt><trkpt lat="43.7841367" lon="12.7069833"><ele>144.0</ele><time>2026-04-18T12:29:06.886Z</time></trkpt><trkpt lat="43.7840333" lon="12.7069733"><ele>144.0</ele><time>2026-04-18T12:29:07.886Z</time></trkpt><trkpt lat="43.7839333" lon="12.7069333"><ele>140.66666666666666</ele><time>2026-04-18T12:29:08.885Z</time></trkpt><trkpt lat="43.7838467" lon="12.7069183"><ele>137.33333333333334</ele><time>2026-04-18T12:29:09.887Z</time></trkpt><trkpt lat="43.7837733" lon="12.7069317"><ele>134.0</ele><time>2026-04-18T12:29:10.889Z</time></trkpt><trkpt lat="43.7837117" lon="12.70698"><ele>130.66666666666669</ele><time>2026-04-18T12:29:11.888Z</time></trkpt><trkpt lat="43.783675" lon="12.70706"><ele>127.33333333333334</ele><time>2026-04-18T12:29:12.889Z</time></trkpt><trkpt lat="43.78368" lon="12.7071717"><ele>124.0</ele><time>2026-04-18T12:29:13.889Z</time></trkpt><trkpt lat="43.7836933" lon="12.7072933"><ele>124.0</ele><time>2026-04-18T12:29:14.889Z</time></trkpt><trkpt lat="43.7837267" lon="12.7074567"><ele>124.0</ele><time>2026-04-18T12:29:15.888Z</time></trkpt><trkpt lat="43.78374" lon="12.7076483"><ele>124.0</ele><time>2026-04-18T12:29:16.889Z</time></trkpt><trkpt lat="43.78374" lon="12.707835"><ele>124.0</ele><time>2026-04-18T12:29:17.888Z</time></trkpt><trkpt lat="43.7837417" lon="12.7080233"><ele>122.4</ele><time>2026-04-18T12:29:18.89Z</time></trkpt><trkpt lat="43.783745" lon="12.7082"><ele>120.80000000000001</ele><time>2026-04-18T12:29:19.888Z</time></trkpt><trkpt lat="43.7837417" lon="12.7083683"><ele>119.19999999999999</ele><time>2026-04-18T12:29:20.888Z</time></trkpt><trkpt lat="43.7837333" lon="12.7085183"><ele>117.6</ele><time>2026-04-18T12:29:21.888Z</time></trkpt><trkpt lat="43.7837267" lon="12.70864"><ele>116.0</ele><time>2026-04-18T12:29:22.889Z</time></trkpt><trkpt lat="43.783725" lon="12.7087367"><ele>116.0</ele><time>2026-04-18T12:29:23.888Z</time></trkpt><trkpt lat="43.7837317" lon="12.7088783"><ele>116.0</ele><time>2026-04-18T12:29:25.889Z</time></trkpt><trkpt lat="43.78376" lon="12.7090183"><ele>116.0</ele><time>2026-04-18T12:29:28.887Z</time></trkpt><trkpt lat="43.78379" lon="12.7091033"><ele>116.0</ele><time>2026-04-18T12:29:29.889Z</time></trkpt><trkpt lat="43.783835" lon="12.7092167"><ele>116.0</ele><time>2026-04-18T12:29:30.889Z</time></trkpt><trkpt lat="43.7839067" lon="12.7093533"><ele>115.5</ele><time>2026-04-18T12:29:31.888Z</time></trkpt><trkpt lat="43.7839917" lon="12.7095033"><ele>115.0</ele><time>2026-04-18T12:29:32.889Z</time></trkpt><trkpt lat="43.7840833" lon="12.7096667"><ele>114.5</ele><time>2026-04-18T12:29:33.887Z</time></trkpt><trkpt lat="43.7841783" lon="12.7098417"><ele>114.0</ele><time>2026-04-18T12:29:34.887Z</time></trkpt><trkpt lat="43.7842767" lon="12.7100233"><ele>114.75</ele><time>2026-04-18T12:29:35.891Z</time></trkpt><trkpt lat="43.7843733" lon="12.710195"><ele>115.5</ele><time>2026-04-18T12:29:36.89Z</time></trkpt><trkpt lat="43.7844583" lon="12.710355"><ele>116.25</ele><time>2026-04-18T12:29:37.889Z</time></trkpt><trkpt lat="43.784535" lon="12.7105017"><ele>117.0</ele><time>2026-04-18T12:29:38.886Z</time></trkpt><trkpt lat="43.7846067" lon="12.710635"><ele>117.0</ele><time>2026-04-18T12:29:39.89Z</time></trkpt><trkpt lat="43.7846767" lon="12.71077"><ele>117.0</ele><time>2026-04-18T12:29:40.89Z</time></trkpt><trkpt lat="43.784745" lon="12.7109017"><ele>117.0</ele><time>2026-04-18T12:29:41.888Z</time></trkpt><trkpt lat="43.7848183" lon="12.7110317"><ele>117.0</ele><time>2026-04-18T12:29:42.889Z</time></trkpt><trkpt lat="43.784895" lon="12.711165"><ele>116.25</ele><time>2026-04-18T12:29:43.89Z</time></trkpt><trkpt lat="43.784975" lon="12.7113"><ele>115.5</ele><time>2026-04-18T12:29:44.89Z</time></trkpt><trkpt lat="43.785055" lon="12.7114367"><ele>114.75</ele><time>2026-04-18T12:29:45.89Z</time></trkpt><trkpt lat="43.7851267" lon="12.71157"><ele>114.0</ele><time>2026-04-18T12:29:46.886Z</time></trkpt><trkpt lat="43.7851933" lon="12.7117067"><ele>115.0</ele><time>2026-04-18T12:29:47.885Z</time></trkpt><trkpt lat="43.7852617" lon="12.711845"><ele>116.0</ele><time>2026-04-18T12:29:48.887Z</time></trkpt><trkpt lat="43.7853317" lon="12.711985"><ele>117.0</ele><time>2026-04-18T12:29:49.886Z</time></trkpt><trkpt lat="43.7853983" lon="12.71213"><ele>118.0</ele><time>2026-04-18T12:29:50.885Z</time></trkpt><trkpt lat="43.785465" lon="12.71227"><ele>118.0</ele><time>2026-04-18T12:29:51.886Z</time></trkpt><trkpt lat="43.785525" lon="12.712405"><ele>118.00000000000001</ele><time>2026-04-18T12:29:52.888Z</time></trkpt><trkpt lat="43.7855817" lon="12.7125283"><ele>118.00000000000001</ele><time>2026-04-18T12:29:53.89Z</time></trkpt><trkpt lat="43.7856333" lon="12.71264"><ele>118.0</ele><time>2026-04-18T12:29:54.886Z</time></trkpt><trkpt lat="43.78568" lon="12.71274"><ele>118.0</ele><time>2026-04-18T12:29:55.888Z</time></trkpt><trkpt lat="43.7857233" lon="12.7128317"><ele>117.4</ele><time>2026-04-18T12:29:56.89Z</time></trkpt><trkpt lat="43.7857617" lon="12.7129167"><ele>116.80000000000001</ele><time>2026-04-18T12:29:57.887Z</time></trkpt><trkpt lat="43.78582" lon="12.7130317"><ele>116.2</ele><time>2026-04-18T12:29:59.887Z</time></trkpt><trkpt lat="43.7858683" lon="12.7131617"><ele>115.6</ele><time>2026-04-18T12:30:09.886Z</time></trkpt><trkpt lat="43.785915" lon="12.713275"><ele>115.0</ele><time>2026-04-18T12:30:11.889Z</time></trkpt><trkpt lat="43.78591" lon="12.713385"><ele>115.0</ele><time>2026-04-18T12:30:13.889Z</time></trkpt><trkpt lat="43.7858583" lon="12.71349"><ele>115.0</ele><time>2026-04-18T12:30:15.887Z</time></trkpt><trkpt lat="43.785785" lon="12.7135933"><ele>115.0</ele><time>2026-04-18T12:30:17.888Z</time></trkpt><trkpt lat="43.7857117" lon="12.7136883"><ele>115.0</ele><time>2026-04-18T12:30:19.889Z</time></trkpt><trkpt lat="43.7856367" lon="12.713795"><ele>115.0</ele><time>2026-04-18T12:30:21.888Z</time></trkpt><trkpt lat="43.7855467" lon="12.7139283"><ele>114.2</ele><time>2026-04-18T12:30:23.889Z</time></trkpt><trkpt lat="43.78549" lon="12.714015"><ele>113.4</ele><time>2026-04-18T12:30:24.887Z</time></trkpt><trkpt lat="43.7854217" lon="12.7141017"><ele>112.6</ele><time>2026-04-18T12:30:25.888Z</time></trkpt><trkpt lat="43.7853483" lon="12.7141933"><ele>111.8</ele><time>2026-04-18T12:30:26.89Z</time></trkpt><trkpt lat="43.78527" lon="12.714285"><ele>111.0</ele><time>2026-04-18T12:30:27.887Z</time></trkpt><trkpt lat="43.7851867" lon="12.714375"><ele>110.25</ele><time>2026-04-18T12:30:28.888Z</time></trkpt><trkpt lat="43.7851017" lon="12.7144633"><ele>109.5</ele><time>2026-04-18T12:30:29.887Z</time></trkpt><trkpt lat="43.785015" lon="12.7145583"><ele>108.75</ele><time>2026-04-18T12:30:30.887Z</time></trkpt><trkpt lat="43.784925" lon="12.7146617"><ele>108.0</ele><time>2026-04-18T12:30:31.888Z</time></trkpt><trkpt lat="43.78483" lon="12.7147633"><ele>108.0</ele><time>2026-04-18T12:30:32.887Z</time></trkpt><trkpt lat="43.7847317" lon="12.7148667"><ele>108.0</ele><time>2026-04-18T12:30:33.888Z</time></trkpt><trkpt lat="43.7846333" lon="12.7149717"><ele>108.0</ele><time>2026-04-18T12:30:34.888Z</time></trkpt><trkpt lat="43.7845333" lon="12.7150783"><ele>108.0</ele><time>2026-04-18T12:30:35.888Z</time></trkpt><trkpt lat="43.7844367" lon="12.7151783"><ele>107.80000000000001</ele><time>2026-04-18T12:30:36.888Z</time></trkpt><trkpt lat="43.784345" lon="12.7152733"><ele>107.60000000000001</ele><time>2026-04-18T12:30:37.889Z</time></trkpt><trkpt lat="43.78426" lon="12.7153633"><ele>107.39999999999999</ele><time>2026-04-18T12:30:38.887Z</time></trkpt><trkpt lat="43.7841833" lon="12.7154483"><ele>107.19999999999999</ele><time>2026-04-18T12:30:39.888Z</time></trkpt><trkpt lat="43.7841083" lon="12.7155233"><ele>107.0</ele><time>2026-04-18T12:30:40.889Z</time></trkpt><trkpt lat="43.7840433" lon="12.7155917"><ele>106.99999999999999</ele><time>2026-04-18T12:30:41.889Z</time></trkpt><trkpt lat="43.78399" lon="12.7156533"><ele>107.0</ele><time>2026-04-18T12:30:42.888Z</time></trkpt><trkpt lat="43.7839433" lon="12.7157817"><ele>107.0</ele><time>2026-04-18T12:30:44.89Z</time></trkpt><trkpt lat="43.7839667" lon="12.7159133"><ele>107.0</ele><time>2026-04-18T12:30:46.887Z</time></trkpt><trkpt lat="43.7839983" lon="12.7160017"><ele>106.99999999999999</ele><time>2026-04-18T12:30:47.886Z</time></trkpt><trkpt lat="43.7840333" lon="12.7161017"><ele>107.0</ele><time>2026-04-18T12:30:48.887Z</time></trkpt><trkpt lat="43.7840733" lon="12.7162167"><ele>107.39999999999999</ele><time>2026-04-18T12:30:49.888Z</time></trkpt><trkpt lat="43.7841217" lon="12.7163467"><ele>107.79999999999998</ele><time>2026-04-18T12:30:50.886Z</time></trkpt><trkpt lat="43.784175" lon="12.71648"><ele>108.2</ele><time>2026-04-18T12:30:51.887Z</time></trkpt><trkpt lat="43.78424" lon="12.71661"><ele>108.6</ele><time>2026-04-18T12:30:52.887Z</time></trkpt><trkpt lat="43.78429" lon="12.716725"><ele>109.0</ele><time>2026-04-18T12:30:53.886Z</time></trkpt><trkpt lat="43.78435" lon="12.7168233"><ele>108.83333333333334</ele><time>2026-04-18T12:30:54.888Z</time></trkpt><trkpt lat="43.7844167" lon="12.71691"><ele>108.66666666666667</ele><time>2026-04-18T12:30:55.891Z</time></trkpt><trkpt lat="43.7844833" lon="12.716985"><ele>108.5</ele><time>2026-04-18T12:30:56.886Z</time></trkpt><trkpt lat="43.78455" lon="12.7170433"><ele>108.33333333333334</ele><time>2026-04-18T12:30:57.888Z</time></trkpt><trkpt lat="43.784605" lon="12.7170867"><ele>108.16666666666667</ele><time>2026-04-18T12:30:58.89Z</time></trkpt><trkpt lat="43.7846617" lon="12.7171267"><ele>108.0</ele><time>2026-04-18T12:30:59.887Z</time></trkpt><trkpt lat="43.7847567" lon="12.7171483"><ele>108.0</ele><time>2026-04-18T12:31:01.888Z</time></trkpt><trkpt lat="43.78484" lon="12.717085"><ele>108.00000000000001</ele><time>2026-04-18T12:31:03.888Z</time></trkpt><trkpt lat="43.7848917" lon="12.71692"><ele>108.00000000000001</ele><time>2026-04-18T12:31:05.889Z</time></trkpt><trkpt lat="43.784935" lon="12.7168283"><ele>108.0</ele><time>2026-04-18T12:31:06.89Z</time></trkpt><trkpt lat="43.7849917" lon="12.7167417"><ele>108.0</ele><time>2026-04-18T12:31:07.888Z</time></trkpt><trkpt lat="43.7850533" lon="12.7166633"><ele>108.16666666666667</ele><time>2026-04-18T12:31:08.888Z</time></trkpt><trkpt lat="43.7851217" lon="12.716585"><ele>108.33333333333334</ele><time>2026-04-18T12:31:09.888Z</time></trkpt><trkpt lat="43.7851983" lon="12.716505"><ele>108.5</ele><time>2026-04-18T12:31:10.887Z</time></trkpt><trkpt lat="43.7852783" lon="12.7164333"><ele>108.66666666666667</ele><time>2026-04-18T12:31:11.887Z</time></trkpt><trkpt lat="43.7853483" lon="12.71637"><ele>108.83333333333334</ele><time>2026-04-18T12:31:12.888Z</time></trkpt><trkpt lat="43.7854167" lon="12.7163133"><ele>109.0</ele><time>2026-04-18T12:31:13.888Z</time></trkpt><trkpt lat="43.7854883" lon="12.7162733"><ele>109.0</ele><time>2026-04-18T12:31:14.888Z</time></trkpt><trkpt lat="43.7855717" lon="12.7162417"><ele>109.0</ele><time>2026-04-18T12:31:16.887Z</time></trkpt><trkpt lat="43.7856717" lon="12.7161683"><ele>109.0</ele><time>2026-04-18T12:31:18.887Z</time></trkpt><trkpt lat="43.7857283" lon="12.7161017"><ele>109.0</ele><time>2026-04-18T12:31:19.889Z</time></trkpt><trkpt lat="43.7857867" lon="12.7160283"><ele>109.0</ele><time>2026-04-18T12:31:20.889Z</time></trkpt><trkpt lat="43.7858683" lon="12.71593"><ele>109.0</ele><time>2026-04-18T12:31:22.888Z</time></trkpt><trkpt lat="43.7858767" lon="12.7160517"><ele>109.0</ele><time>2026-04-18T12:31:28.889Z</time></trkpt><trkpt lat="43.785795" lon="12.7161967"><ele>109.0</ele><time>2026-04-18T12:31:30.889Z</time></trkpt><trkpt lat="43.7857433" lon="12.7163017"><ele>109.0</ele><time>2026-04-18T12:31:31.889Z</time></trkpt><trkpt lat="43.785695" lon="12.7164117"><ele>109.0</ele><time>2026-04-18T12:31:32.887Z</time></trkpt><trkpt lat="43.785625" lon="12.7165533"><ele>109.0</ele><time>2026-04-18T12:31:33.889Z</time></trkpt><trkpt lat="43.7855567" lon="12.716675"><ele>109.0</ele><time>2026-04-18T12:31:34.888Z</time></trkpt><trkpt lat="43.7854883" lon="12.7167883"><ele>109.0</ele><time>2026-04-18T12:31:35.889Z</time></trkpt><trkpt lat="43.7854217" lon="12.7168883"><ele>109.0</ele><time>2026-04-18T12:31:36.888Z</time></trkpt><trkpt lat="43.7853567" lon="12.716975"><ele>109.0</ele><time>2026-04-18T12:31:37.889Z</time></trkpt><trkpt lat="43.7852883" lon="12.7170567"><ele>108.80000000000001</ele><time>2026-04-18T12:31:38.887Z</time></trkpt><trkpt lat="43.7852217" lon="12.717135"><ele>108.60000000000001</ele><time>2026-04-18T12:31:39.889Z</time></trkpt><trkpt lat="43.78515" lon="12.7172283"><ele>108.4</ele><time>2026-04-18T12:31:40.89Z</time></trkpt><trkpt lat="43.78508" lon="12.7173317"><ele>108.2</ele><time>2026-04-18T12:31:41.889Z</time></trkpt><trkpt lat="43.7850083" lon="12.7174433"><ele>108.0</ele><time>2026-04-18T12:31:42.89Z</time></trkpt><trkpt lat="43.784935" lon="12.717565"><ele>108.0</ele><time>2026-04-18T12:31:43.889Z</time></trkpt><trkpt lat="43.7848633" lon="12.71769"><ele>108.0</ele><time>2026-04-18T12:31:44.889Z</time></trkpt><trkpt lat="43.78479" lon="12.7178167"><ele>108.0</ele><time>2026-04-18T12:31:45.886Z</time></trkpt><trkpt lat="43.78472" lon="12.7179433"><ele>108.0</ele><time>2026-04-18T12:31:46.888Z</time></trkpt><trkpt lat="43.7846517" lon="12.7180633"><ele>107.80000000000001</ele><time>2026-04-18T12:31:47.888Z</time></trkpt><trkpt lat="43.78459" lon="12.7181783"><ele>107.60000000000001</ele><time>2026-04-18T12:31:48.888Z</time></trkpt><trkpt lat="43.78453" lon="12.7182833"><ele>107.39999999999999</ele><time>2026-04-18T12:31:49.89Z</time></trkpt><trkpt lat="43.7844717" lon="12.718385"><ele>107.19999999999999</ele><time>2026-04-18T12:31:50.887Z</time></trkpt><trkpt lat="43.7844133" lon="12.7184833"><ele>107.0</ele><time>2026-04-18T12:31:51.889Z</time></trkpt><trkpt lat="43.7843583" lon="12.71858"><ele>107.66666666666666</ele><time>2026-04-18T12:31:52.889Z</time></trkpt><trkpt lat="43.784305" lon="12.7186767"><ele>108.33333333333333</ele><time>2026-04-18T12:31:53.888Z</time></trkpt><trkpt lat="43.7842533" lon="12.7187733"><ele>109.0</ele><time>2026-04-18T12:31:54.888Z</time></trkpt><trkpt lat="43.7842017" lon="12.7188617"><ele>109.66666666666666</ele><time>2026-04-18T12:31:55.888Z</time></trkpt><trkpt lat="43.7841567" lon="12.718935"><ele>110.33333333333333</ele><time>2026-04-18T12:31:56.89Z</time></trkpt><trkpt lat="43.7840933" lon="12.71903"><ele>111.0</ele><time>2026-04-18T12:31:58.887Z</time></trkpt><trkpt lat="43.7841583" lon="12.7190367"><ele>111.0</ele><time>2026-04-18T12:32:04.889Z</time></trkpt><trkpt lat="43.7842183" lon="12.7188933"><ele>111.0</ele><time>2026-04-18T12:32:06.89Z</time></trkpt><trkpt lat="43.7842667" lon="12.7188033"><ele>111.0</ele><time>2026-04-18T12:32:07.887Z</time></trkpt><trkpt lat="43.7843133" lon="12.7187"><ele>111.0</ele><time>2026-04-18T12:32:08.888Z</time></trkpt><trkpt lat="43.784365" lon="12.7186017"><ele>111.0</ele><time>2026-04-18T12:32:09.887Z</time></trkpt><trkpt lat="43.7844183" lon="12.7185067"><ele>109.66666666666667</ele><time>2026-04-18T12:32:10.89Z</time></trkpt><trkpt lat="43.7844767" lon="12.7184133"><ele>108.33333333333334</ele><time>2026-04-18T12:32:11.885Z</time></trkpt><trkpt lat="43.7845367" lon="12.7183233"><ele>107.0</ele><time>2026-04-18T12:32:12.891Z</time></trkpt><trkpt lat="43.78459" lon="12.7182383"><ele>105.66666666666667</ele><time>2026-04-18T12:32:13.889Z</time></trkpt><trkpt lat="43.7846433" lon="12.718155"><ele>104.33333333333334</ele><time>2026-04-18T12:32:14.89Z</time></trkpt><trkpt lat="43.784695" lon="12.7180717"><ele>103.0</ele><time>2026-04-18T12:32:15.889Z</time></trkpt><trkpt lat="43.7847467" lon="12.71799"><ele>103.00000000000001</ele><time>2026-04-18T12:32:16.886Z</time></trkpt><trkpt lat="43.784795" lon="12.7179067"><ele>103.0</ele><time>2026-04-18T12:32:17.888Z</time></trkpt><trkpt lat="43.78484" lon="12.7178283"><ele>103.0</ele><time>2026-04-18T12:32:18.886Z</time></trkpt><trkpt lat="43.7848817" lon="12.7177567"><ele>103.0</ele><time>2026-04-18T12:32:19.886Z</time></trkpt><trkpt lat="43.7849583" lon="12.7176367"><ele>103.00000000000001</ele><time>2026-04-18T12:32:21.885Z</time></trkpt><trkpt lat="43.7850267" lon="12.717535"><ele>103.0</ele><time>2026-04-18T12:32:23.889Z</time></trkpt><trkpt lat="43.7851033" lon="12.7174267"><ele>103.33333333333334</ele><time>2026-04-18T12:32:25.886Z</time></trkpt><trkpt lat="43.7851533" lon="12.7173633"><ele>103.66666666666667</ele><time>2026-04-18T12:32:26.888Z</time></trkpt><trkpt lat="43.7852117" lon="12.7172983"><ele>104.0</ele><time>2026-04-18T12:32:27.885Z</time></trkpt><trkpt lat="43.7852817" lon="12.7172383"><ele>104.33333333333334</ele><time>2026-04-18T12:32:28.887Z</time></trkpt><trkpt lat="43.785365" lon="12.71719"><ele>104.66666666666667</ele><time>2026-04-18T12:32:29.887Z</time></trkpt><trkpt lat="43.7854767" lon="12.7171583"><ele>105.0</ele><time>2026-04-18T12:32:30.887Z</time></trkpt><trkpt lat="43.785595" lon="12.7171467"><ele>105.0</ele><time>2026-04-18T12:32:31.885Z</time></trkpt><trkpt lat="43.7857133" lon="12.717145"><ele>105.0</ele><time>2026-04-18T12:32:32.887Z</time></trkpt><trkpt lat="43.78583" lon="12.7171433"><ele>105.0</ele><time>2026-04-18T12:32:33.886Z</time></trkpt><trkpt lat="43.7859383" lon="12.7171417"><ele>105.0</ele><time>2026-04-18T12:32:34.887Z</time></trkpt><trkpt lat="43.78604" lon="12.7171383"><ele>105.0</ele><time>2026-04-18T12:32:35.886Z</time></trkpt><trkpt lat="43.7861417" lon="12.7171333"><ele>105.0</ele><time>2026-04-18T12:32:36.886Z</time></trkpt><trkpt lat="43.786245" lon="12.7171333"><ele>105.0</ele><time>2026-04-18T12:32:37.889Z</time></trkpt><trkpt lat="43.7863533" lon="12.71713"><ele>105.0</ele><time>2026-04-18T12:32:38.885Z</time></trkpt><trkpt lat="43.786465" lon="12.71713"><ele>105.0</ele><time>2026-04-18T12:32:39.887Z</time></trkpt><trkpt lat="43.78657" lon="12.7171233"><ele>105.0</ele><time>2026-04-18T12:32:40.888Z</time></trkpt><trkpt lat="43.786665" lon="12.717125"><ele>105.0</ele><time>2026-04-18T12:32:41.892Z</time></trkpt><trkpt lat="43.7867433" lon="12.7171417"><ele>105.0</ele><time>2026-04-18T12:32:42.889Z</time></trkpt><trkpt lat="43.7868083" lon="12.7171817"><ele>105.0</ele><time>2026-04-18T12:32:43.888Z</time></trkpt><trkpt lat="43.7868617" lon="12.717235"><ele>105.0</ele><time>2026-04-18T12:32:44.888Z</time></trkpt><trkpt lat="43.786915" lon="12.71732"><ele>105.0</ele><time>2026-04-18T12:32:45.886Z</time></trkpt><trkpt lat="43.7869667" lon="12.71742"><ele>105.0</ele><time>2026-04-18T12:32:46.888Z</time></trkpt><trkpt lat="43.787015" lon="12.7175033"><ele>104.83333333333333</ele><time>2026-04-18T12:32:47.885Z</time></trkpt><trkpt lat="43.787055" lon="12.7175733"><ele>104.66666666666666</ele><time>2026-04-18T12:32:48.887Z</time></trkpt><trkpt lat="43.7870667" lon="12.7176617"><ele>104.5</ele><time>2026-04-18T12:32:50.888Z</time></trkpt><trkpt lat="43.786985" lon="12.7177467"><ele>104.33333333333333</ele><time>2026-04-18T12:32:52.888Z</time></trkpt><trkpt lat="43.78691" lon="12.717795"><ele>104.16666666666666</ele><time>2026-04-18T12:32:53.889Z</time></trkpt><trkpt lat="43.78685" lon="12.71785"><ele>104.0</ele><time>2026-04-18T12:32:54.888Z</time></trkpt><trkpt lat="43.7867833" lon="12.7178967"><ele>103.99999999999999</ele><time>2026-04-18T12:32:55.888Z</time></trkpt><trkpt lat="43.7867267" lon="12.7179383"><ele>104.0</ele><time>2026-04-18T12:32:56.889Z</time></trkpt><trkpt lat="43.7866467" lon="12.7179933"><ele>104.0</ele><time>2026-04-18T12:32:58.887Z</time></trkpt><trkpt lat="43.7867367" lon="12.7179767"><ele>104.0</ele><time>2026-04-18T12:33:05.885Z</time></trkpt><trkpt lat="43.786805" lon="12.7179033"><ele>103.99999999999999</ele><time>2026-04-18T12:33:07.888Z</time></trkpt><trkpt lat="43.7868583" lon="12.717855"><ele>104.0</ele><time>2026-04-18T12:33:08.887Z</time></trkpt><trkpt lat="43.7869217" lon="12.7177967"><ele>104.49999999999999</ele><time>2026-04-18T12:33:09.888Z</time></trkpt><trkpt lat="43.78698" lon="12.7177467"><ele>105.0</ele><time>2026-04-18T12:33:10.887Z</time></trkpt><trkpt lat="43.7870533" lon="12.7176533"><ele>105.5</ele><time>2026-04-18T12:33:12.889Z</time></trkpt><trkpt lat="43.7870317" lon="12.7175167"><ele>106.0</ele><time>2026-04-18T12:33:14.888Z</time></trkpt><trkpt lat="43.7869883" lon="12.7174233"><ele>106.49999999999999</ele><time>2026-04-18T12:33:15.886Z</time></trkpt><trkpt lat="43.7869433" lon="12.7173367"><ele>107.0</ele><time>2026-04-18T12:33:16.893Z</time></trkpt><trkpt lat="43.7868783" lon="12.7172217"><ele>106.6</ele><time>2026-04-18T12:33:18.89Z</time></trkpt><trkpt lat="43.786795" lon="12.7171283"><ele>106.19999999999999</ele><time>2026-04-18T12:33:21.89Z</time></trkpt><trkpt lat="43.7867283" lon="12.7171133"><ele>105.8</ele><time>2026-04-18T12:33:22.89Z</time></trkpt><trkpt lat="43.7866417" lon="12.71711"><ele>105.4</ele><time>2026-04-18T12:33:23.889Z</time></trkpt><trkpt lat="43.7865267" lon="12.7171117"><ele>105.0</ele><time>2026-04-18T12:33:24.889Z</time></trkpt><trkpt lat="43.7864" lon="12.717115"><ele>105.0</ele><time>2026-04-18T12:33:25.889Z</time></trkpt><trkpt lat="43.7862567" lon="12.71712"><ele>105.0</ele><time>2026-04-18T12:33:26.888Z</time></trkpt><trkpt lat="43.7861117" lon="12.7171267"><ele>105.0</ele><time>2026-04-18T12:33:27.888Z</time></trkpt><trkpt lat="43.7859783" lon="12.7171283"><ele>105.0</ele><time>2026-04-18T12:33:28.89Z</time></trkpt><trkpt lat="43.7858583" lon="12.7171333"><ele>105.0</ele><time>2026-04-18T12:33:29.887Z</time></trkpt><trkpt lat="43.7857517" lon="12.7171383"><ele>105.0</ele><time>2026-04-18T12:33:30.886Z</time></trkpt><trkpt lat="43.78566" lon="12.7171383"><ele>105.0</ele><time>2026-04-18T12:33:31.886Z</time></trkpt><trkpt lat="43.785585" lon="12.7171333"><ele>105.0</ele><time>2026-04-18T12:33:32.887Z</time></trkpt><trkpt lat="43.7855233" lon="12.7171133"><ele>105.0</ele><time>2026-04-18T12:33:33.885Z</time></trkpt><trkpt lat="43.7854533" lon="12.7170183"><ele>105.0</ele><time>2026-04-18T12:33:35.885Z</time></trkpt><trkpt lat="43.7854667" lon="12.7168683"><ele>105.8</ele><time>2026-04-18T12:33:37.89Z</time></trkpt><trkpt lat="43.785505" lon="12.7167817"><ele>106.6</ele><time>2026-04-18T12:33:38.886Z</time></trkpt><trkpt lat="43.78554" lon="12.7166883"><ele>107.4</ele><time>2026-04-18T12:33:39.887Z</time></trkpt><trkpt lat="43.7855867" lon="12.71657"><ele>108.2</ele><time>2026-04-18T12:33:40.888Z</time></trkpt><trkpt lat="43.78564" lon="12.7164433"><ele>109.0</ele><time>2026-04-18T12:33:41.888Z</time></trkpt><trkpt lat="43.785695" lon="12.7163183"><ele>109.0</ele><time>2026-04-18T12:33:42.889Z</time></trkpt><trkpt lat="43.7857483" lon="12.7162117"><ele>109.0</ele><time>2026-04-18T12:33:43.888Z</time></trkpt><trkpt lat="43.7857933" lon="12.7161217"><ele>109.0</ele><time>2026-04-18T12:33:44.888Z</time></trkpt><trkpt lat="43.7858333" lon="12.7160383"><ele>109.0</ele><time>2026-04-18T12:33:45.888Z</time></trkpt><trkpt lat="43.7858817" lon="12.7159317"><ele>109.0</ele><time>2026-04-18T12:33:47.887Z</time></trkpt><trkpt lat="43.7857683" lon="12.7160167"><ele>109.0</ele><time>2026-04-18T12:33:52.888Z</time></trkpt><trkpt lat="43.7857033" lon="12.716095"><ele>109.0</ele><time>2026-04-18T12:33:53.887Z</time></trkpt><trkpt lat="43.7856417" lon="12.7161617"><ele>109.0</ele><time>2026-04-18T12:33:54.889Z</time></trkpt><trkpt lat="43.7855817" lon="12.7162117"><ele>109.0</ele><time>2026-04-18T12:33:55.889Z</time></trkpt><trkpt lat="43.7855217" lon="12.7162467"><ele>109.0</ele><time>2026-04-18T12:33:56.889Z</time></trkpt><trkpt lat="43.7854617" lon="12.7162867"><ele>109.0</ele><time>2026-04-18T12:33:57.886Z</time></trkpt><trkpt lat="43.7853983" lon="12.716335"><ele>109.0</ele><time>2026-04-18T12:33:58.887Z</time></trkpt><trkpt lat="43.7853317" lon="12.7163933"><ele>109.0</ele><time>2026-04-18T12:33:59.886Z</time></trkpt><trkpt lat="43.7852717" lon="12.7164517"><ele>109.0</ele><time>2026-04-18T12:34:00.888Z</time></trkpt><trkpt lat="43.78517" lon="12.7165433"><ele>109.0</ele><time>2026-04-18T12:34:02.887Z</time></trkpt><trkpt lat="43.7850633" lon="12.716645"><ele>109.0</ele><time>2026-04-18T12:34:04.89Z</time></trkpt><trkpt lat="43.7850083" lon="12.7167017"><ele>109.0</ele><time>2026-04-18T12:34:05.887Z</time></trkpt><trkpt lat="43.78496" lon="12.71676"><ele>108.80000000000001</ele><time>2026-04-18T12:34:06.891Z</time></trkpt><trkpt lat="43.7849" lon="12.7168483"><ele>108.60000000000001</ele><time>2026-04-18T12:34:08.889Z</time></trkpt><trkpt lat="43.7848533" lon="12.71693"><ele>108.4</ele><time>2026-04-18T12:34:12.886Z</time></trkpt><trkpt lat="43.7849217" lon="12.7168333"><ele>108.2</ele><time>2026-04-18T12:34:23.887Z</time></trkpt><trkpt lat="43.7849883" lon="12.7167267"><ele>108.0</ele><time>2026-04-18T12:34:25.887Z</time></trkpt><trkpt lat="43.7850783" lon="12.7166267"><ele>108.16666666666667</ele><time>2026-04-18T12:34:27.887Z</time></trkpt><trkpt lat="43.78513" lon="12.71657"><ele>108.33333333333334</ele><time>2026-04-18T12:34:28.89Z</time></trkpt><trkpt lat="43.7851867" lon="12.716515"><ele>108.5</ele><time>2026-04-18T12:34:29.887Z</time></trkpt><trkpt lat="43.7852467" lon="12.7164633"><ele>108.66666666666667</ele><time>2026-04-18T12:34:30.886Z</time></trkpt><trkpt lat="43.7853" lon="12.7164117"><ele>108.83333333333334</ele><time>2026-04-18T12:34:31.886Z</time></trkpt><trkpt lat="43.7853967" lon="12.7163167"><ele>109.0</ele><time>2026-04-18T12:34:33.889Z</time></trkpt><trkpt lat="43.78546" lon="12.7162883"><ele>109.00000000000001</ele><time>2026-04-18T12:34:34.887Z</time></trkpt><trkpt lat="43.7855367" lon="12.71625"><ele>109.0</ele><time>2026-04-18T12:34:35.889Z</time></trkpt><trkpt lat="43.7856183" lon="12.7161933"><ele>109.0</ele><time>2026-04-18T12:34:36.887Z</time></trkpt><trkpt lat="43.78569" lon="12.71612"><ele>109.0</ele><time>2026-04-18T12:34:37.886Z</time></trkpt><trkpt lat="43.78575" lon="12.71604"><ele>109.00000000000001</ele><time>2026-04-18T12:34:38.886Z</time></trkpt><trkpt lat="43.785815" lon="12.7159733"><ele>109.0</ele><time>2026-04-18T12:34:39.888Z</time></trkpt><trkpt lat="43.7858733" lon="12.7159067"><ele>109.16666666666667</ele><time>2026-04-18T12:34:40.887Z</time></trkpt><trkpt lat="43.7859233" lon="12.7158433"><ele>109.33333333333334</ele><time>2026-04-18T12:34:41.886Z</time></trkpt><trkpt lat="43.7859783" lon="12.7157867"><ele>109.5</ele><time>2026-04-18T12:34:42.888Z</time></trkpt><trkpt lat="43.78603" lon="12.7157333"><ele>109.66666666666666</ele><time>2026-04-18T12:34:43.889Z</time></trkpt><trkpt lat="43.7861067" lon="12.7156183"><ele>109.83333333333333</ele><time>2026-04-18T12:34:45.889Z</time></trkpt><trkpt lat="43.7861483" lon="12.7155367"><ele>110.0</ele><time>2026-04-18T12:34:47.887Z</time></trkpt><trkpt lat="43.7861217" lon="12.7154483"><ele>110.0</ele><time>2026-04-18T12:34:51.888Z</time></trkpt><trkpt lat="43.7860433" lon="12.715315"><ele>110.0</ele><time>2026-04-18T12:34:53.889Z</time></trkpt><trkpt lat="43.7859733" lon="12.715215"><ele>110.0</ele><time>2026-04-18T12:34:54.89Z</time></trkpt><trkpt lat="43.7859067" lon="12.71511"><ele>110.0</ele><time>2026-04-18T12:34:55.889Z</time></trkpt><trkpt lat="43.7858417" lon="12.7150083"><ele>110.0</ele><time>2026-04-18T12:34:56.889Z</time></trkpt><trkpt lat="43.7857733" lon="12.7149033"><ele>109.6</ele><time>2026-04-18T12:34:57.886Z</time></trkpt><trkpt lat="43.7857033" lon="12.7147983"><ele>109.2</ele><time>2026-04-18T12:34:58.888Z</time></trkpt><trkpt lat="43.785635" lon="12.71469"><ele>108.80000000000001</ele><time>2026-04-18T12:34:59.888Z</time></trkpt><trkpt lat="43.7855717" lon="12.7145917"><ele>108.4</ele><time>2026-04-18T12:35:00.887Z</time></trkpt><trkpt lat="43.78551" lon="12.714505"><ele>108.0</ele><time>2026-04-18T12:35:01.889Z</time></trkpt><trkpt lat="43.785455" lon="12.71443"><ele>108.0</ele><time>2026-04-18T12:35:02.891Z</time></trkpt><trkpt lat="43.7854067" lon="12.71436"><ele>108.00000000000001</ele><time>2026-04-18T12:35:03.886Z</time></trkpt><trkpt lat="43.7853417" lon="12.71426"><ele>108.00000000000001</ele><time>2026-04-18T12:35:05.889Z</time></trkpt><trkpt lat="43.7852467" lon="12.7143167"><ele>108.0</ele><time>2026-04-18T12:35:41.889Z</time></trkpt><trkpt lat="43.7851467" lon="12.7144267"><ele>108.0</ele><time>2026-04-18T12:35:43.89Z</time></trkpt><trkpt lat="43.785085" lon="12.7144883"><ele>108.0</ele><time>2026-04-18T12:35:44.888Z</time></trkpt><trkpt lat="43.7850167" lon="12.7145567"><ele>108.00000000000001</ele><time>2026-04-18T12:35:45.888Z</time></trkpt><trkpt lat="43.7849483" lon="12.71463"><ele>108.00000000000001</ele><time>2026-04-18T12:35:46.885Z</time></trkpt><trkpt lat="43.7848717" lon="12.7147067"><ele>108.0</ele><time>2026-04-18T12:35:47.886Z</time></trkpt><trkpt lat="43.7847883" lon="12.7147883"><ele>108.0</ele><time>2026-04-18T12:35:48.887Z</time></trkpt><trkpt lat="43.7847033" lon="12.714875"><ele>108.0</ele><time>2026-04-18T12:35:49.886Z</time></trkpt><trkpt lat="43.7846133" lon="12.7149667"><ele>108.0</ele><time>2026-04-18T12:35:50.887Z</time></trkpt><trkpt lat="43.7845183" lon="12.7150633"><ele>108.0</ele><time>2026-04-18T12:35:51.886Z</time></trkpt><trkpt lat="43.78442" lon="12.7151617"><ele>108.0</ele><time>2026-04-18T12:35:52.886Z</time></trkpt><trkpt lat="43.7843267" lon="12.7152583"><ele>107.83333333333333</ele><time>2026-04-18T12:35:53.887Z</time></trkpt><trkpt lat="43.7842417" lon="12.7153467"><ele>107.66666666666666</ele><time>2026-04-18T12:35:54.89Z</time></trkpt><trkpt lat="43.7841683" lon="12.7154283"><ele>107.5</ele><time>2026-04-18T12:35:55.888Z</time></trkpt><trkpt lat="43.7841017" lon="12.7154967"><ele>107.33333333333333</ele><time>2026-04-18T12:35:56.887Z</time></trkpt><trkpt lat="43.78404" lon="12.7155583"><ele>107.16666666666666</ele><time>2026-04-18T12:35:57.887Z</time></trkpt><trkpt lat="43.7839867" lon="12.7156183"><ele>107.0</ele><time>2026-04-18T12:35:58.888Z</time></trkpt><trkpt lat="43.7839317" lon="12.7157467"><ele>107.0</ele><time>2026-04-18T12:36:00.888Z</time></trkpt><trkpt lat="43.7839717" lon="12.715915"><ele>106.99999999999999</ele><time>2026-04-18T12:36:02.887Z</time></trkpt><trkpt lat="43.7840083" lon="12.7160267"><ele>106.99999999999999</ele><time>2026-04-18T12:36:03.889Z</time></trkpt><trkpt lat="43.7840667" lon="12.71616"><ele>107.0</ele><time>2026-04-18T12:36:04.888Z</time></trkpt><trkpt lat="43.7841217" lon="12.7162967"><ele>107.0</ele><time>2026-04-18T12:36:05.888Z</time></trkpt><trkpt lat="43.7841783" lon="12.71644"><ele>107.19999999999999</ele><time>2026-04-18T12:36:06.888Z</time></trkpt><trkpt lat="43.7842367" lon="12.7165883"><ele>107.39999999999999</ele><time>2026-04-18T12:36:07.887Z</time></trkpt><trkpt lat="43.7842867" lon="12.7167217"><ele>107.60000000000001</ele><time>2026-04-18T12:36:08.887Z</time></trkpt><trkpt lat="43.78435" lon="12.716825"><ele>107.80000000000001</ele><time>2026-04-18T12:36:09.888Z</time></trkpt><trkpt lat="43.784415" lon="12.7169133"><ele>108.0</ele><time>2026-04-18T12:36:10.889Z</time></trkpt><trkpt lat="43.7844833" lon="12.71699"><ele>108.0</ele><time>2026-04-18T12:36:11.887Z</time></trkpt><trkpt lat="43.7845567" lon="12.717045"><ele>108.00000000000001</ele><time>2026-04-18T12:36:12.887Z</time></trkpt><trkpt lat="43.7846267" lon="12.7170867"><ele>108.00000000000001</ele><time>2026-04-18T12:36:13.889Z</time></trkpt><trkpt lat="43.784695" lon="12.717115"><ele>108.0</ele><time>2026-04-18T12:36:14.886Z</time></trkpt><trkpt lat="43.7848083" lon="12.7171267"><ele>108.0</ele><time>2026-04-18T12:36:16.889Z</time></trkpt><trkpt lat="43.7848867" lon="12.7170083"><ele>108.0</ele><time>2026-04-18T12:36:18.89Z</time></trkpt><trkpt lat="43.78493" lon="12.7169183"><ele>108.00000000000001</ele><time>2026-04-18T12:36:19.889Z</time></trkpt><trkpt lat="43.7849783" lon="12.7168233"><ele>108.00000000000001</ele><time>2026-04-18T12:36:20.887Z</time></trkpt><trkpt lat="43.7850367" lon="12.716725"><ele>108.0</ele><time>2026-04-18T12:36:21.889Z</time></trkpt><trkpt lat="43.7851167" lon="12.7166317"><ele>108.0</ele><time>2026-04-18T12:36:22.889Z</time></trkpt><trkpt lat="43.7852017" lon="12.71655"><ele>108.16666666666667</ele><time>2026-04-18T12:36:23.889Z</time></trkpt><trkpt lat="43.7852833" lon="12.716475"><ele>108.33333333333334</ele><time>2026-04-18T12:36:24.888Z</time></trkpt><trkpt lat="43.78536" lon="12.7164067"><ele>108.5</ele><time>2026-04-18T12:36:25.887Z</time></trkpt><trkpt lat="43.7854267" lon="12.7163483"><ele>108.66666666666667</ele><time>2026-04-18T12:36:26.89Z</time></trkpt><trkpt lat="43.7855" lon="12.71632"><ele>108.83333333333334</ele><time>2026-04-18T12:36:27.889Z</time></trkpt><trkpt lat="43.7855683" lon="12.71629"><ele>109.0</ele><time>2026-04-18T12:36:28.888Z</time></trkpt><trkpt lat="43.78563" lon="12.7162417"><ele>109.00000000000001</ele><time>2026-04-18T12:36:29.887Z</time></trkpt><trkpt lat="43.7856917" lon="12.71618"><ele>109.0</ele><time>2026-04-18T12:36:30.888Z</time></trkpt><trkpt lat="43.7857533" lon="12.7160983"><ele>109.0</ele><time>2026-04-18T12:36:31.888Z</time></trkpt><trkpt lat="43.7858083" lon="12.7160183"><ele>109.0</ele><time>2026-04-18T12:36:32.887Z</time></trkpt><trkpt lat="43.7858567" lon="12.715955"><ele>109.00000000000001</ele><time>2026-04-18T12:36:33.889Z</time></trkpt><trkpt lat="43.7859283" lon="12.7159033"><ele>109.0</ele><time>2026-04-18T12:36:35.888Z</time></trkpt><trkpt lat="43.7859017" lon="12.7159933"><ele>109.0</ele><time>2026-04-18T12:36:38.888Z</time></trkpt><trkpt lat="43.7858633" lon="12.716075"><ele>109.0</ele><time>2026-04-18T12:36:39.888Z</time></trkpt><trkpt lat="43.785815" lon="12.7161717"><ele>109.0</ele><time>2026-04-18T12:36:40.889Z</time></trkpt><trkpt lat="43.78576" lon="12.71629"><ele>109.0</ele><time>2026-04-18T12:36:41.89Z</time></trkpt><trkpt lat="43.785695" lon="12.7164267"><ele>109.0</ele><time>2026-04-18T12:36:42.886Z</time></trkpt><trkpt lat="43.78563" lon="12.7165533"><ele>109.0</ele><time>2026-04-18T12:36:43.887Z</time></trkpt><trkpt lat="43.7855617" lon="12.716675"><ele>109.0</ele><time>2026-04-18T12:36:44.885Z</time></trkpt><trkpt lat="43.78549" lon="12.7167883"><ele>109.0</ele><time>2026-04-18T12:36:45.885Z</time></trkpt><trkpt lat="43.7854233" lon="12.716895"><ele>109.0</ele><time>2026-04-18T12:36:46.885Z</time></trkpt><trkpt lat="43.7853567" lon="12.7169883"><ele>109.0</ele><time>2026-04-18T12:36:47.886Z</time></trkpt><trkpt lat="43.785295" lon="12.717075"><ele>108.83333333333334</ele><time>2026-04-18T12:36:48.887Z</time></trkpt><trkpt lat="43.78524" lon="12.7171467"><ele>108.66666666666667</ele><time>2026-04-18T12:36:49.887Z</time></trkpt><trkpt lat="43.785185" lon="12.7172167"><ele>108.5</ele><time>2026-04-18T12:36:50.887Z</time></trkpt><trkpt lat="43.7851333" lon="12.71727"><ele>108.33333333333334</ele><time>2026-04-18T12:36:51.887Z</time></trkpt><trkpt lat="43.7850383" lon="12.7173867"><ele>108.16666666666667</ele><time>2026-04-18T12:36:53.888Z</time></trkpt><trkpt lat="43.7849933" lon="12.71746"><ele>108.0</ele><time>2026-04-18T12:36:54.885Z</time></trkpt><trkpt lat="43.7849483" lon="12.71755"><ele>108.0</ele><time>2026-04-18T12:36:55.887Z</time></trkpt><trkpt lat="43.7849" lon="12.717645"><ele>108.00000000000001</ele><time>2026-04-18T12:36:56.888Z</time></trkpt><trkpt lat="43.784845" lon="12.71774"><ele>108.00000000000001</ele><time>2026-04-18T12:36:57.889Z</time></trkpt><trkpt lat="43.784785" lon="12.7178383"><ele>108.0</ele><time>2026-04-18T12:36:58.886Z</time></trkpt><trkpt lat="43.7847233" lon="12.717945"><ele>108.0</ele><time>2026-04-18T12:36:59.886Z</time></trkpt><trkpt lat="43.7846617" lon="12.7180517"><ele>108.5</ele><time>2026-04-18T12:37:00.887Z</time></trkpt><trkpt lat="43.7846" lon="12.7181567"><ele>109.0</ele><time>2026-04-18T12:37:01.889Z</time></trkpt><trkpt lat="43.78454" lon="12.718255"><ele>109.5</ele><time>2026-04-18T12:37:02.886Z</time></trkpt><trkpt lat="43.7844833" lon="12.7183533"><ele>110.0</ele><time>2026-04-18T12:37:03.887Z</time></trkpt><trkpt lat="43.7844317" lon="12.718445"><ele>110.5</ele><time>2026-04-18T12:37:04.887Z</time></trkpt><trkpt lat="43.78438" lon="12.7185283"><ele>111.0</ele><time>2026-04-18T12:37:05.887Z</time></trkpt><trkpt lat="43.784335" lon="12.7186033"><ele>111.0</ele><time>2026-04-18T12:37:06.888Z</time></trkpt><trkpt lat="43.78429" lon="12.71868"><ele>111.0</ele><time>2026-04-18T12:37:07.887Z</time></trkpt><trkpt lat="43.7842467" lon="12.7187667"><ele>111.0</ele><time>2026-04-18T12:37:08.886Z</time></trkpt><trkpt lat="43.7842083" lon="12.7188533"><ele>111.0</ele><time>2026-04-18T12:37:09.886Z</time></trkpt><trkpt lat="43.78417" lon="12.718935"><ele>111.0</ele><time>2026-04-18T12:37:10.886Z</time></trkpt><trkpt lat="43.78409" lon="12.7190433"><ele>111.0</ele><time>2026-04-18T12:37:12.888Z</time></trkpt><trkpt lat="43.78403" lon="12.7190067"><ele>111.0</ele><time>2026-04-18T12:37:14.888Z</time></trkpt><trkpt lat="43.78397" lon="12.71894"><ele>111.0</ele><time>2026-04-18T12:37:17.886Z</time></trkpt><trkpt lat="43.784015" lon="12.719045"><ele>111.0</ele><time>2026-04-18T12:37:22.889Z</time></trkpt><trkpt lat="43.7840917" lon="12.719085"><ele>111.0</ele><time>2026-04-18T12:37:24.889Z</time></trkpt><trkpt lat="43.7841517" lon="12.7190333"><ele>111.0</ele><time>2026-04-18T12:37:26.888Z</time></trkpt><trkpt lat="43.7842267" lon="12.7189083"><ele>111.0</ele><time>2026-04-18T12:37:28.885Z</time></trkpt><trkpt lat="43.7842867" lon="12.7188133"><ele>111.0</ele><time>2026-04-18T12:37:30.889Z</time></trkpt></trkseg></trk></gpx>